<?xml version="1.0" encoding="UTF-8" standalone="no" ?>
<gpx xmlns="http://www.topografix.com/GPX/1/1" xmlns:xsi="http://www.w3.org/2001/XMLSchema-instance" xsi:schemaLocation="http://www.topografix.com/GPX/1/1 http://www.topografix.com/GPX/1/1/gpx.xsd" version="1.1" creator="VisuGPX - https://www.visugpx.com">
  <metadata>
    <name>Pornichet 12/12/2021</name>
    <desc><![CDATA[Sortie vtt dimanche 12 décembre 2021]]></desc>
  </metadata>
  <trk>
    <name><![CDATA[Pornichet Cyclisme]]></name>
    <trkseg>
      <trkpt lat="47.26413" lon="-2.31579">
        <ele>9.9</ele>
        <time>2021-12-12T07:54:45.000Z</time>
      </trkpt>
      <trkpt lat="47.26414" lon="-2.3159">
        <ele>9.9</ele>
        <time>2021-12-12T07:54:47.000Z</time>
      </trkpt>
      <trkpt lat="47.26414" lon="-2.31597">
        <ele>9.9</ele>
        <time>2021-12-12T07:54:48.000Z</time>
      </trkpt>
      <trkpt lat="47.26414" lon="-2.31604">
        <ele>1</ele>
        <time>2021-12-12T07:54:49.000Z</time>
      </trkpt>
      <trkpt lat="47.26415" lon="-2.3161">
        <ele>2</ele>
        <time>2021-12-12T07:54:50.000Z</time>
      </trkpt>
      <trkpt lat="47.26415" lon="-2.31616">
        <ele>3.2000000476837</ele>
        <time>2021-12-12T07:54:51.000Z</time>
      </trkpt>
      <trkpt lat="47.26414" lon="-2.31623">
        <ele>4.1999998092651</ele>
        <time>2021-12-12T07:54:52.000Z</time>
      </trkpt>
      <trkpt lat="47.26413" lon="-2.31648">
        <ele>4.1999998092651</ele>
        <time>2021-12-12T07:54:56.000Z</time>
      </trkpt>
      <trkpt lat="47.26413" lon="-2.31669">
        <ele>4.1999998092651</ele>
        <time>2021-12-12T07:55:00.000Z</time>
      </trkpt>
      <trkpt lat="47.26411" lon="-2.31671">
        <ele>4.1999998092651</ele>
        <time>2021-12-12T07:55:01.000Z</time>
      </trkpt>
      <trkpt lat="47.26399" lon="-2.31678">
        <ele>4.1999998092651</ele>
        <time>2021-12-12T07:55:04.000Z</time>
      </trkpt>
      <trkpt lat="47.26395" lon="-2.3168">
        <ele>4.1999998092651</ele>
        <time>2021-12-12T07:55:05.000Z</time>
      </trkpt>
      <trkpt lat="47.2639" lon="-2.31683">
        <ele>4.1999998092651</ele>
        <time>2021-12-12T07:55:06.000Z</time>
      </trkpt>
      <trkpt lat="47.26366" lon="-2.31697">
        <ele>3</ele>
        <time>2021-12-12T07:55:11.000Z</time>
      </trkpt>
      <trkpt lat="47.26361" lon="-2.317">
        <ele>1.6000000238419</ele>
        <time>2021-12-12T07:55:12.000Z</time>
      </trkpt>
      <trkpt lat="47.26357" lon="-2.31703">
        <ele>0.40000000596046</ele>
        <time>2021-12-12T07:55:13.000Z</time>
      </trkpt>
      <trkpt lat="47.26352" lon="-2.31706">
        <ele>-1</ele>
        <time>2021-12-12T07:55:14.000Z</time>
      </trkpt>
      <trkpt lat="47.26346" lon="-2.31708">
        <ele>-2.4000000953674</ele>
        <time>2021-12-12T07:55:15.000Z</time>
      </trkpt>
      <trkpt lat="47.26334" lon="-2.31713">
        <ele>-2.4000000953674</ele>
        <time>2021-12-12T07:55:17.000Z</time>
      </trkpt>
      <trkpt lat="47.26314" lon="-2.31723">
        <ele>-2.7999999523163</ele>
        <time>2021-12-12T07:55:21.000Z</time>
      </trkpt>
      <trkpt lat="47.2631" lon="-2.31726">
        <ele>-3.2000000476837</ele>
        <time>2021-12-12T07:55:22.000Z</time>
      </trkpt>
      <trkpt lat="47.26308" lon="-2.3173">
        <ele>-3.5999999046326</ele>
        <time>2021-12-12T07:55:23.000Z</time>
      </trkpt>
      <trkpt lat="47.26307" lon="-2.31735">
        <ele>-4</ele>
        <time>2021-12-12T07:55:24.000Z</time>
      </trkpt>
      <trkpt lat="47.26306" lon="-2.3174">
        <ele>-4.5999999046326</ele>
        <time>2021-12-12T07:55:25.000Z</time>
      </trkpt>
      <trkpt lat="47.2631" lon="-2.31768">
        <ele>-4.5999999046326</ele>
        <time>2021-12-12T07:55:30.000Z</time>
      </trkpt>
      <trkpt lat="47.26312" lon="-2.31793">
        <ele>-4.5999999046326</ele>
        <time>2021-12-12T07:55:35.000Z</time>
      </trkpt>
      <trkpt lat="47.26312" lon="-2.31818">
        <ele>-4.5999999046326</ele>
        <time>2021-12-12T07:55:40.000Z</time>
      </trkpt>
      <trkpt lat="47.26309" lon="-2.31845">
        <ele>-4.5999999046326</ele>
        <time>2021-12-12T07:55:45.000Z</time>
      </trkpt>
      <trkpt lat="47.26307" lon="-2.31869">
        <ele>-4.5999999046326</ele>
        <time>2021-12-12T07:55:50.000Z</time>
      </trkpt>
      <trkpt lat="47.26304" lon="-2.31885">
        <ele>-4.5999999046326</ele>
        <time>2021-12-12T07:55:55.000Z</time>
      </trkpt>
      <trkpt lat="47.26298" lon="-2.31894">
        <ele>-4.5999999046326</ele>
        <time>2021-12-12T07:55:59.000Z</time>
      </trkpt>
      <trkpt lat="47.26294" lon="-2.31901">
        <ele>-4.5999999046326</ele>
        <time>2021-12-12T07:56:01.000Z</time>
      </trkpt>
      <trkpt lat="47.26279" lon="-2.31926">
        <ele>-4.5999999046326</ele>
        <time>2021-12-12T07:56:07.000Z</time>
      </trkpt>
      <trkpt lat="47.26277" lon="-2.3193">
        <ele>-4.5999999046326</ele>
        <time>2021-12-12T07:56:08.000Z</time>
      </trkpt>
      <trkpt lat="47.26265" lon="-2.31955">
        <ele>-4.5999999046326</ele>
        <time>2021-12-12T07:56:14.000Z</time>
      </trkpt>
      <trkpt lat="47.2626" lon="-2.31961">
        <ele>-5</ele>
        <time>2021-12-12T07:56:16.000Z</time>
      </trkpt>
      <trkpt lat="47.26255" lon="-2.31963">
        <ele>-5.4000000953674</ele>
        <time>2021-12-12T07:56:17.000Z</time>
      </trkpt>
      <trkpt lat="47.26252" lon="-2.31966">
        <ele>-5.8000001907349</ele>
        <time>2021-12-12T07:56:18.000Z</time>
      </trkpt>
      <trkpt lat="47.26249" lon="-2.31968">
        <ele>-6.1999998092651</ele>
        <time>2021-12-12T07:56:19.000Z</time>
      </trkpt>
      <trkpt lat="47.26247" lon="-2.31971">
        <ele>-6.5999999046326</ele>
        <time>2021-12-12T07:56:20.000Z</time>
      </trkpt>
      <trkpt lat="47.26238" lon="-2.31983">
        <ele>-6.5999999046326</ele>
        <time>2021-12-12T07:56:25.000Z</time>
      </trkpt>
      <trkpt lat="47.26221" lon="-2.31996">
        <ele>-6.5999999046326</ele>
        <time>2021-12-12T07:56:31.000Z</time>
      </trkpt>
      <trkpt lat="47.26217" lon="-2.32002">
        <ele>-6.5999999046326</ele>
        <time>2021-12-12T07:56:33.000Z</time>
      </trkpt>
      <trkpt lat="47.26215" lon="-2.3201">
        <ele>-6.5999999046326</ele>
        <time>2021-12-12T07:56:35.000Z</time>
      </trkpt>
      <trkpt lat="47.26212" lon="-2.32019">
        <ele>-6.5999999046326</ele>
        <time>2021-12-12T07:56:38.000Z</time>
      </trkpt>
      <trkpt lat="47.26208" lon="-2.32021">
        <ele>-6.5999999046326</ele>
        <time>2021-12-12T07:56:40.000Z</time>
      </trkpt>
      <trkpt lat="47.26202" lon="-2.32021">
        <ele>-6.5999999046326</ele>
        <time>2021-12-12T07:56:42.000Z</time>
      </trkpt>
      <trkpt lat="47.26188" lon="-2.32025">
        <ele>-6.5999999046326</ele>
        <time>2021-12-12T07:56:46.000Z</time>
      </trkpt>
      <trkpt lat="47.26171" lon="-2.32042">
        <ele>-6.5999999046326</ele>
        <time>2021-12-12T07:56:51.000Z</time>
      </trkpt>
      <trkpt lat="47.26161" lon="-2.32063">
        <ele>-6.5999999046326</ele>
        <time>2021-12-12T07:56:55.000Z</time>
      </trkpt>
      <trkpt lat="47.26159" lon="-2.3207">
        <ele>-6.5999999046326</ele>
        <time>2021-12-12T07:56:56.000Z</time>
      </trkpt>
      <trkpt lat="47.26157" lon="-2.32075">
        <ele>-6.5999999046326</ele>
        <time>2021-12-12T07:56:57.000Z</time>
      </trkpt>
      <trkpt lat="47.26146" lon="-2.32105">
        <ele>-6.5999999046326</ele>
        <time>2021-12-12T07:57:02.000Z</time>
      </trkpt>
      <trkpt lat="47.26141" lon="-2.32124">
        <ele>-6.5999999046326</ele>
        <time>2021-12-12T07:57:05.000Z</time>
      </trkpt>
      <trkpt lat="47.26136" lon="-2.32144">
        <ele>-6.5999999046326</ele>
        <time>2021-12-12T07:57:08.000Z</time>
      </trkpt>
      <trkpt lat="47.26134" lon="-2.3215">
        <ele>-6.5999999046326</ele>
        <time>2021-12-12T07:57:09.000Z</time>
      </trkpt>
      <trkpt lat="47.26122" lon="-2.32185">
        <ele>-6.5999999046326</ele>
        <time>2021-12-12T07:57:15.000Z</time>
      </trkpt>
      <trkpt lat="47.26108" lon="-2.32217">
        <ele>-6.5999999046326</ele>
        <time>2021-12-12T07:57:21.000Z</time>
      </trkpt>
      <trkpt lat="47.26102" lon="-2.32227">
        <ele>-6.5999999046326</ele>
        <time>2021-12-12T07:57:23.000Z</time>
      </trkpt>
      <trkpt lat="47.26088" lon="-2.32246">
        <ele>-6.5999999046326</ele>
        <time>2021-12-12T07:57:27.000Z</time>
      </trkpt>
      <trkpt lat="47.2606" lon="-2.32279">
        <ele>-6.5999999046326</ele>
        <time>2021-12-12T07:57:35.000Z</time>
      </trkpt>
      <trkpt lat="47.26029" lon="-2.32312">
        <ele>-6.5999999046326</ele>
        <time>2021-12-12T07:57:43.000Z</time>
      </trkpt>
      <trkpt lat="47.26004" lon="-2.32343">
        <ele>-6.5999999046326</ele>
        <time>2021-12-12T07:57:50.000Z</time>
      </trkpt>
      <trkpt lat="47.2597" lon="-2.32384">
        <ele>-6.5999999046326</ele>
        <time>2021-12-12T07:57:59.000Z</time>
      </trkpt>
      <trkpt lat="47.25958" lon="-2.324">
        <ele>-6.5999999046326</ele>
        <time>2021-12-12T07:58:03.000Z</time>
      </trkpt>
      <trkpt lat="47.25947" lon="-2.32413">
        <ele>-6.5999999046326</ele>
        <time>2021-12-12T07:58:06.000Z</time>
      </trkpt>
      <trkpt lat="47.25944" lon="-2.32417">
        <ele>-6.5999999046326</ele>
        <time>2021-12-12T07:58:07.000Z</time>
      </trkpt>
      <trkpt lat="47.2593" lon="-2.32435">
        <ele>-6.5999999046326</ele>
        <time>2021-12-12T07:58:11.000Z</time>
      </trkpt>
      <trkpt lat="47.25926" lon="-2.32439">
        <ele>-6.5999999046326</ele>
        <time>2021-12-12T07:58:12.000Z</time>
      </trkpt>
      <trkpt lat="47.2591" lon="-2.3246">
        <ele>-6.5999999046326</ele>
        <time>2021-12-12T07:58:17.000Z</time>
      </trkpt>
      <trkpt lat="47.25892" lon="-2.32475">
        <ele>-6.5999999046326</ele>
        <time>2021-12-12T07:58:22.000Z</time>
      </trkpt>
      <trkpt lat="47.25888" lon="-2.32477">
        <ele>-6.5999999046326</ele>
        <time>2021-12-12T07:58:23.000Z</time>
      </trkpt>
      <trkpt lat="47.25855" lon="-2.32481">
        <ele>-6.5999999046326</ele>
        <time>2021-12-12T07:58:30.000Z</time>
      </trkpt>
      <trkpt lat="47.25837" lon="-2.32475">
        <ele>-6.5999999046326</ele>
        <time>2021-12-12T07:58:34.000Z</time>
      </trkpt>
      <trkpt lat="47.25828" lon="-2.32472">
        <ele>-6.5999999046326</ele>
        <time>2021-12-12T07:58:36.000Z</time>
      </trkpt>
      <trkpt lat="47.25804" lon="-2.32464">
        <ele>-6.5999999046326</ele>
        <time>2021-12-12T07:58:42.000Z</time>
      </trkpt>
      <trkpt lat="47.25785" lon="-2.32461">
        <ele>-6.5999999046326</ele>
        <time>2021-12-12T07:58:47.000Z</time>
      </trkpt>
      <trkpt lat="47.25782" lon="-2.32456">
        <ele>-6.5999999046326</ele>
        <time>2021-12-12T07:58:48.000Z</time>
      </trkpt>
      <trkpt lat="47.25775" lon="-2.32443">
        <ele>-6.5999999046326</ele>
        <time>2021-12-12T07:58:51.000Z</time>
      </trkpt>
      <trkpt lat="47.25772" lon="-2.32439">
        <ele>-6.5999999046326</ele>
        <time>2021-12-12T07:58:52.000Z</time>
      </trkpt>
      <trkpt lat="47.25768" lon="-2.32436">
        <ele>-6.5999999046326</ele>
        <time>2021-12-12T07:58:53.000Z</time>
      </trkpt>
      <trkpt lat="47.25759" lon="-2.32434">
        <ele>-6.5999999046326</ele>
        <time>2021-12-12T07:58:55.000Z</time>
      </trkpt>
      <trkpt lat="47.25726" lon="-2.32432">
        <ele>-6.5999999046326</ele>
        <time>2021-12-12T07:59:02.000Z</time>
      </trkpt>
      <trkpt lat="47.25722" lon="-2.32432">
        <ele>-6.5999999046326</ele>
        <time>2021-12-12T07:59:03.000Z</time>
      </trkpt>
      <trkpt lat="47.25708" lon="-2.32431">
        <ele>-6.5999999046326</ele>
        <time>2021-12-12T07:59:06.000Z</time>
      </trkpt>
      <trkpt lat="47.25695" lon="-2.32432">
        <ele>-6.5999999046326</ele>
        <time>2021-12-12T07:59:09.000Z</time>
      </trkpt>
      <trkpt lat="47.25671" lon="-2.32432">
        <ele>-6.5999999046326</ele>
        <time>2021-12-12T07:59:15.000Z</time>
      </trkpt>
      <trkpt lat="47.25668" lon="-2.32435">
        <ele>-6.5999999046326</ele>
        <time>2021-12-12T07:59:16.000Z</time>
      </trkpt>
      <trkpt lat="47.25666" lon="-2.32446">
        <ele>-6.5999999046326</ele>
        <time>2021-12-12T07:59:18.000Z</time>
      </trkpt>
      <trkpt lat="47.25666" lon="-2.32452">
        <ele>-6.1999998092651</ele>
        <time>2021-12-12T07:59:19.000Z</time>
      </trkpt>
      <trkpt lat="47.25667" lon="-2.32457">
        <ele>-5.8000001907349</ele>
        <time>2021-12-12T07:59:20.000Z</time>
      </trkpt>
      <trkpt lat="47.25668" lon="-2.32463">
        <ele>-5.4000000953674</ele>
        <time>2021-12-12T07:59:21.000Z</time>
      </trkpt>
      <trkpt lat="47.2567" lon="-2.32469">
        <ele>-5</ele>
        <time>2021-12-12T07:59:22.000Z</time>
      </trkpt>
      <trkpt lat="47.25672" lon="-2.32475">
        <ele>-4.5999999046326</ele>
        <time>2021-12-12T07:59:23.000Z</time>
      </trkpt>
      <trkpt lat="47.25676" lon="-2.32485">
        <ele>-4.5999999046326</ele>
        <time>2021-12-12T07:59:25.000Z</time>
      </trkpt>
      <trkpt lat="47.25683" lon="-2.32506">
        <ele>-4.5999999046326</ele>
        <time>2021-12-12T07:59:29.000Z</time>
      </trkpt>
      <trkpt lat="47.25692" lon="-2.32532">
        <ele>-4.1999998092651</ele>
        <time>2021-12-12T07:59:34.000Z</time>
      </trkpt>
      <trkpt lat="47.25693" lon="-2.32538">
        <ele>-3.7999999523163</ele>
        <time>2021-12-12T07:59:35.000Z</time>
      </trkpt>
      <trkpt lat="47.25695" lon="-2.32543">
        <ele>-3.2000000476837</ele>
        <time>2021-12-12T07:59:36.000Z</time>
      </trkpt>
      <trkpt lat="47.25697" lon="-2.32549">
        <ele>-2.7999999523163</ele>
        <time>2021-12-12T07:59:37.000Z</time>
      </trkpt>
      <trkpt lat="47.25698" lon="-2.32554">
        <ele>-2.4000000953674</ele>
        <time>2021-12-12T07:59:38.000Z</time>
      </trkpt>
      <trkpt lat="47.25703" lon="-2.3257">
        <ele>-2.4000000953674</ele>
        <time>2021-12-12T07:59:41.000Z</time>
      </trkpt>
      <trkpt lat="47.25706" lon="-2.32587">
        <ele>-2.4000000953674</ele>
        <time>2021-12-12T07:59:44.000Z</time>
      </trkpt>
      <trkpt lat="47.25712" lon="-2.3262">
        <ele>-2</ele>
        <time>2021-12-12T07:59:50.000Z</time>
      </trkpt>
      <trkpt lat="47.25712" lon="-2.32626">
        <ele>-1.2000000476837</ele>
        <time>2021-12-12T07:59:51.000Z</time>
      </trkpt>
      <trkpt lat="47.25711" lon="-2.3263">
        <ele>-0.80000001192093</ele>
        <time>2021-12-12T07:59:52.000Z</time>
      </trkpt>
      <trkpt lat="47.25708" lon="-2.32634">
        <ele>-0.40000000596046</ele>
        <time>2021-12-12T07:59:53.000Z</time>
      </trkpt>
      <trkpt lat="47.25706" lon="-2.32637">
        <ele>-0.40000000596046</ele>
        <time>2021-12-12T07:59:54.000Z</time>
      </trkpt>
      <trkpt lat="47.25694" lon="-2.32642">
        <ele>-0.40000000596046</ele>
        <time>2021-12-12T07:59:57.000Z</time>
      </trkpt>
      <trkpt lat="47.25686" lon="-2.32645">
        <ele>-0.40000000596046</ele>
        <time>2021-12-12T07:59:59.000Z</time>
      </trkpt>
      <trkpt lat="47.25665" lon="-2.32653">
        <ele>11.1</ele>
        <time>2021-12-12T08:00:05.000Z</time>
      </trkpt>
      <trkpt lat="47.25661" lon="-2.32655">
        <ele>0.40000000596046</ele>
        <time>2021-12-12T08:00:06.000Z</time>
      </trkpt>
      <trkpt lat="47.25658" lon="-2.32656">
        <ele>0.80000001192093</ele>
        <time>2021-12-12T08:00:07.000Z</time>
      </trkpt>
      <trkpt lat="47.25654" lon="-2.32658">
        <ele>1.2000000476837</ele>
        <time>2021-12-12T08:00:08.000Z</time>
      </trkpt>
      <trkpt lat="47.2565" lon="-2.32659">
        <ele>1.6000000238419</ele>
        <time>2021-12-12T08:00:09.000Z</time>
      </trkpt>
      <trkpt lat="47.25628" lon="-2.3267">
        <ele>1.6000000238419</ele>
        <time>2021-12-12T08:00:15.000Z</time>
      </trkpt>
      <trkpt lat="47.25602" lon="-2.32681">
        <ele>1.6000000238419</ele>
        <time>2021-12-12T08:00:22.000Z</time>
      </trkpt>
      <trkpt lat="47.25574" lon="-2.32692">
        <ele>1.6000000238419</ele>
        <time>2021-12-12T08:00:29.000Z</time>
      </trkpt>
      <trkpt lat="47.25545" lon="-2.32703">
        <ele>1.6000000238419</ele>
        <time>2021-12-12T08:00:36.000Z</time>
      </trkpt>
      <trkpt lat="47.25516" lon="-2.3271">
        <ele>1.6000000238419</ele>
        <time>2021-12-12T08:00:43.000Z</time>
      </trkpt>
      <trkpt lat="47.25496" lon="-2.32712">
        <ele>1.6000000238419</ele>
        <time>2021-12-12T08:00:48.000Z</time>
      </trkpt>
      <trkpt lat="47.25492" lon="-2.32714">
        <ele>1.6000000238419</ele>
        <time>2021-12-12T08:00:49.000Z</time>
      </trkpt>
      <trkpt lat="47.25488" lon="-2.32717">
        <ele>1.6000000238419</ele>
        <time>2021-12-12T08:00:50.000Z</time>
      </trkpt>
      <trkpt lat="47.25477" lon="-2.32728">
        <ele>1.6000000238419</ele>
        <time>2021-12-12T08:00:53.000Z</time>
      </trkpt>
      <trkpt lat="47.2545" lon="-2.32762">
        <ele>1.6000000238419</ele>
        <time>2021-12-12T08:01:01.000Z</time>
      </trkpt>
      <trkpt lat="47.25443" lon="-2.32776">
        <ele>1.6000000238419</ele>
        <time>2021-12-12T08:01:05.000Z</time>
      </trkpt>
      <trkpt lat="47.25435" lon="-2.32793">
        <ele>1.6000000238419</ele>
        <time>2021-12-12T08:01:09.000Z</time>
      </trkpt>
      <trkpt lat="47.25432" lon="-2.32798">
        <ele>1.6000000238419</ele>
        <time>2021-12-12T08:01:10.000Z</time>
      </trkpt>
      <trkpt lat="47.2541" lon="-2.32828">
        <ele>1.6000000238419</ele>
        <time>2021-12-12T08:01:16.000Z</time>
      </trkpt>
      <trkpt lat="47.25379" lon="-2.32863">
        <ele>1.6000000238419</ele>
        <time>2021-12-12T08:01:24.000Z</time>
      </trkpt>
      <trkpt lat="47.25351" lon="-2.3289">
        <ele>1.6000000238419</ele>
        <time>2021-12-12T08:01:31.000Z</time>
      </trkpt>
      <trkpt lat="47.25326" lon="-2.32911">
        <ele>1.6000000238419</ele>
        <time>2021-12-12T08:01:37.000Z</time>
      </trkpt>
      <trkpt lat="47.25323" lon="-2.32915">
        <ele>1.6000000238419</ele>
        <time>2021-12-12T08:01:38.000Z</time>
      </trkpt>
      <trkpt lat="47.25316" lon="-2.32925">
        <ele>1.6000000238419</ele>
        <time>2021-12-12T08:01:40.000Z</time>
      </trkpt>
      <trkpt lat="47.25312" lon="-2.32938">
        <ele>1.6000000238419</ele>
        <time>2021-12-12T08:01:42.000Z</time>
      </trkpt>
      <trkpt lat="47.25315" lon="-2.32957">
        <ele>1.6000000238419</ele>
        <time>2021-12-12T08:01:45.000Z</time>
      </trkpt>
      <trkpt lat="47.25317" lon="-2.32963">
        <ele>1.6000000238419</ele>
        <time>2021-12-12T08:01:46.000Z</time>
      </trkpt>
      <trkpt lat="47.25335" lon="-2.33005">
        <ele>1.6000000238419</ele>
        <time>2021-12-12T08:01:53.000Z</time>
      </trkpt>
      <trkpt lat="47.25349" lon="-2.33047">
        <ele>1.6000000238419</ele>
        <time>2021-12-12T08:02:00.000Z</time>
      </trkpt>
      <trkpt lat="47.25355" lon="-2.33065">
        <ele>1.6000000238419</ele>
        <time>2021-12-12T08:02:03.000Z</time>
      </trkpt>
      <trkpt lat="47.25362" lon="-2.33088">
        <ele>1.6000000238419</ele>
        <time>2021-12-12T08:02:07.000Z</time>
      </trkpt>
      <trkpt lat="47.25366" lon="-2.33097">
        <ele>1.2000000476837</ele>
        <time>2021-12-12T08:02:09.000Z</time>
      </trkpt>
      <trkpt lat="47.25367" lon="-2.33099">
        <ele>0.80000001192093</ele>
        <time>2021-12-12T08:02:10.000Z</time>
      </trkpt>
      <trkpt lat="47.25367" lon="-2.33101">
        <ele>0.40000000596046</ele>
        <time>2021-12-12T08:02:11.000Z</time>
      </trkpt>
      <trkpt lat="47.25367" lon="-2.33101">
        <ele>8</ele>
        <time>2021-12-12T08:02:12.000Z</time>
      </trkpt>
      <trkpt lat="47.25367" lon="-2.33101">
        <ele>-0.40000000596046</ele>
        <time>2021-12-12T08:02:13.000Z</time>
      </trkpt>
      <trkpt lat="47.25367" lon="-2.33101">
        <ele>-0.40000000596046</ele>
        <time>2021-12-12T08:02:14.000Z</time>
      </trkpt>
      <trkpt lat="47.25371" lon="-2.33108">
        <ele>3.5999999046326</ele>
        <time>2021-12-12T08:11:53.000Z</time>
      </trkpt>
      <trkpt lat="47.25372" lon="-2.3311">
        <ele>3.5999999046326</ele>
        <time>2021-12-12T08:11:54.000Z</time>
      </trkpt>
      <trkpt lat="47.25381" lon="-2.3313">
        <ele>3.5999999046326</ele>
        <time>2021-12-12T08:12:00.000Z</time>
      </trkpt>
      <trkpt lat="47.2539" lon="-2.33138">
        <ele>3.5999999046326</ele>
        <time>2021-12-12T08:12:03.000Z</time>
      </trkpt>
      <trkpt lat="47.25394" lon="-2.33137">
        <ele>3.5999999046326</ele>
        <time>2021-12-12T08:12:04.000Z</time>
      </trkpt>
      <trkpt lat="47.2541" lon="-2.33126">
        <ele>3.5999999046326</ele>
        <time>2021-12-12T08:12:08.000Z</time>
      </trkpt>
      <trkpt lat="47.25414" lon="-2.33124">
        <ele>3.5999999046326</ele>
        <time>2021-12-12T08:12:09.000Z</time>
      </trkpt>
      <trkpt lat="47.25436" lon="-2.33116">
        <ele>3.5999999046326</ele>
        <time>2021-12-12T08:12:14.000Z</time>
      </trkpt>
      <trkpt lat="47.25473" lon="-2.33098">
        <ele>3.5999999046326</ele>
        <time>2021-12-12T08:12:23.000Z</time>
      </trkpt>
      <trkpt lat="47.25493" lon="-2.33083">
        <ele>3.5999999046326</ele>
        <time>2021-12-12T08:12:29.000Z</time>
      </trkpt>
      <trkpt lat="47.2551" lon="-2.33064">
        <ele>3.5999999046326</ele>
        <time>2021-12-12T08:12:34.000Z</time>
      </trkpt>
      <trkpt lat="47.25513" lon="-2.3306">
        <ele>3.5999999046326</ele>
        <time>2021-12-12T08:12:35.000Z</time>
      </trkpt>
      <trkpt lat="47.25534" lon="-2.33045">
        <ele>3.5999999046326</ele>
        <time>2021-12-12T08:12:41.000Z</time>
      </trkpt>
      <trkpt lat="47.25539" lon="-2.33044">
        <ele>3.5999999046326</ele>
        <time>2021-12-12T08:12:42.000Z</time>
      </trkpt>
      <trkpt lat="47.25558" lon="-2.33038">
        <ele>3.5999999046326</ele>
        <time>2021-12-12T08:12:47.000Z</time>
      </trkpt>
      <trkpt lat="47.25576" lon="-2.33036">
        <ele>4</ele>
        <time>2021-12-12T08:12:52.000Z</time>
      </trkpt>
      <trkpt lat="47.25579" lon="-2.33035">
        <ele>4.4000000953674</ele>
        <time>2021-12-12T08:12:53.000Z</time>
      </trkpt>
      <trkpt lat="47.25583" lon="-2.33034">
        <ele>5.1999998092651</ele>
        <time>2021-12-12T08:12:54.000Z</time>
      </trkpt>
      <trkpt lat="47.25587" lon="-2.33032">
        <ele>5.5999999046326</ele>
        <time>2021-12-12T08:12:55.000Z</time>
      </trkpt>
      <trkpt lat="47.25606" lon="-2.3303">
        <ele>5.5999999046326</ele>
        <time>2021-12-12T08:13:00.000Z</time>
      </trkpt>
      <trkpt lat="47.25614" lon="-2.33026">
        <ele>5.5999999046326</ele>
        <time>2021-12-12T08:13:02.000Z</time>
      </trkpt>
      <trkpt lat="47.2562" lon="-2.3302">
        <ele>5.5999999046326</ele>
        <time>2021-12-12T08:13:04.000Z</time>
      </trkpt>
      <trkpt lat="47.25622" lon="-2.33016">
        <ele>5.5999999046326</ele>
        <time>2021-12-12T08:13:05.000Z</time>
      </trkpt>
      <trkpt lat="47.25622" lon="-2.33011">
        <ele>5.5999999046326</ele>
        <time>2021-12-12T08:13:06.000Z</time>
      </trkpt>
      <trkpt lat="47.25621" lon="-2.32999">
        <ele>5.5999999046326</ele>
        <time>2021-12-12T08:13:08.000Z</time>
      </trkpt>
      <trkpt lat="47.25613" lon="-2.32963">
        <ele>6</ele>
        <time>2021-12-12T08:13:14.000Z</time>
      </trkpt>
      <trkpt lat="47.25611" lon="-2.32957">
        <ele>6.4000000953674</ele>
        <time>2021-12-12T08:13:15.000Z</time>
      </trkpt>
      <trkpt lat="47.2561" lon="-2.32951">
        <ele>7</ele>
        <time>2021-12-12T08:13:16.000Z</time>
      </trkpt>
      <trkpt lat="47.25609" lon="-2.32945">
        <ele>7.4000000953674</ele>
        <time>2021-12-12T08:13:17.000Z</time>
      </trkpt>
      <trkpt lat="47.25608" lon="-2.3294">
        <ele>7.8000001907349</ele>
        <time>2021-12-12T08:13:18.000Z</time>
      </trkpt>
      <trkpt lat="47.25606" lon="-2.32928">
        <ele>7.8000001907349</ele>
        <time>2021-12-12T08:13:20.000Z</time>
      </trkpt>
      <trkpt lat="47.25603" lon="-2.32917">
        <ele>7.8000001907349</ele>
        <time>2021-12-12T08:13:22.000Z</time>
      </trkpt>
      <trkpt lat="47.25596" lon="-2.32865">
        <ele>7.8000001907349</ele>
        <time>2021-12-12T08:13:31.000Z</time>
      </trkpt>
      <trkpt lat="47.25592" lon="-2.3284">
        <ele>7.8000001907349</ele>
        <time>2021-12-12T08:13:35.000Z</time>
      </trkpt>
      <trkpt lat="47.25592" lon="-2.32829">
        <ele>7.8000001907349</ele>
        <time>2021-12-12T08:13:37.000Z</time>
      </trkpt>
      <trkpt lat="47.25594" lon="-2.32817">
        <ele>7.8000001907349</ele>
        <time>2021-12-12T08:13:39.000Z</time>
      </trkpt>
      <trkpt lat="47.25598" lon="-2.32792">
        <ele>7.8000001907349</ele>
        <time>2021-12-12T08:13:43.000Z</time>
      </trkpt>
      <trkpt lat="47.25602" lon="-2.32763">
        <ele>7.8000001907349</ele>
        <time>2021-12-12T08:13:48.000Z</time>
      </trkpt>
      <trkpt lat="47.25603" lon="-2.32745">
        <ele>7.8000001907349</ele>
        <time>2021-12-12T08:13:51.000Z</time>
      </trkpt>
      <trkpt lat="47.25603" lon="-2.32726">
        <ele>8.1999998092651</ele>
        <time>2021-12-12T08:13:54.000Z</time>
      </trkpt>
      <trkpt lat="47.25603" lon="-2.3272">
        <ele>8.6000003814697</ele>
        <time>2021-12-12T08:13:55.000Z</time>
      </trkpt>
      <trkpt lat="47.25604" lon="-2.32713">
        <ele>9</ele>
        <time>2021-12-12T08:13:56.000Z</time>
      </trkpt>
      <trkpt lat="47.25604" lon="-2.32707">
        <ele>9.3999996185303</ele>
        <time>2021-12-12T08:13:57.000Z</time>
      </trkpt>
      <trkpt lat="47.25604" lon="-2.32701">
        <ele>9.8000001907349</ele>
        <time>2021-12-12T08:13:58.000Z</time>
      </trkpt>
      <trkpt lat="47.25604" lon="-2.32689">
        <ele>9.8000001907349</ele>
        <time>2021-12-12T08:14:00.000Z</time>
      </trkpt>
      <trkpt lat="47.25605" lon="-2.32673">
        <ele>9.8000001907349</ele>
        <time>2021-12-12T08:14:04.000Z</time>
      </trkpt>
      <trkpt lat="47.25606" lon="-2.32672">
        <ele>9.8000001907349</ele>
        <time>2021-12-12T08:14:06.000Z</time>
      </trkpt>
      <trkpt lat="47.25606" lon="-2.32669">
        <ele>9.8000001907349</ele>
        <time>2021-12-12T08:14:10.000Z</time>
      </trkpt>
      <trkpt lat="47.25614" lon="-2.3266">
        <ele>9.8000001907349</ele>
        <time>2021-12-12T08:14:14.000Z</time>
      </trkpt>
      <trkpt lat="47.25629" lon="-2.32651">
        <ele>9.8000001907349</ele>
        <time>2021-12-12T08:14:18.000Z</time>
      </trkpt>
      <trkpt lat="47.25634" lon="-2.3265">
        <ele>9.8000001907349</ele>
        <time>2021-12-12T08:14:19.000Z</time>
      </trkpt>
      <trkpt lat="47.25664" lon="-2.32638">
        <ele>9.8000001907349</ele>
        <time>2021-12-12T08:14:25.000Z</time>
      </trkpt>
      <trkpt lat="47.2569" lon="-2.32629">
        <ele>9.3999996185303</ele>
        <time>2021-12-12T08:14:30.000Z</time>
      </trkpt>
      <trkpt lat="47.25695" lon="-2.32627">
        <ele>9</ele>
        <time>2021-12-12T08:14:31.000Z</time>
      </trkpt>
      <trkpt lat="47.257" lon="-2.32625">
        <ele>8</ele>
        <time>2021-12-12T08:14:32.000Z</time>
      </trkpt>
      <trkpt lat="47.25704" lon="-2.32622">
        <ele>7.5999999046326</ele>
        <time>2021-12-12T08:14:33.000Z</time>
      </trkpt>
      <trkpt lat="47.2571" lon="-2.32613">
        <ele>7.5999999046326</ele>
        <time>2021-12-12T08:14:35.000Z</time>
      </trkpt>
      <trkpt lat="47.25709" lon="-2.32592">
        <ele>7.5999999046326</ele>
        <time>2021-12-12T08:14:38.000Z</time>
      </trkpt>
      <trkpt lat="47.25705" lon="-2.32579">
        <ele>7.5999999046326</ele>
        <time>2021-12-12T08:14:40.000Z</time>
      </trkpt>
      <trkpt lat="47.25695" lon="-2.32551">
        <ele>7.5999999046326</ele>
        <time>2021-12-12T08:14:44.000Z</time>
      </trkpt>
      <trkpt lat="47.25692" lon="-2.32543">
        <ele>7.1999998092651</ele>
        <time>2021-12-12T08:14:45.000Z</time>
      </trkpt>
      <trkpt lat="47.2569" lon="-2.32536">
        <ele>6.8000001907349</ele>
        <time>2021-12-12T08:14:46.000Z</time>
      </trkpt>
      <trkpt lat="47.25688" lon="-2.32528">
        <ele>6.4000000953674</ele>
        <time>2021-12-12T08:14:47.000Z</time>
      </trkpt>
      <trkpt lat="47.25686" lon="-2.3252">
        <ele>6</ele>
        <time>2021-12-12T08:14:48.000Z</time>
      </trkpt>
      <trkpt lat="47.25683" lon="-2.32512">
        <ele>5.5999999046326</ele>
        <time>2021-12-12T08:14:49.000Z</time>
      </trkpt>
      <trkpt lat="47.25679" lon="-2.32496">
        <ele>5.5999999046326</ele>
        <time>2021-12-12T08:14:51.000Z</time>
      </trkpt>
      <trkpt lat="47.25664" lon="-2.32455">
        <ele>5.5999999046326</ele>
        <time>2021-12-12T08:14:56.000Z</time>
      </trkpt>
      <trkpt lat="47.25663" lon="-2.32447">
        <ele>5.1999998092651</ele>
        <time>2021-12-12T08:14:57.000Z</time>
      </trkpt>
      <trkpt lat="47.25661" lon="-2.32439">
        <ele>4.8000001907349</ele>
        <time>2021-12-12T08:14:58.000Z</time>
      </trkpt>
      <trkpt lat="47.2566" lon="-2.32431">
        <ele>4.1999998092651</ele>
        <time>2021-12-12T08:14:59.000Z</time>
      </trkpt>
      <trkpt lat="47.25661" lon="-2.32424">
        <ele>3.7999999523163</ele>
        <time>2021-12-12T08:15:00.000Z</time>
      </trkpt>
      <trkpt lat="47.25663" lon="-2.32418">
        <ele>3.4000000953674</ele>
        <time>2021-12-12T08:15:01.000Z</time>
      </trkpt>
      <trkpt lat="47.25676" lon="-2.32414">
        <ele>3.4000000953674</ele>
        <time>2021-12-12T08:15:04.000Z</time>
      </trkpt>
      <trkpt lat="47.25691" lon="-2.32419">
        <ele>3.4000000953674</ele>
        <time>2021-12-12T08:15:07.000Z</time>
      </trkpt>
      <trkpt lat="47.25703" lon="-2.3242">
        <ele>3.4000000953674</ele>
        <time>2021-12-12T08:15:09.000Z</time>
      </trkpt>
      <trkpt lat="47.25744" lon="-2.32422">
        <ele>3</ele>
        <time>2021-12-12T08:15:16.000Z</time>
      </trkpt>
      <trkpt lat="47.25749" lon="-2.32421">
        <ele>2.5999999046326</ele>
        <time>2021-12-12T08:15:17.000Z</time>
      </trkpt>
      <trkpt lat="47.25754" lon="-2.32421">
        <ele>2.2000000476837</ele>
        <time>2021-12-12T08:15:18.000Z</time>
      </trkpt>
      <trkpt lat="47.2576" lon="-2.32419">
        <ele>1.7999999523163</ele>
        <time>2021-12-12T08:15:19.000Z</time>
      </trkpt>
      <trkpt lat="47.25764" lon="-2.32417">
        <ele>1.3999999761581</ele>
        <time>2021-12-12T08:15:20.000Z</time>
      </trkpt>
      <trkpt lat="47.25773" lon="-2.32413">
        <ele>1.3999999761581</ele>
        <time>2021-12-12T08:15:22.000Z</time>
      </trkpt>
      <trkpt lat="47.25777" lon="-2.32412">
        <ele>1.3999999761581</ele>
        <time>2021-12-12T08:15:23.000Z</time>
      </trkpt>
      <trkpt lat="47.25784" lon="-2.32418">
        <ele>1.3999999761581</ele>
        <time>2021-12-12T08:15:25.000Z</time>
      </trkpt>
      <trkpt lat="47.25795" lon="-2.32441">
        <ele>1.3999999761581</ele>
        <time>2021-12-12T08:15:29.000Z</time>
      </trkpt>
      <trkpt lat="47.25802" lon="-2.32454">
        <ele>1.3999999761581</ele>
        <time>2021-12-12T08:15:31.000Z</time>
      </trkpt>
      <trkpt lat="47.25811" lon="-2.32474">
        <ele>1.3999999761581</ele>
        <time>2021-12-12T08:15:34.000Z</time>
      </trkpt>
      <trkpt lat="47.25818" lon="-2.32485">
        <ele>1.3999999761581</ele>
        <time>2021-12-12T08:15:36.000Z</time>
      </trkpt>
      <trkpt lat="47.2583" lon="-2.32501">
        <ele>1.3999999761581</ele>
        <time>2021-12-12T08:15:39.000Z</time>
      </trkpt>
      <trkpt lat="47.25857" lon="-2.3254">
        <ele>1.3999999761581</ele>
        <time>2021-12-12T08:15:46.000Z</time>
      </trkpt>
      <trkpt lat="47.25883" lon="-2.32577">
        <ele>1.3999999761581</ele>
        <time>2021-12-12T08:15:53.000Z</time>
      </trkpt>
      <trkpt lat="47.25902" lon="-2.32593">
        <ele>1.3999999761581</ele>
        <time>2021-12-12T08:15:57.000Z</time>
      </trkpt>
      <trkpt lat="47.2591" lon="-2.32604">
        <ele>1.3999999761581</ele>
        <time>2021-12-12T08:15:59.000Z</time>
      </trkpt>
      <trkpt lat="47.25927" lon="-2.32625">
        <ele>1.3999999761581</ele>
        <time>2021-12-12T08:16:03.000Z</time>
      </trkpt>
      <trkpt lat="47.25952" lon="-2.32656">
        <ele>1.3999999761581</ele>
        <time>2021-12-12T08:16:09.000Z</time>
      </trkpt>
      <trkpt lat="47.25957" lon="-2.32658">
        <ele>1.3999999761581</ele>
        <time>2021-12-12T08:16:10.000Z</time>
      </trkpt>
      <trkpt lat="47.25973" lon="-2.32657">
        <ele>1.3999999761581</ele>
        <time>2021-12-12T08:16:13.000Z</time>
      </trkpt>
      <trkpt lat="47.25983" lon="-2.32658">
        <ele>1.3999999761581</ele>
        <time>2021-12-12T08:16:15.000Z</time>
      </trkpt>
      <trkpt lat="47.25988" lon="-2.32658">
        <ele>1.3999999761581</ele>
        <time>2021-12-12T08:16:16.000Z</time>
      </trkpt>
      <trkpt lat="47.25998" lon="-2.32658">
        <ele>1.3999999761581</ele>
        <time>2021-12-12T08:16:18.000Z</time>
      </trkpt>
      <trkpt lat="47.26019" lon="-2.32654">
        <ele>1.3999999761581</ele>
        <time>2021-12-12T08:16:23.000Z</time>
      </trkpt>
      <trkpt lat="47.26036" lon="-2.32653">
        <ele>1.3999999761581</ele>
        <time>2021-12-12T08:16:27.000Z</time>
      </trkpt>
      <trkpt lat="47.2604" lon="-2.32652">
        <ele>1.3999999761581</ele>
        <time>2021-12-12T08:16:28.000Z</time>
      </trkpt>
      <trkpt lat="47.26073" lon="-2.32645">
        <ele>1.3999999761581</ele>
        <time>2021-12-12T08:16:35.000Z</time>
      </trkpt>
      <trkpt lat="47.2611" lon="-2.3264">
        <ele>1.7999999523163</ele>
        <time>2021-12-12T08:16:43.000Z</time>
      </trkpt>
      <trkpt lat="47.26115" lon="-2.32639">
        <ele>2.2000000476837</ele>
        <time>2021-12-12T08:16:44.000Z</time>
      </trkpt>
      <trkpt lat="47.26119" lon="-2.32639">
        <ele>2.5999999046326</ele>
        <time>2021-12-12T08:16:45.000Z</time>
      </trkpt>
      <trkpt lat="47.26124" lon="-2.32639">
        <ele>3</ele>
        <time>2021-12-12T08:16:46.000Z</time>
      </trkpt>
      <trkpt lat="47.26129" lon="-2.32639">
        <ele>3.4000000953674</ele>
        <time>2021-12-12T08:16:47.000Z</time>
      </trkpt>
      <trkpt lat="47.26142" lon="-2.32643">
        <ele>3.4000000953674</ele>
        <time>2021-12-12T08:16:50.000Z</time>
      </trkpt>
      <trkpt lat="47.26175" lon="-2.32658">
        <ele>3.4000000953674</ele>
        <time>2021-12-12T08:16:57.000Z</time>
      </trkpt>
      <trkpt lat="47.26179" lon="-2.32662">
        <ele>3.4000000953674</ele>
        <time>2021-12-12T08:16:58.000Z</time>
      </trkpt>
      <trkpt lat="47.2621" lon="-2.32695">
        <ele>3.4000000953674</ele>
        <time>2021-12-12T08:17:06.000Z</time>
      </trkpt>
      <trkpt lat="47.26234" lon="-2.32727">
        <ele>3.4000000953674</ele>
        <time>2021-12-12T08:17:12.000Z</time>
      </trkpt>
      <trkpt lat="47.26265" lon="-2.32774">
        <ele>3.4000000953674</ele>
        <time>2021-12-12T08:17:20.000Z</time>
      </trkpt>
      <trkpt lat="47.26269" lon="-2.3278">
        <ele>3.4000000953674</ele>
        <time>2021-12-12T08:17:21.000Z</time>
      </trkpt>
      <trkpt lat="47.26284" lon="-2.32822">
        <ele>3.4000000953674</ele>
        <time>2021-12-12T08:17:27.000Z</time>
      </trkpt>
      <trkpt lat="47.26285" lon="-2.32829">
        <ele>3</ele>
        <time>2021-12-12T08:17:28.000Z</time>
      </trkpt>
      <trkpt lat="47.26286" lon="-2.32836">
        <ele>2.5999999046326</ele>
        <time>2021-12-12T08:17:29.000Z</time>
      </trkpt>
      <trkpt lat="47.26287" lon="-2.32843">
        <ele>2.2000000476837</ele>
        <time>2021-12-12T08:17:30.000Z</time>
      </trkpt>
      <trkpt lat="47.26288" lon="-2.3285">
        <ele>1.7999999523163</ele>
        <time>2021-12-12T08:17:31.000Z</time>
      </trkpt>
      <trkpt lat="47.26291" lon="-2.32856">
        <ele>1.3999999761581</ele>
        <time>2021-12-12T08:17:32.000Z</time>
      </trkpt>
      <trkpt lat="47.26304" lon="-2.32866">
        <ele>1.3999999761581</ele>
        <time>2021-12-12T08:17:35.000Z</time>
      </trkpt>
      <trkpt lat="47.26317" lon="-2.32877">
        <ele>1.3999999761581</ele>
        <time>2021-12-12T08:17:38.000Z</time>
      </trkpt>
      <trkpt lat="47.26322" lon="-2.3289">
        <ele>1.3999999761581</ele>
        <time>2021-12-12T08:17:40.000Z</time>
      </trkpt>
      <trkpt lat="47.26328" lon="-2.32911">
        <ele>1.3999999761581</ele>
        <time>2021-12-12T08:17:43.000Z</time>
      </trkpt>
      <trkpt lat="47.26346" lon="-2.32963">
        <ele>1.3999999761581</ele>
        <time>2021-12-12T08:17:51.000Z</time>
      </trkpt>
      <trkpt lat="47.26348" lon="-2.32969">
        <ele>1.3999999761581</ele>
        <time>2021-12-12T08:17:52.000Z</time>
      </trkpt>
      <trkpt lat="47.26359" lon="-2.32983">
        <ele>1.3999999761581</ele>
        <time>2021-12-12T08:17:55.000Z</time>
      </trkpt>
      <trkpt lat="47.26366" lon="-2.33009">
        <ele>1.3999999761581</ele>
        <time>2021-12-12T08:17:59.000Z</time>
      </trkpt>
      <trkpt lat="47.26366" lon="-2.33016">
        <ele>1.3999999761581</ele>
        <time>2021-12-12T08:18:00.000Z</time>
      </trkpt>
      <trkpt lat="47.26368" lon="-2.33076">
        <ele>1.3999999761581</ele>
        <time>2021-12-12T08:18:08.000Z</time>
      </trkpt>
      <trkpt lat="47.2637" lon="-2.33112">
        <ele>1.3999999761581</ele>
        <time>2021-12-12T08:18:13.000Z</time>
      </trkpt>
      <trkpt lat="47.26372" lon="-2.33127">
        <ele>1.3999999761581</ele>
        <time>2021-12-12T08:18:15.000Z</time>
      </trkpt>
      <trkpt lat="47.26375" lon="-2.33177">
        <ele>1.3999999761581</ele>
        <time>2021-12-12T08:18:22.000Z</time>
      </trkpt>
      <trkpt lat="47.26378" lon="-2.33234">
        <ele>1.3999999761581</ele>
        <time>2021-12-12T08:18:30.000Z</time>
      </trkpt>
      <trkpt lat="47.26379" lon="-2.33241">
        <ele>1.3999999761581</ele>
        <time>2021-12-12T08:18:31.000Z</time>
      </trkpt>
      <trkpt lat="47.26385" lon="-2.3326">
        <ele>1.3999999761581</ele>
        <time>2021-12-12T08:18:34.000Z</time>
      </trkpt>
      <trkpt lat="47.26399" lon="-2.33268">
        <ele>1.3999999761581</ele>
        <time>2021-12-12T08:18:37.000Z</time>
      </trkpt>
      <trkpt lat="47.26404" lon="-2.33269">
        <ele>1.3999999761581</ele>
        <time>2021-12-12T08:18:38.000Z</time>
      </trkpt>
      <trkpt lat="47.2643" lon="-2.33271">
        <ele>1.3999999761581</ele>
        <time>2021-12-12T08:18:43.000Z</time>
      </trkpt>
      <trkpt lat="47.26455" lon="-2.33273">
        <ele>1.3999999761581</ele>
        <time>2021-12-12T08:18:48.000Z</time>
      </trkpt>
      <trkpt lat="47.26469" lon="-2.33277">
        <ele>1.3999999761581</ele>
        <time>2021-12-12T08:18:51.000Z</time>
      </trkpt>
      <trkpt lat="47.26483" lon="-2.3327">
        <ele>1.3999999761581</ele>
        <time>2021-12-12T08:18:54.000Z</time>
      </trkpt>
      <trkpt lat="47.26493" lon="-2.33254">
        <ele>1.3999999761581</ele>
        <time>2021-12-12T08:18:57.000Z</time>
      </trkpt>
      <trkpt lat="47.265" lon="-2.33243">
        <ele>1.3999999761581</ele>
        <time>2021-12-12T08:18:59.000Z</time>
      </trkpt>
      <trkpt lat="47.26505" lon="-2.33238">
        <ele>1.3999999761581</ele>
        <time>2021-12-12T08:19:00.000Z</time>
      </trkpt>
      <trkpt lat="47.26519" lon="-2.33227">
        <ele>1.3999999761581</ele>
        <time>2021-12-12T08:19:03.000Z</time>
      </trkpt>
      <trkpt lat="47.26559" lon="-2.33203">
        <ele>1.3999999761581</ele>
        <time>2021-12-12T08:19:11.000Z</time>
      </trkpt>
      <trkpt lat="47.26578" lon="-2.33188">
        <ele>1.3999999761581</ele>
        <time>2021-12-12T08:19:15.000Z</time>
      </trkpt>
      <trkpt lat="47.26585" lon="-2.33176">
        <ele>1.3999999761581</ele>
        <time>2021-12-12T08:19:17.000Z</time>
      </trkpt>
      <trkpt lat="47.26594" lon="-2.33149">
        <ele>1.3999999761581</ele>
        <time>2021-12-12T08:19:21.000Z</time>
      </trkpt>
      <trkpt lat="47.26608" lon="-2.33141">
        <ele>1.3999999761581</ele>
        <time>2021-12-12T08:19:25.000Z</time>
      </trkpt>
      <trkpt lat="47.26626" lon="-2.33148">
        <ele>1.3999999761581</ele>
        <time>2021-12-12T08:19:29.000Z</time>
      </trkpt>
      <trkpt lat="47.26645" lon="-2.3314">
        <ele>1.3999999761581</ele>
        <time>2021-12-12T08:19:33.000Z</time>
      </trkpt>
      <trkpt lat="47.2665" lon="-2.33137">
        <ele>1.3999999761581</ele>
        <time>2021-12-12T08:19:34.000Z</time>
      </trkpt>
      <trkpt lat="47.26685" lon="-2.33109">
        <ele>1.3999999761581</ele>
        <time>2021-12-12T08:19:42.000Z</time>
      </trkpt>
      <trkpt lat="47.26719" lon="-2.33076">
        <ele>1.3999999761581</ele>
        <time>2021-12-12T08:19:50.000Z</time>
      </trkpt>
      <trkpt lat="47.2673" lon="-2.33062">
        <ele>1.3999999761581</ele>
        <time>2021-12-12T08:19:53.000Z</time>
      </trkpt>
      <trkpt lat="47.26737" lon="-2.33043">
        <ele>1.3999999761581</ele>
        <time>2021-12-12T08:19:56.000Z</time>
      </trkpt>
      <trkpt lat="47.26736" lon="-2.33017">
        <ele>1.3999999761581</ele>
        <time>2021-12-12T08:20:00.000Z</time>
      </trkpt>
      <trkpt lat="47.26738" lon="-2.32994">
        <ele>1.3999999761581</ele>
        <time>2021-12-12T08:20:04.000Z</time>
      </trkpt>
      <trkpt lat="47.2674" lon="-2.32988">
        <ele>1.3999999761581</ele>
        <time>2021-12-12T08:20:05.000Z</time>
      </trkpt>
      <trkpt lat="47.2675" lon="-2.32968">
        <ele>1.3999999761581</ele>
        <time>2021-12-12T08:20:09.000Z</time>
      </trkpt>
      <trkpt lat="47.26754" lon="-2.32964">
        <ele>1.3999999761581</ele>
        <time>2021-12-12T08:20:10.000Z</time>
      </trkpt>
      <trkpt lat="47.26758" lon="-2.32959">
        <ele>1.7999999523163</ele>
        <time>2021-12-12T08:20:11.000Z</time>
      </trkpt>
      <trkpt lat="47.26762" lon="-2.32954">
        <ele>2.2000000476837</ele>
        <time>2021-12-12T08:20:12.000Z</time>
      </trkpt>
      <trkpt lat="47.26766" lon="-2.3295">
        <ele>2.5999999046326</ele>
        <time>2021-12-12T08:20:13.000Z</time>
      </trkpt>
      <trkpt lat="47.2677" lon="-2.32945">
        <ele>3</ele>
        <time>2021-12-12T08:20:14.000Z</time>
      </trkpt>
      <trkpt lat="47.26775" lon="-2.32939">
        <ele>3.4000000953674</ele>
        <time>2021-12-12T08:20:15.000Z</time>
      </trkpt>
      <trkpt lat="47.26779" lon="-2.32934">
        <ele>3.4000000953674</ele>
        <time>2021-12-12T08:20:16.000Z</time>
      </trkpt>
      <trkpt lat="47.26783" lon="-2.32929">
        <ele>3.4000000953674</ele>
        <time>2021-12-12T08:20:17.000Z</time>
      </trkpt>
      <trkpt lat="47.26801" lon="-2.32913">
        <ele>3.4000000953674</ele>
        <time>2021-12-12T08:20:21.000Z</time>
      </trkpt>
      <trkpt lat="47.2683" lon="-2.32887">
        <ele>3.4000000953674</ele>
        <time>2021-12-12T08:20:28.000Z</time>
      </trkpt>
      <trkpt lat="47.26841" lon="-2.32877">
        <ele>3.4000000953674</ele>
        <time>2021-12-12T08:20:31.000Z</time>
      </trkpt>
      <trkpt lat="47.26851" lon="-2.32874">
        <ele>3.4000000953674</ele>
        <time>2021-12-12T08:20:33.000Z</time>
      </trkpt>
      <trkpt lat="47.26855" lon="-2.32872">
        <ele>3.4000000953674</ele>
        <time>2021-12-12T08:20:34.000Z</time>
      </trkpt>
      <trkpt lat="47.26864" lon="-2.32861">
        <ele>3.4000000953674</ele>
        <time>2021-12-12T08:20:37.000Z</time>
      </trkpt>
      <trkpt lat="47.2686" lon="-2.32847">
        <ele>3.4000000953674</ele>
        <time>2021-12-12T08:20:40.000Z</time>
      </trkpt>
      <trkpt lat="47.26858" lon="-2.32843">
        <ele>3.4000000953674</ele>
        <time>2021-12-12T08:20:41.000Z</time>
      </trkpt>
      <trkpt lat="47.26857" lon="-2.32838">
        <ele>3.4000000953674</ele>
        <time>2021-12-12T08:20:42.000Z</time>
      </trkpt>
      <trkpt lat="47.26856" lon="-2.32833">
        <ele>3.7999999523163</ele>
        <time>2021-12-12T08:20:43.000Z</time>
      </trkpt>
      <trkpt lat="47.26854" lon="-2.32829">
        <ele>4.4000000953674</ele>
        <time>2021-12-12T08:20:44.000Z</time>
      </trkpt>
      <trkpt lat="47.26853" lon="-2.32825">
        <ele>4.8000001907349</ele>
        <time>2021-12-12T08:20:45.000Z</time>
      </trkpt>
      <trkpt lat="47.26852" lon="-2.32821">
        <ele>5.1999998092651</ele>
        <time>2021-12-12T08:20:46.000Z</time>
      </trkpt>
      <trkpt lat="47.26851" lon="-2.32817">
        <ele>5.8000001907349</ele>
        <time>2021-12-12T08:20:47.000Z</time>
      </trkpt>
      <trkpt lat="47.26849" lon="-2.32814">
        <ele>6.1999998092651</ele>
        <time>2021-12-12T08:20:48.000Z</time>
      </trkpt>
      <trkpt lat="47.26847" lon="-2.32811">
        <ele>6.5999999046326</ele>
        <time>2021-12-12T08:20:49.000Z</time>
      </trkpt>
      <trkpt lat="47.26845" lon="-2.32807">
        <ele>7</ele>
        <time>2021-12-12T08:20:50.000Z</time>
      </trkpt>
      <trkpt lat="47.26844" lon="-2.32803">
        <ele>7.4000000953674</ele>
        <time>2021-12-12T08:20:51.000Z</time>
      </trkpt>
      <trkpt lat="47.26842" lon="-2.32798">
        <ele>7.8000001907349</ele>
        <time>2021-12-12T08:20:52.000Z</time>
      </trkpt>
      <trkpt lat="47.2684" lon="-2.3279">
        <ele>8.1999998092651</ele>
        <time>2021-12-12T08:20:54.000Z</time>
      </trkpt>
      <trkpt lat="47.26839" lon="-2.32786">
        <ele>8.6000003814697</ele>
        <time>2021-12-12T08:20:55.000Z</time>
      </trkpt>
      <trkpt lat="47.26838" lon="-2.32781">
        <ele>9</ele>
        <time>2021-12-12T08:20:56.000Z</time>
      </trkpt>
      <trkpt lat="47.26837" lon="-2.32777">
        <ele>9.6000003814697</ele>
        <time>2021-12-12T08:20:57.000Z</time>
      </trkpt>
      <trkpt lat="47.26837" lon="-2.32774">
        <ele>10</ele>
        <time>2021-12-12T08:20:58.000Z</time>
      </trkpt>
      <trkpt lat="47.26835" lon="-2.32766">
        <ele>10.39999961853</ele>
        <time>2021-12-12T08:21:00.000Z</time>
      </trkpt>
      <trkpt lat="47.26833" lon="-2.32763">
        <ele>10.800000190735</ele>
        <time>2021-12-12T08:21:01.000Z</time>
      </trkpt>
      <trkpt lat="47.26832" lon="-2.32759">
        <ele>11.199999809265</ele>
        <time>2021-12-12T08:21:02.000Z</time>
      </trkpt>
      <trkpt lat="47.26831" lon="-2.32755">
        <ele>11.60000038147</ele>
        <time>2021-12-12T08:21:03.000Z</time>
      </trkpt>
      <trkpt lat="47.2683" lon="-2.32751">
        <ele>12</ele>
        <time>2021-12-12T08:21:04.000Z</time>
      </trkpt>
      <trkpt lat="47.26825" lon="-2.32741">
        <ele>12.39999961853</ele>
        <time>2021-12-12T08:21:07.000Z</time>
      </trkpt>
      <trkpt lat="47.26824" lon="-2.32737">
        <ele>13.199999809265</ele>
        <time>2021-12-12T08:21:08.000Z</time>
      </trkpt>
      <trkpt lat="47.26822" lon="-2.32734">
        <ele>13.60000038147</ele>
        <time>2021-12-12T08:21:09.000Z</time>
      </trkpt>
      <trkpt lat="47.2682" lon="-2.3273">
        <ele>14</ele>
        <time>2021-12-12T08:21:10.000Z</time>
      </trkpt>
      <trkpt lat="47.26812" lon="-2.3271">
        <ele>14</ele>
        <time>2021-12-12T08:21:15.000Z</time>
      </trkpt>
      <trkpt lat="47.2681" lon="-2.32706">
        <ele>14.39999961853</ele>
        <time>2021-12-12T08:21:16.000Z</time>
      </trkpt>
      <trkpt lat="47.26808" lon="-2.32702">
        <ele>14.800000190735</ele>
        <time>2021-12-12T08:21:17.000Z</time>
      </trkpt>
      <trkpt lat="47.26806" lon="-2.32697">
        <ele>15.199999809265</ele>
        <time>2021-12-12T08:21:18.000Z</time>
      </trkpt>
      <trkpt lat="47.26804" lon="-2.32692">
        <ele>15.60000038147</ele>
        <time>2021-12-12T08:21:19.000Z</time>
      </trkpt>
      <trkpt lat="47.26803" lon="-2.32687">
        <ele>16</ele>
        <time>2021-12-12T08:21:20.000Z</time>
      </trkpt>
      <trkpt lat="47.26805" lon="-2.32662">
        <ele>16</ele>
        <time>2021-12-12T08:21:25.000Z</time>
      </trkpt>
      <trkpt lat="47.26807" lon="-2.32655">
        <ele>16</ele>
        <time>2021-12-12T08:21:26.000Z</time>
      </trkpt>
      <trkpt lat="47.26806" lon="-2.32636">
        <ele>16</ele>
        <time>2021-12-12T08:21:29.000Z</time>
      </trkpt>
      <trkpt lat="47.26805" lon="-2.32623">
        <ele>16</ele>
        <time>2021-12-12T08:21:31.000Z</time>
      </trkpt>
      <trkpt lat="47.268" lon="-2.32586">
        <ele>16</ele>
        <time>2021-12-12T08:21:36.000Z</time>
      </trkpt>
      <trkpt lat="47.26797" lon="-2.32563">
        <ele>16</ele>
        <time>2021-12-12T08:21:39.000Z</time>
      </trkpt>
      <trkpt lat="47.26797" lon="-2.32541">
        <ele>16</ele>
        <time>2021-12-12T08:21:42.000Z</time>
      </trkpt>
      <trkpt lat="47.26797" lon="-2.32534">
        <ele>16</ele>
        <time>2021-12-12T08:21:43.000Z</time>
      </trkpt>
      <trkpt lat="47.26796" lon="-2.32522">
        <ele>16</ele>
        <time>2021-12-12T08:21:45.000Z</time>
      </trkpt>
      <trkpt lat="47.26796" lon="-2.32509">
        <ele>16</ele>
        <time>2021-12-12T08:21:47.000Z</time>
      </trkpt>
      <trkpt lat="47.26796" lon="-2.32502">
        <ele>16</ele>
        <time>2021-12-12T08:21:48.000Z</time>
      </trkpt>
      <trkpt lat="47.26792" lon="-2.32472">
        <ele>16</ele>
        <time>2021-12-12T08:21:53.000Z</time>
      </trkpt>
      <trkpt lat="47.26788" lon="-2.32431">
        <ele>16</ele>
        <time>2021-12-12T08:22:00.000Z</time>
      </trkpt>
      <trkpt lat="47.26786" lon="-2.32418">
        <ele>16.39999961853</ele>
        <time>2021-12-12T08:22:02.000Z</time>
      </trkpt>
      <trkpt lat="47.26785" lon="-2.32412">
        <ele>17</ele>
        <time>2021-12-12T08:22:03.000Z</time>
      </trkpt>
      <trkpt lat="47.26784" lon="-2.32406">
        <ele>17.39999961853</ele>
        <time>2021-12-12T08:22:04.000Z</time>
      </trkpt>
      <trkpt lat="47.26783" lon="-2.32401">
        <ele>17.799999237061</ele>
        <time>2021-12-12T08:22:05.000Z</time>
      </trkpt>
      <trkpt lat="47.26782" lon="-2.32395">
        <ele>18.200000762939</ele>
        <time>2021-12-12T08:22:06.000Z</time>
      </trkpt>
      <trkpt lat="47.26781" lon="-2.32391">
        <ele>18.200000762939</ele>
        <time>2021-12-12T08:22:07.000Z</time>
      </trkpt>
      <trkpt lat="47.2678" lon="-2.32374">
        <ele>18.200000762939</ele>
        <time>2021-12-12T08:22:12.000Z</time>
      </trkpt>
      <trkpt lat="47.26784" lon="-2.32367">
        <ele>18.200000762939</ele>
        <time>2021-12-12T08:22:15.000Z</time>
      </trkpt>
      <trkpt lat="47.26788" lon="-2.32363">
        <ele>18.200000762939</ele>
        <time>2021-12-12T08:22:17.000Z</time>
      </trkpt>
      <trkpt lat="47.26802" lon="-2.32357">
        <ele>18.200000762939</ele>
        <time>2021-12-12T08:22:21.000Z</time>
      </trkpt>
      <trkpt lat="47.26807" lon="-2.32355">
        <ele>18.200000762939</ele>
        <time>2021-12-12T08:22:22.000Z</time>
      </trkpt>
      <trkpt lat="47.26817" lon="-2.32352">
        <ele>17.60000038147</ele>
        <time>2021-12-12T08:22:24.000Z</time>
      </trkpt>
      <trkpt lat="47.26823" lon="-2.32351">
        <ele>17.200000762939</ele>
        <time>2021-12-12T08:22:25.000Z</time>
      </trkpt>
      <trkpt lat="47.26829" lon="-2.3235">
        <ele>16.799999237061</ele>
        <time>2021-12-12T08:22:26.000Z</time>
      </trkpt>
      <trkpt lat="47.26836" lon="-2.32348">
        <ele>16.39999961853</ele>
        <time>2021-12-12T08:22:27.000Z</time>
      </trkpt>
      <trkpt lat="47.26843" lon="-2.32346">
        <ele>15.800000190735</ele>
        <time>2021-12-12T08:22:28.000Z</time>
      </trkpt>
      <trkpt lat="47.2685" lon="-2.32344">
        <ele>15.39999961853</ele>
        <time>2021-12-12T08:22:29.000Z</time>
      </trkpt>
      <trkpt lat="47.26857" lon="-2.32342">
        <ele>14.800000190735</ele>
        <time>2021-12-12T08:22:30.000Z</time>
      </trkpt>
      <trkpt lat="47.26865" lon="-2.32341">
        <ele>14.39999961853</ele>
        <time>2021-12-12T08:22:31.000Z</time>
      </trkpt>
      <trkpt lat="47.26872" lon="-2.32339">
        <ele>13.800000190735</ele>
        <time>2021-12-12T08:22:32.000Z</time>
      </trkpt>
      <trkpt lat="47.2688" lon="-2.32336">
        <ele>13.39999961853</ele>
        <time>2021-12-12T08:22:33.000Z</time>
      </trkpt>
      <trkpt lat="47.26888" lon="-2.32334">
        <ele>13.39999961853</ele>
        <time>2021-12-12T08:22:34.000Z</time>
      </trkpt>
      <trkpt lat="47.26895" lon="-2.32333">
        <ele>13</ele>
        <time>2021-12-12T08:22:35.000Z</time>
      </trkpt>
      <trkpt lat="47.26901" lon="-2.32332">
        <ele>12.39999961853</ele>
        <time>2021-12-12T08:22:36.000Z</time>
      </trkpt>
      <trkpt lat="47.26907" lon="-2.32332">
        <ele>12</ele>
        <time>2021-12-12T08:22:37.000Z</time>
      </trkpt>
      <trkpt lat="47.26913" lon="-2.3233">
        <ele>11.39999961853</ele>
        <time>2021-12-12T08:22:38.000Z</time>
      </trkpt>
      <trkpt lat="47.26918" lon="-2.32327">
        <ele>10.800000190735</ele>
        <time>2021-12-12T08:22:39.000Z</time>
      </trkpt>
      <trkpt lat="47.26921" lon="-2.32322">
        <ele>10.199999809265</ele>
        <time>2021-12-12T08:22:40.000Z</time>
      </trkpt>
      <trkpt lat="47.26924" lon="-2.32318">
        <ele>9.6000003814697</ele>
        <time>2021-12-12T08:22:41.000Z</time>
      </trkpt>
      <trkpt lat="47.26926" lon="-2.32315">
        <ele>9</ele>
        <time>2021-12-12T08:22:42.000Z</time>
      </trkpt>
      <trkpt lat="47.26922" lon="-2.32305">
        <ele>9</ele>
        <time>2021-12-12T08:22:44.000Z</time>
      </trkpt>
      <trkpt lat="47.269" lon="-2.32264">
        <ele>9</ele>
        <time>2021-12-12T08:22:50.000Z</time>
      </trkpt>
      <trkpt lat="47.26889" lon="-2.32242">
        <ele>9</ele>
        <time>2021-12-12T08:22:54.000Z</time>
      </trkpt>
      <trkpt lat="47.26886" lon="-2.32237">
        <ele>9</ele>
        <time>2021-12-12T08:22:55.000Z</time>
      </trkpt>
      <trkpt lat="47.26874" lon="-2.32219">
        <ele>9</ele>
        <time>2021-12-12T08:22:59.000Z</time>
      </trkpt>
      <trkpt lat="47.26871" lon="-2.32214">
        <ele>9.3999996185303</ele>
        <time>2021-12-12T08:23:00.000Z</time>
      </trkpt>
      <trkpt lat="47.26869" lon="-2.32209">
        <ele>9.8000001907349</ele>
        <time>2021-12-12T08:23:01.000Z</time>
      </trkpt>
      <trkpt lat="47.26867" lon="-2.32205">
        <ele>10.199999809265</ele>
        <time>2021-12-12T08:23:02.000Z</time>
      </trkpt>
      <trkpt lat="47.26865" lon="-2.322">
        <ele>10.60000038147</ele>
        <time>2021-12-12T08:23:03.000Z</time>
      </trkpt>
      <trkpt lat="47.26863" lon="-2.32195">
        <ele>11</ele>
        <time>2021-12-12T08:23:04.000Z</time>
      </trkpt>
      <trkpt lat="47.26857" lon="-2.3218">
        <ele>11</ele>
        <time>2021-12-12T08:23:07.000Z</time>
      </trkpt>
      <trkpt lat="47.26845" lon="-2.32148">
        <ele>11.39999961853</ele>
        <time>2021-12-12T08:23:13.000Z</time>
      </trkpt>
      <trkpt lat="47.26843" lon="-2.32141">
        <ele>11.800000190735</ele>
        <time>2021-12-12T08:23:14.000Z</time>
      </trkpt>
      <trkpt lat="47.26841" lon="-2.32134">
        <ele>12.199999809265</ele>
        <time>2021-12-12T08:23:15.000Z</time>
      </trkpt>
      <trkpt lat="47.2684" lon="-2.32127">
        <ele>12.60000038147</ele>
        <time>2021-12-12T08:23:16.000Z</time>
      </trkpt>
      <trkpt lat="47.26839" lon="-2.32121">
        <ele>13</ele>
        <time>2021-12-12T08:23:17.000Z</time>
      </trkpt>
      <trkpt lat="47.26836" lon="-2.32107">
        <ele>13</ele>
        <time>2021-12-12T08:23:19.000Z</time>
      </trkpt>
      <trkpt lat="47.26834" lon="-2.32101">
        <ele>13</ele>
        <time>2021-12-12T08:23:20.000Z</time>
      </trkpt>
      <trkpt lat="47.26824" lon="-2.3207">
        <ele>13</ele>
        <time>2021-12-12T08:23:25.000Z</time>
      </trkpt>
      <trkpt lat="47.26814" lon="-2.32034">
        <ele>13</ele>
        <time>2021-12-12T08:23:31.000Z</time>
      </trkpt>
      <trkpt lat="47.26807" lon="-2.32017">
        <ele>13</ele>
        <time>2021-12-12T08:23:34.000Z</time>
      </trkpt>
      <trkpt lat="47.26803" lon="-2.32007">
        <ele>13.60000038147</ele>
        <time>2021-12-12T08:23:36.000Z</time>
      </trkpt>
      <trkpt lat="47.26801" lon="-2.32003">
        <ele>14</ele>
        <time>2021-12-12T08:23:37.000Z</time>
      </trkpt>
      <trkpt lat="47.26798" lon="-2.31998">
        <ele>14.39999961853</ele>
        <time>2021-12-12T08:23:38.000Z</time>
      </trkpt>
      <trkpt lat="47.26796" lon="-2.31994">
        <ele>14.800000190735</ele>
        <time>2021-12-12T08:23:39.000Z</time>
      </trkpt>
      <trkpt lat="47.26793" lon="-2.31989">
        <ele>15.199999809265</ele>
        <time>2021-12-12T08:23:40.000Z</time>
      </trkpt>
      <trkpt lat="47.2678" lon="-2.31966">
        <ele>15.199999809265</ele>
        <time>2021-12-12T08:23:45.000Z</time>
      </trkpt>
      <trkpt lat="47.26777" lon="-2.31962">
        <ele>15.60000038147</ele>
        <time>2021-12-12T08:23:46.000Z</time>
      </trkpt>
      <trkpt lat="47.26775" lon="-2.31958">
        <ele>16</ele>
        <time>2021-12-12T08:23:47.000Z</time>
      </trkpt>
      <trkpt lat="47.26772" lon="-2.31954">
        <ele>16.39999961853</ele>
        <time>2021-12-12T08:23:48.000Z</time>
      </trkpt>
      <trkpt lat="47.2677" lon="-2.31951">
        <ele>16.799999237061</ele>
        <time>2021-12-12T08:23:49.000Z</time>
      </trkpt>
      <trkpt lat="47.26767" lon="-2.31948">
        <ele>17.200000762939</ele>
        <time>2021-12-12T08:23:50.000Z</time>
      </trkpt>
      <trkpt lat="47.26764" lon="-2.31949">
        <ele>17.200000762939</ele>
        <time>2021-12-12T08:23:51.000Z</time>
      </trkpt>
      <trkpt lat="47.26757" lon="-2.31961">
        <ele>17.200000762939</ele>
        <time>2021-12-12T08:23:54.000Z</time>
      </trkpt>
      <trkpt lat="47.26741" lon="-2.31983">
        <ele>17.200000762939</ele>
        <time>2021-12-12T08:24:00.000Z</time>
      </trkpt>
      <trkpt lat="47.26738" lon="-2.31986">
        <ele>17.60000038147</ele>
        <time>2021-12-12T08:24:01.000Z</time>
      </trkpt>
      <trkpt lat="47.26734" lon="-2.3199">
        <ele>18</ele>
        <time>2021-12-12T08:24:02.000Z</time>
      </trkpt>
      <trkpt lat="47.2673" lon="-2.31993">
        <ele>18.39999961853</ele>
        <time>2021-12-12T08:24:03.000Z</time>
      </trkpt>
      <trkpt lat="47.26726" lon="-2.31995">
        <ele>18.799999237061</ele>
        <time>2021-12-12T08:24:04.000Z</time>
      </trkpt>
      <trkpt lat="47.26723" lon="-2.31997">
        <ele>19.200000762939</ele>
        <time>2021-12-12T08:24:05.000Z</time>
      </trkpt>
      <trkpt lat="47.26719" lon="-2.31999">
        <ele>19.200000762939</ele>
        <time>2021-12-12T08:24:06.000Z</time>
      </trkpt>
      <trkpt lat="47.26699" lon="-2.32015">
        <ele>19.60000038147</ele>
        <time>2021-12-12T08:24:12.000Z</time>
      </trkpt>
      <trkpt lat="47.26696" lon="-2.32019">
        <ele>20</ele>
        <time>2021-12-12T08:24:13.000Z</time>
      </trkpt>
      <trkpt lat="47.26694" lon="-2.32023">
        <ele>20.39999961853</ele>
        <time>2021-12-12T08:24:14.000Z</time>
      </trkpt>
      <trkpt lat="47.26692" lon="-2.32027">
        <ele>20.799999237061</ele>
        <time>2021-12-12T08:24:15.000Z</time>
      </trkpt>
      <trkpt lat="47.2669" lon="-2.32031">
        <ele>21.200000762939</ele>
        <time>2021-12-12T08:24:16.000Z</time>
      </trkpt>
      <trkpt lat="47.26687" lon="-2.32041">
        <ele>21.200000762939</ele>
        <time>2021-12-12T08:24:18.000Z</time>
      </trkpt>
      <trkpt lat="47.26686" lon="-2.32073">
        <ele>21.200000762939</ele>
        <time>2021-12-12T08:24:24.000Z</time>
      </trkpt>
      <trkpt lat="47.26683" lon="-2.32116">
        <ele>21.200000762939</ele>
        <time>2021-12-12T08:24:31.000Z</time>
      </trkpt>
      <trkpt lat="47.26682" lon="-2.3212">
        <ele>21.200000762939</ele>
        <time>2021-12-12T08:24:32.000Z</time>
      </trkpt>
      <trkpt lat="47.26677" lon="-2.32122">
        <ele>21.200000762939</ele>
        <time>2021-12-12T08:24:34.000Z</time>
      </trkpt>
      <trkpt lat="47.26672" lon="-2.32112">
        <ele>21.200000762939</ele>
        <time>2021-12-12T08:24:37.000Z</time>
      </trkpt>
      <trkpt lat="47.2667" lon="-2.32106">
        <ele>21.200000762939</ele>
        <time>2021-12-12T08:24:38.000Z</time>
      </trkpt>
      <trkpt lat="47.26664" lon="-2.32077">
        <ele>21.200000762939</ele>
        <time>2021-12-12T08:24:43.000Z</time>
      </trkpt>
      <trkpt lat="47.26652" lon="-2.3203">
        <ele>21.200000762939</ele>
        <time>2021-12-12T08:24:51.000Z</time>
      </trkpt>
      <trkpt lat="47.26645" lon="-2.32007">
        <ele>21.200000762939</ele>
        <time>2021-12-12T08:24:56.000Z</time>
      </trkpt>
      <trkpt lat="47.26643" lon="-2.32004">
        <ele>21.200000762939</ele>
        <time>2021-12-12T08:24:57.000Z</time>
      </trkpt>
      <trkpt lat="47.26632" lon="-2.32008">
        <ele>21.200000762939</ele>
        <time>2021-12-12T08:25:00.000Z</time>
      </trkpt>
      <trkpt lat="47.26628" lon="-2.32011">
        <ele>21.200000762939</ele>
        <time>2021-12-12T08:25:01.000Z</time>
      </trkpt>
      <trkpt lat="47.26615" lon="-2.32016">
        <ele>21.200000762939</ele>
        <time>2021-12-12T08:25:04.000Z</time>
      </trkpt>
      <trkpt lat="47.26581" lon="-2.32027">
        <ele>21.200000762939</ele>
        <time>2021-12-12T08:25:11.000Z</time>
      </trkpt>
      <trkpt lat="47.26551" lon="-2.32038">
        <ele>21.200000762939</ele>
        <time>2021-12-12T08:25:17.000Z</time>
      </trkpt>
      <trkpt lat="47.26548" lon="-2.32038">
        <ele>21.200000762939</ele>
        <time>2021-12-12T08:25:18.000Z</time>
      </trkpt>
      <trkpt lat="47.26546" lon="-2.32036">
        <ele>20.799999237061</ele>
        <time>2021-12-12T08:25:19.000Z</time>
      </trkpt>
      <trkpt lat="47.26544" lon="-2.32034">
        <ele>20.39999961853</ele>
        <time>2021-12-12T08:25:20.000Z</time>
      </trkpt>
      <trkpt lat="47.26543" lon="-2.32031">
        <ele>20</ele>
        <time>2021-12-12T08:25:21.000Z</time>
      </trkpt>
      <trkpt lat="47.26543" lon="-2.32027">
        <ele>19.60000038147</ele>
        <time>2021-12-12T08:25:22.000Z</time>
      </trkpt>
      <trkpt lat="47.26542" lon="-2.32023">
        <ele>19.200000762939</ele>
        <time>2021-12-12T08:25:23.000Z</time>
      </trkpt>
      <trkpt lat="47.2654" lon="-2.32019">
        <ele>19.200000762939</ele>
        <time>2021-12-12T08:25:24.000Z</time>
      </trkpt>
      <trkpt lat="47.26534" lon="-2.32008">
        <ele>19.200000762939</ele>
        <time>2021-12-12T08:25:28.000Z</time>
      </trkpt>
      <trkpt lat="47.26523" lon="-2.32">
        <ele>19.200000762939</ele>
        <time>2021-12-12T08:25:32.000Z</time>
      </trkpt>
      <trkpt lat="47.2652" lon="-2.31999">
        <ele>18.799999237061</ele>
        <time>2021-12-12T08:25:33.000Z</time>
      </trkpt>
      <trkpt lat="47.26518" lon="-2.31999">
        <ele>18.39999961853</ele>
        <time>2021-12-12T08:25:34.000Z</time>
      </trkpt>
      <trkpt lat="47.26515" lon="-2.32">
        <ele>18</ele>
        <time>2021-12-12T08:25:35.000Z</time>
      </trkpt>
      <trkpt lat="47.26511" lon="-2.32001">
        <ele>17.60000038147</ele>
        <time>2021-12-12T08:25:36.000Z</time>
      </trkpt>
      <trkpt lat="47.26507" lon="-2.32002">
        <ele>17.200000762939</ele>
        <time>2021-12-12T08:25:37.000Z</time>
      </trkpt>
      <trkpt lat="47.265" lon="-2.32004">
        <ele>16.200000762939</ele>
        <time>2021-12-12T08:25:39.000Z</time>
      </trkpt>
      <trkpt lat="47.26496" lon="-2.32005">
        <ele>15.800000190735</ele>
        <time>2021-12-12T08:25:40.000Z</time>
      </trkpt>
      <trkpt lat="47.26492" lon="-2.32006">
        <ele>15.199999809265</ele>
        <time>2021-12-12T08:25:41.000Z</time>
      </trkpt>
      <trkpt lat="47.26487" lon="-2.32006">
        <ele>14.800000190735</ele>
        <time>2021-12-12T08:25:42.000Z</time>
      </trkpt>
      <trkpt lat="47.26483" lon="-2.32006">
        <ele>14.800000190735</ele>
        <time>2021-12-12T08:25:43.000Z</time>
      </trkpt>
      <trkpt lat="47.2647" lon="-2.32006">
        <ele>14.39999961853</ele>
        <time>2021-12-12T08:25:46.000Z</time>
      </trkpt>
      <trkpt lat="47.26465" lon="-2.32006">
        <ele>14</ele>
        <time>2021-12-12T08:25:47.000Z</time>
      </trkpt>
      <trkpt lat="47.2646" lon="-2.32006">
        <ele>13.60000038147</ele>
        <time>2021-12-12T08:25:48.000Z</time>
      </trkpt>
      <trkpt lat="47.26455" lon="-2.32006">
        <ele>13.199999809265</ele>
        <time>2021-12-12T08:25:49.000Z</time>
      </trkpt>
      <trkpt lat="47.2645" lon="-2.32007">
        <ele>12.800000190735</ele>
        <time>2021-12-12T08:25:50.000Z</time>
      </trkpt>
      <trkpt lat="47.26436" lon="-2.32007">
        <ele>12.199999809265</ele>
        <time>2021-12-12T08:25:53.000Z</time>
      </trkpt>
      <trkpt lat="47.26431" lon="-2.32006">
        <ele>11.800000190735</ele>
        <time>2021-12-12T08:25:54.000Z</time>
      </trkpt>
      <trkpt lat="47.26427" lon="-2.32006">
        <ele>11.39999961853</ele>
        <time>2021-12-12T08:25:55.000Z</time>
      </trkpt>
      <trkpt lat="47.26422" lon="-2.32005">
        <ele>11</ele>
        <time>2021-12-12T08:25:56.000Z</time>
      </trkpt>
      <trkpt lat="47.26418" lon="-2.32004">
        <ele>10.39999961853</ele>
        <time>2021-12-12T08:25:57.000Z</time>
      </trkpt>
      <trkpt lat="47.26411" lon="-2.32002">
        <ele>10</ele>
        <time>2021-12-12T08:25:59.000Z</time>
      </trkpt>
      <trkpt lat="47.26408" lon="-2.32002">
        <ele>9.6000003814697</ele>
        <time>2021-12-12T08:26:00.000Z</time>
      </trkpt>
      <trkpt lat="47.26406" lon="-2.32001">
        <ele>9.1999998092651</ele>
        <time>2021-12-12T08:26:01.000Z</time>
      </trkpt>
      <trkpt lat="47.26403" lon="-2.32001">
        <ele>8.8000001907349</ele>
        <time>2021-12-12T08:26:02.000Z</time>
      </trkpt>
      <trkpt lat="47.264" lon="-2.31999">
        <ele>8.3999996185303</ele>
        <time>2021-12-12T08:26:03.000Z</time>
      </trkpt>
      <trkpt lat="47.26392" lon="-2.31999">
        <ele>8.3999996185303</ele>
        <time>2021-12-12T08:26:05.000Z</time>
      </trkpt>
      <trkpt lat="47.26377" lon="-2.31993">
        <ele>8</ele>
        <time>2021-12-12T08:26:09.000Z</time>
      </trkpt>
      <trkpt lat="47.26373" lon="-2.31988">
        <ele>7.5999999046326</ele>
        <time>2021-12-12T08:26:10.000Z</time>
      </trkpt>
      <trkpt lat="47.2637" lon="-2.31982">
        <ele>7.1999998092651</ele>
        <time>2021-12-12T08:26:11.000Z</time>
      </trkpt>
      <trkpt lat="47.26367" lon="-2.31977">
        <ele>6.8000001907349</ele>
        <time>2021-12-12T08:26:12.000Z</time>
      </trkpt>
      <trkpt lat="47.26365" lon="-2.31971">
        <ele>6.4000000953674</ele>
        <time>2021-12-12T08:26:13.000Z</time>
      </trkpt>
      <trkpt lat="47.26354" lon="-2.31952">
        <ele>6.4000000953674</ele>
        <time>2021-12-12T08:26:16.000Z</time>
      </trkpt>
      <trkpt lat="47.26338" lon="-2.31936">
        <ele>6.4000000953674</ele>
        <time>2021-12-12T08:26:20.000Z</time>
      </trkpt>
      <trkpt lat="47.2632" lon="-2.31935">
        <ele>6.4000000953674</ele>
        <time>2021-12-12T08:26:25.000Z</time>
      </trkpt>
      <trkpt lat="47.26311" lon="-2.3193">
        <ele>6.4000000953674</ele>
        <time>2021-12-12T08:26:28.000Z</time>
      </trkpt>
      <trkpt lat="47.26309" lon="-2.31926">
        <ele>6.4000000953674</ele>
        <time>2021-12-12T08:26:29.000Z</time>
      </trkpt>
      <trkpt lat="47.26307" lon="-2.31922">
        <ele>6</ele>
        <time>2021-12-12T08:26:30.000Z</time>
      </trkpt>
      <trkpt lat="47.26305" lon="-2.31917">
        <ele>5.5999999046326</ele>
        <time>2021-12-12T08:26:31.000Z</time>
      </trkpt>
      <trkpt lat="47.26304" lon="-2.31913">
        <ele>5.1999998092651</ele>
        <time>2021-12-12T08:26:32.000Z</time>
      </trkpt>
      <trkpt lat="47.26303" lon="-2.31908">
        <ele>4.8000001907349</ele>
        <time>2021-12-12T08:26:33.000Z</time>
      </trkpt>
      <trkpt lat="47.26303" lon="-2.31904">
        <ele>4.1999998092651</ele>
        <time>2021-12-12T08:26:34.000Z</time>
      </trkpt>
      <trkpt lat="47.26302" lon="-2.31899">
        <ele>4.1999998092651</ele>
        <time>2021-12-12T08:26:35.000Z</time>
      </trkpt>
      <trkpt lat="47.26303" lon="-2.3186">
        <ele>4.1999998092651</ele>
        <time>2021-12-12T08:26:42.000Z</time>
      </trkpt>
      <trkpt lat="47.26307" lon="-2.31822">
        <ele>4.1999998092651</ele>
        <time>2021-12-12T08:26:48.000Z</time>
      </trkpt>
      <trkpt lat="47.26307" lon="-2.31815">
        <ele>4.1999998092651</ele>
        <time>2021-12-12T08:26:49.000Z</time>
      </trkpt>
      <trkpt lat="47.26306" lon="-2.31789">
        <ele>4.1999998092651</ele>
        <time>2021-12-12T08:26:53.000Z</time>
      </trkpt>
      <trkpt lat="47.26301" lon="-2.31745">
        <ele>4.1999998092651</ele>
        <time>2021-12-12T08:26:59.000Z</time>
      </trkpt>
      <trkpt lat="47.26304" lon="-2.3172">
        <ele>4.1999998092651</ele>
        <time>2021-12-12T08:27:03.000Z</time>
      </trkpt>
      <trkpt lat="47.26316" lon="-2.31705">
        <ele>4.1999998092651</ele>
        <time>2021-12-12T08:27:07.000Z</time>
      </trkpt>
      <trkpt lat="47.26341" lon="-2.31695">
        <ele>4.8000001907349</ele>
        <time>2021-12-12T08:27:13.000Z</time>
      </trkpt>
      <trkpt lat="47.26345" lon="-2.31693">
        <ele>5.1999998092651</ele>
        <time>2021-12-12T08:27:14.000Z</time>
      </trkpt>
      <trkpt lat="47.26349" lon="-2.31692">
        <ele>5.5999999046326</ele>
        <time>2021-12-12T08:27:15.000Z</time>
      </trkpt>
      <trkpt lat="47.26353" lon="-2.3169">
        <ele>6</ele>
        <time>2021-12-12T08:27:16.000Z</time>
      </trkpt>
      <trkpt lat="47.26357" lon="-2.31688">
        <ele>6.4000000953674</ele>
        <time>2021-12-12T08:27:17.000Z</time>
      </trkpt>
      <trkpt lat="47.26365" lon="-2.31683">
        <ele>6.4000000953674</ele>
        <time>2021-12-12T08:27:19.000Z</time>
      </trkpt>
      <trkpt lat="47.26395" lon="-2.31668">
        <ele>6.4000000953674</ele>
        <time>2021-12-12T08:27:26.000Z</time>
      </trkpt>
      <trkpt lat="47.26403" lon="-2.31663">
        <ele>6.8000001907349</ele>
        <time>2021-12-12T08:27:28.000Z</time>
      </trkpt>
      <trkpt lat="47.26407" lon="-2.31662">
        <ele>7.1999998092651</ele>
        <time>2021-12-12T08:27:29.000Z</time>
      </trkpt>
      <trkpt lat="47.26412" lon="-2.3166">
        <ele>7.5999999046326</ele>
        <time>2021-12-12T08:27:30.000Z</time>
      </trkpt>
      <trkpt lat="47.26417" lon="-2.31659">
        <ele>8</ele>
        <time>2021-12-12T08:27:31.000Z</time>
      </trkpt>
      <trkpt lat="47.26421" lon="-2.31657">
        <ele>8.3999996185303</ele>
        <time>2021-12-12T08:27:32.000Z</time>
      </trkpt>
      <trkpt lat="47.26448" lon="-2.31651">
        <ele>8.3999996185303</ele>
        <time>2021-12-12T08:27:38.000Z</time>
      </trkpt>
      <trkpt lat="47.2647" lon="-2.31648">
        <ele>9.1999998092651</ele>
        <time>2021-12-12T08:27:43.000Z</time>
      </trkpt>
      <trkpt lat="47.26475" lon="-2.31647">
        <ele>9.6000003814697</ele>
        <time>2021-12-12T08:27:44.000Z</time>
      </trkpt>
      <trkpt lat="47.26479" lon="-2.31646">
        <ele>10.199999809265</ele>
        <time>2021-12-12T08:27:45.000Z</time>
      </trkpt>
      <trkpt lat="47.26483" lon="-2.31645">
        <ele>10.60000038147</ele>
        <time>2021-12-12T08:27:46.000Z</time>
      </trkpt>
      <trkpt lat="47.26509" lon="-2.31637">
        <ele>11</ele>
        <time>2021-12-12T08:27:52.000Z</time>
      </trkpt>
      <trkpt lat="47.26513" lon="-2.31635">
        <ele>11.39999961853</ele>
        <time>2021-12-12T08:27:53.000Z</time>
      </trkpt>
      <trkpt lat="47.26517" lon="-2.31634">
        <ele>11.800000190735</ele>
        <time>2021-12-12T08:27:54.000Z</time>
      </trkpt>
      <trkpt lat="47.26521" lon="-2.31632">
        <ele>12.199999809265</ele>
        <time>2021-12-12T08:27:55.000Z</time>
      </trkpt>
      <trkpt lat="47.26525" lon="-2.3163">
        <ele>12.60000038147</ele>
        <time>2021-12-12T08:27:56.000Z</time>
      </trkpt>
      <trkpt lat="47.2654" lon="-2.31621">
        <ele>12.60000038147</ele>
        <time>2021-12-12T08:28:00.000Z</time>
      </trkpt>
      <trkpt lat="47.26544" lon="-2.31619">
        <ele>13</ele>
        <time>2021-12-12T08:28:01.000Z</time>
      </trkpt>
      <trkpt lat="47.26547" lon="-2.31617">
        <ele>13.39999961853</ele>
        <time>2021-12-12T08:28:02.000Z</time>
      </trkpt>
      <trkpt lat="47.26551" lon="-2.31614">
        <ele>13.800000190735</ele>
        <time>2021-12-12T08:28:03.000Z</time>
      </trkpt>
      <trkpt lat="47.26554" lon="-2.31612">
        <ele>14.39999961853</ele>
        <time>2021-12-12T08:28:04.000Z</time>
      </trkpt>
      <trkpt lat="47.26558" lon="-2.3161">
        <ele>14.800000190735</ele>
        <time>2021-12-12T08:28:05.000Z</time>
      </trkpt>
      <trkpt lat="47.26565" lon="-2.31606">
        <ele>14.800000190735</ele>
        <time>2021-12-12T08:28:07.000Z</time>
      </trkpt>
      <trkpt lat="47.26573" lon="-2.316">
        <ele>15.199999809265</ele>
        <time>2021-12-12T08:28:09.000Z</time>
      </trkpt>
      <trkpt lat="47.26576" lon="-2.31598">
        <ele>15.60000038147</ele>
        <time>2021-12-12T08:28:10.000Z</time>
      </trkpt>
      <trkpt lat="47.2658" lon="-2.31595">
        <ele>16</ele>
        <time>2021-12-12T08:28:11.000Z</time>
      </trkpt>
      <trkpt lat="47.26583" lon="-2.31592">
        <ele>16.60000038147</ele>
        <time>2021-12-12T08:28:12.000Z</time>
      </trkpt>
      <trkpt lat="47.26587" lon="-2.31589">
        <ele>17</ele>
        <time>2021-12-12T08:28:13.000Z</time>
      </trkpt>
      <trkpt lat="47.26596" lon="-2.31583">
        <ele>17.39999961853</ele>
        <time>2021-12-12T08:28:16.000Z</time>
      </trkpt>
      <trkpt lat="47.26599" lon="-2.31581">
        <ele>17.799999237061</ele>
        <time>2021-12-12T08:28:17.000Z</time>
      </trkpt>
      <trkpt lat="47.26603" lon="-2.31579">
        <ele>18.200000762939</ele>
        <time>2021-12-12T08:28:18.000Z</time>
      </trkpt>
      <trkpt lat="47.26606" lon="-2.31577">
        <ele>18.60000038147</ele>
        <time>2021-12-12T08:28:19.000Z</time>
      </trkpt>
      <trkpt lat="47.26609" lon="-2.31575">
        <ele>19</ele>
        <time>2021-12-12T08:28:20.000Z</time>
      </trkpt>
      <trkpt lat="47.26621" lon="-2.31564">
        <ele>19.60000038147</ele>
        <time>2021-12-12T08:28:24.000Z</time>
      </trkpt>
      <trkpt lat="47.26623" lon="-2.31561">
        <ele>20</ele>
        <time>2021-12-12T08:28:25.000Z</time>
      </trkpt>
      <trkpt lat="47.26626" lon="-2.31558">
        <ele>20.39999961853</ele>
        <time>2021-12-12T08:28:26.000Z</time>
      </trkpt>
      <trkpt lat="47.26628" lon="-2.31555">
        <ele>20.799999237061</ele>
        <time>2021-12-12T08:28:27.000Z</time>
      </trkpt>
      <trkpt lat="47.2663" lon="-2.31552">
        <ele>21.200000762939</ele>
        <time>2021-12-12T08:28:28.000Z</time>
      </trkpt>
      <trkpt lat="47.26631" lon="-2.31548">
        <ele>21.200000762939</ele>
        <time>2021-12-12T08:28:29.000Z</time>
      </trkpt>
      <trkpt lat="47.26631" lon="-2.31544">
        <ele>21.200000762939</ele>
        <time>2021-12-12T08:28:30.000Z</time>
      </trkpt>
      <trkpt lat="47.26626" lon="-2.31531">
        <ele>21.200000762939</ele>
        <time>2021-12-12T08:28:33.000Z</time>
      </trkpt>
      <trkpt lat="47.26622" lon="-2.31521">
        <ele>21.799999237061</ele>
        <time>2021-12-12T08:28:35.000Z</time>
      </trkpt>
      <trkpt lat="47.2662" lon="-2.31516">
        <ele>22.200000762939</ele>
        <time>2021-12-12T08:28:36.000Z</time>
      </trkpt>
      <trkpt lat="47.26618" lon="-2.31512">
        <ele>22.60000038147</ele>
        <time>2021-12-12T08:28:37.000Z</time>
      </trkpt>
      <trkpt lat="47.26616" lon="-2.31507">
        <ele>23</ele>
        <time>2021-12-12T08:28:38.000Z</time>
      </trkpt>
      <trkpt lat="47.26614" lon="-2.31503">
        <ele>23.39999961853</ele>
        <time>2021-12-12T08:28:39.000Z</time>
      </trkpt>
      <trkpt lat="47.26613" lon="-2.31499">
        <ele>23.39999961853</ele>
        <time>2021-12-12T08:28:40.000Z</time>
      </trkpt>
      <trkpt lat="47.26601" lon="-2.31474">
        <ele>23.39999961853</ele>
        <time>2021-12-12T08:28:46.000Z</time>
      </trkpt>
      <trkpt lat="47.26586" lon="-2.31444">
        <ele>23.39999961853</ele>
        <time>2021-12-12T08:28:53.000Z</time>
      </trkpt>
      <trkpt lat="47.26574" lon="-2.3142">
        <ele>23.39999961853</ele>
        <time>2021-12-12T08:28:59.000Z</time>
      </trkpt>
      <trkpt lat="47.26559" lon="-2.31383">
        <ele>23.39999961853</ele>
        <time>2021-12-12T08:29:06.000Z</time>
      </trkpt>
      <trkpt lat="47.26554" lon="-2.3137">
        <ele>23.39999961853</ele>
        <time>2021-12-12T08:29:08.000Z</time>
      </trkpt>
      <trkpt lat="47.26546" lon="-2.31347">
        <ele>23.39999961853</ele>
        <time>2021-12-12T08:29:11.000Z</time>
      </trkpt>
      <trkpt lat="47.26529" lon="-2.31298">
        <ele>22.799999237061</ele>
        <time>2021-12-12T08:29:17.000Z</time>
      </trkpt>
      <trkpt lat="47.26527" lon="-2.31291">
        <ele>22.39999961853</ele>
        <time>2021-12-12T08:29:18.000Z</time>
      </trkpt>
      <trkpt lat="47.26525" lon="-2.31284">
        <ele>22</ele>
        <time>2021-12-12T08:29:19.000Z</time>
      </trkpt>
      <trkpt lat="47.26523" lon="-2.31277">
        <ele>21.39999961853</ele>
        <time>2021-12-12T08:29:20.000Z</time>
      </trkpt>
      <trkpt lat="47.26521" lon="-2.3127">
        <ele>21</ele>
        <time>2021-12-12T08:29:21.000Z</time>
      </trkpt>
      <trkpt lat="47.26519" lon="-2.31264">
        <ele>20.60000038147</ele>
        <time>2021-12-12T08:29:22.000Z</time>
      </trkpt>
      <trkpt lat="47.26517" lon="-2.31259">
        <ele>20.200000762939</ele>
        <time>2021-12-12T08:29:23.000Z</time>
      </trkpt>
      <trkpt lat="47.26515" lon="-2.31255">
        <ele>19.799999237061</ele>
        <time>2021-12-12T08:29:24.000Z</time>
      </trkpt>
      <trkpt lat="47.26512" lon="-2.31251">
        <ele>19.39999961853</ele>
        <time>2021-12-12T08:29:25.000Z</time>
      </trkpt>
      <trkpt lat="47.2651" lon="-2.31246">
        <ele>19</ele>
        <time>2021-12-12T08:29:26.000Z</time>
      </trkpt>
      <trkpt lat="47.26507" lon="-2.31242">
        <ele>19</ele>
        <time>2021-12-12T08:29:27.000Z</time>
      </trkpt>
      <trkpt lat="47.26503" lon="-2.31236">
        <ele>19</ele>
        <time>2021-12-12T08:29:28.000Z</time>
      </trkpt>
      <trkpt lat="47.26495" lon="-2.31208">
        <ele>19</ele>
        <time>2021-12-12T08:29:32.000Z</time>
      </trkpt>
      <trkpt lat="47.26474" lon="-2.31152">
        <ele>18.60000038147</ele>
        <time>2021-12-12T08:29:40.000Z</time>
      </trkpt>
      <trkpt lat="47.26471" lon="-2.31145">
        <ele>18.200000762939</ele>
        <time>2021-12-12T08:29:41.000Z</time>
      </trkpt>
      <trkpt lat="47.26468" lon="-2.31138">
        <ele>17.799999237061</ele>
        <time>2021-12-12T08:29:42.000Z</time>
      </trkpt>
      <trkpt lat="47.26465" lon="-2.31131">
        <ele>17.39999961853</ele>
        <time>2021-12-12T08:29:43.000Z</time>
      </trkpt>
      <trkpt lat="47.26462" lon="-2.31124">
        <ele>17</ele>
        <time>2021-12-12T08:29:44.000Z</time>
      </trkpt>
      <trkpt lat="47.26453" lon="-2.31103">
        <ele>17</ele>
        <time>2021-12-12T08:29:47.000Z</time>
      </trkpt>
      <trkpt lat="47.26437" lon="-2.31066">
        <ele>17</ele>
        <time>2021-12-12T08:29:52.000Z</time>
      </trkpt>
      <trkpt lat="47.26431" lon="-2.31052">
        <ele>17</ele>
        <time>2021-12-12T08:29:54.000Z</time>
      </trkpt>
      <trkpt lat="47.26425" lon="-2.31037">
        <ele>16.60000038147</ele>
        <time>2021-12-12T08:29:56.000Z</time>
      </trkpt>
      <trkpt lat="47.26422" lon="-2.3103">
        <ele>16.200000762939</ele>
        <time>2021-12-12T08:29:57.000Z</time>
      </trkpt>
      <trkpt lat="47.2642" lon="-2.31024">
        <ele>15.800000190735</ele>
        <time>2021-12-12T08:29:58.000Z</time>
      </trkpt>
      <trkpt lat="47.26419" lon="-2.31018">
        <ele>15.39999961853</ele>
        <time>2021-12-12T08:29:59.000Z</time>
      </trkpt>
      <trkpt lat="47.26419" lon="-2.31012">
        <ele>15</ele>
        <time>2021-12-12T08:30:00.000Z</time>
      </trkpt>
      <trkpt lat="47.26421" lon="-2.31004">
        <ele>15</ele>
        <time>2021-12-12T08:30:02.000Z</time>
      </trkpt>
      <trkpt lat="47.26431" lon="-2.30985">
        <ele>15</ele>
        <time>2021-12-12T08:30:07.000Z</time>
      </trkpt>
      <trkpt lat="47.26448" lon="-2.3096">
        <ele>15</ele>
        <time>2021-12-12T08:30:14.000Z</time>
      </trkpt>
      <trkpt lat="47.26463" lon="-2.30942">
        <ele>15</ele>
        <time>2021-12-12T08:30:20.000Z</time>
      </trkpt>
      <trkpt lat="47.26472" lon="-2.30925">
        <ele>15</ele>
        <time>2021-12-12T08:30:26.000Z</time>
      </trkpt>
      <trkpt lat="47.26479" lon="-2.30913">
        <ele>15.39999961853</ele>
        <time>2021-12-12T08:30:31.000Z</time>
      </trkpt>
      <trkpt lat="47.2648" lon="-2.3091">
        <ele>15.800000190735</ele>
        <time>2021-12-12T08:30:32.000Z</time>
      </trkpt>
      <trkpt lat="47.26483" lon="-2.30907">
        <ele>16.200000762939</ele>
        <time>2021-12-12T08:30:33.000Z</time>
      </trkpt>
      <trkpt lat="47.26485" lon="-2.30904">
        <ele>16.60000038147</ele>
        <time>2021-12-12T08:30:34.000Z</time>
      </trkpt>
      <trkpt lat="47.26488" lon="-2.30901">
        <ele>17</ele>
        <time>2021-12-12T08:30:35.000Z</time>
      </trkpt>
      <trkpt lat="47.26498" lon="-2.3089">
        <ele>17</ele>
        <time>2021-12-12T08:30:39.000Z</time>
      </trkpt>
      <trkpt lat="47.26514" lon="-2.30873">
        <ele>17</ele>
        <time>2021-12-12T08:30:46.000Z</time>
      </trkpt>
      <trkpt lat="47.26518" lon="-2.30869">
        <ele>17.60000038147</ele>
        <time>2021-12-12T08:30:48.000Z</time>
      </trkpt>
      <trkpt lat="47.2652" lon="-2.30867">
        <ele>18</ele>
        <time>2021-12-12T08:30:49.000Z</time>
      </trkpt>
      <trkpt lat="47.26522" lon="-2.30865">
        <ele>18.39999961853</ele>
        <time>2021-12-12T08:30:50.000Z</time>
      </trkpt>
      <trkpt lat="47.26524" lon="-2.30862">
        <ele>18.799999237061</ele>
        <time>2021-12-12T08:30:51.000Z</time>
      </trkpt>
      <trkpt lat="47.26527" lon="-2.3086">
        <ele>19.200000762939</ele>
        <time>2021-12-12T08:30:52.000Z</time>
      </trkpt>
      <trkpt lat="47.26529" lon="-2.30856">
        <ele>19.200000762939</ele>
        <time>2021-12-12T08:30:53.000Z</time>
      </trkpt>
      <trkpt lat="47.26545" lon="-2.30842">
        <ele>19.200000762939</ele>
        <time>2021-12-12T08:30:59.000Z</time>
      </trkpt>
      <trkpt lat="47.26549" lon="-2.30844">
        <ele>19.200000762939</ele>
        <time>2021-12-12T08:31:00.000Z</time>
      </trkpt>
      <trkpt lat="47.26557" lon="-2.3084">
        <ele>19.200000762939</ele>
        <time>2021-12-12T08:31:03.000Z</time>
      </trkpt>
      <trkpt lat="47.26559" lon="-2.30837">
        <ele>19.200000762939</ele>
        <time>2021-12-12T08:31:04.000Z</time>
      </trkpt>
      <trkpt lat="47.26566" lon="-2.30825">
        <ele>19.60000038147</ele>
        <time>2021-12-12T08:31:07.000Z</time>
      </trkpt>
      <trkpt lat="47.26568" lon="-2.30821">
        <ele>20</ele>
        <time>2021-12-12T08:31:08.000Z</time>
      </trkpt>
      <trkpt lat="47.2657" lon="-2.30818">
        <ele>20.39999961853</ele>
        <time>2021-12-12T08:31:09.000Z</time>
      </trkpt>
      <trkpt lat="47.26572" lon="-2.30815">
        <ele>20.799999237061</ele>
        <time>2021-12-12T08:31:10.000Z</time>
      </trkpt>
      <trkpt lat="47.26575" lon="-2.30812">
        <ele>21.200000762939</ele>
        <time>2021-12-12T08:31:11.000Z</time>
      </trkpt>
      <trkpt lat="47.26586" lon="-2.30799">
        <ele>21.200000762939</ele>
        <time>2021-12-12T08:31:16.000Z</time>
      </trkpt>
      <trkpt lat="47.26599" lon="-2.30783">
        <ele>21.200000762939</ele>
        <time>2021-12-12T08:31:21.000Z</time>
      </trkpt>
      <trkpt lat="47.26609" lon="-2.30772">
        <ele>21.60000038147</ele>
        <time>2021-12-12T08:31:25.000Z</time>
      </trkpt>
      <trkpt lat="47.26611" lon="-2.30769">
        <ele>22</ele>
        <time>2021-12-12T08:31:26.000Z</time>
      </trkpt>
      <trkpt lat="47.26613" lon="-2.30766">
        <ele>22.39999961853</ele>
        <time>2021-12-12T08:31:27.000Z</time>
      </trkpt>
      <trkpt lat="47.26615" lon="-2.30763">
        <ele>22.799999237061</ele>
        <time>2021-12-12T08:31:28.000Z</time>
      </trkpt>
      <trkpt lat="47.26616" lon="-2.30759">
        <ele>23.200000762939</ele>
        <time>2021-12-12T08:31:29.000Z</time>
      </trkpt>
      <trkpt lat="47.26618" lon="-2.30749">
        <ele>23.200000762939</ele>
        <time>2021-12-12T08:31:32.000Z</time>
      </trkpt>
      <trkpt lat="47.26627" lon="-2.30737">
        <ele>23.200000762939</ele>
        <time>2021-12-12T08:31:37.000Z</time>
      </trkpt>
      <trkpt lat="47.26636" lon="-2.30727">
        <ele>23.200000762939</ele>
        <time>2021-12-12T08:31:41.000Z</time>
      </trkpt>
      <trkpt lat="47.26639" lon="-2.30721">
        <ele>23.200000762939</ele>
        <time>2021-12-12T08:31:43.000Z</time>
      </trkpt>
      <trkpt lat="47.26639" lon="-2.30713">
        <ele>23.200000762939</ele>
        <time>2021-12-12T08:31:45.000Z</time>
      </trkpt>
      <trkpt lat="47.26641" lon="-2.30704">
        <ele>23.200000762939</ele>
        <time>2021-12-12T08:31:47.000Z</time>
      </trkpt>
      <trkpt lat="47.26642" lon="-2.307">
        <ele>23.60000038147</ele>
        <time>2021-12-12T08:31:48.000Z</time>
      </trkpt>
      <trkpt lat="47.26644" lon="-2.30696">
        <ele>24.39999961853</ele>
        <time>2021-12-12T08:31:49.000Z</time>
      </trkpt>
      <trkpt lat="47.26645" lon="-2.30694">
        <ele>24.799999237061</ele>
        <time>2021-12-12T08:31:50.000Z</time>
      </trkpt>
      <trkpt lat="47.26647" lon="-2.30693">
        <ele>25.39999961853</ele>
        <time>2021-12-12T08:31:51.000Z</time>
      </trkpt>
      <trkpt lat="47.26649" lon="-2.30692">
        <ele>25.39999961853</ele>
        <time>2021-12-12T08:31:52.000Z</time>
      </trkpt>
      <trkpt lat="47.26651" lon="-2.30698">
        <ele>25.39999961853</ele>
        <time>2021-12-12T08:31:54.000Z</time>
      </trkpt>
      <trkpt lat="47.26658" lon="-2.30716">
        <ele>25.39999961853</ele>
        <time>2021-12-12T08:31:58.000Z</time>
      </trkpt>
      <trkpt lat="47.26665" lon="-2.30726">
        <ele>25.39999961853</ele>
        <time>2021-12-12T08:32:00.000Z</time>
      </trkpt>
      <trkpt lat="47.26677" lon="-2.30747">
        <ele>25.39999961853</ele>
        <time>2021-12-12T08:32:04.000Z</time>
      </trkpt>
      <trkpt lat="47.26683" lon="-2.30759">
        <ele>25.799999237061</ele>
        <time>2021-12-12T08:32:06.000Z</time>
      </trkpt>
      <trkpt lat="47.26686" lon="-2.30765">
        <ele>26.200000762939</ele>
        <time>2021-12-12T08:32:07.000Z</time>
      </trkpt>
      <trkpt lat="47.26689" lon="-2.30771">
        <ele>26.60000038147</ele>
        <time>2021-12-12T08:32:08.000Z</time>
      </trkpt>
      <trkpt lat="47.26691" lon="-2.30777">
        <ele>27</ele>
        <time>2021-12-12T08:32:09.000Z</time>
      </trkpt>
      <trkpt lat="47.26694" lon="-2.30782">
        <ele>27.39999961853</ele>
        <time>2021-12-12T08:32:10.000Z</time>
      </trkpt>
      <trkpt lat="47.26707" lon="-2.30814">
        <ele>27.39999961853</ele>
        <time>2021-12-12T08:32:16.000Z</time>
      </trkpt>
      <trkpt lat="47.26711" lon="-2.30823">
        <ele>27.799999237061</ele>
        <time>2021-12-12T08:32:18.000Z</time>
      </trkpt>
      <trkpt lat="47.26713" lon="-2.30827">
        <ele>28.39999961853</ele>
        <time>2021-12-12T08:32:19.000Z</time>
      </trkpt>
      <trkpt lat="47.26715" lon="-2.30831">
        <ele>28.799999237061</ele>
        <time>2021-12-12T08:32:20.000Z</time>
      </trkpt>
      <trkpt lat="47.26717" lon="-2.30836">
        <ele>29.200000762939</ele>
        <time>2021-12-12T08:32:21.000Z</time>
      </trkpt>
      <trkpt lat="47.2672" lon="-2.30841">
        <ele>29.60000038147</ele>
        <time>2021-12-12T08:32:22.000Z</time>
      </trkpt>
      <trkpt lat="47.26724" lon="-2.30851">
        <ele>29.60000038147</ele>
        <time>2021-12-12T08:32:24.000Z</time>
      </trkpt>
      <trkpt lat="47.26729" lon="-2.30859">
        <ele>29.60000038147</ele>
        <time>2021-12-12T08:32:26.000Z</time>
      </trkpt>
      <trkpt lat="47.26743" lon="-2.30867">
        <ele>29.60000038147</ele>
        <time>2021-12-12T08:32:30.000Z</time>
      </trkpt>
      <trkpt lat="47.26758" lon="-2.30855">
        <ele>29.60000038147</ele>
        <time>2021-12-12T08:32:34.000Z</time>
      </trkpt>
      <trkpt lat="47.26784" lon="-2.3083">
        <ele>29.60000038147</ele>
        <time>2021-12-12T08:32:41.000Z</time>
      </trkpt>
      <trkpt lat="47.26808" lon="-2.30801">
        <ele>29.60000038147</ele>
        <time>2021-12-12T08:32:48.000Z</time>
      </trkpt>
      <trkpt lat="47.26813" lon="-2.30798">
        <ele>29.60000038147</ele>
        <time>2021-12-12T08:32:49.000Z</time>
      </trkpt>
      <trkpt lat="47.2683" lon="-2.30787">
        <ele>29.60000038147</ele>
        <time>2021-12-12T08:32:53.000Z</time>
      </trkpt>
      <trkpt lat="47.26834" lon="-2.30782">
        <ele>29.60000038147</ele>
        <time>2021-12-12T08:32:54.000Z</time>
      </trkpt>
      <trkpt lat="47.26839" lon="-2.3077">
        <ele>29.60000038147</ele>
        <time>2021-12-12T08:32:56.000Z</time>
      </trkpt>
      <trkpt lat="47.26843" lon="-2.30757">
        <ele>29.60000038147</ele>
        <time>2021-12-12T08:32:58.000Z</time>
      </trkpt>
      <trkpt lat="47.26856" lon="-2.30717">
        <ele>29.60000038147</ele>
        <time>2021-12-12T08:33:04.000Z</time>
      </trkpt>
      <trkpt lat="47.26872" lon="-2.30683">
        <ele>29.60000038147</ele>
        <time>2021-12-12T08:33:10.000Z</time>
      </trkpt>
      <trkpt lat="47.26878" lon="-2.30674">
        <ele>29.60000038147</ele>
        <time>2021-12-12T08:33:12.000Z</time>
      </trkpt>
      <trkpt lat="47.26889" lon="-2.30661">
        <ele>29.60000038147</ele>
        <time>2021-12-12T08:33:15.000Z</time>
      </trkpt>
      <trkpt lat="47.26892" lon="-2.3066">
        <ele>29.60000038147</ele>
        <time>2021-12-12T08:33:16.000Z</time>
      </trkpt>
      <trkpt lat="47.26902" lon="-2.30669">
        <ele>29.60000038147</ele>
        <time>2021-12-12T08:33:19.000Z</time>
      </trkpt>
      <trkpt lat="47.26911" lon="-2.30683">
        <ele>29.60000038147</ele>
        <time>2021-12-12T08:33:22.000Z</time>
      </trkpt>
      <trkpt lat="47.26919" lon="-2.30693">
        <ele>29.60000038147</ele>
        <time>2021-12-12T08:33:24.000Z</time>
      </trkpt>
      <trkpt lat="47.26945" lon="-2.30735">
        <ele>29.60000038147</ele>
        <time>2021-12-12T08:33:31.000Z</time>
      </trkpt>
      <trkpt lat="47.26953" lon="-2.30747">
        <ele>29.60000038147</ele>
        <time>2021-12-12T08:33:33.000Z</time>
      </trkpt>
      <trkpt lat="47.2697" lon="-2.3077">
        <ele>29.60000038147</ele>
        <time>2021-12-12T08:33:37.000Z</time>
      </trkpt>
      <trkpt lat="47.26973" lon="-2.30776">
        <ele>29.200000762939</ele>
        <time>2021-12-12T08:33:38.000Z</time>
      </trkpt>
      <trkpt lat="47.26977" lon="-2.30782">
        <ele>28.799999237061</ele>
        <time>2021-12-12T08:33:39.000Z</time>
      </trkpt>
      <trkpt lat="47.2698" lon="-2.30788">
        <ele>28.39999961853</ele>
        <time>2021-12-12T08:33:40.000Z</time>
      </trkpt>
      <trkpt lat="47.26983" lon="-2.30794">
        <ele>28</ele>
        <time>2021-12-12T08:33:41.000Z</time>
      </trkpt>
      <trkpt lat="47.26987" lon="-2.30799">
        <ele>27.60000038147</ele>
        <time>2021-12-12T08:33:42.000Z</time>
      </trkpt>
      <trkpt lat="47.26991" lon="-2.30804">
        <ele>27.60000038147</ele>
        <time>2021-12-12T08:33:43.000Z</time>
      </trkpt>
      <trkpt lat="47.27008" lon="-2.30829">
        <ele>27.200000762939</ele>
        <time>2021-12-12T08:33:47.000Z</time>
      </trkpt>
      <trkpt lat="47.27011" lon="-2.30835">
        <ele>26.799999237061</ele>
        <time>2021-12-12T08:33:48.000Z</time>
      </trkpt>
      <trkpt lat="47.27015" lon="-2.3084">
        <ele>26.39999961853</ele>
        <time>2021-12-12T08:33:49.000Z</time>
      </trkpt>
      <trkpt lat="47.27019" lon="-2.30845">
        <ele>26</ele>
        <time>2021-12-12T08:33:50.000Z</time>
      </trkpt>
      <trkpt lat="47.27023" lon="-2.30851">
        <ele>25.60000038147</ele>
        <time>2021-12-12T08:33:51.000Z</time>
      </trkpt>
      <trkpt lat="47.27031" lon="-2.30864">
        <ele>25.60000038147</ele>
        <time>2021-12-12T08:33:53.000Z</time>
      </trkpt>
      <trkpt lat="47.27041" lon="-2.30882">
        <ele>25</ele>
        <time>2021-12-12T08:33:56.000Z</time>
      </trkpt>
      <trkpt lat="47.27044" lon="-2.30887">
        <ele>24.60000038147</ele>
        <time>2021-12-12T08:33:57.000Z</time>
      </trkpt>
      <trkpt lat="47.27046" lon="-2.30891">
        <ele>24.200000762939</ele>
        <time>2021-12-12T08:33:58.000Z</time>
      </trkpt>
      <trkpt lat="47.27047" lon="-2.30895">
        <ele>23.799999237061</ele>
        <time>2021-12-12T08:33:59.000Z</time>
      </trkpt>
      <trkpt lat="47.27048" lon="-2.30899">
        <ele>23.200000762939</ele>
        <time>2021-12-12T08:34:00.000Z</time>
      </trkpt>
      <trkpt lat="47.2705" lon="-2.30908">
        <ele>23.200000762939</ele>
        <time>2021-12-12T08:34:02.000Z</time>
      </trkpt>
      <trkpt lat="47.27058" lon="-2.30927">
        <ele>23.200000762939</ele>
        <time>2021-12-12T08:34:07.000Z</time>
      </trkpt>
      <trkpt lat="47.27062" lon="-2.30949">
        <ele>23.200000762939</ele>
        <time>2021-12-12T08:34:12.000Z</time>
      </trkpt>
      <trkpt lat="47.27063" lon="-2.30968">
        <ele>23.200000762939</ele>
        <time>2021-12-12T08:34:16.000Z</time>
      </trkpt>
      <trkpt lat="47.27064" lon="-2.3099">
        <ele>23.200000762939</ele>
        <time>2021-12-12T08:34:21.000Z</time>
      </trkpt>
      <trkpt lat="47.27053" lon="-2.31004">
        <ele>23.200000762939</ele>
        <time>2021-12-12T08:34:25.000Z</time>
      </trkpt>
      <trkpt lat="47.2703" lon="-2.31028">
        <ele>23.200000762939</ele>
        <time>2021-12-12T08:34:31.000Z</time>
      </trkpt>
      <trkpt lat="47.27002" lon="-2.31055">
        <ele>23.200000762939</ele>
        <time>2021-12-12T08:34:38.000Z</time>
      </trkpt>
      <trkpt lat="47.26998" lon="-2.3106">
        <ele>23.799999237061</ele>
        <time>2021-12-12T08:34:39.000Z</time>
      </trkpt>
      <trkpt lat="47.26996" lon="-2.31064">
        <ele>24.200000762939</ele>
        <time>2021-12-12T08:34:40.000Z</time>
      </trkpt>
      <trkpt lat="47.26994" lon="-2.31069">
        <ele>24.60000038147</ele>
        <time>2021-12-12T08:34:41.000Z</time>
      </trkpt>
      <trkpt lat="47.26993" lon="-2.31075">
        <ele>25.39999961853</ele>
        <time>2021-12-12T08:34:42.000Z</time>
      </trkpt>
      <trkpt lat="47.26994" lon="-2.31094">
        <ele>25.39999961853</ele>
        <time>2021-12-12T08:34:45.000Z</time>
      </trkpt>
      <trkpt lat="47.26994" lon="-2.31102">
        <ele>25.39999961853</ele>
        <time>2021-12-12T08:34:46.000Z</time>
      </trkpt>
      <trkpt lat="47.26994" lon="-2.31123">
        <ele>25.39999961853</ele>
        <time>2021-12-12T08:34:49.000Z</time>
      </trkpt>
      <trkpt lat="47.26992" lon="-2.31136">
        <ele>25.799999237061</ele>
        <time>2021-12-12T08:34:51.000Z</time>
      </trkpt>
      <trkpt lat="47.26992" lon="-2.31143">
        <ele>26.200000762939</ele>
        <time>2021-12-12T08:34:52.000Z</time>
      </trkpt>
      <trkpt lat="47.26991" lon="-2.3115">
        <ele>26.60000038147</ele>
        <time>2021-12-12T08:34:53.000Z</time>
      </trkpt>
      <trkpt lat="47.2699" lon="-2.31157">
        <ele>27</ele>
        <time>2021-12-12T08:34:54.000Z</time>
      </trkpt>
      <trkpt lat="47.2699" lon="-2.31161">
        <ele>27.39999961853</ele>
        <time>2021-12-12T08:34:55.000Z</time>
      </trkpt>
      <trkpt lat="47.26989" lon="-2.31166">
        <ele>27.39999961853</ele>
        <time>2021-12-12T08:34:56.000Z</time>
      </trkpt>
      <trkpt lat="47.26982" lon="-2.31203">
        <ele>27.799999237061</ele>
        <time>2021-12-12T08:35:01.000Z</time>
      </trkpt>
      <trkpt lat="47.26981" lon="-2.3121">
        <ele>28.200000762939</ele>
        <time>2021-12-12T08:35:02.000Z</time>
      </trkpt>
      <trkpt lat="47.2698" lon="-2.31217">
        <ele>28.60000038147</ele>
        <time>2021-12-12T08:35:03.000Z</time>
      </trkpt>
      <trkpt lat="47.26979" lon="-2.31223">
        <ele>29.200000762939</ele>
        <time>2021-12-12T08:35:04.000Z</time>
      </trkpt>
      <trkpt lat="47.26978" lon="-2.31229">
        <ele>29.60000038147</ele>
        <time>2021-12-12T08:35:05.000Z</time>
      </trkpt>
      <trkpt lat="47.26976" lon="-2.31254">
        <ele>29.60000038147</ele>
        <time>2021-12-12T08:35:09.000Z</time>
      </trkpt>
      <trkpt lat="47.26977" lon="-2.3126">
        <ele>29.60000038147</ele>
        <time>2021-12-12T08:35:10.000Z</time>
      </trkpt>
      <trkpt lat="47.26976" lon="-2.31289">
        <ele>29.60000038147</ele>
        <time>2021-12-12T08:35:15.000Z</time>
      </trkpt>
      <trkpt lat="47.26977" lon="-2.31305">
        <ele>29.60000038147</ele>
        <time>2021-12-12T08:35:18.000Z</time>
      </trkpt>
      <trkpt lat="47.26978" lon="-2.31311">
        <ele>30</ele>
        <time>2021-12-12T08:35:19.000Z</time>
      </trkpt>
      <trkpt lat="47.26979" lon="-2.31318">
        <ele>30.39999961853</ele>
        <time>2021-12-12T08:35:20.000Z</time>
      </trkpt>
      <trkpt lat="47.26981" lon="-2.31325">
        <ele>30.799999237061</ele>
        <time>2021-12-12T08:35:21.000Z</time>
      </trkpt>
      <trkpt lat="47.26982" lon="-2.31332">
        <ele>31.200000762939</ele>
        <time>2021-12-12T08:35:22.000Z</time>
      </trkpt>
      <trkpt lat="47.26983" lon="-2.31339">
        <ele>31.60000038147</ele>
        <time>2021-12-12T08:35:23.000Z</time>
      </trkpt>
      <trkpt lat="47.26987" lon="-2.31367">
        <ele>31.60000038147</ele>
        <time>2021-12-12T08:35:27.000Z</time>
      </trkpt>
      <trkpt lat="47.26991" lon="-2.31413">
        <ele>31.200000762939</ele>
        <time>2021-12-12T08:35:32.000Z</time>
      </trkpt>
      <trkpt lat="47.26992" lon="-2.31422">
        <ele>30.60000038147</ele>
        <time>2021-12-12T08:35:33.000Z</time>
      </trkpt>
      <trkpt lat="47.26992" lon="-2.31431">
        <ele>30.200000762939</ele>
        <time>2021-12-12T08:35:34.000Z</time>
      </trkpt>
      <trkpt lat="47.26992" lon="-2.3144">
        <ele>29.799999237061</ele>
        <time>2021-12-12T08:35:35.000Z</time>
      </trkpt>
      <trkpt lat="47.26992" lon="-2.31447">
        <ele>29.39999961853</ele>
        <time>2021-12-12T08:35:36.000Z</time>
      </trkpt>
      <trkpt lat="47.26993" lon="-2.31455">
        <ele>29.39999961853</ele>
        <time>2021-12-12T08:35:37.000Z</time>
      </trkpt>
      <trkpt lat="47.27001" lon="-2.31483">
        <ele>29</ele>
        <time>2021-12-12T08:35:41.000Z</time>
      </trkpt>
      <trkpt lat="47.27003" lon="-2.3149">
        <ele>28.39999961853</ele>
        <time>2021-12-12T08:35:42.000Z</time>
      </trkpt>
      <trkpt lat="47.27004" lon="-2.31498">
        <ele>28</ele>
        <time>2021-12-12T08:35:43.000Z</time>
      </trkpt>
      <trkpt lat="47.27006" lon="-2.31507">
        <ele>27.60000038147</ele>
        <time>2021-12-12T08:35:44.000Z</time>
      </trkpt>
      <trkpt lat="47.27008" lon="-2.31517">
        <ele>27.200000762939</ele>
        <time>2021-12-12T08:35:45.000Z</time>
      </trkpt>
      <trkpt lat="47.27011" lon="-2.31526">
        <ele>27.200000762939</ele>
        <time>2021-12-12T08:35:46.000Z</time>
      </trkpt>
      <trkpt lat="47.27017" lon="-2.31542">
        <ele>26.799999237061</ele>
        <time>2021-12-12T08:35:48.000Z</time>
      </trkpt>
      <trkpt lat="47.27021" lon="-2.31549">
        <ele>26.39999961853</ele>
        <time>2021-12-12T08:35:49.000Z</time>
      </trkpt>
      <trkpt lat="47.27024" lon="-2.31557">
        <ele>25.799999237061</ele>
        <time>2021-12-12T08:35:50.000Z</time>
      </trkpt>
      <trkpt lat="47.27028" lon="-2.31564">
        <ele>25.39999961853</ele>
        <time>2021-12-12T08:35:51.000Z</time>
      </trkpt>
      <trkpt lat="47.2703" lon="-2.3157">
        <ele>25</ele>
        <time>2021-12-12T08:35:52.000Z</time>
      </trkpt>
      <trkpt lat="47.27033" lon="-2.31575">
        <ele>24.60000038147</ele>
        <time>2021-12-12T08:35:53.000Z</time>
      </trkpt>
      <trkpt lat="47.27035" lon="-2.3158">
        <ele>24</ele>
        <time>2021-12-12T08:35:54.000Z</time>
      </trkpt>
      <trkpt lat="47.27037" lon="-2.31586">
        <ele>23</ele>
        <time>2021-12-12T08:35:55.000Z</time>
      </trkpt>
      <trkpt lat="47.27039" lon="-2.31593">
        <ele>22.60000038147</ele>
        <time>2021-12-12T08:35:56.000Z</time>
      </trkpt>
      <trkpt lat="47.27042" lon="-2.31609">
        <ele>22.200000762939</ele>
        <time>2021-12-12T08:35:58.000Z</time>
      </trkpt>
      <trkpt lat="47.27044" lon="-2.31617">
        <ele>21.799999237061</ele>
        <time>2021-12-12T08:35:59.000Z</time>
      </trkpt>
      <trkpt lat="47.27047" lon="-2.31625">
        <ele>21.39999961853</ele>
        <time>2021-12-12T08:36:00.000Z</time>
      </trkpt>
      <trkpt lat="47.27048" lon="-2.31634">
        <ele>21</ele>
        <time>2021-12-12T08:36:01.000Z</time>
      </trkpt>
      <trkpt lat="47.27049" lon="-2.31643">
        <ele>20.39999961853</ele>
        <time>2021-12-12T08:36:02.000Z</time>
      </trkpt>
      <trkpt lat="47.27048" lon="-2.31651">
        <ele>20.39999961853</ele>
        <time>2021-12-12T08:36:03.000Z</time>
      </trkpt>
      <trkpt lat="47.27044" lon="-2.31669">
        <ele>20</ele>
        <time>2021-12-12T08:36:05.000Z</time>
      </trkpt>
      <trkpt lat="47.27042" lon="-2.31676">
        <ele>19.60000038147</ele>
        <time>2021-12-12T08:36:06.000Z</time>
      </trkpt>
      <trkpt lat="47.27041" lon="-2.31682">
        <ele>19.200000762939</ele>
        <time>2021-12-12T08:36:07.000Z</time>
      </trkpt>
      <trkpt lat="47.27038" lon="-2.31687">
        <ele>18.799999237061</ele>
        <time>2021-12-12T08:36:08.000Z</time>
      </trkpt>
      <trkpt lat="47.27037" lon="-2.31691">
        <ele>18.200000762939</ele>
        <time>2021-12-12T08:36:09.000Z</time>
      </trkpt>
      <trkpt lat="47.27037" lon="-2.31697">
        <ele>18.200000762939</ele>
        <time>2021-12-12T08:36:10.000Z</time>
      </trkpt>
      <trkpt lat="47.27039" lon="-2.31702">
        <ele>18.200000762939</ele>
        <time>2021-12-12T08:36:11.000Z</time>
      </trkpt>
      <trkpt lat="47.27046" lon="-2.31713">
        <ele>18.200000762939</ele>
        <time>2021-12-12T08:36:15.000Z</time>
      </trkpt>
      <trkpt lat="47.27057" lon="-2.31728">
        <ele>17.799999237061</ele>
        <time>2021-12-12T08:36:21.000Z</time>
      </trkpt>
      <trkpt lat="47.27058" lon="-2.31731">
        <ele>17.39999961853</ele>
        <time>2021-12-12T08:36:22.000Z</time>
      </trkpt>
      <trkpt lat="47.27057" lon="-2.31734">
        <ele>17</ele>
        <time>2021-12-12T08:36:23.000Z</time>
      </trkpt>
      <trkpt lat="47.27056" lon="-2.31739">
        <ele>16.60000038147</ele>
        <time>2021-12-12T08:36:24.000Z</time>
      </trkpt>
      <trkpt lat="47.27056" lon="-2.31742">
        <ele>16.200000762939</ele>
        <time>2021-12-12T08:36:25.000Z</time>
      </trkpt>
      <trkpt lat="47.27053" lon="-2.31753">
        <ele>16.200000762939</ele>
        <time>2021-12-12T08:36:30.000Z</time>
      </trkpt>
      <trkpt lat="47.27053" lon="-2.31754">
        <ele>16.200000762939</ele>
        <time>2021-12-12T08:36:31.000Z</time>
      </trkpt>
      <trkpt lat="47.27054" lon="-2.3176">
        <ele>16.200000762939</ele>
        <time>2021-12-12T08:36:51.000Z</time>
      </trkpt>
      <trkpt lat="47.27056" lon="-2.31771">
        <ele>16.200000762939</ele>
        <time>2021-12-12T08:36:54.000Z</time>
      </trkpt>
      <trkpt lat="47.27057" lon="-2.31798">
        <ele>16.200000762939</ele>
        <time>2021-12-12T08:36:59.000Z</time>
      </trkpt>
      <trkpt lat="47.27059" lon="-2.31815">
        <ele>16.200000762939</ele>
        <time>2021-12-12T08:37:03.000Z</time>
      </trkpt>
      <trkpt lat="47.27062" lon="-2.31841">
        <ele>16.200000762939</ele>
        <time>2021-12-12T08:37:09.000Z</time>
      </trkpt>
      <trkpt lat="47.27065" lon="-2.31848">
        <ele>15.800000190735</ele>
        <time>2021-12-12T08:37:11.000Z</time>
      </trkpt>
      <trkpt lat="47.27067" lon="-2.3185">
        <ele>15.39999961853</ele>
        <time>2021-12-12T08:37:12.000Z</time>
      </trkpt>
      <trkpt lat="47.27069" lon="-2.31851">
        <ele>15</ele>
        <time>2021-12-12T08:37:13.000Z</time>
      </trkpt>
      <trkpt lat="47.27071" lon="-2.31852">
        <ele>14.60000038147</ele>
        <time>2021-12-12T08:37:14.000Z</time>
      </trkpt>
      <trkpt lat="47.27072" lon="-2.31853">
        <ele>14.199999809265</ele>
        <time>2021-12-12T08:37:15.000Z</time>
      </trkpt>
      <trkpt lat="47.27073" lon="-2.31853">
        <ele>14.199999809265</ele>
        <time>2021-12-12T08:37:16.000Z</time>
      </trkpt>
      <trkpt lat="47.27074" lon="-2.31854">
        <ele>14.199999809265</ele>
        <time>2021-12-12T08:37:17.000Z</time>
      </trkpt>
      <trkpt lat="47.27078" lon="-2.3186">
        <ele>14.199999809265</ele>
        <time>2021-12-12T08:37:21.000Z</time>
      </trkpt>
      <trkpt lat="47.27078" lon="-2.31862">
        <ele>14.199999809265</ele>
        <time>2021-12-12T08:37:22.000Z</time>
      </trkpt>
      <trkpt lat="47.27076" lon="-2.31866">
        <ele>14.199999809265</ele>
        <time>2021-12-12T08:37:25.000Z</time>
      </trkpt>
      <trkpt lat="47.27075" lon="-2.3187">
        <ele>14.199999809265</ele>
        <time>2021-12-12T08:37:27.000Z</time>
      </trkpt>
      <trkpt lat="47.27072" lon="-2.31893">
        <ele>14.199999809265</ele>
        <time>2021-12-12T08:37:34.000Z</time>
      </trkpt>
      <trkpt lat="47.27076" lon="-2.31927">
        <ele>14.199999809265</ele>
        <time>2021-12-12T08:37:39.000Z</time>
      </trkpt>
      <trkpt lat="47.27076" lon="-2.31938">
        <ele>13.60000038147</ele>
        <time>2021-12-12T08:37:41.000Z</time>
      </trkpt>
      <trkpt lat="47.27077" lon="-2.31942">
        <ele>13.199999809265</ele>
        <time>2021-12-12T08:37:42.000Z</time>
      </trkpt>
      <trkpt lat="47.27077" lon="-2.31948">
        <ele>12.800000190735</ele>
        <time>2021-12-12T08:37:43.000Z</time>
      </trkpt>
      <trkpt lat="47.27079" lon="-2.31952">
        <ele>12.39999961853</ele>
        <time>2021-12-12T08:37:44.000Z</time>
      </trkpt>
      <trkpt lat="47.2708" lon="-2.31953">
        <ele>12</ele>
        <time>2021-12-12T08:37:45.000Z</time>
      </trkpt>
      <trkpt lat="47.27085" lon="-2.31952">
        <ele>12</ele>
        <time>2021-12-12T08:37:47.000Z</time>
      </trkpt>
      <trkpt lat="47.27088" lon="-2.31952">
        <ele>12</ele>
        <time>2021-12-12T08:37:48.000Z</time>
      </trkpt>
      <trkpt lat="47.27104" lon="-2.31956">
        <ele>12</ele>
        <time>2021-12-12T08:37:52.000Z</time>
      </trkpt>
      <trkpt lat="47.27132" lon="-2.31973">
        <ele>11.60000038147</ele>
        <time>2021-12-12T08:37:58.000Z</time>
      </trkpt>
      <trkpt lat="47.27137" lon="-2.31976">
        <ele>10.800000190735</ele>
        <time>2021-12-12T08:37:59.000Z</time>
      </trkpt>
      <trkpt lat="47.27141" lon="-2.31979">
        <ele>10.39999961853</ele>
        <time>2021-12-12T08:38:00.000Z</time>
      </trkpt>
      <trkpt lat="47.27145" lon="-2.31982">
        <ele>10</ele>
        <time>2021-12-12T08:38:01.000Z</time>
      </trkpt>
      <trkpt lat="47.27152" lon="-2.31988">
        <ele>10</ele>
        <time>2021-12-12T08:38:03.000Z</time>
      </trkpt>
      <trkpt lat="47.27157" lon="-2.31989">
        <ele>10</ele>
        <time>2021-12-12T08:38:04.000Z</time>
      </trkpt>
      <trkpt lat="47.27168" lon="-2.31986">
        <ele>10</ele>
        <time>2021-12-12T08:38:07.000Z</time>
      </trkpt>
      <trkpt lat="47.27174" lon="-2.31981">
        <ele>10</ele>
        <time>2021-12-12T08:38:09.000Z</time>
      </trkpt>
      <trkpt lat="47.27183" lon="-2.31973">
        <ele>10</ele>
        <time>2021-12-12T08:38:12.000Z</time>
      </trkpt>
      <trkpt lat="47.27202" lon="-2.31949">
        <ele>10</ele>
        <time>2021-12-12T08:38:18.000Z</time>
      </trkpt>
      <trkpt lat="47.27211" lon="-2.31929">
        <ele>10</ele>
        <time>2021-12-12T08:38:23.000Z</time>
      </trkpt>
      <trkpt lat="47.27218" lon="-2.3192">
        <ele>10</ele>
        <time>2021-12-12T08:38:28.000Z</time>
      </trkpt>
      <trkpt lat="47.27227" lon="-2.31916">
        <ele>10</ele>
        <time>2021-12-12T08:38:34.000Z</time>
      </trkpt>
      <trkpt lat="47.2723" lon="-2.31917">
        <ele>10</ele>
        <time>2021-12-12T08:38:35.000Z</time>
      </trkpt>
      <trkpt lat="47.27249" lon="-2.31926">
        <ele>10</ele>
        <time>2021-12-12T08:38:40.000Z</time>
      </trkpt>
      <trkpt lat="47.27272" lon="-2.31934">
        <ele>10</ele>
        <time>2021-12-12T08:38:45.000Z</time>
      </trkpt>
      <trkpt lat="47.27299" lon="-2.31949">
        <ele>10</ele>
        <time>2021-12-12T08:38:51.000Z</time>
      </trkpt>
      <trkpt lat="47.27303" lon="-2.31952">
        <ele>10</ele>
        <time>2021-12-12T08:38:52.000Z</time>
      </trkpt>
      <trkpt lat="47.27322" lon="-2.31967">
        <ele>10</ele>
        <time>2021-12-12T08:38:56.000Z</time>
      </trkpt>
      <trkpt lat="47.27351" lon="-2.31998">
        <ele>10</ele>
        <time>2021-12-12T08:39:02.000Z</time>
      </trkpt>
      <trkpt lat="47.27383" lon="-2.3203">
        <ele>10</ele>
        <time>2021-12-12T08:39:09.000Z</time>
      </trkpt>
      <trkpt lat="47.27394" lon="-2.32043">
        <ele>10.39999961853</ele>
        <time>2021-12-12T08:39:12.000Z</time>
      </trkpt>
      <trkpt lat="47.27398" lon="-2.32047">
        <ele>11.199999809265</ele>
        <time>2021-12-12T08:39:13.000Z</time>
      </trkpt>
      <trkpt lat="47.27401" lon="-2.32051">
        <ele>11.60000038147</ele>
        <time>2021-12-12T08:39:14.000Z</time>
      </trkpt>
      <trkpt lat="47.27405" lon="-2.32054">
        <ele>12</ele>
        <time>2021-12-12T08:39:15.000Z</time>
      </trkpt>
      <trkpt lat="47.27409" lon="-2.32059">
        <ele>12</ele>
        <time>2021-12-12T08:39:16.000Z</time>
      </trkpt>
      <trkpt lat="47.27412" lon="-2.32063">
        <ele>12</ele>
        <time>2021-12-12T08:39:17.000Z</time>
      </trkpt>
      <trkpt lat="47.27422" lon="-2.32075">
        <ele>12.60000038147</ele>
        <time>2021-12-12T08:39:20.000Z</time>
      </trkpt>
      <trkpt lat="47.27426" lon="-2.32079">
        <ele>13</ele>
        <time>2021-12-12T08:39:21.000Z</time>
      </trkpt>
      <trkpt lat="47.2743" lon="-2.32083">
        <ele>13.39999961853</ele>
        <time>2021-12-12T08:39:22.000Z</time>
      </trkpt>
      <trkpt lat="47.27434" lon="-2.32087">
        <ele>13.800000190735</ele>
        <time>2021-12-12T08:39:23.000Z</time>
      </trkpt>
      <trkpt lat="47.27437" lon="-2.32091">
        <ele>14.199999809265</ele>
        <time>2021-12-12T08:39:24.000Z</time>
      </trkpt>
      <trkpt lat="47.27471" lon="-2.32136">
        <ele>14.199999809265</ele>
        <time>2021-12-12T08:39:33.000Z</time>
      </trkpt>
      <trkpt lat="47.27503" lon="-2.32177">
        <ele>14.199999809265</ele>
        <time>2021-12-12T08:39:41.000Z</time>
      </trkpt>
      <trkpt lat="47.2751" lon="-2.32187">
        <ele>14.60000038147</ele>
        <time>2021-12-12T08:39:43.000Z</time>
      </trkpt>
      <trkpt lat="47.27513" lon="-2.32192">
        <ele>15</ele>
        <time>2021-12-12T08:39:44.000Z</time>
      </trkpt>
      <trkpt lat="47.27517" lon="-2.32197">
        <ele>15.39999961853</ele>
        <time>2021-12-12T08:39:45.000Z</time>
      </trkpt>
      <trkpt lat="47.27521" lon="-2.32202">
        <ele>15.800000190735</ele>
        <time>2021-12-12T08:39:46.000Z</time>
      </trkpt>
      <trkpt lat="47.27524" lon="-2.32207">
        <ele>16.200000762939</ele>
        <time>2021-12-12T08:39:47.000Z</time>
      </trkpt>
      <trkpt lat="47.27528" lon="-2.32212">
        <ele>16.200000762939</ele>
        <time>2021-12-12T08:39:48.000Z</time>
      </trkpt>
      <trkpt lat="47.27544" lon="-2.32227">
        <ele>16.799999237061</ele>
        <time>2021-12-12T08:39:52.000Z</time>
      </trkpt>
      <trkpt lat="47.27548" lon="-2.3223">
        <ele>17.200000762939</ele>
        <time>2021-12-12T08:39:53.000Z</time>
      </trkpt>
      <trkpt lat="47.27553" lon="-2.32233">
        <ele>17.60000038147</ele>
        <time>2021-12-12T08:39:54.000Z</time>
      </trkpt>
      <trkpt lat="47.27557" lon="-2.32236">
        <ele>18</ele>
        <time>2021-12-12T08:39:55.000Z</time>
      </trkpt>
      <trkpt lat="47.27561" lon="-2.3224">
        <ele>18.39999961853</ele>
        <time>2021-12-12T08:39:56.000Z</time>
      </trkpt>
      <trkpt lat="47.27577" lon="-2.32253">
        <ele>18.799999237061</ele>
        <time>2021-12-12T08:40:00.000Z</time>
      </trkpt>
      <trkpt lat="47.27581" lon="-2.32256">
        <ele>19.39999961853</ele>
        <time>2021-12-12T08:40:01.000Z</time>
      </trkpt>
      <trkpt lat="47.27585" lon="-2.32259">
        <ele>20.200000762939</ele>
        <time>2021-12-12T08:40:02.000Z</time>
      </trkpt>
      <trkpt lat="47.27588" lon="-2.32263">
        <ele>20.60000038147</ele>
        <time>2021-12-12T08:40:03.000Z</time>
      </trkpt>
      <trkpt lat="47.27603" lon="-2.32274">
        <ele>20.60000038147</ele>
        <time>2021-12-12T08:40:07.000Z</time>
      </trkpt>
      <trkpt lat="47.27607" lon="-2.32275">
        <ele>20.60000038147</ele>
        <time>2021-12-12T08:40:08.000Z</time>
      </trkpt>
      <trkpt lat="47.27611" lon="-2.32274">
        <ele>21</ele>
        <time>2021-12-12T08:40:09.000Z</time>
      </trkpt>
      <trkpt lat="47.27615" lon="-2.32272">
        <ele>21.39999961853</ele>
        <time>2021-12-12T08:40:10.000Z</time>
      </trkpt>
      <trkpt lat="47.27618" lon="-2.32268">
        <ele>22</ele>
        <time>2021-12-12T08:40:11.000Z</time>
      </trkpt>
      <trkpt lat="47.27621" lon="-2.32264">
        <ele>22.39999961853</ele>
        <time>2021-12-12T08:40:12.000Z</time>
      </trkpt>
      <trkpt lat="47.27625" lon="-2.32259">
        <ele>22.799999237061</ele>
        <time>2021-12-12T08:40:13.000Z</time>
      </trkpt>
      <trkpt lat="47.27631" lon="-2.32243">
        <ele>22.799999237061</ele>
        <time>2021-12-12T08:40:16.000Z</time>
      </trkpt>
      <trkpt lat="47.27633" lon="-2.32238">
        <ele>22.799999237061</ele>
        <time>2021-12-12T08:40:17.000Z</time>
      </trkpt>
      <trkpt lat="47.27641" lon="-2.32206">
        <ele>22.799999237061</ele>
        <time>2021-12-12T08:40:22.000Z</time>
      </trkpt>
      <trkpt lat="47.27654" lon="-2.32162">
        <ele>22.799999237061</ele>
        <time>2021-12-12T08:40:28.000Z</time>
      </trkpt>
      <trkpt lat="47.27674" lon="-2.32098">
        <ele>22.799999237061</ele>
        <time>2021-12-12T08:40:35.000Z</time>
      </trkpt>
      <trkpt lat="47.27684" lon="-2.32069">
        <ele>22.799999237061</ele>
        <time>2021-12-12T08:40:38.000Z</time>
      </trkpt>
      <trkpt lat="47.27686" lon="-2.3205">
        <ele>22.799999237061</ele>
        <time>2021-12-12T08:40:40.000Z</time>
      </trkpt>
      <trkpt lat="47.27687" lon="-2.32034">
        <ele>22.39999961853</ele>
        <time>2021-12-12T08:40:42.000Z</time>
      </trkpt>
      <trkpt lat="47.27688" lon="-2.32026">
        <ele>22</ele>
        <time>2021-12-12T08:40:43.000Z</time>
      </trkpt>
      <trkpt lat="47.27689" lon="-2.32019">
        <ele>21.60000038147</ele>
        <time>2021-12-12T08:40:44.000Z</time>
      </trkpt>
      <trkpt lat="47.27692" lon="-2.32011">
        <ele>21.200000762939</ele>
        <time>2021-12-12T08:40:45.000Z</time>
      </trkpt>
      <trkpt lat="47.27695" lon="-2.32005">
        <ele>20.799999237061</ele>
        <time>2021-12-12T08:40:46.000Z</time>
      </trkpt>
      <trkpt lat="47.27698" lon="-2.31999">
        <ele>20.799999237061</ele>
        <time>2021-12-12T08:40:47.000Z</time>
      </trkpt>
      <trkpt lat="47.27701" lon="-2.31992">
        <ele>20.799999237061</ele>
        <time>2021-12-12T08:40:48.000Z</time>
      </trkpt>
      <trkpt lat="47.27717" lon="-2.31955">
        <ele>20.799999237061</ele>
        <time>2021-12-12T08:40:54.000Z</time>
      </trkpt>
      <trkpt lat="47.27723" lon="-2.31937">
        <ele>21.200000762939</ele>
        <time>2021-12-12T08:40:57.000Z</time>
      </trkpt>
      <trkpt lat="47.27725" lon="-2.31932">
        <ele>21.60000038147</ele>
        <time>2021-12-12T08:40:58.000Z</time>
      </trkpt>
      <trkpt lat="47.27727" lon="-2.31926">
        <ele>22</ele>
        <time>2021-12-12T08:40:59.000Z</time>
      </trkpt>
      <trkpt lat="47.27729" lon="-2.31921">
        <ele>22.39999961853</ele>
        <time>2021-12-12T08:41:00.000Z</time>
      </trkpt>
      <trkpt lat="47.27731" lon="-2.31915">
        <ele>22.799999237061</ele>
        <time>2021-12-12T08:41:01.000Z</time>
      </trkpt>
      <trkpt lat="47.27736" lon="-2.319">
        <ele>22.799999237061</ele>
        <time>2021-12-12T08:41:04.000Z</time>
      </trkpt>
      <trkpt lat="47.27738" lon="-2.31888">
        <ele>22.799999237061</ele>
        <time>2021-12-12T08:41:06.000Z</time>
      </trkpt>
      <trkpt lat="47.27739" lon="-2.31856">
        <ele>22.799999237061</ele>
        <time>2021-12-12T08:41:12.000Z</time>
      </trkpt>
      <trkpt lat="47.27735" lon="-2.31819">
        <ele>22.799999237061</ele>
        <time>2021-12-12T08:41:19.000Z</time>
      </trkpt>
      <trkpt lat="47.27732" lon="-2.31795">
        <ele>22.799999237061</ele>
        <time>2021-12-12T08:41:24.000Z</time>
      </trkpt>
      <trkpt lat="47.27731" lon="-2.31772">
        <ele>22.799999237061</ele>
        <time>2021-12-12T08:41:28.000Z</time>
      </trkpt>
      <trkpt lat="47.27735" lon="-2.31746">
        <ele>22.799999237061</ele>
        <time>2021-12-12T08:41:34.000Z</time>
      </trkpt>
      <trkpt lat="47.27741" lon="-2.31723">
        <ele>22.799999237061</ele>
        <time>2021-12-12T08:41:39.000Z</time>
      </trkpt>
      <trkpt lat="47.27744" lon="-2.31721">
        <ele>22.799999237061</ele>
        <time>2021-12-12T08:41:40.000Z</time>
      </trkpt>
      <trkpt lat="47.27752" lon="-2.31718">
        <ele>22.799999237061</ele>
        <time>2021-12-12T08:41:43.000Z</time>
      </trkpt>
      <trkpt lat="47.27765" lon="-2.31719">
        <ele>22.799999237061</ele>
        <time>2021-12-12T08:41:48.000Z</time>
      </trkpt>
      <trkpt lat="47.27787" lon="-2.31729">
        <ele>22.799999237061</ele>
        <time>2021-12-12T08:41:54.000Z</time>
      </trkpt>
      <trkpt lat="47.27803" lon="-2.31747">
        <ele>22.799999237061</ele>
        <time>2021-12-12T08:41:59.000Z</time>
      </trkpt>
      <trkpt lat="47.27821" lon="-2.31752">
        <ele>22.799999237061</ele>
        <time>2021-12-12T08:42:04.000Z</time>
      </trkpt>
      <trkpt lat="47.27829" lon="-2.3175">
        <ele>23.200000762939</ele>
        <time>2021-12-12T08:42:06.000Z</time>
      </trkpt>
      <trkpt lat="47.27833" lon="-2.3175">
        <ele>24.200000762939</ele>
        <time>2021-12-12T08:42:07.000Z</time>
      </trkpt>
      <trkpt lat="47.27836" lon="-2.31748">
        <ele>24.60000038147</ele>
        <time>2021-12-12T08:42:08.000Z</time>
      </trkpt>
      <trkpt lat="47.2784" lon="-2.31747">
        <ele>25</ele>
        <time>2021-12-12T08:42:09.000Z</time>
      </trkpt>
      <trkpt lat="47.27852" lon="-2.31744">
        <ele>25</ele>
        <time>2021-12-12T08:42:12.000Z</time>
      </trkpt>
      <trkpt lat="47.27869" lon="-2.31742">
        <ele>25</ele>
        <time>2021-12-12T08:42:16.000Z</time>
      </trkpt>
      <trkpt lat="47.27873" lon="-2.31741">
        <ele>25.39999961853</ele>
        <time>2021-12-12T08:42:17.000Z</time>
      </trkpt>
      <trkpt lat="47.27877" lon="-2.31738">
        <ele>25.799999237061</ele>
        <time>2021-12-12T08:42:18.000Z</time>
      </trkpt>
      <trkpt lat="47.27881" lon="-2.31736">
        <ele>26.200000762939</ele>
        <time>2021-12-12T08:42:19.000Z</time>
      </trkpt>
      <trkpt lat="47.27885" lon="-2.31733">
        <ele>26.60000038147</ele>
        <time>2021-12-12T08:42:20.000Z</time>
      </trkpt>
      <trkpt lat="47.27889" lon="-2.3173">
        <ele>27</ele>
        <time>2021-12-12T08:42:21.000Z</time>
      </trkpt>
      <trkpt lat="47.27904" lon="-2.31718">
        <ele>27</ele>
        <time>2021-12-12T08:42:25.000Z</time>
      </trkpt>
      <trkpt lat="47.27937" lon="-2.31692">
        <ele>27</ele>
        <time>2021-12-12T08:42:33.000Z</time>
      </trkpt>
      <trkpt lat="47.2796" lon="-2.31673">
        <ele>27</ele>
        <time>2021-12-12T08:42:38.000Z</time>
      </trkpt>
      <trkpt lat="47.2799" lon="-2.31652">
        <ele>27</ele>
        <time>2021-12-12T08:42:44.000Z</time>
      </trkpt>
      <trkpt lat="47.28014" lon="-2.31641">
        <ele>26.60000038147</ele>
        <time>2021-12-12T08:42:48.000Z</time>
      </trkpt>
      <trkpt lat="47.2802" lon="-2.31638">
        <ele>26.200000762939</ele>
        <time>2021-12-12T08:42:49.000Z</time>
      </trkpt>
      <trkpt lat="47.28027" lon="-2.31635">
        <ele>25.799999237061</ele>
        <time>2021-12-12T08:42:50.000Z</time>
      </trkpt>
      <trkpt lat="47.28033" lon="-2.31632">
        <ele>25.39999961853</ele>
        <time>2021-12-12T08:42:51.000Z</time>
      </trkpt>
      <trkpt lat="47.2804" lon="-2.3163">
        <ele>24.799999237061</ele>
        <time>2021-12-12T08:42:52.000Z</time>
      </trkpt>
      <trkpt lat="47.28065" lon="-2.31625">
        <ele>24.799999237061</ele>
        <time>2021-12-12T08:42:56.000Z</time>
      </trkpt>
      <trkpt lat="47.28093" lon="-2.31625">
        <ele>24.799999237061</ele>
        <time>2021-12-12T08:43:01.000Z</time>
      </trkpt>
      <trkpt lat="47.28126" lon="-2.31624">
        <ele>24.799999237061</ele>
        <time>2021-12-12T08:43:07.000Z</time>
      </trkpt>
      <trkpt lat="47.28171" lon="-2.31619">
        <ele>24.799999237061</ele>
        <time>2021-12-12T08:43:15.000Z</time>
      </trkpt>
      <trkpt lat="47.28213" lon="-2.31611">
        <ele>24.799999237061</ele>
        <time>2021-12-12T08:43:23.000Z</time>
      </trkpt>
      <trkpt lat="47.28224" lon="-2.3161">
        <ele>25.200000762939</ele>
        <time>2021-12-12T08:43:25.000Z</time>
      </trkpt>
      <trkpt lat="47.28229" lon="-2.31608">
        <ele>25.60000038147</ele>
        <time>2021-12-12T08:43:26.000Z</time>
      </trkpt>
      <trkpt lat="47.28235" lon="-2.31607">
        <ele>26</ele>
        <time>2021-12-12T08:43:27.000Z</time>
      </trkpt>
      <trkpt lat="47.2824" lon="-2.31606">
        <ele>26.39999961853</ele>
        <time>2021-12-12T08:43:28.000Z</time>
      </trkpt>
      <trkpt lat="47.28245" lon="-2.31605">
        <ele>27</ele>
        <time>2021-12-12T08:43:29.000Z</time>
      </trkpt>
      <trkpt lat="47.28256" lon="-2.31602">
        <ele>27</ele>
        <time>2021-12-12T08:43:31.000Z</time>
      </trkpt>
      <trkpt lat="47.28285" lon="-2.31591">
        <ele>27</ele>
        <time>2021-12-12T08:43:37.000Z</time>
      </trkpt>
      <trkpt lat="47.28316" lon="-2.31586">
        <ele>27</ele>
        <time>2021-12-12T08:43:44.000Z</time>
      </trkpt>
      <trkpt lat="47.28344" lon="-2.3158">
        <ele>27</ele>
        <time>2021-12-12T08:43:50.000Z</time>
      </trkpt>
      <trkpt lat="47.28381" lon="-2.31566">
        <ele>27</ele>
        <time>2021-12-12T08:43:57.000Z</time>
      </trkpt>
      <trkpt lat="47.28428" lon="-2.31543">
        <ele>27</ele>
        <time>2021-12-12T08:44:06.000Z</time>
      </trkpt>
      <trkpt lat="47.28432" lon="-2.31539">
        <ele>27</ele>
        <time>2021-12-12T08:44:07.000Z</time>
      </trkpt>
      <trkpt lat="47.28456" lon="-2.31517">
        <ele>27</ele>
        <time>2021-12-12T08:44:12.000Z</time>
      </trkpt>
      <trkpt lat="47.28488" lon="-2.31506">
        <ele>27</ele>
        <time>2021-12-12T08:44:18.000Z</time>
      </trkpt>
      <trkpt lat="47.28515" lon="-2.31501">
        <ele>27.39999961853</ele>
        <time>2021-12-12T08:44:23.000Z</time>
      </trkpt>
      <trkpt lat="47.28521" lon="-2.315">
        <ele>27.799999237061</ele>
        <time>2021-12-12T08:44:24.000Z</time>
      </trkpt>
      <trkpt lat="47.28526" lon="-2.31499">
        <ele>28.200000762939</ele>
        <time>2021-12-12T08:44:25.000Z</time>
      </trkpt>
      <trkpt lat="47.28531" lon="-2.31498">
        <ele>28.60000038147</ele>
        <time>2021-12-12T08:44:26.000Z</time>
      </trkpt>
      <trkpt lat="47.28536" lon="-2.31498">
        <ele>29</ele>
        <time>2021-12-12T08:44:27.000Z</time>
      </trkpt>
      <trkpt lat="47.28574" lon="-2.31486">
        <ele>29</ele>
        <time>2021-12-12T08:44:35.000Z</time>
      </trkpt>
      <trkpt lat="47.28583" lon="-2.31482">
        <ele>29.39999961853</ele>
        <time>2021-12-12T08:44:37.000Z</time>
      </trkpt>
      <trkpt lat="47.28588" lon="-2.31481">
        <ele>29.799999237061</ele>
        <time>2021-12-12T08:44:38.000Z</time>
      </trkpt>
      <trkpt lat="47.28593" lon="-2.31478">
        <ele>30.200000762939</ele>
        <time>2021-12-12T08:44:39.000Z</time>
      </trkpt>
      <trkpt lat="47.28598" lon="-2.31477">
        <ele>30.60000038147</ele>
        <time>2021-12-12T08:44:40.000Z</time>
      </trkpt>
      <trkpt lat="47.28602" lon="-2.31475">
        <ele>31</ele>
        <time>2021-12-12T08:44:41.000Z</time>
      </trkpt>
      <trkpt lat="47.28611" lon="-2.31471">
        <ele>31</ele>
        <time>2021-12-12T08:44:43.000Z</time>
      </trkpt>
      <trkpt lat="47.28661" lon="-2.31447">
        <ele>31</ele>
        <time>2021-12-12T08:44:54.000Z</time>
      </trkpt>
      <trkpt lat="47.28666" lon="-2.31444">
        <ele>31</ele>
        <time>2021-12-12T08:44:55.000Z</time>
      </trkpt>
      <trkpt lat="47.28674" lon="-2.31436">
        <ele>31</ele>
        <time>2021-12-12T08:44:57.000Z</time>
      </trkpt>
      <trkpt lat="47.28686" lon="-2.31408">
        <ele>31</ele>
        <time>2021-12-12T08:44:59.000Z</time>
      </trkpt>
      <trkpt lat="47.28686" lon="-2.31408">
        <ele>31</ele>
        <time>2021-12-12T08:45:01.000Z</time>
      </trkpt>
      <trkpt lat="47.28687" lon="-2.31398">
        <ele>31</ele>
        <time>2021-12-12T08:45:02.000Z</time>
      </trkpt>
      <trkpt lat="47.28682" lon="-2.31382">
        <ele>31</ele>
        <time>2021-12-12T08:45:04.000Z</time>
      </trkpt>
      <trkpt lat="47.28669" lon="-2.31359">
        <ele>31</ele>
        <time>2021-12-12T08:45:07.000Z</time>
      </trkpt>
      <trkpt lat="47.28665" lon="-2.3135">
        <ele>31</ele>
        <time>2021-12-12T08:45:08.000Z</time>
      </trkpt>
      <trkpt lat="47.28653" lon="-2.31303">
        <ele>31</ele>
        <time>2021-12-12T08:45:13.000Z</time>
      </trkpt>
      <trkpt lat="47.2865" lon="-2.31275">
        <ele>31</ele>
        <time>2021-12-12T08:45:16.000Z</time>
      </trkpt>
      <trkpt lat="47.28653" lon="-2.31255">
        <ele>30.60000038147</ele>
        <time>2021-12-12T08:45:18.000Z</time>
      </trkpt>
      <trkpt lat="47.28657" lon="-2.31246">
        <ele>30.200000762939</ele>
        <time>2021-12-12T08:45:19.000Z</time>
      </trkpt>
      <trkpt lat="47.28661" lon="-2.31238">
        <ele>29.60000038147</ele>
        <time>2021-12-12T08:45:20.000Z</time>
      </trkpt>
      <trkpt lat="47.28665" lon="-2.31229">
        <ele>29.200000762939</ele>
        <time>2021-12-12T08:45:21.000Z</time>
      </trkpt>
      <trkpt lat="47.28669" lon="-2.31221">
        <ele>28.799999237061</ele>
        <time>2021-12-12T08:45:22.000Z</time>
      </trkpt>
      <trkpt lat="47.28689" lon="-2.31194">
        <ele>28.799999237061</ele>
        <time>2021-12-12T08:45:26.000Z</time>
      </trkpt>
      <trkpt lat="47.28694" lon="-2.31189">
        <ele>28.39999961853</ele>
        <time>2021-12-12T08:45:27.000Z</time>
      </trkpt>
      <trkpt lat="47.287" lon="-2.31182">
        <ele>28</ele>
        <time>2021-12-12T08:45:28.000Z</time>
      </trkpt>
      <trkpt lat="47.28705" lon="-2.31176">
        <ele>27.60000038147</ele>
        <time>2021-12-12T08:45:29.000Z</time>
      </trkpt>
      <trkpt lat="47.28711" lon="-2.31169">
        <ele>27.200000762939</ele>
        <time>2021-12-12T08:45:30.000Z</time>
      </trkpt>
      <trkpt lat="47.28717" lon="-2.31161">
        <ele>26.799999237061</ele>
        <time>2021-12-12T08:45:31.000Z</time>
      </trkpt>
      <trkpt lat="47.2872" lon="-2.31152">
        <ele>26.799999237061</ele>
        <time>2021-12-12T08:45:32.000Z</time>
      </trkpt>
      <trkpt lat="47.28727" lon="-2.31121">
        <ele>26.799999237061</ele>
        <time>2021-12-12T08:45:35.000Z</time>
      </trkpt>
      <trkpt lat="47.28728" lon="-2.31111">
        <ele>26.799999237061</ele>
        <time>2021-12-12T08:45:36.000Z</time>
      </trkpt>
      <trkpt lat="47.28743" lon="-2.31051">
        <ele>26.39999961853</ele>
        <time>2021-12-12T08:45:42.000Z</time>
      </trkpt>
      <trkpt lat="47.28746" lon="-2.31042">
        <ele>26</ele>
        <time>2021-12-12T08:45:43.000Z</time>
      </trkpt>
      <trkpt lat="47.2875" lon="-2.31033">
        <ele>25.39999961853</ele>
        <time>2021-12-12T08:45:44.000Z</time>
      </trkpt>
      <trkpt lat="47.28753" lon="-2.31023">
        <ele>25</ele>
        <time>2021-12-12T08:45:45.000Z</time>
      </trkpt>
      <trkpt lat="47.28756" lon="-2.31014">
        <ele>24.60000038147</ele>
        <time>2021-12-12T08:45:46.000Z</time>
      </trkpt>
      <trkpt lat="47.28769" lon="-2.30976">
        <ele>24.200000762939</ele>
        <time>2021-12-12T08:45:50.000Z</time>
      </trkpt>
      <trkpt lat="47.28773" lon="-2.30967">
        <ele>23.799999237061</ele>
        <time>2021-12-12T08:45:51.000Z</time>
      </trkpt>
      <trkpt lat="47.28776" lon="-2.30958">
        <ele>23.39999961853</ele>
        <time>2021-12-12T08:45:52.000Z</time>
      </trkpt>
      <trkpt lat="47.28779" lon="-2.30949">
        <ele>22.799999237061</ele>
        <time>2021-12-12T08:45:53.000Z</time>
      </trkpt>
      <trkpt lat="47.28783" lon="-2.3094">
        <ele>22.39999961853</ele>
        <time>2021-12-12T08:45:54.000Z</time>
      </trkpt>
      <trkpt lat="47.28798" lon="-2.30906">
        <ele>22.39999961853</ele>
        <time>2021-12-12T08:45:58.000Z</time>
      </trkpt>
      <trkpt lat="47.28815" lon="-2.30872">
        <ele>22</ele>
        <time>2021-12-12T08:46:02.000Z</time>
      </trkpt>
      <trkpt lat="47.28819" lon="-2.30863">
        <ele>21.60000038147</ele>
        <time>2021-12-12T08:46:03.000Z</time>
      </trkpt>
      <trkpt lat="47.28823" lon="-2.30853">
        <ele>21.200000762939</ele>
        <time>2021-12-12T08:46:04.000Z</time>
      </trkpt>
      <trkpt lat="47.28828" lon="-2.30845">
        <ele>20.799999237061</ele>
        <time>2021-12-12T08:46:05.000Z</time>
      </trkpt>
      <trkpt lat="47.28833" lon="-2.30836">
        <ele>20.39999961853</ele>
        <time>2021-12-12T08:46:06.000Z</time>
      </trkpt>
      <trkpt lat="47.28859" lon="-2.30788">
        <ele>20.39999961853</ele>
        <time>2021-12-12T08:46:12.000Z</time>
      </trkpt>
      <trkpt lat="47.28868" lon="-2.30773">
        <ele>20</ele>
        <time>2021-12-12T08:46:14.000Z</time>
      </trkpt>
      <trkpt lat="47.28873" lon="-2.30765">
        <ele>19.39999961853</ele>
        <time>2021-12-12T08:46:15.000Z</time>
      </trkpt>
      <trkpt lat="47.28877" lon="-2.30758">
        <ele>19</ele>
        <time>2021-12-12T08:46:16.000Z</time>
      </trkpt>
      <trkpt lat="47.28882" lon="-2.30751">
        <ele>18.60000038147</ele>
        <time>2021-12-12T08:46:17.000Z</time>
      </trkpt>
      <trkpt lat="47.28887" lon="-2.30745">
        <ele>18</ele>
        <time>2021-12-12T08:46:18.000Z</time>
      </trkpt>
      <trkpt lat="47.28892" lon="-2.30739">
        <ele>18</ele>
        <time>2021-12-12T08:46:19.000Z</time>
      </trkpt>
      <trkpt lat="47.28928" lon="-2.30689">
        <ele>18</ele>
        <time>2021-12-12T08:46:26.000Z</time>
      </trkpt>
      <trkpt lat="47.28969" lon="-2.30642">
        <ele>18</ele>
        <time>2021-12-12T08:46:33.000Z</time>
      </trkpt>
      <trkpt lat="47.28981" lon="-2.30633">
        <ele>17.60000038147</ele>
        <time>2021-12-12T08:46:35.000Z</time>
      </trkpt>
      <trkpt lat="47.28986" lon="-2.30631">
        <ele>17.200000762939</ele>
        <time>2021-12-12T08:46:36.000Z</time>
      </trkpt>
      <trkpt lat="47.28992" lon="-2.30627">
        <ele>16.799999237061</ele>
        <time>2021-12-12T08:46:37.000Z</time>
      </trkpt>
      <trkpt lat="47.28997" lon="-2.30623">
        <ele>16</ele>
        <time>2021-12-12T08:46:38.000Z</time>
      </trkpt>
      <trkpt lat="47.29006" lon="-2.30602">
        <ele>16</ele>
        <time>2021-12-12T08:46:41.000Z</time>
      </trkpt>
      <trkpt lat="47.29005" lon="-2.30594">
        <ele>16</ele>
        <time>2021-12-12T08:46:42.000Z</time>
      </trkpt>
      <trkpt lat="47.29003" lon="-2.30578">
        <ele>16</ele>
        <time>2021-12-12T08:46:44.000Z</time>
      </trkpt>
      <trkpt lat="47.28998" lon="-2.30542">
        <ele>16</ele>
        <time>2021-12-12T08:46:49.000Z</time>
      </trkpt>
      <trkpt lat="47.2899" lon="-2.30488">
        <ele>16</ele>
        <time>2021-12-12T08:46:56.000Z</time>
      </trkpt>
      <trkpt lat="47.28981" lon="-2.30424">
        <ele>16</ele>
        <time>2021-12-12T08:47:04.000Z</time>
      </trkpt>
      <trkpt lat="47.28978" lon="-2.30392">
        <ele>16</ele>
        <time>2021-12-12T08:47:08.000Z</time>
      </trkpt>
      <trkpt lat="47.28978" lon="-2.30357">
        <ele>16</ele>
        <time>2021-12-12T08:47:12.000Z</time>
      </trkpt>
      <trkpt lat="47.28978" lon="-2.30316">
        <ele>16</ele>
        <time>2021-12-12T08:47:17.000Z</time>
      </trkpt>
      <trkpt lat="47.28977" lon="-2.30307">
        <ele>16</ele>
        <time>2021-12-12T08:47:18.000Z</time>
      </trkpt>
      <trkpt lat="47.28974" lon="-2.30274">
        <ele>16</ele>
        <time>2021-12-12T08:47:22.000Z</time>
      </trkpt>
      <trkpt lat="47.28976" lon="-2.30266">
        <ele>16</ele>
        <time>2021-12-12T08:47:23.000Z</time>
      </trkpt>
      <trkpt lat="47.28988" lon="-2.30254">
        <ele>16</ele>
        <time>2021-12-12T08:47:26.000Z</time>
      </trkpt>
      <trkpt lat="47.28998" lon="-2.30256">
        <ele>16</ele>
        <time>2021-12-12T08:47:28.000Z</time>
      </trkpt>
      <trkpt lat="47.29003" lon="-2.30254">
        <ele>16</ele>
        <time>2021-12-12T08:47:29.000Z</time>
      </trkpt>
      <trkpt lat="47.29009" lon="-2.30253">
        <ele>16</ele>
        <time>2021-12-12T08:47:30.000Z</time>
      </trkpt>
      <trkpt lat="47.29062" lon="-2.30237">
        <ele>16</ele>
        <time>2021-12-12T08:47:39.000Z</time>
      </trkpt>
      <trkpt lat="47.29104" lon="-2.30216">
        <ele>16</ele>
        <time>2021-12-12T08:47:46.000Z</time>
      </trkpt>
      <trkpt lat="47.29122" lon="-2.30208">
        <ele>16</ele>
        <time>2021-12-12T08:47:49.000Z</time>
      </trkpt>
      <trkpt lat="47.29139" lon="-2.30199">
        <ele>16</ele>
        <time>2021-12-12T08:47:52.000Z</time>
      </trkpt>
      <trkpt lat="47.29145" lon="-2.30196">
        <ele>16</ele>
        <time>2021-12-12T08:47:53.000Z</time>
      </trkpt>
      <trkpt lat="47.29167" lon="-2.30185">
        <ele>16</ele>
        <time>2021-12-12T08:47:57.000Z</time>
      </trkpt>
      <trkpt lat="47.29184" lon="-2.30176">
        <ele>16</ele>
        <time>2021-12-12T08:48:00.000Z</time>
      </trkpt>
      <trkpt lat="47.29189" lon="-2.30173">
        <ele>15.60000038147</ele>
        <time>2021-12-12T08:48:01.000Z</time>
      </trkpt>
      <trkpt lat="47.29194" lon="-2.3017">
        <ele>15.199999809265</ele>
        <time>2021-12-12T08:48:02.000Z</time>
      </trkpt>
      <trkpt lat="47.29199" lon="-2.30166">
        <ele>14.800000190735</ele>
        <time>2021-12-12T08:48:03.000Z</time>
      </trkpt>
      <trkpt lat="47.29204" lon="-2.30163">
        <ele>14.39999961853</ele>
        <time>2021-12-12T08:48:04.000Z</time>
      </trkpt>
      <trkpt lat="47.29209" lon="-2.3016">
        <ele>14</ele>
        <time>2021-12-12T08:48:05.000Z</time>
      </trkpt>
      <trkpt lat="47.29232" lon="-2.30148">
        <ele>14</ele>
        <time>2021-12-12T08:48:09.000Z</time>
      </trkpt>
      <trkpt lat="47.29255" lon="-2.3014">
        <ele>14</ele>
        <time>2021-12-12T08:48:13.000Z</time>
      </trkpt>
      <trkpt lat="47.29267" lon="-2.30139">
        <ele>14</ele>
        <time>2021-12-12T08:48:15.000Z</time>
      </trkpt>
      <trkpt lat="47.29307" lon="-2.30137">
        <ele>14</ele>
        <time>2021-12-12T08:48:22.000Z</time>
      </trkpt>
      <trkpt lat="47.29322" lon="-2.30136">
        <ele>14</ele>
        <time>2021-12-12T08:48:25.000Z</time>
      </trkpt>
      <trkpt lat="47.29329" lon="-2.30131">
        <ele>14</ele>
        <time>2021-12-12T08:48:27.000Z</time>
      </trkpt>
      <trkpt lat="47.29335" lon="-2.30113">
        <ele>14</ele>
        <time>2021-12-12T08:48:30.000Z</time>
      </trkpt>
      <trkpt lat="47.29339" lon="-2.301">
        <ele>14</ele>
        <time>2021-12-12T08:48:32.000Z</time>
      </trkpt>
      <trkpt lat="47.29342" lon="-2.30078">
        <ele>14</ele>
        <time>2021-12-12T08:48:35.000Z</time>
      </trkpt>
      <trkpt lat="47.29343" lon="-2.30071">
        <ele>14</ele>
        <time>2021-12-12T08:48:36.000Z</time>
      </trkpt>
      <trkpt lat="47.29345" lon="-2.30032">
        <ele>14</ele>
        <time>2021-12-12T08:48:42.000Z</time>
      </trkpt>
      <trkpt lat="47.29347" lon="-2.30004">
        <ele>14</ele>
        <time>2021-12-12T08:48:47.000Z</time>
      </trkpt>
      <trkpt lat="47.29353" lon="-2.30001">
        <ele>14</ele>
        <time>2021-12-12T08:48:50.000Z</time>
      </trkpt>
      <trkpt lat="47.2936" lon="-2.30006">
        <ele>14</ele>
        <time>2021-12-12T08:48:52.000Z</time>
      </trkpt>
      <trkpt lat="47.29372" lon="-2.30012">
        <ele>14</ele>
        <time>2021-12-12T08:48:55.000Z</time>
      </trkpt>
      <trkpt lat="47.29381" lon="-2.30017">
        <ele>14</ele>
        <time>2021-12-12T08:48:57.000Z</time>
      </trkpt>
      <trkpt lat="47.29397" lon="-2.30022">
        <ele>14</ele>
        <time>2021-12-12T08:49:00.000Z</time>
      </trkpt>
      <trkpt lat="47.29414" lon="-2.30027">
        <ele>14</ele>
        <time>2021-12-12T08:49:03.000Z</time>
      </trkpt>
      <trkpt lat="47.29426" lon="-2.30028">
        <ele>14</ele>
        <time>2021-12-12T08:49:05.000Z</time>
      </trkpt>
      <trkpt lat="47.29458" lon="-2.30027">
        <ele>13.60000038147</ele>
        <time>2021-12-12T08:49:10.000Z</time>
      </trkpt>
      <trkpt lat="47.29465" lon="-2.30027">
        <ele>13.199999809265</ele>
        <time>2021-12-12T08:49:11.000Z</time>
      </trkpt>
      <trkpt lat="47.29471" lon="-2.30026">
        <ele>12.800000190735</ele>
        <time>2021-12-12T08:49:12.000Z</time>
      </trkpt>
      <trkpt lat="47.29478" lon="-2.30026">
        <ele>12.199999809265</ele>
        <time>2021-12-12T08:49:13.000Z</time>
      </trkpt>
      <trkpt lat="47.29484" lon="-2.30026">
        <ele>11.800000190735</ele>
        <time>2021-12-12T08:49:14.000Z</time>
      </trkpt>
      <trkpt lat="47.29497" lon="-2.30025">
        <ele>11.800000190735</ele>
        <time>2021-12-12T08:49:16.000Z</time>
      </trkpt>
      <trkpt lat="47.29514" lon="-2.30022">
        <ele>11.800000190735</ele>
        <time>2021-12-12T08:49:19.000Z</time>
      </trkpt>
      <trkpt lat="47.29534" lon="-2.30025">
        <ele>11.800000190735</ele>
        <time>2021-12-12T08:49:22.000Z</time>
      </trkpt>
      <trkpt lat="47.29553" lon="-2.30019">
        <ele>11.800000190735</ele>
        <time>2021-12-12T08:49:25.000Z</time>
      </trkpt>
      <trkpt lat="47.29566" lon="-2.30014">
        <ele>11.800000190735</ele>
        <time>2021-12-12T08:49:27.000Z</time>
      </trkpt>
      <trkpt lat="47.29617" lon="-2.29998">
        <ele>11.800000190735</ele>
        <time>2021-12-12T08:49:35.000Z</time>
      </trkpt>
      <trkpt lat="47.2964" lon="-2.29988">
        <ele>11.800000190735</ele>
        <time>2021-12-12T08:49:39.000Z</time>
      </trkpt>
      <trkpt lat="47.29644" lon="-2.29985">
        <ele>11.800000190735</ele>
        <time>2021-12-12T08:49:40.000Z</time>
      </trkpt>
      <trkpt lat="47.29648" lon="-2.29984">
        <ele>11.800000190735</ele>
        <time>2021-12-12T08:49:41.000Z</time>
      </trkpt>
      <trkpt lat="47.29656" lon="-2.2999">
        <ele>11.800000190735</ele>
        <time>2021-12-12T08:49:43.000Z</time>
      </trkpt>
      <trkpt lat="47.29674" lon="-2.3">
        <ele>11.800000190735</ele>
        <time>2021-12-12T08:49:46.000Z</time>
      </trkpt>
      <trkpt lat="47.29681" lon="-2.30001">
        <ele>11.800000190735</ele>
        <time>2021-12-12T08:49:47.000Z</time>
      </trkpt>
      <trkpt lat="47.29715" lon="-2.3">
        <ele>11.800000190735</ele>
        <time>2021-12-12T08:49:52.000Z</time>
      </trkpt>
      <trkpt lat="47.29721" lon="-2.29999">
        <ele>11.800000190735</ele>
        <time>2021-12-12T08:49:53.000Z</time>
      </trkpt>
      <trkpt lat="47.2974" lon="-2.2999">
        <ele>11.800000190735</ele>
        <time>2021-12-12T08:49:56.000Z</time>
      </trkpt>
      <trkpt lat="47.29779" lon="-2.29963">
        <ele>11.800000190735</ele>
        <time>2021-12-12T08:50:03.000Z</time>
      </trkpt>
      <trkpt lat="47.29789" lon="-2.29956">
        <ele>11.800000190735</ele>
        <time>2021-12-12T08:50:05.000Z</time>
      </trkpt>
      <trkpt lat="47.298" lon="-2.29953">
        <ele>11.800000190735</ele>
        <time>2021-12-12T08:50:07.000Z</time>
      </trkpt>
      <trkpt lat="47.29813" lon="-2.29954">
        <ele>11.800000190735</ele>
        <time>2021-12-12T08:50:09.000Z</time>
      </trkpt>
      <trkpt lat="47.29838" lon="-2.29955">
        <ele>11.800000190735</ele>
        <time>2021-12-12T08:50:13.000Z</time>
      </trkpt>
      <trkpt lat="47.29877" lon="-2.29946">
        <ele>11.800000190735</ele>
        <time>2021-12-12T08:50:19.000Z</time>
      </trkpt>
      <trkpt lat="47.2989" lon="-2.29943">
        <ele>11.39999961853</ele>
        <time>2021-12-12T08:50:21.000Z</time>
      </trkpt>
      <trkpt lat="47.29897" lon="-2.29941">
        <ele>11</ele>
        <time>2021-12-12T08:50:22.000Z</time>
      </trkpt>
      <trkpt lat="47.29902" lon="-2.29939">
        <ele>10.60000038147</ele>
        <time>2021-12-12T08:50:23.000Z</time>
      </trkpt>
      <trkpt lat="47.29907" lon="-2.29935">
        <ele>10.199999809265</ele>
        <time>2021-12-12T08:50:24.000Z</time>
      </trkpt>
      <trkpt lat="47.2991" lon="-2.29929">
        <ele>9.8000001907349</ele>
        <time>2021-12-12T08:50:25.000Z</time>
      </trkpt>
      <trkpt lat="47.2991" lon="-2.29923">
        <ele>9.8000001907349</ele>
        <time>2021-12-12T08:50:26.000Z</time>
      </trkpt>
      <trkpt lat="47.29909" lon="-2.29915">
        <ele>9.8000001907349</ele>
        <time>2021-12-12T08:50:27.000Z</time>
      </trkpt>
      <trkpt lat="47.29908" lon="-2.29907">
        <ele>9.8000001907349</ele>
        <time>2021-12-12T08:50:28.000Z</time>
      </trkpt>
      <trkpt lat="47.29905" lon="-2.29884">
        <ele>9.8000001907349</ele>
        <time>2021-12-12T08:50:31.000Z</time>
      </trkpt>
      <trkpt lat="47.29902" lon="-2.29864">
        <ele>9.8000001907349</ele>
        <time>2021-12-12T08:50:34.000Z</time>
      </trkpt>
      <trkpt lat="47.29903" lon="-2.29851">
        <ele>9.8000001907349</ele>
        <time>2021-12-12T08:50:36.000Z</time>
      </trkpt>
      <trkpt lat="47.29912" lon="-2.29828">
        <ele>9.8000001907349</ele>
        <time>2021-12-12T08:50:40.000Z</time>
      </trkpt>
      <trkpt lat="47.29915" lon="-2.29825">
        <ele>9.8000001907349</ele>
        <time>2021-12-12T08:50:41.000Z</time>
      </trkpt>
      <trkpt lat="47.29927" lon="-2.29817">
        <ele>9.8000001907349</ele>
        <time>2021-12-12T08:50:44.000Z</time>
      </trkpt>
      <trkpt lat="47.29937" lon="-2.29807">
        <ele>9.8000001907349</ele>
        <time>2021-12-12T08:50:48.000Z</time>
      </trkpt>
      <trkpt lat="47.29948" lon="-2.29793">
        <ele>9.8000001907349</ele>
        <time>2021-12-12T08:50:52.000Z</time>
      </trkpt>
      <trkpt lat="47.29946" lon="-2.29776">
        <ele>9.8000001907349</ele>
        <time>2021-12-12T08:50:55.000Z</time>
      </trkpt>
      <trkpt lat="47.29944" lon="-2.29769">
        <ele>9.8000001907349</ele>
        <time>2021-12-12T08:50:56.000Z</time>
      </trkpt>
      <trkpt lat="47.29929" lon="-2.29723">
        <ele>9.8000001907349</ele>
        <time>2021-12-12T08:51:03.000Z</time>
      </trkpt>
      <trkpt lat="47.29917" lon="-2.29684">
        <ele>9.8000001907349</ele>
        <time>2021-12-12T08:51:09.000Z</time>
      </trkpt>
      <trkpt lat="47.29916" lon="-2.29678">
        <ele>9.8000001907349</ele>
        <time>2021-12-12T08:51:10.000Z</time>
      </trkpt>
      <trkpt lat="47.29916" lon="-2.29671">
        <ele>9.8000001907349</ele>
        <time>2021-12-12T08:51:11.000Z</time>
      </trkpt>
      <trkpt lat="47.2992" lon="-2.29658">
        <ele>9.8000001907349</ele>
        <time>2021-12-12T08:51:13.000Z</time>
      </trkpt>
      <trkpt lat="47.29933" lon="-2.29647">
        <ele>9.8000001907349</ele>
        <time>2021-12-12T08:51:16.000Z</time>
      </trkpt>
      <trkpt lat="47.29971" lon="-2.29632">
        <ele>9.8000001907349</ele>
        <time>2021-12-12T08:51:23.000Z</time>
      </trkpt>
      <trkpt lat="47.29987" lon="-2.2963">
        <ele>9.8000001907349</ele>
        <time>2021-12-12T08:51:26.000Z</time>
      </trkpt>
      <trkpt lat="47.29999" lon="-2.29632">
        <ele>9.8000001907349</ele>
        <time>2021-12-12T08:51:28.000Z</time>
      </trkpt>
      <trkpt lat="47.3001" lon="-2.29632">
        <ele>9.8000001907349</ele>
        <time>2021-12-12T08:51:30.000Z</time>
      </trkpt>
      <trkpt lat="47.30025" lon="-2.29631">
        <ele>9.8000001907349</ele>
        <time>2021-12-12T08:51:33.000Z</time>
      </trkpt>
      <trkpt lat="47.30059" lon="-2.29633">
        <ele>9.8000001907349</ele>
        <time>2021-12-12T08:51:40.000Z</time>
      </trkpt>
      <trkpt lat="47.30082" lon="-2.2964">
        <ele>9.8000001907349</ele>
        <time>2021-12-12T08:51:45.000Z</time>
      </trkpt>
      <trkpt lat="47.30091" lon="-2.29643">
        <ele>9.8000001907349</ele>
        <time>2021-12-12T08:51:47.000Z</time>
      </trkpt>
      <trkpt lat="47.30117" lon="-2.29652">
        <ele>9.8000001907349</ele>
        <time>2021-12-12T08:51:53.000Z</time>
      </trkpt>
      <trkpt lat="47.30126" lon="-2.29654">
        <ele>9.8000001907349</ele>
        <time>2021-12-12T08:51:55.000Z</time>
      </trkpt>
      <trkpt lat="47.30148" lon="-2.29661">
        <ele>9.8000001907349</ele>
        <time>2021-12-12T08:52:00.000Z</time>
      </trkpt>
      <trkpt lat="47.30153" lon="-2.29664">
        <ele>9.8000001907349</ele>
        <time>2021-12-12T08:52:01.000Z</time>
      </trkpt>
      <trkpt lat="47.30169" lon="-2.29672">
        <ele>9.8000001907349</ele>
        <time>2021-12-12T08:52:04.000Z</time>
      </trkpt>
      <trkpt lat="47.30179" lon="-2.29678">
        <ele>9.8000001907349</ele>
        <time>2021-12-12T08:52:06.000Z</time>
      </trkpt>
      <trkpt lat="47.30184" lon="-2.2968">
        <ele>9.3999996185303</ele>
        <time>2021-12-12T08:52:07.000Z</time>
      </trkpt>
      <trkpt lat="47.3019" lon="-2.29683">
        <ele>9</ele>
        <time>2021-12-12T08:52:08.000Z</time>
      </trkpt>
      <trkpt lat="47.30195" lon="-2.29686">
        <ele>8.6000003814697</ele>
        <time>2021-12-12T08:52:09.000Z</time>
      </trkpt>
      <trkpt lat="47.30199" lon="-2.29688">
        <ele>8.1999998092651</ele>
        <time>2021-12-12T08:52:10.000Z</time>
      </trkpt>
      <trkpt lat="47.30203" lon="-2.29691">
        <ele>7.8000001907349</ele>
        <time>2021-12-12T08:52:11.000Z</time>
      </trkpt>
      <trkpt lat="47.30222" lon="-2.29699">
        <ele>7.8000001907349</ele>
        <time>2021-12-12T08:52:15.000Z</time>
      </trkpt>
      <trkpt lat="47.30231" lon="-2.29705">
        <ele>7.8000001907349</ele>
        <time>2021-12-12T08:52:17.000Z</time>
      </trkpt>
      <trkpt lat="47.3025" lon="-2.29715">
        <ele>7.8000001907349</ele>
        <time>2021-12-12T08:52:21.000Z</time>
      </trkpt>
      <trkpt lat="47.30272" lon="-2.29715">
        <ele>7.8000001907349</ele>
        <time>2021-12-12T08:52:25.000Z</time>
      </trkpt>
      <trkpt lat="47.30312" lon="-2.29704">
        <ele>7.8000001907349</ele>
        <time>2021-12-12T08:52:32.000Z</time>
      </trkpt>
      <trkpt lat="47.30353" lon="-2.29692">
        <ele>7.8000001907349</ele>
        <time>2021-12-12T08:52:39.000Z</time>
      </trkpt>
      <trkpt lat="47.30386" lon="-2.29679">
        <ele>7.8000001907349</ele>
        <time>2021-12-12T08:52:45.000Z</time>
      </trkpt>
      <trkpt lat="47.30421" lon="-2.29669">
        <ele>7.8000001907349</ele>
        <time>2021-12-12T08:52:51.000Z</time>
      </trkpt>
      <trkpt lat="47.30459" lon="-2.29659">
        <ele>7.8000001907349</ele>
        <time>2021-12-12T08:52:58.000Z</time>
      </trkpt>
      <trkpt lat="47.30486" lon="-2.2965">
        <ele>7.8000001907349</ele>
        <time>2021-12-12T08:53:03.000Z</time>
      </trkpt>
      <trkpt lat="47.30497" lon="-2.29645">
        <ele>7.8000001907349</ele>
        <time>2021-12-12T08:53:05.000Z</time>
      </trkpt>
      <trkpt lat="47.30523" lon="-2.29636">
        <ele>7.8000001907349</ele>
        <time>2021-12-12T08:53:10.000Z</time>
      </trkpt>
      <trkpt lat="47.30528" lon="-2.29634">
        <ele>7.8000001907349</ele>
        <time>2021-12-12T08:53:11.000Z</time>
      </trkpt>
      <trkpt lat="47.30565" lon="-2.29623">
        <ele>7.8000001907349</ele>
        <time>2021-12-12T08:53:18.000Z</time>
      </trkpt>
      <trkpt lat="47.306" lon="-2.2961">
        <ele>7.8000001907349</ele>
        <time>2021-12-12T08:53:25.000Z</time>
      </trkpt>
      <trkpt lat="47.30631" lon="-2.29597">
        <ele>7.8000001907349</ele>
        <time>2021-12-12T08:53:31.000Z</time>
      </trkpt>
      <trkpt lat="47.30665" lon="-2.29588">
        <ele>7.8000001907349</ele>
        <time>2021-12-12T08:53:37.000Z</time>
      </trkpt>
      <trkpt lat="47.30702" lon="-2.29579">
        <ele>7.8000001907349</ele>
        <time>2021-12-12T08:53:44.000Z</time>
      </trkpt>
      <trkpt lat="47.30733" lon="-2.29568">
        <ele>7.8000001907349</ele>
        <time>2021-12-12T08:53:50.000Z</time>
      </trkpt>
      <trkpt lat="47.30772" lon="-2.29554">
        <ele>7.8000001907349</ele>
        <time>2021-12-12T08:53:57.000Z</time>
      </trkpt>
      <trkpt lat="47.30778" lon="-2.29553">
        <ele>8.1999998092651</ele>
        <time>2021-12-12T08:53:58.000Z</time>
      </trkpt>
      <trkpt lat="47.30784" lon="-2.29551">
        <ele>8.6000003814697</ele>
        <time>2021-12-12T08:53:59.000Z</time>
      </trkpt>
      <trkpt lat="47.3079" lon="-2.29549">
        <ele>9</ele>
        <time>2021-12-12T08:54:00.000Z</time>
      </trkpt>
      <trkpt lat="47.30796" lon="-2.29547">
        <ele>9.3999996185303</ele>
        <time>2021-12-12T08:54:01.000Z</time>
      </trkpt>
      <trkpt lat="47.30802" lon="-2.29546">
        <ele>9.8000001907349</ele>
        <time>2021-12-12T08:54:02.000Z</time>
      </trkpt>
      <trkpt lat="47.30814" lon="-2.29543">
        <ele>9.8000001907349</ele>
        <time>2021-12-12T08:54:04.000Z</time>
      </trkpt>
      <trkpt lat="47.30849" lon="-2.29542">
        <ele>9.8000001907349</ele>
        <time>2021-12-12T08:54:10.000Z</time>
      </trkpt>
      <trkpt lat="47.30897" lon="-2.29559">
        <ele>9.8000001907349</ele>
        <time>2021-12-12T08:54:18.000Z</time>
      </trkpt>
      <trkpt lat="47.30945" lon="-2.29574">
        <ele>9.8000001907349</ele>
        <time>2021-12-12T08:54:26.000Z</time>
      </trkpt>
      <trkpt lat="47.30983" lon="-2.2959">
        <ele>9.8000001907349</ele>
        <time>2021-12-12T08:54:32.000Z</time>
      </trkpt>
      <trkpt lat="47.31005" lon="-2.29614">
        <ele>9.8000001907349</ele>
        <time>2021-12-12T08:54:36.000Z</time>
      </trkpt>
      <trkpt lat="47.3101" lon="-2.29622">
        <ele>9.8000001907349</ele>
        <time>2021-12-12T08:54:37.000Z</time>
      </trkpt>
      <trkpt lat="47.31023" lon="-2.29651">
        <ele>9.8000001907349</ele>
        <time>2021-12-12T08:54:41.000Z</time>
      </trkpt>
      <trkpt lat="47.3104" lon="-2.29692">
        <ele>9.8000001907349</ele>
        <time>2021-12-12T08:54:47.000Z</time>
      </trkpt>
      <trkpt lat="47.31043" lon="-2.29697">
        <ele>9.8000001907349</ele>
        <time>2021-12-12T08:54:48.000Z</time>
      </trkpt>
      <trkpt lat="47.31056" lon="-2.29695">
        <ele>10.199999809265</ele>
        <time>2021-12-12T08:54:51.000Z</time>
      </trkpt>
      <trkpt lat="47.31061" lon="-2.29691">
        <ele>10.60000038147</ele>
        <time>2021-12-12T08:54:52.000Z</time>
      </trkpt>
      <trkpt lat="47.31065" lon="-2.29687">
        <ele>11</ele>
        <time>2021-12-12T08:54:53.000Z</time>
      </trkpt>
      <trkpt lat="47.3107" lon="-2.29682">
        <ele>11.800000190735</ele>
        <time>2021-12-12T08:54:54.000Z</time>
      </trkpt>
      <trkpt lat="47.31079" lon="-2.29672">
        <ele>11.800000190735</ele>
        <time>2021-12-12T08:54:56.000Z</time>
      </trkpt>
      <trkpt lat="47.31111" lon="-2.29631">
        <ele>11.800000190735</ele>
        <time>2021-12-12T08:55:03.000Z</time>
      </trkpt>
      <trkpt lat="47.31141" lon="-2.29601">
        <ele>11.800000190735</ele>
        <time>2021-12-12T08:55:09.000Z</time>
      </trkpt>
      <trkpt lat="47.31147" lon="-2.29598">
        <ele>11.800000190735</ele>
        <time>2021-12-12T08:55:10.000Z</time>
      </trkpt>
      <trkpt lat="47.31162" lon="-2.29586">
        <ele>11.800000190735</ele>
        <time>2021-12-12T08:55:13.000Z</time>
      </trkpt>
      <trkpt lat="47.31169" lon="-2.29571">
        <ele>11.800000190735</ele>
        <time>2021-12-12T08:55:15.000Z</time>
      </trkpt>
      <trkpt lat="47.31166" lon="-2.29546">
        <ele>11.800000190735</ele>
        <time>2021-12-12T08:55:18.000Z</time>
      </trkpt>
      <trkpt lat="47.31161" lon="-2.2953">
        <ele>11.800000190735</ele>
        <time>2021-12-12T08:55:20.000Z</time>
      </trkpt>
      <trkpt lat="47.31149" lon="-2.29499">
        <ele>11.800000190735</ele>
        <time>2021-12-12T08:55:24.000Z</time>
      </trkpt>
      <trkpt lat="47.31145" lon="-2.29482">
        <ele>11.800000190735</ele>
        <time>2021-12-12T08:55:26.000Z</time>
      </trkpt>
      <trkpt lat="47.31147" lon="-2.29467">
        <ele>11.800000190735</ele>
        <time>2021-12-12T08:55:28.000Z</time>
      </trkpt>
      <trkpt lat="47.31158" lon="-2.29451">
        <ele>11.800000190735</ele>
        <time>2021-12-12T08:55:31.000Z</time>
      </trkpt>
      <trkpt lat="47.31163" lon="-2.29447">
        <ele>11.800000190735</ele>
        <time>2021-12-12T08:55:32.000Z</time>
      </trkpt>
      <trkpt lat="47.31192" lon="-2.29426">
        <ele>11.800000190735</ele>
        <time>2021-12-12T08:55:38.000Z</time>
      </trkpt>
      <trkpt lat="47.31225" lon="-2.29403">
        <ele>11.800000190735</ele>
        <time>2021-12-12T08:55:45.000Z</time>
      </trkpt>
      <trkpt lat="47.31258" lon="-2.29375">
        <ele>11.800000190735</ele>
        <time>2021-12-12T08:55:52.000Z</time>
      </trkpt>
      <trkpt lat="47.31269" lon="-2.29345">
        <ele>11.800000190735</ele>
        <time>2021-12-12T08:55:56.000Z</time>
      </trkpt>
      <trkpt lat="47.31272" lon="-2.29338">
        <ele>11.800000190735</ele>
        <time>2021-12-12T08:55:57.000Z</time>
      </trkpt>
      <trkpt lat="47.31283" lon="-2.29316">
        <ele>11.800000190735</ele>
        <time>2021-12-12T08:56:01.000Z</time>
      </trkpt>
      <trkpt lat="47.31298" lon="-2.29299">
        <ele>11.800000190735</ele>
        <time>2021-12-12T08:56:06.000Z</time>
      </trkpt>
      <trkpt lat="47.31317" lon="-2.29292">
        <ele>11.800000190735</ele>
        <time>2021-12-12T08:56:11.000Z</time>
      </trkpt>
      <trkpt lat="47.31326" lon="-2.29294">
        <ele>11.800000190735</ele>
        <time>2021-12-12T08:56:13.000Z</time>
      </trkpt>
      <trkpt lat="47.3134" lon="-2.29299">
        <ele>11.800000190735</ele>
        <time>2021-12-12T08:56:16.000Z</time>
      </trkpt>
      <trkpt lat="47.31366" lon="-2.29311">
        <ele>11.800000190735</ele>
        <time>2021-12-12T08:56:22.000Z</time>
      </trkpt>
      <trkpt lat="47.31369" lon="-2.29314">
        <ele>11.800000190735</ele>
        <time>2021-12-12T08:56:23.000Z</time>
      </trkpt>
      <trkpt lat="47.31374" lon="-2.29315">
        <ele>11.800000190735</ele>
        <time>2021-12-12T08:56:24.000Z</time>
      </trkpt>
      <trkpt lat="47.31383" lon="-2.29319">
        <ele>12.199999809265</ele>
        <time>2021-12-12T08:56:26.000Z</time>
      </trkpt>
      <trkpt lat="47.31387" lon="-2.29322">
        <ele>12.60000038147</ele>
        <time>2021-12-12T08:56:27.000Z</time>
      </trkpt>
      <trkpt lat="47.31392" lon="-2.29324">
        <ele>13.199999809265</ele>
        <time>2021-12-12T08:56:28.000Z</time>
      </trkpt>
      <trkpt lat="47.31396" lon="-2.29327">
        <ele>13.60000038147</ele>
        <time>2021-12-12T08:56:29.000Z</time>
      </trkpt>
      <trkpt lat="47.314" lon="-2.2933">
        <ele>14</ele>
        <time>2021-12-12T08:56:30.000Z</time>
      </trkpt>
      <trkpt lat="47.31404" lon="-2.29333">
        <ele>14</ele>
        <time>2021-12-12T08:56:31.000Z</time>
      </trkpt>
      <trkpt lat="47.31413" lon="-2.29344">
        <ele>14</ele>
        <time>2021-12-12T08:56:34.000Z</time>
      </trkpt>
      <trkpt lat="47.31425" lon="-2.2936">
        <ele>14</ele>
        <time>2021-12-12T08:56:38.000Z</time>
      </trkpt>
      <trkpt lat="47.31428" lon="-2.29365">
        <ele>14</ele>
        <time>2021-12-12T08:56:39.000Z</time>
      </trkpt>
      <trkpt lat="47.31451" lon="-2.29393">
        <ele>14</ele>
        <time>2021-12-12T08:56:46.000Z</time>
      </trkpt>
      <trkpt lat="47.31455" lon="-2.29395">
        <ele>14</ele>
        <time>2021-12-12T08:56:47.000Z</time>
      </trkpt>
      <trkpt lat="47.31463" lon="-2.29396">
        <ele>14.39999961853</ele>
        <time>2021-12-12T08:56:49.000Z</time>
      </trkpt>
      <trkpt lat="47.31467" lon="-2.29395">
        <ele>14.800000190735</ele>
        <time>2021-12-12T08:56:50.000Z</time>
      </trkpt>
      <trkpt lat="47.31471" lon="-2.29395">
        <ele>15.199999809265</ele>
        <time>2021-12-12T08:56:51.000Z</time>
      </trkpt>
      <trkpt lat="47.31475" lon="-2.29394">
        <ele>15.60000038147</ele>
        <time>2021-12-12T08:56:52.000Z</time>
      </trkpt>
      <trkpt lat="47.31479" lon="-2.29393">
        <ele>16</ele>
        <time>2021-12-12T08:56:53.000Z</time>
      </trkpt>
      <trkpt lat="47.31494" lon="-2.29393">
        <ele>16</ele>
        <time>2021-12-12T08:56:57.000Z</time>
      </trkpt>
      <trkpt lat="47.31506" lon="-2.29404">
        <ele>16</ele>
        <time>2021-12-12T08:57:01.000Z</time>
      </trkpt>
      <trkpt lat="47.31519" lon="-2.29429">
        <ele>16</ele>
        <time>2021-12-12T08:57:06.000Z</time>
      </trkpt>
      <trkpt lat="47.31521" lon="-2.29434">
        <ele>16</ele>
        <time>2021-12-12T08:57:07.000Z</time>
      </trkpt>
      <trkpt lat="47.31524" lon="-2.2944">
        <ele>16.39999961853</ele>
        <time>2021-12-12T08:57:08.000Z</time>
      </trkpt>
      <trkpt lat="47.31528" lon="-2.29448">
        <ele>16.799999237061</ele>
        <time>2021-12-12T08:57:09.000Z</time>
      </trkpt>
      <trkpt lat="47.3153" lon="-2.29454">
        <ele>17.39999961853</ele>
        <time>2021-12-12T08:57:10.000Z</time>
      </trkpt>
      <trkpt lat="47.31531" lon="-2.29461">
        <ele>17.799999237061</ele>
        <time>2021-12-12T08:57:11.000Z</time>
      </trkpt>
      <trkpt lat="47.31533" lon="-2.29468">
        <ele>18.200000762939</ele>
        <time>2021-12-12T08:57:12.000Z</time>
      </trkpt>
      <trkpt lat="47.31542" lon="-2.29506">
        <ele>18.200000762939</ele>
        <time>2021-12-12T08:57:18.000Z</time>
      </trkpt>
      <trkpt lat="47.31544" lon="-2.29512">
        <ele>18.200000762939</ele>
        <time>2021-12-12T08:57:19.000Z</time>
      </trkpt>
      <trkpt lat="47.31549" lon="-2.2953">
        <ele>18.200000762939</ele>
        <time>2021-12-12T08:57:22.000Z</time>
      </trkpt>
      <trkpt lat="47.31552" lon="-2.29536">
        <ele>18.200000762939</ele>
        <time>2021-12-12T08:57:23.000Z</time>
      </trkpt>
      <trkpt lat="47.31557" lon="-2.29546">
        <ele>18.200000762939</ele>
        <time>2021-12-12T08:57:25.000Z</time>
      </trkpt>
      <trkpt lat="47.3157" lon="-2.29564">
        <ele>18.200000762939</ele>
        <time>2021-12-12T08:57:29.000Z</time>
      </trkpt>
      <trkpt lat="47.31588" lon="-2.29588">
        <ele>18.200000762939</ele>
        <time>2021-12-12T08:57:35.000Z</time>
      </trkpt>
      <trkpt lat="47.31595" lon="-2.29595">
        <ele>18.60000038147</ele>
        <time>2021-12-12T08:57:37.000Z</time>
      </trkpt>
      <trkpt lat="47.31599" lon="-2.29599">
        <ele>19</ele>
        <time>2021-12-12T08:57:38.000Z</time>
      </trkpt>
      <trkpt lat="47.31603" lon="-2.29604">
        <ele>19.39999961853</ele>
        <time>2021-12-12T08:57:39.000Z</time>
      </trkpt>
      <trkpt lat="47.31607" lon="-2.29608">
        <ele>19.799999237061</ele>
        <time>2021-12-12T08:57:40.000Z</time>
      </trkpt>
      <trkpt lat="47.31611" lon="-2.29613">
        <ele>20.200000762939</ele>
        <time>2021-12-12T08:57:41.000Z</time>
      </trkpt>
      <trkpt lat="47.31614" lon="-2.29618">
        <ele>20.200000762939</ele>
        <time>2021-12-12T08:57:42.000Z</time>
      </trkpt>
      <trkpt lat="47.31617" lon="-2.29623">
        <ele>20.200000762939</ele>
        <time>2021-12-12T08:57:43.000Z</time>
      </trkpt>
      <trkpt lat="47.31627" lon="-2.29645">
        <ele>20.200000762939</ele>
        <time>2021-12-12T08:57:47.000Z</time>
      </trkpt>
      <trkpt lat="47.31643" lon="-2.29687">
        <ele>20.200000762939</ele>
        <time>2021-12-12T08:57:54.000Z</time>
      </trkpt>
      <trkpt lat="47.31656" lon="-2.29723">
        <ele>20.200000762939</ele>
        <time>2021-12-12T08:58:00.000Z</time>
      </trkpt>
      <trkpt lat="47.3166" lon="-2.29728">
        <ele>20.200000762939</ele>
        <time>2021-12-12T08:58:01.000Z</time>
      </trkpt>
      <trkpt lat="47.31664" lon="-2.29733">
        <ele>20.200000762939</ele>
        <time>2021-12-12T08:58:02.000Z</time>
      </trkpt>
      <trkpt lat="47.31678" lon="-2.29737">
        <ele>20.200000762939</ele>
        <time>2021-12-12T08:58:05.000Z</time>
      </trkpt>
      <trkpt lat="47.31696" lon="-2.29732">
        <ele>20.200000762939</ele>
        <time>2021-12-12T08:58:09.000Z</time>
      </trkpt>
      <trkpt lat="47.317" lon="-2.29729">
        <ele>20.200000762939</ele>
        <time>2021-12-12T08:58:10.000Z</time>
      </trkpt>
      <trkpt lat="47.31722" lon="-2.29712">
        <ele>20.200000762939</ele>
        <time>2021-12-12T08:58:15.000Z</time>
      </trkpt>
      <trkpt lat="47.31758" lon="-2.29682">
        <ele>20.200000762939</ele>
        <time>2021-12-12T08:58:22.000Z</time>
      </trkpt>
      <trkpt lat="47.31802" lon="-2.29651">
        <ele>20.200000762939</ele>
        <time>2021-12-12T08:58:30.000Z</time>
      </trkpt>
      <trkpt lat="47.31849" lon="-2.29623">
        <ele>20.200000762939</ele>
        <time>2021-12-12T08:58:39.000Z</time>
      </trkpt>
      <trkpt lat="47.31854" lon="-2.29619">
        <ele>20.200000762939</ele>
        <time>2021-12-12T08:58:40.000Z</time>
      </trkpt>
      <trkpt lat="47.3187" lon="-2.29598">
        <ele>20.200000762939</ele>
        <time>2021-12-12T08:58:44.000Z</time>
      </trkpt>
      <trkpt lat="47.31872" lon="-2.29576">
        <ele>20.200000762939</ele>
        <time>2021-12-12T08:58:47.000Z</time>
      </trkpt>
      <trkpt lat="47.31869" lon="-2.29562">
        <ele>20.200000762939</ele>
        <time>2021-12-12T08:58:49.000Z</time>
      </trkpt>
      <trkpt lat="47.31863" lon="-2.29542">
        <ele>20.200000762939</ele>
        <time>2021-12-12T08:58:52.000Z</time>
      </trkpt>
      <trkpt lat="47.31855" lon="-2.29516">
        <ele>20.200000762939</ele>
        <time>2021-12-12T08:58:56.000Z</time>
      </trkpt>
      <trkpt lat="47.31851" lon="-2.29504">
        <ele>20.200000762939</ele>
        <time>2021-12-12T08:58:58.000Z</time>
      </trkpt>
      <trkpt lat="47.31848" lon="-2.29476">
        <ele>20.200000762939</ele>
        <time>2021-12-12T08:59:03.000Z</time>
      </trkpt>
      <trkpt lat="47.31852" lon="-2.29443">
        <ele>20.200000762939</ele>
        <time>2021-12-12T08:59:09.000Z</time>
      </trkpt>
      <trkpt lat="47.31853" lon="-2.29431">
        <ele>20.200000762939</ele>
        <time>2021-12-12T08:59:11.000Z</time>
      </trkpt>
      <trkpt lat="47.31853" lon="-2.29418">
        <ele>20.200000762939</ele>
        <time>2021-12-12T08:59:13.000Z</time>
      </trkpt>
      <trkpt lat="47.31852" lon="-2.29406">
        <ele>20.200000762939</ele>
        <time>2021-12-12T08:59:15.000Z</time>
      </trkpt>
      <trkpt lat="47.3185" lon="-2.29393">
        <ele>20.200000762939</ele>
        <time>2021-12-12T08:59:17.000Z</time>
      </trkpt>
      <trkpt lat="47.31845" lon="-2.2937">
        <ele>20.200000762939</ele>
        <time>2021-12-12T08:59:21.000Z</time>
      </trkpt>
      <trkpt lat="47.31842" lon="-2.29358">
        <ele>20.200000762939</ele>
        <time>2021-12-12T08:59:23.000Z</time>
      </trkpt>
      <trkpt lat="47.31835" lon="-2.29326">
        <ele>20.200000762939</ele>
        <time>2021-12-12T08:59:29.000Z</time>
      </trkpt>
      <trkpt lat="47.31832" lon="-2.29287">
        <ele>19.799999237061</ele>
        <time>2021-12-12T08:59:36.000Z</time>
      </trkpt>
      <trkpt lat="47.31832" lon="-2.2928">
        <ele>19.39999961853</ele>
        <time>2021-12-12T08:59:37.000Z</time>
      </trkpt>
      <trkpt lat="47.31831" lon="-2.29274">
        <ele>19</ele>
        <time>2021-12-12T08:59:38.000Z</time>
      </trkpt>
      <trkpt lat="47.31831" lon="-2.29266">
        <ele>18.60000038147</ele>
        <time>2021-12-12T08:59:39.000Z</time>
      </trkpt>
      <trkpt lat="47.31829" lon="-2.29259">
        <ele>18.200000762939</ele>
        <time>2021-12-12T08:59:40.000Z</time>
      </trkpt>
      <trkpt lat="47.31826" lon="-2.29239">
        <ele>18.200000762939</ele>
        <time>2021-12-12T08:59:43.000Z</time>
      </trkpt>
      <trkpt lat="47.31823" lon="-2.29216">
        <ele>17.799999237061</ele>
        <time>2021-12-12T08:59:47.000Z</time>
      </trkpt>
      <trkpt lat="47.31823" lon="-2.29211">
        <ele>17.39999961853</ele>
        <time>2021-12-12T08:59:48.000Z</time>
      </trkpt>
      <trkpt lat="47.31824" lon="-2.29205">
        <ele>17</ele>
        <time>2021-12-12T08:59:49.000Z</time>
      </trkpt>
      <trkpt lat="47.31825" lon="-2.292">
        <ele>16.200000762939</ele>
        <time>2021-12-12T08:59:50.000Z</time>
      </trkpt>
      <trkpt lat="47.31828" lon="-2.29192">
        <ele>16.200000762939</ele>
        <time>2021-12-12T08:59:52.000Z</time>
      </trkpt>
      <trkpt lat="47.31829" lon="-2.29189">
        <ele>16.200000762939</ele>
        <time>2021-12-12T08:59:55.000Z</time>
      </trkpt>
      <trkpt lat="47.31826" lon="-2.29181">
        <ele>16.200000762939</ele>
        <time>2021-12-12T09:00:09.000Z</time>
      </trkpt>
      <trkpt lat="47.31826" lon="-2.29163">
        <ele>16.200000762939</ele>
        <time>2021-12-12T09:00:13.000Z</time>
      </trkpt>
      <trkpt lat="47.31827" lon="-2.29157">
        <ele>15.800000190735</ele>
        <time>2021-12-12T09:00:14.000Z</time>
      </trkpt>
      <trkpt lat="47.31828" lon="-2.29152">
        <ele>15</ele>
        <time>2021-12-12T09:00:15.000Z</time>
      </trkpt>
      <trkpt lat="47.31829" lon="-2.29145">
        <ele>14.60000038147</ele>
        <time>2021-12-12T09:00:16.000Z</time>
      </trkpt>
      <trkpt lat="47.3183" lon="-2.29138">
        <ele>14.199999809265</ele>
        <time>2021-12-12T09:00:17.000Z</time>
      </trkpt>
      <trkpt lat="47.31837" lon="-2.29096">
        <ele>14.199999809265</ele>
        <time>2021-12-12T09:00:23.000Z</time>
      </trkpt>
      <trkpt lat="47.31841" lon="-2.29076">
        <ele>13.800000190735</ele>
        <time>2021-12-12T09:00:26.000Z</time>
      </trkpt>
      <trkpt lat="47.31842" lon="-2.29069">
        <ele>13.39999961853</ele>
        <time>2021-12-12T09:00:27.000Z</time>
      </trkpt>
      <trkpt lat="47.31844" lon="-2.29061">
        <ele>12.800000190735</ele>
        <time>2021-12-12T09:00:28.000Z</time>
      </trkpt>
      <trkpt lat="47.31846" lon="-2.29054">
        <ele>12.39999961853</ele>
        <time>2021-12-12T09:00:29.000Z</time>
      </trkpt>
      <trkpt lat="47.31847" lon="-2.29047">
        <ele>12</ele>
        <time>2021-12-12T09:00:30.000Z</time>
      </trkpt>
      <trkpt lat="47.31858" lon="-2.28998">
        <ele>12</ele>
        <time>2021-12-12T09:00:37.000Z</time>
      </trkpt>
      <trkpt lat="47.3186" lon="-2.28971">
        <ele>12</ele>
        <time>2021-12-12T09:00:41.000Z</time>
      </trkpt>
      <trkpt lat="47.31861" lon="-2.28965">
        <ele>12</ele>
        <time>2021-12-12T09:00:42.000Z</time>
      </trkpt>
      <trkpt lat="47.31865" lon="-2.28947">
        <ele>12</ele>
        <time>2021-12-12T09:00:46.000Z</time>
      </trkpt>
      <trkpt lat="47.31869" lon="-2.28942">
        <ele>12</ele>
        <time>2021-12-12T09:00:48.000Z</time>
      </trkpt>
      <trkpt lat="47.31873" lon="-2.28941">
        <ele>12</ele>
        <time>2021-12-12T09:00:50.000Z</time>
      </trkpt>
      <trkpt lat="47.31887" lon="-2.28936">
        <ele>12</ele>
        <time>2021-12-12T09:00:55.000Z</time>
      </trkpt>
      <trkpt lat="47.31906" lon="-2.28929">
        <ele>11.60000038147</ele>
        <time>2021-12-12T09:01:00.000Z</time>
      </trkpt>
      <trkpt lat="47.3191" lon="-2.28927">
        <ele>11.199999809265</ele>
        <time>2021-12-12T09:01:01.000Z</time>
      </trkpt>
      <trkpt lat="47.31913" lon="-2.28925">
        <ele>10.800000190735</ele>
        <time>2021-12-12T09:01:02.000Z</time>
      </trkpt>
      <trkpt lat="47.31915" lon="-2.28923">
        <ele>10.39999961853</ele>
        <time>2021-12-12T09:01:03.000Z</time>
      </trkpt>
      <trkpt lat="47.31918" lon="-2.2892">
        <ele>10</ele>
        <time>2021-12-12T09:01:04.000Z</time>
      </trkpt>
      <trkpt lat="47.31927" lon="-2.28911">
        <ele>10</ele>
        <time>2021-12-12T09:01:08.000Z</time>
      </trkpt>
      <trkpt lat="47.31937" lon="-2.28902">
        <ele>10</ele>
        <time>2021-12-12T09:01:13.000Z</time>
      </trkpt>
      <trkpt lat="47.31947" lon="-2.28899">
        <ele>10</ele>
        <time>2021-12-12T09:01:19.000Z</time>
      </trkpt>
      <trkpt lat="47.3195" lon="-2.28898">
        <ele>10</ele>
        <time>2021-12-12T09:02:43.000Z</time>
      </trkpt>
      <trkpt lat="47.31956" lon="-2.28896">
        <ele>10</ele>
        <time>2021-12-12T09:02:46.000Z</time>
      </trkpt>
      <trkpt lat="47.31971" lon="-2.28889">
        <ele>10</ele>
        <time>2021-12-12T09:02:50.000Z</time>
      </trkpt>
      <trkpt lat="47.31999" lon="-2.28883">
        <ele>10</ele>
        <time>2021-12-12T09:02:57.000Z</time>
      </trkpt>
      <trkpt lat="47.32004" lon="-2.2888">
        <ele>10</ele>
        <time>2021-12-12T09:02:58.000Z</time>
      </trkpt>
      <trkpt lat="47.32031" lon="-2.28868">
        <ele>10</ele>
        <time>2021-12-12T09:03:05.000Z</time>
      </trkpt>
      <trkpt lat="47.32035" lon="-2.2887">
        <ele>10</ele>
        <time>2021-12-12T09:03:06.000Z</time>
      </trkpt>
      <trkpt lat="47.32039" lon="-2.28878">
        <ele>10</ele>
        <time>2021-12-12T09:03:08.000Z</time>
      </trkpt>
      <trkpt lat="47.32042" lon="-2.28897">
        <ele>10</ele>
        <time>2021-12-12T09:03:11.000Z</time>
      </trkpt>
      <trkpt lat="47.32043" lon="-2.28904">
        <ele>10</ele>
        <time>2021-12-12T09:03:12.000Z</time>
      </trkpt>
      <trkpt lat="47.32046" lon="-2.28935">
        <ele>10</ele>
        <time>2021-12-12T09:03:17.000Z</time>
      </trkpt>
      <trkpt lat="47.32059" lon="-2.28949">
        <ele>10</ele>
        <time>2021-12-12T09:03:21.000Z</time>
      </trkpt>
      <trkpt lat="47.32083" lon="-2.28964">
        <ele>10</ele>
        <time>2021-12-12T09:03:28.000Z</time>
      </trkpt>
      <trkpt lat="47.32101" lon="-2.2898">
        <ele>10</ele>
        <time>2021-12-12T09:03:33.000Z</time>
      </trkpt>
      <trkpt lat="47.32113" lon="-2.29005">
        <ele>10</ele>
        <time>2021-12-12T09:03:39.000Z</time>
      </trkpt>
      <trkpt lat="47.32125" lon="-2.29032">
        <ele>10</ele>
        <time>2021-12-12T09:03:45.000Z</time>
      </trkpt>
      <trkpt lat="47.32138" lon="-2.29063">
        <ele>10.39999961853</ele>
        <time>2021-12-12T09:03:52.000Z</time>
      </trkpt>
      <trkpt lat="47.3214" lon="-2.29069">
        <ele>10.800000190735</ele>
        <time>2021-12-12T09:03:53.000Z</time>
      </trkpt>
      <trkpt lat="47.32143" lon="-2.29074">
        <ele>11.199999809265</ele>
        <time>2021-12-12T09:03:54.000Z</time>
      </trkpt>
      <trkpt lat="47.32145" lon="-2.29079">
        <ele>11.60000038147</ele>
        <time>2021-12-12T09:03:55.000Z</time>
      </trkpt>
      <trkpt lat="47.32147" lon="-2.29084">
        <ele>12</ele>
        <time>2021-12-12T09:03:56.000Z</time>
      </trkpt>
      <trkpt lat="47.32155" lon="-2.29098">
        <ele>12</ele>
        <time>2021-12-12T09:03:59.000Z</time>
      </trkpt>
      <trkpt lat="47.32171" lon="-2.29121">
        <ele>12</ele>
        <time>2021-12-12T09:04:04.000Z</time>
      </trkpt>
      <trkpt lat="47.32196" lon="-2.29146">
        <ele>12</ele>
        <time>2021-12-12T09:04:10.000Z</time>
      </trkpt>
      <trkpt lat="47.32203" lon="-2.29153">
        <ele>12</ele>
        <time>2021-12-12T09:04:12.000Z</time>
      </trkpt>
      <trkpt lat="47.32209" lon="-2.29162">
        <ele>12</ele>
        <time>2021-12-12T09:04:14.000Z</time>
      </trkpt>
      <trkpt lat="47.32216" lon="-2.29169">
        <ele>12</ele>
        <time>2021-12-12T09:04:16.000Z</time>
      </trkpt>
      <trkpt lat="47.32234" lon="-2.29194">
        <ele>12</ele>
        <time>2021-12-12T09:04:22.000Z</time>
      </trkpt>
      <trkpt lat="47.32255" lon="-2.29223">
        <ele>12</ele>
        <time>2021-12-12T09:04:29.000Z</time>
      </trkpt>
      <trkpt lat="47.32278" lon="-2.29216">
        <ele>12</ele>
        <time>2021-12-12T09:04:34.000Z</time>
      </trkpt>
      <trkpt lat="47.32296" lon="-2.29211">
        <ele>11.60000038147</ele>
        <time>2021-12-12T09:04:38.000Z</time>
      </trkpt>
      <trkpt lat="47.323" lon="-2.2921">
        <ele>11.199999809265</ele>
        <time>2021-12-12T09:04:39.000Z</time>
      </trkpt>
      <trkpt lat="47.32304" lon="-2.29208">
        <ele>10.800000190735</ele>
        <time>2021-12-12T09:04:40.000Z</time>
      </trkpt>
      <trkpt lat="47.32308" lon="-2.29209">
        <ele>10.39999961853</ele>
        <time>2021-12-12T09:04:41.000Z</time>
      </trkpt>
      <trkpt lat="47.32313" lon="-2.29211">
        <ele>10</ele>
        <time>2021-12-12T09:04:42.000Z</time>
      </trkpt>
      <trkpt lat="47.32317" lon="-2.29213">
        <ele>10</ele>
        <time>2021-12-12T09:04:43.000Z</time>
      </trkpt>
      <trkpt lat="47.32325" lon="-2.29221">
        <ele>10</ele>
        <time>2021-12-12T09:04:45.000Z</time>
      </trkpt>
      <trkpt lat="47.32329" lon="-2.29225">
        <ele>10</ele>
        <time>2021-12-12T09:04:46.000Z</time>
      </trkpt>
      <trkpt lat="47.32348" lon="-2.29235">
        <ele>10</ele>
        <time>2021-12-12T09:04:50.000Z</time>
      </trkpt>
      <trkpt lat="47.32382" lon="-2.29253">
        <ele>10</ele>
        <time>2021-12-12T09:04:57.000Z</time>
      </trkpt>
      <trkpt lat="47.32397" lon="-2.29261">
        <ele>10</ele>
        <time>2021-12-12T09:05:00.000Z</time>
      </trkpt>
      <trkpt lat="47.32405" lon="-2.29271">
        <ele>10</ele>
        <time>2021-12-12T09:05:02.000Z</time>
      </trkpt>
      <trkpt lat="47.32415" lon="-2.29301">
        <ele>10</ele>
        <time>2021-12-12T09:05:06.000Z</time>
      </trkpt>
      <trkpt lat="47.3242" lon="-2.29342">
        <ele>10</ele>
        <time>2021-12-12T09:05:11.000Z</time>
      </trkpt>
      <trkpt lat="47.32424" lon="-2.29374">
        <ele>10</ele>
        <time>2021-12-12T09:05:15.000Z</time>
      </trkpt>
      <trkpt lat="47.32427" lon="-2.2939">
        <ele>10</ele>
        <time>2021-12-12T09:05:17.000Z</time>
      </trkpt>
      <trkpt lat="47.32433" lon="-2.29419">
        <ele>10</ele>
        <time>2021-12-12T09:05:21.000Z</time>
      </trkpt>
      <trkpt lat="47.32433" lon="-2.29427">
        <ele>10.39999961853</ele>
        <time>2021-12-12T09:05:22.000Z</time>
      </trkpt>
      <trkpt lat="47.32434" lon="-2.29434">
        <ele>10.800000190735</ele>
        <time>2021-12-12T09:05:23.000Z</time>
      </trkpt>
      <trkpt lat="47.32435" lon="-2.29441">
        <ele>11.39999961853</ele>
        <time>2021-12-12T09:05:24.000Z</time>
      </trkpt>
      <trkpt lat="47.32435" lon="-2.29448">
        <ele>11.800000190735</ele>
        <time>2021-12-12T09:05:25.000Z</time>
      </trkpt>
      <trkpt lat="47.32435" lon="-2.29455">
        <ele>12.199999809265</ele>
        <time>2021-12-12T09:05:26.000Z</time>
      </trkpt>
      <trkpt lat="47.32438" lon="-2.29468">
        <ele>12.199999809265</ele>
        <time>2021-12-12T09:05:28.000Z</time>
      </trkpt>
      <trkpt lat="47.32444" lon="-2.29487">
        <ele>12.199999809265</ele>
        <time>2021-12-12T09:05:31.000Z</time>
      </trkpt>
      <trkpt lat="47.32449" lon="-2.29505">
        <ele>12.199999809265</ele>
        <time>2021-12-12T09:05:34.000Z</time>
      </trkpt>
      <trkpt lat="47.32451" lon="-2.29511">
        <ele>12.60000038147</ele>
        <time>2021-12-12T09:05:35.000Z</time>
      </trkpt>
      <trkpt lat="47.32453" lon="-2.29516">
        <ele>13.39999961853</ele>
        <time>2021-12-12T09:05:36.000Z</time>
      </trkpt>
      <trkpt lat="47.32455" lon="-2.29521">
        <ele>14</ele>
        <time>2021-12-12T09:05:37.000Z</time>
      </trkpt>
      <trkpt lat="47.32457" lon="-2.29526">
        <ele>14.39999961853</ele>
        <time>2021-12-12T09:05:38.000Z</time>
      </trkpt>
      <trkpt lat="47.32462" lon="-2.29542">
        <ele>14.39999961853</ele>
        <time>2021-12-12T09:05:41.000Z</time>
      </trkpt>
      <trkpt lat="47.32466" lon="-2.29552">
        <ele>14.800000190735</ele>
        <time>2021-12-12T09:05:43.000Z</time>
      </trkpt>
      <trkpt lat="47.32467" lon="-2.29556">
        <ele>15.199999809265</ele>
        <time>2021-12-12T09:05:44.000Z</time>
      </trkpt>
      <trkpt lat="47.32468" lon="-2.29561">
        <ele>15.60000038147</ele>
        <time>2021-12-12T09:05:45.000Z</time>
      </trkpt>
      <trkpt lat="47.32469" lon="-2.29566">
        <ele>16</ele>
        <time>2021-12-12T09:05:46.000Z</time>
      </trkpt>
      <trkpt lat="47.32471" lon="-2.2957">
        <ele>16.39999961853</ele>
        <time>2021-12-12T09:05:47.000Z</time>
      </trkpt>
      <trkpt lat="47.3248" lon="-2.29604">
        <ele>16.799999237061</ele>
        <time>2021-12-12T09:05:54.000Z</time>
      </trkpt>
      <trkpt lat="47.32481" lon="-2.29609">
        <ele>17.200000762939</ele>
        <time>2021-12-12T09:05:55.000Z</time>
      </trkpt>
      <trkpt lat="47.32483" lon="-2.29615">
        <ele>17.60000038147</ele>
        <time>2021-12-12T09:05:56.000Z</time>
      </trkpt>
      <trkpt lat="47.32484" lon="-2.29621">
        <ele>18.200000762939</ele>
        <time>2021-12-12T09:05:57.000Z</time>
      </trkpt>
      <trkpt lat="47.32486" lon="-2.29627">
        <ele>18.60000038147</ele>
        <time>2021-12-12T09:05:58.000Z</time>
      </trkpt>
      <trkpt lat="47.32492" lon="-2.29654">
        <ele>19</ele>
        <time>2021-12-12T09:06:03.000Z</time>
      </trkpt>
      <trkpt lat="47.32494" lon="-2.29659">
        <ele>19.39999961853</ele>
        <time>2021-12-12T09:06:04.000Z</time>
      </trkpt>
      <trkpt lat="47.32495" lon="-2.29663">
        <ele>19.799999237061</ele>
        <time>2021-12-12T09:06:05.000Z</time>
      </trkpt>
      <trkpt lat="47.32496" lon="-2.29668">
        <ele>20.200000762939</ele>
        <time>2021-12-12T09:06:06.000Z</time>
      </trkpt>
      <trkpt lat="47.32497" lon="-2.29672">
        <ele>20.60000038147</ele>
        <time>2021-12-12T09:06:07.000Z</time>
      </trkpt>
      <trkpt lat="47.32499" lon="-2.29677">
        <ele>20.60000038147</ele>
        <time>2021-12-12T09:06:08.000Z</time>
      </trkpt>
      <trkpt lat="47.32508" lon="-2.2971">
        <ele>20.60000038147</ele>
        <time>2021-12-12T09:06:15.000Z</time>
      </trkpt>
      <trkpt lat="47.32514" lon="-2.29732">
        <ele>21</ele>
        <time>2021-12-12T09:06:19.000Z</time>
      </trkpt>
      <trkpt lat="47.32515" lon="-2.29738">
        <ele>21.39999961853</ele>
        <time>2021-12-12T09:06:20.000Z</time>
      </trkpt>
      <trkpt lat="47.32516" lon="-2.29743">
        <ele>21.799999237061</ele>
        <time>2021-12-12T09:06:21.000Z</time>
      </trkpt>
      <trkpt lat="47.32518" lon="-2.2975">
        <ele>22.200000762939</ele>
        <time>2021-12-12T09:06:22.000Z</time>
      </trkpt>
      <trkpt lat="47.32519" lon="-2.29755">
        <ele>22.60000038147</ele>
        <time>2021-12-12T09:06:23.000Z</time>
      </trkpt>
      <trkpt lat="47.32524" lon="-2.29773">
        <ele>22.60000038147</ele>
        <time>2021-12-12T09:06:27.000Z</time>
      </trkpt>
      <trkpt lat="47.32524" lon="-2.29788">
        <ele>22.60000038147</ele>
        <time>2021-12-12T09:06:30.000Z</time>
      </trkpt>
      <trkpt lat="47.32522" lon="-2.29792">
        <ele>22.60000038147</ele>
        <time>2021-12-12T09:06:31.000Z</time>
      </trkpt>
      <trkpt lat="47.32504" lon="-2.29811">
        <ele>22.60000038147</ele>
        <time>2021-12-12T09:06:36.000Z</time>
      </trkpt>
      <trkpt lat="47.32482" lon="-2.29831">
        <ele>22.60000038147</ele>
        <time>2021-12-12T09:06:41.000Z</time>
      </trkpt>
      <trkpt lat="47.32458" lon="-2.2985">
        <ele>22.60000038147</ele>
        <time>2021-12-12T09:06:47.000Z</time>
      </trkpt>
      <trkpt lat="47.32449" lon="-2.2986">
        <ele>22.60000038147</ele>
        <time>2021-12-12T09:06:49.000Z</time>
      </trkpt>
      <trkpt lat="47.32442" lon="-2.2988">
        <ele>22.60000038147</ele>
        <time>2021-12-12T09:06:52.000Z</time>
      </trkpt>
      <trkpt lat="47.32442" lon="-2.29892">
        <ele>22.60000038147</ele>
        <time>2021-12-12T09:06:54.000Z</time>
      </trkpt>
      <trkpt lat="47.32444" lon="-2.29908">
        <ele>22.60000038147</ele>
        <time>2021-12-12T09:06:57.000Z</time>
      </trkpt>
      <trkpt lat="47.32449" lon="-2.2994">
        <ele>22.60000038147</ele>
        <time>2021-12-12T09:07:04.000Z</time>
      </trkpt>
      <trkpt lat="47.32446" lon="-2.29959">
        <ele>22.60000038147</ele>
        <time>2021-12-12T09:07:08.000Z</time>
      </trkpt>
      <trkpt lat="47.32456" lon="-2.29978">
        <ele>22.60000038147</ele>
        <time>2021-12-12T09:07:12.000Z</time>
      </trkpt>
      <trkpt lat="47.32473" lon="-2.30003">
        <ele>22.60000038147</ele>
        <time>2021-12-12T09:07:17.000Z</time>
      </trkpt>
      <trkpt lat="47.32475" lon="-2.30009">
        <ele>22.60000038147</ele>
        <time>2021-12-12T09:07:18.000Z</time>
      </trkpt>
      <trkpt lat="47.32485" lon="-2.30042">
        <ele>22.60000038147</ele>
        <time>2021-12-12T09:07:23.000Z</time>
      </trkpt>
      <trkpt lat="47.32496" lon="-2.30075">
        <ele>22.60000038147</ele>
        <time>2021-12-12T09:07:28.000Z</time>
      </trkpt>
      <trkpt lat="47.32496" lon="-2.30082">
        <ele>22.60000038147</ele>
        <time>2021-12-12T09:07:29.000Z</time>
      </trkpt>
      <trkpt lat="47.32497" lon="-2.30109">
        <ele>22.60000038147</ele>
        <time>2021-12-12T09:07:33.000Z</time>
      </trkpt>
      <trkpt lat="47.32499" lon="-2.30124">
        <ele>22.60000038147</ele>
        <time>2021-12-12T09:07:35.000Z</time>
      </trkpt>
      <trkpt lat="47.32506" lon="-2.30169">
        <ele>22.60000038147</ele>
        <time>2021-12-12T09:07:41.000Z</time>
      </trkpt>
      <trkpt lat="47.32514" lon="-2.30221">
        <ele>22.60000038147</ele>
        <time>2021-12-12T09:07:48.000Z</time>
      </trkpt>
      <trkpt lat="47.32518" lon="-2.3026">
        <ele>22.60000038147</ele>
        <time>2021-12-12T09:07:53.000Z</time>
      </trkpt>
      <trkpt lat="47.32519" lon="-2.30268">
        <ele>22.60000038147</ele>
        <time>2021-12-12T09:07:54.000Z</time>
      </trkpt>
      <trkpt lat="47.32528" lon="-2.30312">
        <ele>22.60000038147</ele>
        <time>2021-12-12T09:08:00.000Z</time>
      </trkpt>
      <trkpt lat="47.32531" lon="-2.30326">
        <ele>22.60000038147</ele>
        <time>2021-12-12T09:08:02.000Z</time>
      </trkpt>
      <trkpt lat="47.32542" lon="-2.3038">
        <ele>22.60000038147</ele>
        <time>2021-12-12T09:08:10.000Z</time>
      </trkpt>
      <trkpt lat="47.32542" lon="-2.30393">
        <ele>22.60000038147</ele>
        <time>2021-12-12T09:08:12.000Z</time>
      </trkpt>
      <trkpt lat="47.32539" lon="-2.30399">
        <ele>22.200000762939</ele>
        <time>2021-12-12T09:08:13.000Z</time>
      </trkpt>
      <trkpt lat="47.32536" lon="-2.30402">
        <ele>21.799999237061</ele>
        <time>2021-12-12T09:08:14.000Z</time>
      </trkpt>
      <trkpt lat="47.32531" lon="-2.30404">
        <ele>21.39999961853</ele>
        <time>2021-12-12T09:08:15.000Z</time>
      </trkpt>
      <trkpt lat="47.32527" lon="-2.30406">
        <ele>21</ele>
        <time>2021-12-12T09:08:16.000Z</time>
      </trkpt>
      <trkpt lat="47.32522" lon="-2.30408">
        <ele>20.60000038147</ele>
        <time>2021-12-12T09:08:17.000Z</time>
      </trkpt>
      <trkpt lat="47.32503" lon="-2.30416">
        <ele>20.60000038147</ele>
        <time>2021-12-12T09:08:21.000Z</time>
      </trkpt>
      <trkpt lat="47.325" lon="-2.30427">
        <ele>20.60000038147</ele>
        <time>2021-12-12T09:08:23.000Z</time>
      </trkpt>
      <trkpt lat="47.32504" lon="-2.30446">
        <ele>20.60000038147</ele>
        <time>2021-12-12T09:08:26.000Z</time>
      </trkpt>
      <trkpt lat="47.32507" lon="-2.3046">
        <ele>20.60000038147</ele>
        <time>2021-12-12T09:08:28.000Z</time>
      </trkpt>
      <trkpt lat="47.32514" lon="-2.30492">
        <ele>20.60000038147</ele>
        <time>2021-12-12T09:08:32.000Z</time>
      </trkpt>
      <trkpt lat="47.32523" lon="-2.30549">
        <ele>20.60000038147</ele>
        <time>2021-12-12T09:08:39.000Z</time>
      </trkpt>
      <trkpt lat="47.32525" lon="-2.30558">
        <ele>20.60000038147</ele>
        <time>2021-12-12T09:08:40.000Z</time>
      </trkpt>
      <trkpt lat="47.32532" lon="-2.30606">
        <ele>20.60000038147</ele>
        <time>2021-12-12T09:08:46.000Z</time>
      </trkpt>
      <trkpt lat="47.3254" lon="-2.30645">
        <ele>20.200000762939</ele>
        <time>2021-12-12T09:08:51.000Z</time>
      </trkpt>
      <trkpt lat="47.32542" lon="-2.30652">
        <ele>19.60000038147</ele>
        <time>2021-12-12T09:08:52.000Z</time>
      </trkpt>
      <trkpt lat="47.32543" lon="-2.30659">
        <ele>19.200000762939</ele>
        <time>2021-12-12T09:08:53.000Z</time>
      </trkpt>
      <trkpt lat="47.32544" lon="-2.30666">
        <ele>18.39999961853</ele>
        <time>2021-12-12T09:08:54.000Z</time>
      </trkpt>
      <trkpt lat="47.32546" lon="-2.30688">
        <ele>18.39999961853</ele>
        <time>2021-12-12T09:08:57.000Z</time>
      </trkpt>
      <trkpt lat="47.32555" lon="-2.30747">
        <ele>18.39999961853</ele>
        <time>2021-12-12T09:09:04.000Z</time>
      </trkpt>
      <trkpt lat="47.32564" lon="-2.30792">
        <ele>18.39999961853</ele>
        <time>2021-12-12T09:09:10.000Z</time>
      </trkpt>
      <trkpt lat="47.32567" lon="-2.30842">
        <ele>18.39999961853</ele>
        <time>2021-12-12T09:09:16.000Z</time>
      </trkpt>
      <trkpt lat="47.32567" lon="-2.30895">
        <ele>18.39999961853</ele>
        <time>2021-12-12T09:09:22.000Z</time>
      </trkpt>
      <trkpt lat="47.32565" lon="-2.30944">
        <ele>18.39999961853</ele>
        <time>2021-12-12T09:09:28.000Z</time>
      </trkpt>
      <trkpt lat="47.32565" lon="-2.3099">
        <ele>18.39999961853</ele>
        <time>2021-12-12T09:09:34.000Z</time>
      </trkpt>
      <trkpt lat="47.32566" lon="-2.31012">
        <ele>18.39999961853</ele>
        <time>2021-12-12T09:09:37.000Z</time>
      </trkpt>
      <trkpt lat="47.3257" lon="-2.31036">
        <ele>18.39999961853</ele>
        <time>2021-12-12T09:09:40.000Z</time>
      </trkpt>
      <trkpt lat="47.32574" lon="-2.31061">
        <ele>18.39999961853</ele>
        <time>2021-12-12T09:09:43.000Z</time>
      </trkpt>
      <trkpt lat="47.32575" lon="-2.31079">
        <ele>18.39999961853</ele>
        <time>2021-12-12T09:09:45.000Z</time>
      </trkpt>
      <trkpt lat="47.3257" lon="-2.31124">
        <ele>18.39999961853</ele>
        <time>2021-12-12T09:09:50.000Z</time>
      </trkpt>
      <trkpt lat="47.32563" lon="-2.31188">
        <ele>18.39999961853</ele>
        <time>2021-12-12T09:09:57.000Z</time>
      </trkpt>
      <trkpt lat="47.32565" lon="-2.31196">
        <ele>18</ele>
        <time>2021-12-12T09:09:58.000Z</time>
      </trkpt>
      <trkpt lat="47.32568" lon="-2.31204">
        <ele>17.60000038147</ele>
        <time>2021-12-12T09:09:59.000Z</time>
      </trkpt>
      <trkpt lat="47.32572" lon="-2.3121">
        <ele>17.200000762939</ele>
        <time>2021-12-12T09:10:00.000Z</time>
      </trkpt>
      <trkpt lat="47.32573" lon="-2.31218">
        <ele>16.799999237061</ele>
        <time>2021-12-12T09:10:01.000Z</time>
      </trkpt>
      <trkpt lat="47.32574" lon="-2.31228">
        <ele>16.39999961853</ele>
        <time>2021-12-12T09:10:02.000Z</time>
      </trkpt>
      <trkpt lat="47.32573" lon="-2.31237">
        <ele>16.39999961853</ele>
        <time>2021-12-12T09:10:03.000Z</time>
      </trkpt>
      <trkpt lat="47.32572" lon="-2.31246">
        <ele>16.39999961853</ele>
        <time>2021-12-12T09:10:04.000Z</time>
      </trkpt>
      <trkpt lat="47.3257" lon="-2.31299">
        <ele>16.39999961853</ele>
        <time>2021-12-12T09:10:10.000Z</time>
      </trkpt>
      <trkpt lat="47.32567" lon="-2.31316">
        <ele>16.39999961853</ele>
        <time>2021-12-12T09:10:12.000Z</time>
      </trkpt>
      <trkpt lat="47.32561" lon="-2.31329">
        <ele>16.39999961853</ele>
        <time>2021-12-12T09:10:14.000Z</time>
      </trkpt>
      <trkpt lat="47.32554" lon="-2.31359">
        <ele>16.39999961853</ele>
        <time>2021-12-12T09:10:18.000Z</time>
      </trkpt>
      <trkpt lat="47.32553" lon="-2.31375">
        <ele>16.39999961853</ele>
        <time>2021-12-12T09:10:20.000Z</time>
      </trkpt>
      <trkpt lat="47.32552" lon="-2.31399">
        <ele>16.39999961853</ele>
        <time>2021-12-12T09:10:24.000Z</time>
      </trkpt>
      <trkpt lat="47.32551" lon="-2.31412">
        <ele>16.39999961853</ele>
        <time>2021-12-12T09:10:28.000Z</time>
      </trkpt>
      <trkpt lat="47.32554" lon="-2.31435">
        <ele>16.39999961853</ele>
        <time>2021-12-12T09:10:33.000Z</time>
      </trkpt>
      <trkpt lat="47.32558" lon="-2.31458">
        <ele>16.39999961853</ele>
        <time>2021-12-12T09:10:39.000Z</time>
      </trkpt>
      <trkpt lat="47.3256" lon="-2.31485">
        <ele>16.39999961853</ele>
        <time>2021-12-12T09:10:45.000Z</time>
      </trkpt>
      <trkpt lat="47.32559" lon="-2.31507">
        <ele>16.39999961853</ele>
        <time>2021-12-12T09:10:50.000Z</time>
      </trkpt>
      <trkpt lat="47.32558" lon="-2.31537">
        <ele>16.39999961853</ele>
        <time>2021-12-12T09:10:55.000Z</time>
      </trkpt>
      <trkpt lat="47.32558" lon="-2.31563">
        <ele>16.39999961853</ele>
        <time>2021-12-12T09:11:00.000Z</time>
      </trkpt>
      <trkpt lat="47.32556" lon="-2.31585">
        <ele>16.39999961853</ele>
        <time>2021-12-12T09:11:04.000Z</time>
      </trkpt>
      <trkpt lat="47.32543" lon="-2.31602">
        <ele>16.39999961853</ele>
        <time>2021-12-12T09:11:08.000Z</time>
      </trkpt>
      <trkpt lat="47.32522" lon="-2.31632">
        <ele>16.39999961853</ele>
        <time>2021-12-12T09:11:15.000Z</time>
      </trkpt>
      <trkpt lat="47.32511" lon="-2.31651">
        <ele>16.39999961853</ele>
        <time>2021-12-12T09:11:20.000Z</time>
      </trkpt>
      <trkpt lat="47.32509" lon="-2.31665">
        <ele>16.39999961853</ele>
        <time>2021-12-12T09:11:22.000Z</time>
      </trkpt>
      <trkpt lat="47.32508" lon="-2.31679">
        <ele>16.39999961853</ele>
        <time>2021-12-12T09:11:24.000Z</time>
      </trkpt>
      <trkpt lat="47.32509" lon="-2.31707">
        <ele>16.799999237061</ele>
        <time>2021-12-12T09:11:28.000Z</time>
      </trkpt>
      <trkpt lat="47.32509" lon="-2.31714">
        <ele>17.200000762939</ele>
        <time>2021-12-12T09:11:29.000Z</time>
      </trkpt>
      <trkpt lat="47.3251" lon="-2.3172">
        <ele>17.60000038147</ele>
        <time>2021-12-12T09:11:30.000Z</time>
      </trkpt>
      <trkpt lat="47.32512" lon="-2.31727">
        <ele>18</ele>
        <time>2021-12-12T09:11:31.000Z</time>
      </trkpt>
      <trkpt lat="47.32513" lon="-2.31734">
        <ele>18.39999961853</ele>
        <time>2021-12-12T09:11:32.000Z</time>
      </trkpt>
      <trkpt lat="47.32516" lon="-2.31786">
        <ele>18.39999961853</ele>
        <time>2021-12-12T09:11:39.000Z</time>
      </trkpt>
      <trkpt lat="47.32519" lon="-2.31849">
        <ele>18.39999961853</ele>
        <time>2021-12-12T09:11:48.000Z</time>
      </trkpt>
      <trkpt lat="47.32518" lon="-2.31864">
        <ele>18.39999961853</ele>
        <time>2021-12-12T09:11:50.000Z</time>
      </trkpt>
      <trkpt lat="47.32515" lon="-2.31893">
        <ele>18.39999961853</ele>
        <time>2021-12-12T09:11:54.000Z</time>
      </trkpt>
      <trkpt lat="47.32507" lon="-2.31953">
        <ele>18.39999961853</ele>
        <time>2021-12-12T09:12:02.000Z</time>
      </trkpt>
      <trkpt lat="47.32503" lon="-2.31996">
        <ele>18.39999961853</ele>
        <time>2021-12-12T09:12:08.000Z</time>
      </trkpt>
      <trkpt lat="47.32501" lon="-2.3204">
        <ele>18.39999961853</ele>
        <time>2021-12-12T09:12:15.000Z</time>
      </trkpt>
      <trkpt lat="47.32498" lon="-2.32071">
        <ele>18.39999961853</ele>
        <time>2021-12-12T09:12:21.000Z</time>
      </trkpt>
      <trkpt lat="47.32502" lon="-2.32091">
        <ele>18.39999961853</ele>
        <time>2021-12-12T09:12:25.000Z</time>
      </trkpt>
      <trkpt lat="47.32505" lon="-2.32094">
        <ele>18.39999961853</ele>
        <time>2021-12-12T09:12:26.000Z</time>
      </trkpt>
      <trkpt lat="47.32517" lon="-2.32093">
        <ele>18.39999961853</ele>
        <time>2021-12-12T09:12:29.000Z</time>
      </trkpt>
      <trkpt lat="47.3254" lon="-2.32091">
        <ele>18.39999961853</ele>
        <time>2021-12-12T09:12:35.000Z</time>
      </trkpt>
      <trkpt lat="47.32568" lon="-2.32091">
        <ele>18</ele>
        <time>2021-12-12T09:12:42.000Z</time>
      </trkpt>
      <trkpt lat="47.32572" lon="-2.32091">
        <ele>17.60000038147</ele>
        <time>2021-12-12T09:12:43.000Z</time>
      </trkpt>
      <trkpt lat="47.32576" lon="-2.32092">
        <ele>17.200000762939</ele>
        <time>2021-12-12T09:12:44.000Z</time>
      </trkpt>
      <trkpt lat="47.3258" lon="-2.32093">
        <ele>16.799999237061</ele>
        <time>2021-12-12T09:12:45.000Z</time>
      </trkpt>
      <trkpt lat="47.32584" lon="-2.32096">
        <ele>16.39999961853</ele>
        <time>2021-12-12T09:12:46.000Z</time>
      </trkpt>
      <trkpt lat="47.32588" lon="-2.32101">
        <ele>16.39999961853</ele>
        <time>2021-12-12T09:12:47.000Z</time>
      </trkpt>
      <trkpt lat="47.32588" lon="-2.32124">
        <ele>16.39999961853</ele>
        <time>2021-12-12T09:12:50.000Z</time>
      </trkpt>
      <trkpt lat="47.32582" lon="-2.32145">
        <ele>16</ele>
        <time>2021-12-12T09:12:52.000Z</time>
      </trkpt>
      <trkpt lat="47.32579" lon="-2.32155">
        <ele>15.60000038147</ele>
        <time>2021-12-12T09:12:53.000Z</time>
      </trkpt>
      <trkpt lat="47.32575" lon="-2.32165">
        <ele>15.199999809265</ele>
        <time>2021-12-12T09:12:54.000Z</time>
      </trkpt>
      <trkpt lat="47.32572" lon="-2.32176">
        <ele>14.800000190735</ele>
        <time>2021-12-12T09:12:55.000Z</time>
      </trkpt>
      <trkpt lat="47.32569" lon="-2.32185">
        <ele>14.39999961853</ele>
        <time>2021-12-12T09:12:56.000Z</time>
      </trkpt>
      <trkpt lat="47.32559" lon="-2.32225">
        <ele>14.39999961853</ele>
        <time>2021-12-12T09:13:00.000Z</time>
      </trkpt>
      <trkpt lat="47.32545" lon="-2.32266">
        <ele>14.39999961853</ele>
        <time>2021-12-12T09:13:05.000Z</time>
      </trkpt>
      <trkpt lat="47.32536" lon="-2.323">
        <ele>14.39999961853</ele>
        <time>2021-12-12T09:13:10.000Z</time>
      </trkpt>
      <trkpt lat="47.3254" lon="-2.32319">
        <ele>14.800000190735</ele>
        <time>2021-12-12T09:13:13.000Z</time>
      </trkpt>
      <trkpt lat="47.32544" lon="-2.3232">
        <ele>15.199999809265</ele>
        <time>2021-12-12T09:13:14.000Z</time>
      </trkpt>
      <trkpt lat="47.32548" lon="-2.3232">
        <ele>15.60000038147</ele>
        <time>2021-12-12T09:13:15.000Z</time>
      </trkpt>
      <trkpt lat="47.32552" lon="-2.32318">
        <ele>16</ele>
        <time>2021-12-12T09:13:16.000Z</time>
      </trkpt>
      <trkpt lat="47.32557" lon="-2.32316">
        <ele>16.39999961853</ele>
        <time>2021-12-12T09:13:17.000Z</time>
      </trkpt>
      <trkpt lat="47.32581" lon="-2.3231">
        <ele>16.39999961853</ele>
        <time>2021-12-12T09:13:21.000Z</time>
      </trkpt>
      <trkpt lat="47.3262" lon="-2.32309">
        <ele>16.39999961853</ele>
        <time>2021-12-12T09:13:27.000Z</time>
      </trkpt>
      <trkpt lat="47.32662" lon="-2.32313">
        <ele>16.39999961853</ele>
        <time>2021-12-12T09:13:34.000Z</time>
      </trkpt>
      <trkpt lat="47.32695" lon="-2.32324">
        <ele>16.39999961853</ele>
        <time>2021-12-12T09:13:39.000Z</time>
      </trkpt>
      <trkpt lat="47.32721" lon="-2.32336">
        <ele>16</ele>
        <time>2021-12-12T09:13:43.000Z</time>
      </trkpt>
      <trkpt lat="47.32728" lon="-2.3234">
        <ele>15.60000038147</ele>
        <time>2021-12-12T09:13:44.000Z</time>
      </trkpt>
      <trkpt lat="47.32734" lon="-2.32343">
        <ele>15.199999809265</ele>
        <time>2021-12-12T09:13:45.000Z</time>
      </trkpt>
      <trkpt lat="47.32741" lon="-2.32347">
        <ele>14.800000190735</ele>
        <time>2021-12-12T09:13:46.000Z</time>
      </trkpt>
      <trkpt lat="47.32747" lon="-2.32351">
        <ele>14.39999961853</ele>
        <time>2021-12-12T09:13:47.000Z</time>
      </trkpt>
      <trkpt lat="47.32786" lon="-2.32375">
        <ele>14.39999961853</ele>
        <time>2021-12-12T09:13:53.000Z</time>
      </trkpt>
      <trkpt lat="47.32804" lon="-2.32388">
        <ele>14.39999961853</ele>
        <time>2021-12-12T09:13:56.000Z</time>
      </trkpt>
      <trkpt lat="47.32814" lon="-2.324">
        <ele>14.39999961853</ele>
        <time>2021-12-12T09:13:58.000Z</time>
      </trkpt>
      <trkpt lat="47.32847" lon="-2.32428">
        <ele>14.39999961853</ele>
        <time>2021-12-12T09:14:04.000Z</time>
      </trkpt>
      <trkpt lat="47.3288" lon="-2.32449">
        <ele>14.39999961853</ele>
        <time>2021-12-12T09:14:10.000Z</time>
      </trkpt>
      <trkpt lat="47.32891" lon="-2.32456">
        <ele>14.39999961853</ele>
        <time>2021-12-12T09:14:12.000Z</time>
      </trkpt>
      <trkpt lat="47.32899" lon="-2.32468">
        <ele>14.39999961853</ele>
        <time>2021-12-12T09:14:14.000Z</time>
      </trkpt>
      <trkpt lat="47.32908" lon="-2.32503">
        <ele>14.39999961853</ele>
        <time>2021-12-12T09:14:18.000Z</time>
      </trkpt>
      <trkpt lat="47.32916" lon="-2.32558">
        <ele>14.39999961853</ele>
        <time>2021-12-12T09:14:24.000Z</time>
      </trkpt>
      <trkpt lat="47.32916" lon="-2.32568">
        <ele>14.39999961853</ele>
        <time>2021-12-12T09:14:25.000Z</time>
      </trkpt>
      <trkpt lat="47.32917" lon="-2.32631">
        <ele>14.39999961853</ele>
        <time>2021-12-12T09:14:32.000Z</time>
      </trkpt>
      <trkpt lat="47.32921" lon="-2.32644">
        <ele>14</ele>
        <time>2021-12-12T09:14:34.000Z</time>
      </trkpt>
      <trkpt lat="47.32926" lon="-2.32646">
        <ele>13.60000038147</ele>
        <time>2021-12-12T09:14:35.000Z</time>
      </trkpt>
      <trkpt lat="47.32933" lon="-2.32647">
        <ele>13.199999809265</ele>
        <time>2021-12-12T09:14:36.000Z</time>
      </trkpt>
      <trkpt lat="47.3294" lon="-2.32647">
        <ele>12.800000190735</ele>
        <time>2021-12-12T09:14:37.000Z</time>
      </trkpt>
      <trkpt lat="47.32946" lon="-2.32645">
        <ele>12.39999961853</ele>
        <time>2021-12-12T09:14:38.000Z</time>
      </trkpt>
      <trkpt lat="47.32953" lon="-2.32644">
        <ele>12.39999961853</ele>
        <time>2021-12-12T09:14:39.000Z</time>
      </trkpt>
      <trkpt lat="47.32972" lon="-2.32637">
        <ele>12.39999961853</ele>
        <time>2021-12-12T09:14:42.000Z</time>
      </trkpt>
      <trkpt lat="47.32984" lon="-2.32629">
        <ele>12.39999961853</ele>
        <time>2021-12-12T09:14:44.000Z</time>
      </trkpt>
      <trkpt lat="47.3299" lon="-2.32627">
        <ele>12.39999961853</ele>
        <time>2021-12-12T09:14:45.000Z</time>
      </trkpt>
      <trkpt lat="47.33007" lon="-2.32627">
        <ele>12.39999961853</ele>
        <time>2021-12-12T09:14:48.000Z</time>
      </trkpt>
      <trkpt lat="47.33014" lon="-2.3263">
        <ele>12</ele>
        <time>2021-12-12T09:14:49.000Z</time>
      </trkpt>
      <trkpt lat="47.33021" lon="-2.32633">
        <ele>11.60000038147</ele>
        <time>2021-12-12T09:14:50.000Z</time>
      </trkpt>
      <trkpt lat="47.33028" lon="-2.32632">
        <ele>11.199999809265</ele>
        <time>2021-12-12T09:14:51.000Z</time>
      </trkpt>
      <trkpt lat="47.33035" lon="-2.32629">
        <ele>10.800000190735</ele>
        <time>2021-12-12T09:14:52.000Z</time>
      </trkpt>
      <trkpt lat="47.3304" lon="-2.32624">
        <ele>10.39999961853</ele>
        <time>2021-12-12T09:14:53.000Z</time>
      </trkpt>
      <trkpt lat="47.33045" lon="-2.3262">
        <ele>10.39999961853</ele>
        <time>2021-12-12T09:14:54.000Z</time>
      </trkpt>
      <trkpt lat="47.3305" lon="-2.32616">
        <ele>10.39999961853</ele>
        <time>2021-12-12T09:14:55.000Z</time>
      </trkpt>
      <trkpt lat="47.33081" lon="-2.32593">
        <ele>10.39999961853</ele>
        <time>2021-12-12T09:15:01.000Z</time>
      </trkpt>
      <trkpt lat="47.33087" lon="-2.32588">
        <ele>10.800000190735</ele>
        <time>2021-12-12T09:15:02.000Z</time>
      </trkpt>
      <trkpt lat="47.33092" lon="-2.32584">
        <ele>11.199999809265</ele>
        <time>2021-12-12T09:15:03.000Z</time>
      </trkpt>
      <trkpt lat="47.33097" lon="-2.32579">
        <ele>11.60000038147</ele>
        <time>2021-12-12T09:15:04.000Z</time>
      </trkpt>
      <trkpt lat="47.33103" lon="-2.32574">
        <ele>12.39999961853</ele>
        <time>2021-12-12T09:15:05.000Z</time>
      </trkpt>
      <trkpt lat="47.33119" lon="-2.32562">
        <ele>12.39999961853</ele>
        <time>2021-12-12T09:15:08.000Z</time>
      </trkpt>
      <trkpt lat="47.33164" lon="-2.3253">
        <ele>12.39999961853</ele>
        <time>2021-12-12T09:15:16.000Z</time>
      </trkpt>
      <trkpt lat="47.33185" lon="-2.32516">
        <ele>13</ele>
        <time>2021-12-12T09:15:20.000Z</time>
      </trkpt>
      <trkpt lat="47.33191" lon="-2.32514">
        <ele>13.39999961853</ele>
        <time>2021-12-12T09:15:21.000Z</time>
      </trkpt>
      <trkpt lat="47.33196" lon="-2.32511">
        <ele>13.800000190735</ele>
        <time>2021-12-12T09:15:22.000Z</time>
      </trkpt>
      <trkpt lat="47.33203" lon="-2.32509">
        <ele>14.199999809265</ele>
        <time>2021-12-12T09:15:23.000Z</time>
      </trkpt>
      <trkpt lat="47.33209" lon="-2.32507">
        <ele>14.60000038147</ele>
        <time>2021-12-12T09:15:24.000Z</time>
      </trkpt>
      <trkpt lat="47.33246" lon="-2.32491">
        <ele>14.60000038147</ele>
        <time>2021-12-12T09:15:30.000Z</time>
      </trkpt>
      <trkpt lat="47.3329" lon="-2.32471">
        <ele>14.60000038147</ele>
        <time>2021-12-12T09:15:37.000Z</time>
      </trkpt>
      <trkpt lat="47.33313" lon="-2.3246">
        <ele>14.60000038147</ele>
        <time>2021-12-12T09:15:41.000Z</time>
      </trkpt>
      <trkpt lat="47.33324" lon="-2.32456">
        <ele>14.60000038147</ele>
        <time>2021-12-12T09:15:43.000Z</time>
      </trkpt>
      <trkpt lat="47.33334" lon="-2.32451">
        <ele>14.60000038147</ele>
        <time>2021-12-12T09:15:45.000Z</time>
      </trkpt>
      <trkpt lat="47.3334" lon="-2.32442">
        <ele>14.60000038147</ele>
        <time>2021-12-12T09:15:47.000Z</time>
      </trkpt>
      <trkpt lat="47.33353" lon="-2.32421">
        <ele>14.60000038147</ele>
        <time>2021-12-12T09:15:51.000Z</time>
      </trkpt>
      <trkpt lat="47.33369" lon="-2.32407">
        <ele>14.60000038147</ele>
        <time>2021-12-12T09:15:54.000Z</time>
      </trkpt>
      <trkpt lat="47.33375" lon="-2.32401">
        <ele>14.60000038147</ele>
        <time>2021-12-12T09:15:55.000Z</time>
      </trkpt>
      <trkpt lat="47.33411" lon="-2.3237">
        <ele>14.60000038147</ele>
        <time>2021-12-12T09:16:01.000Z</time>
      </trkpt>
      <trkpt lat="47.3345" lon="-2.3234">
        <ele>14.199999809265</ele>
        <time>2021-12-12T09:16:07.000Z</time>
      </trkpt>
      <trkpt lat="47.33457" lon="-2.32335">
        <ele>13.800000190735</ele>
        <time>2021-12-12T09:16:08.000Z</time>
      </trkpt>
      <trkpt lat="47.33464" lon="-2.32331">
        <ele>13.39999961853</ele>
        <time>2021-12-12T09:16:09.000Z</time>
      </trkpt>
      <trkpt lat="47.33471" lon="-2.32327">
        <ele>12.800000190735</ele>
        <time>2021-12-12T09:16:10.000Z</time>
      </trkpt>
      <trkpt lat="47.33478" lon="-2.32324">
        <ele>12.39999961853</ele>
        <time>2021-12-12T09:16:11.000Z</time>
      </trkpt>
      <trkpt lat="47.33498" lon="-2.32314">
        <ele>12.39999961853</ele>
        <time>2021-12-12T09:16:14.000Z</time>
      </trkpt>
      <trkpt lat="47.33529" lon="-2.323">
        <ele>12.39999961853</ele>
        <time>2021-12-12T09:16:19.000Z</time>
      </trkpt>
      <trkpt lat="47.33535" lon="-2.323">
        <ele>12.39999961853</ele>
        <time>2021-12-12T09:16:20.000Z</time>
      </trkpt>
      <trkpt lat="47.33558" lon="-2.32297">
        <ele>12.39999961853</ele>
        <time>2021-12-12T09:16:24.000Z</time>
      </trkpt>
      <trkpt lat="47.33571" lon="-2.32292">
        <ele>12.39999961853</ele>
        <time>2021-12-12T09:16:26.000Z</time>
      </trkpt>
      <trkpt lat="47.33589" lon="-2.32287">
        <ele>12.39999961853</ele>
        <time>2021-12-12T09:16:29.000Z</time>
      </trkpt>
      <trkpt lat="47.33607" lon="-2.32286">
        <ele>12.800000190735</ele>
        <time>2021-12-12T09:16:32.000Z</time>
      </trkpt>
      <trkpt lat="47.33613" lon="-2.32285">
        <ele>13.199999809265</ele>
        <time>2021-12-12T09:16:33.000Z</time>
      </trkpt>
      <trkpt lat="47.33619" lon="-2.32285">
        <ele>13.60000038147</ele>
        <time>2021-12-12T09:16:34.000Z</time>
      </trkpt>
      <trkpt lat="47.33626" lon="-2.32285">
        <ele>14</ele>
        <time>2021-12-12T09:16:35.000Z</time>
      </trkpt>
      <trkpt lat="47.33632" lon="-2.32284">
        <ele>14.60000038147</ele>
        <time>2021-12-12T09:16:36.000Z</time>
      </trkpt>
      <trkpt lat="47.33638" lon="-2.32283">
        <ele>14.60000038147</ele>
        <time>2021-12-12T09:16:37.000Z</time>
      </trkpt>
      <trkpt lat="47.33661" lon="-2.32275">
        <ele>14.60000038147</ele>
        <time>2021-12-12T09:16:41.000Z</time>
      </trkpt>
      <trkpt lat="47.33673" lon="-2.32267">
        <ele>14.60000038147</ele>
        <time>2021-12-12T09:16:43.000Z</time>
      </trkpt>
      <trkpt lat="47.33703" lon="-2.32249">
        <ele>14.60000038147</ele>
        <time>2021-12-12T09:16:48.000Z</time>
      </trkpt>
      <trkpt lat="47.33715" lon="-2.32243">
        <ele>14.60000038147</ele>
        <time>2021-12-12T09:16:50.000Z</time>
      </trkpt>
      <trkpt lat="47.33748" lon="-2.32223">
        <ele>14.60000038147</ele>
        <time>2021-12-12T09:16:56.000Z</time>
      </trkpt>
      <trkpt lat="47.33785" lon="-2.32206">
        <ele>14.60000038147</ele>
        <time>2021-12-12T09:17:02.000Z</time>
      </trkpt>
      <trkpt lat="47.33814" lon="-2.32202">
        <ele>14.60000038147</ele>
        <time>2021-12-12T09:17:07.000Z</time>
      </trkpt>
      <trkpt lat="47.33859" lon="-2.32197">
        <ele>14.60000038147</ele>
        <time>2021-12-12T09:17:14.000Z</time>
      </trkpt>
      <trkpt lat="47.3388" lon="-2.32196">
        <ele>14</ele>
        <time>2021-12-12T09:17:17.000Z</time>
      </trkpt>
      <trkpt lat="47.33887" lon="-2.32196">
        <ele>13.60000038147</ele>
        <time>2021-12-12T09:17:18.000Z</time>
      </trkpt>
      <trkpt lat="47.33894" lon="-2.32197">
        <ele>13.199999809265</ele>
        <time>2021-12-12T09:17:19.000Z</time>
      </trkpt>
      <trkpt lat="47.33901" lon="-2.32197">
        <ele>12.800000190735</ele>
        <time>2021-12-12T09:17:20.000Z</time>
      </trkpt>
      <trkpt lat="47.33908" lon="-2.32198">
        <ele>12.39999961853</ele>
        <time>2021-12-12T09:17:21.000Z</time>
      </trkpt>
      <trkpt lat="47.33935" lon="-2.322">
        <ele>12.39999961853</ele>
        <time>2021-12-12T09:17:25.000Z</time>
      </trkpt>
      <trkpt lat="47.33941" lon="-2.32204">
        <ele>12.39999961853</ele>
        <time>2021-12-12T09:17:26.000Z</time>
      </trkpt>
      <trkpt lat="47.3396" lon="-2.32216">
        <ele>12.39999961853</ele>
        <time>2021-12-12T09:17:29.000Z</time>
      </trkpt>
      <trkpt lat="47.33967" lon="-2.32218">
        <ele>12.39999961853</ele>
        <time>2021-12-12T09:17:30.000Z</time>
      </trkpt>
      <trkpt lat="47.33989" lon="-2.32219">
        <ele>12.39999961853</ele>
        <time>2021-12-12T09:17:33.000Z</time>
      </trkpt>
      <trkpt lat="47.34002" lon="-2.32218">
        <ele>12.39999961853</ele>
        <time>2021-12-12T09:17:35.000Z</time>
      </trkpt>
      <trkpt lat="47.34052" lon="-2.32219">
        <ele>12.39999961853</ele>
        <time>2021-12-12T09:17:43.000Z</time>
      </trkpt>
      <trkpt lat="47.34065" lon="-2.32222">
        <ele>12.39999961853</ele>
        <time>2021-12-12T09:17:45.000Z</time>
      </trkpt>
      <trkpt lat="47.34076" lon="-2.3223">
        <ele>12.39999961853</ele>
        <time>2021-12-12T09:17:47.000Z</time>
      </trkpt>
      <trkpt lat="47.34086" lon="-2.3225">
        <ele>12.39999961853</ele>
        <time>2021-12-12T09:17:50.000Z</time>
      </trkpt>
      <trkpt lat="47.34089" lon="-2.32257">
        <ele>12.39999961853</ele>
        <time>2021-12-12T09:17:51.000Z</time>
      </trkpt>
      <trkpt lat="47.34096" lon="-2.32279">
        <ele>12.800000190735</ele>
        <time>2021-12-12T09:17:54.000Z</time>
      </trkpt>
      <trkpt lat="47.34097" lon="-2.32287">
        <ele>13.39999961853</ele>
        <time>2021-12-12T09:17:55.000Z</time>
      </trkpt>
      <trkpt lat="47.34099" lon="-2.32294">
        <ele>13.800000190735</ele>
        <time>2021-12-12T09:17:56.000Z</time>
      </trkpt>
      <trkpt lat="47.34101" lon="-2.32301">
        <ele>14.199999809265</ele>
        <time>2021-12-12T09:17:57.000Z</time>
      </trkpt>
      <trkpt lat="47.34103" lon="-2.32307">
        <ele>14.60000038147</ele>
        <time>2021-12-12T09:17:58.000Z</time>
      </trkpt>
      <trkpt lat="47.3411" lon="-2.32336">
        <ele>14.60000038147</ele>
        <time>2021-12-12T09:18:02.000Z</time>
      </trkpt>
      <trkpt lat="47.34112" lon="-2.32342">
        <ele>15</ele>
        <time>2021-12-12T09:18:03.000Z</time>
      </trkpt>
      <trkpt lat="47.34115" lon="-2.32349">
        <ele>15.39999961853</ele>
        <time>2021-12-12T09:18:04.000Z</time>
      </trkpt>
      <trkpt lat="47.34117" lon="-2.32356">
        <ele>15.800000190735</ele>
        <time>2021-12-12T09:18:05.000Z</time>
      </trkpt>
      <trkpt lat="47.34119" lon="-2.32363">
        <ele>16.200000762939</ele>
        <time>2021-12-12T09:18:06.000Z</time>
      </trkpt>
      <trkpt lat="47.34121" lon="-2.32369">
        <ele>16.60000038147</ele>
        <time>2021-12-12T09:18:07.000Z</time>
      </trkpt>
      <trkpt lat="47.34125" lon="-2.32381">
        <ele>16.60000038147</ele>
        <time>2021-12-12T09:18:09.000Z</time>
      </trkpt>
      <trkpt lat="47.34138" lon="-2.32423">
        <ele>16.60000038147</ele>
        <time>2021-12-12T09:18:14.000Z</time>
      </trkpt>
      <trkpt lat="47.34151" lon="-2.32474">
        <ele>16.60000038147</ele>
        <time>2021-12-12T09:18:20.000Z</time>
      </trkpt>
      <trkpt lat="47.34157" lon="-2.32518">
        <ele>16.60000038147</ele>
        <time>2021-12-12T09:18:25.000Z</time>
      </trkpt>
      <trkpt lat="47.34157" lon="-2.32525">
        <ele>16.60000038147</ele>
        <time>2021-12-12T09:18:26.000Z</time>
      </trkpt>
      <trkpt lat="47.34159" lon="-2.32564">
        <ele>16.60000038147</ele>
        <time>2021-12-12T09:18:32.000Z</time>
      </trkpt>
      <trkpt lat="47.34155" lon="-2.32601">
        <ele>16.60000038147</ele>
        <time>2021-12-12T09:18:39.000Z</time>
      </trkpt>
      <trkpt lat="47.34156" lon="-2.32627">
        <ele>16.60000038147</ele>
        <time>2021-12-12T09:18:45.000Z</time>
      </trkpt>
      <trkpt lat="47.34157" lon="-2.32631">
        <ele>17</ele>
        <time>2021-12-12T09:18:46.000Z</time>
      </trkpt>
      <trkpt lat="47.34157" lon="-2.32636">
        <ele>17.799999237061</ele>
        <time>2021-12-12T09:18:47.000Z</time>
      </trkpt>
      <trkpt lat="47.34157" lon="-2.3264">
        <ele>18.200000762939</ele>
        <time>2021-12-12T09:18:48.000Z</time>
      </trkpt>
      <trkpt lat="47.34157" lon="-2.32644">
        <ele>18.60000038147</ele>
        <time>2021-12-12T09:18:49.000Z</time>
      </trkpt>
      <trkpt lat="47.34158" lon="-2.32649">
        <ele>18.60000038147</ele>
        <time>2021-12-12T09:18:50.000Z</time>
      </trkpt>
      <trkpt lat="47.34159" lon="-2.32685">
        <ele>18.60000038147</ele>
        <time>2021-12-12T09:18:57.000Z</time>
      </trkpt>
      <trkpt lat="47.34164" lon="-2.32723">
        <ele>18.60000038147</ele>
        <time>2021-12-12T09:19:04.000Z</time>
      </trkpt>
      <trkpt lat="47.34165" lon="-2.32741">
        <ele>18.60000038147</ele>
        <time>2021-12-12T09:19:10.000Z</time>
      </trkpt>
      <trkpt lat="47.34165" lon="-2.32741">
        <ele>18.60000038147</ele>
        <time>2021-12-12T09:19:11.000Z</time>
      </trkpt>
      <trkpt lat="47.34165" lon="-2.32746">
        <ele>18.60000038147</ele>
        <time>2021-12-12T09:19:48.000Z</time>
      </trkpt>
      <trkpt lat="47.34165" lon="-2.3275">
        <ele>18.60000038147</ele>
        <time>2021-12-12T09:19:49.000Z</time>
      </trkpt>
      <trkpt lat="47.34163" lon="-2.32772">
        <ele>18.60000038147</ele>
        <time>2021-12-12T09:19:55.000Z</time>
      </trkpt>
      <trkpt lat="47.34161" lon="-2.32786">
        <ele>18.60000038147</ele>
        <time>2021-12-12T09:20:00.000Z</time>
      </trkpt>
      <trkpt lat="47.3416" lon="-2.32809">
        <ele>18.60000038147</ele>
        <time>2021-12-12T09:20:07.000Z</time>
      </trkpt>
      <trkpt lat="47.34162" lon="-2.32814">
        <ele>18.200000762939</ele>
        <time>2021-12-12T09:20:09.000Z</time>
      </trkpt>
      <trkpt lat="47.34163" lon="-2.32816">
        <ele>17.799999237061</ele>
        <time>2021-12-12T09:20:10.000Z</time>
      </trkpt>
      <trkpt lat="47.34164" lon="-2.32819">
        <ele>17.39999961853</ele>
        <time>2021-12-12T09:20:11.000Z</time>
      </trkpt>
      <trkpt lat="47.34165" lon="-2.32822">
        <ele>17</ele>
        <time>2021-12-12T09:20:12.000Z</time>
      </trkpt>
      <trkpt lat="47.34165" lon="-2.32825">
        <ele>16.60000038147</ele>
        <time>2021-12-12T09:20:13.000Z</time>
      </trkpt>
      <trkpt lat="47.34166" lon="-2.32827">
        <ele>16.60000038147</ele>
        <time>2021-12-12T09:20:14.000Z</time>
      </trkpt>
      <trkpt lat="47.34169" lon="-2.32831">
        <ele>16.60000038147</ele>
        <time>2021-12-12T09:20:15.000Z</time>
      </trkpt>
      <trkpt lat="47.34177" lon="-2.3284">
        <ele>16.60000038147</ele>
        <time>2021-12-12T09:20:18.000Z</time>
      </trkpt>
      <trkpt lat="47.34182" lon="-2.32844">
        <ele>16.60000038147</ele>
        <time>2021-12-12T09:20:20.000Z</time>
      </trkpt>
      <trkpt lat="47.34191" lon="-2.32852">
        <ele>16.60000038147</ele>
        <time>2021-12-12T09:20:24.000Z</time>
      </trkpt>
      <trkpt lat="47.34192" lon="-2.32856">
        <ele>15.60000038147</ele>
        <time>2021-12-12T09:20:26.000Z</time>
      </trkpt>
      <trkpt lat="47.34193" lon="-2.32857">
        <ele>15.199999809265</ele>
        <time>2021-12-12T09:20:27.000Z</time>
      </trkpt>
      <trkpt lat="47.34192" lon="-2.32856">
        <ele>14.60000038147</ele>
        <time>2021-12-12T09:20:28.000Z</time>
      </trkpt>
      <trkpt lat="47.34196" lon="-2.32859">
        <ele>16.200000762939</ele>
        <time>2021-12-12T09:21:00.000Z</time>
      </trkpt>
      <trkpt lat="47.34203" lon="-2.32873">
        <ele>16.200000762939</ele>
        <time>2021-12-12T09:21:06.000Z</time>
      </trkpt>
      <trkpt lat="47.34208" lon="-2.32883">
        <ele>15.800000190735</ele>
        <time>2021-12-12T09:21:08.000Z</time>
      </trkpt>
      <trkpt lat="47.34209" lon="-2.32887">
        <ele>15.39999961853</ele>
        <time>2021-12-12T09:21:09.000Z</time>
      </trkpt>
      <trkpt lat="47.34211" lon="-2.3289">
        <ele>15</ele>
        <time>2021-12-12T09:21:10.000Z</time>
      </trkpt>
      <trkpt lat="47.34213" lon="-2.32893">
        <ele>14.60000038147</ele>
        <time>2021-12-12T09:21:11.000Z</time>
      </trkpt>
      <trkpt lat="47.34214" lon="-2.32896">
        <ele>14.199999809265</ele>
        <time>2021-12-12T09:21:12.000Z</time>
      </trkpt>
      <trkpt lat="47.34226" lon="-2.32918">
        <ele>13.800000190735</ele>
        <time>2021-12-12T09:21:18.000Z</time>
      </trkpt>
      <trkpt lat="47.34228" lon="-2.32922">
        <ele>13.39999961853</ele>
        <time>2021-12-12T09:21:19.000Z</time>
      </trkpt>
      <trkpt lat="47.34231" lon="-2.32925">
        <ele>13</ele>
        <time>2021-12-12T09:21:20.000Z</time>
      </trkpt>
      <trkpt lat="47.34233" lon="-2.32928">
        <ele>12.60000038147</ele>
        <time>2021-12-12T09:21:21.000Z</time>
      </trkpt>
      <trkpt lat="47.34235" lon="-2.32931">
        <ele>12.199999809265</ele>
        <time>2021-12-12T09:21:22.000Z</time>
      </trkpt>
      <trkpt lat="47.34239" lon="-2.32937">
        <ele>12.199999809265</ele>
        <time>2021-12-12T09:21:24.000Z</time>
      </trkpt>
      <trkpt lat="47.34252" lon="-2.32959">
        <ele>12.199999809265</ele>
        <time>2021-12-12T09:21:29.000Z</time>
      </trkpt>
      <trkpt lat="47.34268" lon="-2.32989">
        <ele>12.199999809265</ele>
        <time>2021-12-12T09:21:34.000Z</time>
      </trkpt>
      <trkpt lat="47.34272" lon="-2.33012">
        <ele>11.800000190735</ele>
        <time>2021-12-12T09:21:38.000Z</time>
      </trkpt>
      <trkpt lat="47.34272" lon="-2.33018">
        <ele>11.39999961853</ele>
        <time>2021-12-12T09:21:39.000Z</time>
      </trkpt>
      <trkpt lat="47.34272" lon="-2.33024">
        <ele>11</ele>
        <time>2021-12-12T09:21:40.000Z</time>
      </trkpt>
      <trkpt lat="47.34273" lon="-2.3303">
        <ele>10.199999809265</ele>
        <time>2021-12-12T09:21:41.000Z</time>
      </trkpt>
      <trkpt lat="47.34271" lon="-2.33044">
        <ele>10.199999809265</ele>
        <time>2021-12-12T09:21:44.000Z</time>
      </trkpt>
      <trkpt lat="47.34265" lon="-2.33066">
        <ele>10.199999809265</ele>
        <time>2021-12-12T09:21:50.000Z</time>
      </trkpt>
      <trkpt lat="47.34254" lon="-2.33086">
        <ele>10.199999809265</ele>
        <time>2021-12-12T09:21:55.000Z</time>
      </trkpt>
      <trkpt lat="47.34248" lon="-2.33124">
        <ele>10.199999809265</ele>
        <time>2021-12-12T09:22:01.000Z</time>
      </trkpt>
      <trkpt lat="47.34237" lon="-2.33165">
        <ele>10.199999809265</ele>
        <time>2021-12-12T09:22:07.000Z</time>
      </trkpt>
      <trkpt lat="47.3423" lon="-2.33186">
        <ele>10.60000038147</ele>
        <time>2021-12-12T09:22:11.000Z</time>
      </trkpt>
      <trkpt lat="47.34228" lon="-2.33192">
        <ele>11</ele>
        <time>2021-12-12T09:22:12.000Z</time>
      </trkpt>
      <trkpt lat="47.34227" lon="-2.33197">
        <ele>11.39999961853</ele>
        <time>2021-12-12T09:22:13.000Z</time>
      </trkpt>
      <trkpt lat="47.34224" lon="-2.33204">
        <ele>11.800000190735</ele>
        <time>2021-12-12T09:22:14.000Z</time>
      </trkpt>
      <trkpt lat="47.34222" lon="-2.33211">
        <ele>12.199999809265</ele>
        <time>2021-12-12T09:22:15.000Z</time>
      </trkpt>
      <trkpt lat="47.34215" lon="-2.33232">
        <ele>12.199999809265</ele>
        <time>2021-12-12T09:22:18.000Z</time>
      </trkpt>
      <trkpt lat="47.342" lon="-2.33277">
        <ele>12.199999809265</ele>
        <time>2021-12-12T09:22:25.000Z</time>
      </trkpt>
      <trkpt lat="47.34186" lon="-2.33327">
        <ele>12.199999809265</ele>
        <time>2021-12-12T09:22:32.000Z</time>
      </trkpt>
      <trkpt lat="47.3417" lon="-2.33374">
        <ele>12.60000038147</ele>
        <time>2021-12-12T09:22:39.000Z</time>
      </trkpt>
      <trkpt lat="47.34168" lon="-2.3338">
        <ele>13</ele>
        <time>2021-12-12T09:22:40.000Z</time>
      </trkpt>
      <trkpt lat="47.34166" lon="-2.33386">
        <ele>13.39999961853</ele>
        <time>2021-12-12T09:22:41.000Z</time>
      </trkpt>
      <trkpt lat="47.34163" lon="-2.33392">
        <ele>13.800000190735</ele>
        <time>2021-12-12T09:22:42.000Z</time>
      </trkpt>
      <trkpt lat="47.34161" lon="-2.33398">
        <ele>14.199999809265</ele>
        <time>2021-12-12T09:22:43.000Z</time>
      </trkpt>
      <trkpt lat="47.34151" lon="-2.33415">
        <ele>14.199999809265</ele>
        <time>2021-12-12T09:22:46.000Z</time>
      </trkpt>
      <trkpt lat="47.34145" lon="-2.33425">
        <ele>14.199999809265</ele>
        <time>2021-12-12T09:22:48.000Z</time>
      </trkpt>
      <trkpt lat="47.34132" lon="-2.33442">
        <ele>14.199999809265</ele>
        <time>2021-12-12T09:22:52.000Z</time>
      </trkpt>
      <trkpt lat="47.3412" lon="-2.33459">
        <ele>14.199999809265</ele>
        <time>2021-12-12T09:22:57.000Z</time>
      </trkpt>
      <trkpt lat="47.34109" lon="-2.33476">
        <ele>14.199999809265</ele>
        <time>2021-12-12T09:23:02.000Z</time>
      </trkpt>
      <trkpt lat="47.34095" lon="-2.33497">
        <ele>14.199999809265</ele>
        <time>2021-12-12T09:23:08.000Z</time>
      </trkpt>
      <trkpt lat="47.34087" lon="-2.33515">
        <ele>14.199999809265</ele>
        <time>2021-12-12T09:23:14.000Z</time>
      </trkpt>
      <trkpt lat="47.34086" lon="-2.3352">
        <ele>14.60000038147</ele>
        <time>2021-12-12T09:23:17.000Z</time>
      </trkpt>
      <trkpt lat="47.34085" lon="-2.33521">
        <ele>15</ele>
        <time>2021-12-12T09:23:18.000Z</time>
      </trkpt>
      <trkpt lat="47.34084" lon="-2.33523">
        <ele>15.39999961853</ele>
        <time>2021-12-12T09:23:19.000Z</time>
      </trkpt>
      <trkpt lat="47.34084" lon="-2.33524">
        <ele>16.200000762939</ele>
        <time>2021-12-12T09:23:20.000Z</time>
      </trkpt>
      <trkpt lat="47.34078" lon="-2.33531">
        <ele>16.200000762939</ele>
        <time>2021-12-12T09:23:26.000Z</time>
      </trkpt>
      <trkpt lat="47.34072" lon="-2.33544">
        <ele>16.200000762939</ele>
        <time>2021-12-12T09:23:33.000Z</time>
      </trkpt>
      <trkpt lat="47.34065" lon="-2.33558">
        <ele>16.200000762939</ele>
        <time>2021-12-12T09:23:40.000Z</time>
      </trkpt>
      <trkpt lat="47.34057" lon="-2.33574">
        <ele>16.200000762939</ele>
        <time>2021-12-12T09:23:48.000Z</time>
      </trkpt>
      <trkpt lat="47.34045" lon="-2.33591">
        <ele>16.200000762939</ele>
        <time>2021-12-12T09:23:55.000Z</time>
      </trkpt>
      <trkpt lat="47.34036" lon="-2.33609">
        <ele>16.200000762939</ele>
        <time>2021-12-12T09:24:02.000Z</time>
      </trkpt>
      <trkpt lat="47.34025" lon="-2.33628">
        <ele>16.200000762939</ele>
        <time>2021-12-12T09:24:09.000Z</time>
      </trkpt>
      <trkpt lat="47.34012" lon="-2.33646">
        <ele>16.200000762939</ele>
        <time>2021-12-12T09:24:16.000Z</time>
      </trkpt>
      <trkpt lat="47.34003" lon="-2.33664">
        <ele>16.200000762939</ele>
        <time>2021-12-12T09:24:22.000Z</time>
      </trkpt>
      <trkpt lat="47.33994" lon="-2.33684">
        <ele>16.200000762939</ele>
        <time>2021-12-12T09:24:29.000Z</time>
      </trkpt>
      <trkpt lat="47.33991" lon="-2.33689">
        <ele>16.60000038147</ele>
        <time>2021-12-12T09:24:32.000Z</time>
      </trkpt>
      <trkpt lat="47.33989" lon="-2.33692">
        <ele>17</ele>
        <time>2021-12-12T09:24:33.000Z</time>
      </trkpt>
      <trkpt lat="47.33988" lon="-2.33694">
        <ele>17.799999237061</ele>
        <time>2021-12-12T09:24:34.000Z</time>
      </trkpt>
      <trkpt lat="47.33986" lon="-2.33697">
        <ele>18.200000762939</ele>
        <time>2021-12-12T09:24:35.000Z</time>
      </trkpt>
      <trkpt lat="47.33976" lon="-2.3371">
        <ele>18.200000762939</ele>
        <time>2021-12-12T09:24:41.000Z</time>
      </trkpt>
      <trkpt lat="47.33967" lon="-2.33723">
        <ele>18.200000762939</ele>
        <time>2021-12-12T09:24:49.000Z</time>
      </trkpt>
      <trkpt lat="47.33961" lon="-2.33732">
        <ele>18.200000762939</ele>
        <time>2021-12-12T09:24:54.000Z</time>
      </trkpt>
      <trkpt lat="47.33957" lon="-2.33736">
        <ele>18.200000762939</ele>
        <time>2021-12-12T09:25:37.000Z</time>
      </trkpt>
      <trkpt lat="47.33951" lon="-2.33746">
        <ele>18.200000762939</ele>
        <time>2021-12-12T09:25:40.000Z</time>
      </trkpt>
      <trkpt lat="47.3394" lon="-2.33763">
        <ele>18.200000762939</ele>
        <time>2021-12-12T09:25:46.000Z</time>
      </trkpt>
      <trkpt lat="47.3393" lon="-2.33786">
        <ele>18.200000762939</ele>
        <time>2021-12-12T09:25:52.000Z</time>
      </trkpt>
      <trkpt lat="47.33921" lon="-2.33803">
        <ele>18.200000762939</ele>
        <time>2021-12-12T09:25:58.000Z</time>
      </trkpt>
      <trkpt lat="47.33918" lon="-2.33808">
        <ele>18.60000038147</ele>
        <time>2021-12-12T09:26:00.000Z</time>
      </trkpt>
      <trkpt lat="47.33916" lon="-2.33812">
        <ele>19</ele>
        <time>2021-12-12T09:26:01.000Z</time>
      </trkpt>
      <trkpt lat="47.33914" lon="-2.33815">
        <ele>19.39999961853</ele>
        <time>2021-12-12T09:26:02.000Z</time>
      </trkpt>
      <trkpt lat="47.33913" lon="-2.33818">
        <ele>19.799999237061</ele>
        <time>2021-12-12T09:26:03.000Z</time>
      </trkpt>
      <trkpt lat="47.33911" lon="-2.3382">
        <ele>20.200000762939</ele>
        <time>2021-12-12T09:26:04.000Z</time>
      </trkpt>
      <trkpt lat="47.3391" lon="-2.33822">
        <ele>20.200000762939</ele>
        <time>2021-12-12T09:26:05.000Z</time>
      </trkpt>
      <trkpt lat="47.339" lon="-2.33838">
        <ele>20.200000762939</ele>
        <time>2021-12-12T09:26:11.000Z</time>
      </trkpt>
      <trkpt lat="47.33892" lon="-2.3385">
        <ele>20.200000762939</ele>
        <time>2021-12-12T09:26:17.000Z</time>
      </trkpt>
      <trkpt lat="47.33885" lon="-2.33857">
        <ele>20.200000762939</ele>
        <time>2021-12-12T09:26:23.000Z</time>
      </trkpt>
      <trkpt lat="47.33879" lon="-2.33878">
        <ele>20.200000762939</ele>
        <time>2021-12-12T09:26:58.000Z</time>
      </trkpt>
      <trkpt lat="47.33873" lon="-2.33875">
        <ele>20.200000762939</ele>
        <time>2021-12-12T09:27:02.000Z</time>
      </trkpt>
      <trkpt lat="47.33864" lon="-2.33887">
        <ele>20.200000762939</ele>
        <time>2021-12-12T09:27:08.000Z</time>
      </trkpt>
      <trkpt lat="47.33857" lon="-2.33893">
        <ele>20.200000762939</ele>
        <time>2021-12-12T09:27:11.000Z</time>
      </trkpt>
      <trkpt lat="47.33847" lon="-2.33902">
        <ele>20.200000762939</ele>
        <time>2021-12-12T09:27:15.000Z</time>
      </trkpt>
      <trkpt lat="47.33829" lon="-2.33916">
        <ele>20.200000762939</ele>
        <time>2021-12-12T09:27:21.000Z</time>
      </trkpt>
      <trkpt lat="47.33812" lon="-2.3393">
        <ele>20.799999237061</ele>
        <time>2021-12-12T09:27:26.000Z</time>
      </trkpt>
      <trkpt lat="47.33807" lon="-2.33933">
        <ele>21.60000038147</ele>
        <time>2021-12-12T09:27:27.000Z</time>
      </trkpt>
      <trkpt lat="47.33803" lon="-2.33936">
        <ele>22</ele>
        <time>2021-12-12T09:27:28.000Z</time>
      </trkpt>
      <trkpt lat="47.33798" lon="-2.33938">
        <ele>22.39999961853</ele>
        <time>2021-12-12T09:27:29.000Z</time>
      </trkpt>
      <trkpt lat="47.33781" lon="-2.3395">
        <ele>22.39999961853</ele>
        <time>2021-12-12T09:27:33.000Z</time>
      </trkpt>
      <trkpt lat="47.33776" lon="-2.33953">
        <ele>22.39999961853</ele>
        <time>2021-12-12T09:27:34.000Z</time>
      </trkpt>
      <trkpt lat="47.33759" lon="-2.33967">
        <ele>22.39999961853</ele>
        <time>2021-12-12T09:27:38.000Z</time>
      </trkpt>
      <trkpt lat="47.3375" lon="-2.33974">
        <ele>22.39999961853</ele>
        <time>2021-12-12T09:27:40.000Z</time>
      </trkpt>
      <trkpt lat="47.33715" lon="-2.34004">
        <ele>22.39999961853</ele>
        <time>2021-12-12T09:27:48.000Z</time>
      </trkpt>
      <trkpt lat="47.33699" lon="-2.34018">
        <ele>22.799999237061</ele>
        <time>2021-12-12T09:27:52.000Z</time>
      </trkpt>
      <trkpt lat="47.33695" lon="-2.34021">
        <ele>23.39999961853</ele>
        <time>2021-12-12T09:27:53.000Z</time>
      </trkpt>
      <trkpt lat="47.33691" lon="-2.34025">
        <ele>24</ele>
        <time>2021-12-12T09:27:54.000Z</time>
      </trkpt>
      <trkpt lat="47.33687" lon="-2.34028">
        <ele>24.39999961853</ele>
        <time>2021-12-12T09:27:55.000Z</time>
      </trkpt>
      <trkpt lat="47.33683" lon="-2.34031">
        <ele>25</ele>
        <time>2021-12-12T09:27:56.000Z</time>
      </trkpt>
      <trkpt lat="47.33667" lon="-2.34045">
        <ele>25</ele>
        <time>2021-12-12T09:28:00.000Z</time>
      </trkpt>
      <trkpt lat="47.33653" lon="-2.34057">
        <ele>25</ele>
        <time>2021-12-12T09:28:03.000Z</time>
      </trkpt>
      <trkpt lat="47.33625" lon="-2.34082">
        <ele>25</ele>
        <time>2021-12-12T09:28:10.000Z</time>
      </trkpt>
      <trkpt lat="47.33595" lon="-2.34106">
        <ele>25</ele>
        <time>2021-12-12T09:28:18.000Z</time>
      </trkpt>
      <trkpt lat="47.33571" lon="-2.34123">
        <ele>25</ele>
        <time>2021-12-12T09:28:24.000Z</time>
      </trkpt>
      <trkpt lat="47.33558" lon="-2.34132">
        <ele>25</ele>
        <time>2021-12-12T09:28:27.000Z</time>
      </trkpt>
      <trkpt lat="47.33529" lon="-2.34153">
        <ele>25</ele>
        <time>2021-12-12T09:28:34.000Z</time>
      </trkpt>
      <trkpt lat="47.33499" lon="-2.34175">
        <ele>25</ele>
        <time>2021-12-12T09:28:41.000Z</time>
      </trkpt>
      <trkpt lat="47.33466" lon="-2.34206">
        <ele>25</ele>
        <time>2021-12-12T09:28:49.000Z</time>
      </trkpt>
      <trkpt lat="47.33451" lon="-2.34224">
        <ele>25</ele>
        <time>2021-12-12T09:28:53.000Z</time>
      </trkpt>
      <trkpt lat="47.33445" lon="-2.34235">
        <ele>25</ele>
        <time>2021-12-12T09:28:55.000Z</time>
      </trkpt>
      <trkpt lat="47.33429" lon="-2.34268">
        <ele>25</ele>
        <time>2021-12-12T09:29:01.000Z</time>
      </trkpt>
      <trkpt lat="47.33427" lon="-2.34273">
        <ele>25.39999961853</ele>
        <time>2021-12-12T09:29:02.000Z</time>
      </trkpt>
      <trkpt lat="47.33425" lon="-2.3428">
        <ele>25.799999237061</ele>
        <time>2021-12-12T09:29:03.000Z</time>
      </trkpt>
      <trkpt lat="47.33422" lon="-2.34286">
        <ele>26.60000038147</ele>
        <time>2021-12-12T09:29:04.000Z</time>
      </trkpt>
      <trkpt lat="47.3342" lon="-2.34293">
        <ele>27</ele>
        <time>2021-12-12T09:29:05.000Z</time>
      </trkpt>
      <trkpt lat="47.33417" lon="-2.34306">
        <ele>27</ele>
        <time>2021-12-12T09:29:07.000Z</time>
      </trkpt>
      <trkpt lat="47.334" lon="-2.34359">
        <ele>27</ele>
        <time>2021-12-12T09:29:15.000Z</time>
      </trkpt>
      <trkpt lat="47.33383" lon="-2.34408">
        <ele>27</ele>
        <time>2021-12-12T09:29:23.000Z</time>
      </trkpt>
      <trkpt lat="47.33373" lon="-2.34438">
        <ele>27</ele>
        <time>2021-12-12T09:29:28.000Z</time>
      </trkpt>
      <trkpt lat="47.33367" lon="-2.34456">
        <ele>27</ele>
        <time>2021-12-12T09:29:31.000Z</time>
      </trkpt>
      <trkpt lat="47.33354" lon="-2.34492">
        <ele>27</ele>
        <time>2021-12-12T09:29:37.000Z</time>
      </trkpt>
      <trkpt lat="47.33349" lon="-2.34504">
        <ele>27</ele>
        <time>2021-12-12T09:29:39.000Z</time>
      </trkpt>
      <trkpt lat="47.33344" lon="-2.34515">
        <ele>27</ele>
        <time>2021-12-12T09:29:41.000Z</time>
      </trkpt>
      <trkpt lat="47.33342" lon="-2.3452">
        <ele>27</ele>
        <time>2021-12-12T09:29:42.000Z</time>
      </trkpt>
      <trkpt lat="47.33339" lon="-2.34529">
        <ele>27</ele>
        <time>2021-12-12T09:29:44.000Z</time>
      </trkpt>
      <trkpt lat="47.33334" lon="-2.34547">
        <ele>27</ele>
        <time>2021-12-12T09:29:49.000Z</time>
      </trkpt>
      <trkpt lat="47.33331" lon="-2.34556">
        <ele>27</ele>
        <time>2021-12-12T09:29:55.000Z</time>
      </trkpt>
      <trkpt lat="47.33328" lon="-2.34568">
        <ele>27</ele>
        <time>2021-12-12T09:30:01.000Z</time>
      </trkpt>
      <trkpt lat="47.33322" lon="-2.34585">
        <ele>27</ele>
        <time>2021-12-12T09:30:08.000Z</time>
      </trkpt>
      <trkpt lat="47.33316" lon="-2.34612">
        <ele>27</ele>
        <time>2021-12-12T09:30:14.000Z</time>
      </trkpt>
      <trkpt lat="47.33305" lon="-2.34639">
        <ele>27</ele>
        <time>2021-12-12T09:30:20.000Z</time>
      </trkpt>
      <trkpt lat="47.33291" lon="-2.34667">
        <ele>27</ele>
        <time>2021-12-12T09:30:27.000Z</time>
      </trkpt>
      <trkpt lat="47.33282" lon="-2.34689">
        <ele>27</ele>
        <time>2021-12-12T09:30:33.000Z</time>
      </trkpt>
      <trkpt lat="47.33273" lon="-2.34715">
        <ele>27</ele>
        <time>2021-12-12T09:30:38.000Z</time>
      </trkpt>
      <trkpt lat="47.33262" lon="-2.34743">
        <ele>27</ele>
        <time>2021-12-12T09:30:44.000Z</time>
      </trkpt>
      <trkpt lat="47.33257" lon="-2.34762">
        <ele>27</ele>
        <time>2021-12-12T09:30:48.000Z</time>
      </trkpt>
      <trkpt lat="47.33252" lon="-2.34779">
        <ele>27</ele>
        <time>2021-12-12T09:30:52.000Z</time>
      </trkpt>
      <trkpt lat="47.33242" lon="-2.34807">
        <ele>27</ele>
        <time>2021-12-12T09:30:58.000Z</time>
      </trkpt>
      <trkpt lat="47.33231" lon="-2.34833">
        <ele>27</ele>
        <time>2021-12-12T09:31:04.000Z</time>
      </trkpt>
      <trkpt lat="47.33219" lon="-2.34863">
        <ele>27</ele>
        <time>2021-12-12T09:31:11.000Z</time>
      </trkpt>
      <trkpt lat="47.33209" lon="-2.34892">
        <ele>27</ele>
        <time>2021-12-12T09:31:17.000Z</time>
      </trkpt>
      <trkpt lat="47.33201" lon="-2.3491">
        <ele>27.39999961853</ele>
        <time>2021-12-12T09:31:21.000Z</time>
      </trkpt>
      <trkpt lat="47.33199" lon="-2.34914">
        <ele>28</ele>
        <time>2021-12-12T09:31:22.000Z</time>
      </trkpt>
      <trkpt lat="47.33197" lon="-2.34918">
        <ele>28.39999961853</ele>
        <time>2021-12-12T09:31:23.000Z</time>
      </trkpt>
      <trkpt lat="47.33195" lon="-2.34923">
        <ele>28.799999237061</ele>
        <time>2021-12-12T09:31:24.000Z</time>
      </trkpt>
      <trkpt lat="47.33192" lon="-2.34927">
        <ele>29.200000762939</ele>
        <time>2021-12-12T09:31:25.000Z</time>
      </trkpt>
      <trkpt lat="47.33183" lon="-2.34947">
        <ele>29.200000762939</ele>
        <time>2021-12-12T09:31:29.000Z</time>
      </trkpt>
      <trkpt lat="47.33174" lon="-2.3497">
        <ele>29.200000762939</ele>
        <time>2021-12-12T09:31:34.000Z</time>
      </trkpt>
      <trkpt lat="47.3316" lon="-2.34991">
        <ele>29.200000762939</ele>
        <time>2021-12-12T09:31:39.000Z</time>
      </trkpt>
      <trkpt lat="47.3315" lon="-2.3501">
        <ele>29.200000762939</ele>
        <time>2021-12-12T09:31:45.000Z</time>
      </trkpt>
      <trkpt lat="47.33144" lon="-2.35019">
        <ele>29.60000038147</ele>
        <time>2021-12-12T09:31:48.000Z</time>
      </trkpt>
      <trkpt lat="47.33143" lon="-2.35021">
        <ele>30</ele>
        <time>2021-12-12T09:31:49.000Z</time>
      </trkpt>
      <trkpt lat="47.33141" lon="-2.35023">
        <ele>30.39999961853</ele>
        <time>2021-12-12T09:31:50.000Z</time>
      </trkpt>
      <trkpt lat="47.33139" lon="-2.35025">
        <ele>30.799999237061</ele>
        <time>2021-12-12T09:31:51.000Z</time>
      </trkpt>
      <trkpt lat="47.33138" lon="-2.35027">
        <ele>31.200000762939</ele>
        <time>2021-12-12T09:31:52.000Z</time>
      </trkpt>
      <trkpt lat="47.33136" lon="-2.35029">
        <ele>31.200000762939</ele>
        <time>2021-12-12T09:31:53.000Z</time>
      </trkpt>
      <trkpt lat="47.33124" lon="-2.35047">
        <ele>31.200000762939</ele>
        <time>2021-12-12T09:31:59.000Z</time>
      </trkpt>
      <trkpt lat="47.33111" lon="-2.35063">
        <ele>31.200000762939</ele>
        <time>2021-12-12T09:32:05.000Z</time>
      </trkpt>
      <trkpt lat="47.33107" lon="-2.35072">
        <ele>31.200000762939</ele>
        <time>2021-12-12T09:32:09.000Z</time>
      </trkpt>
      <trkpt lat="47.3309" lon="-2.35101">
        <ele>31.200000762939</ele>
        <time>2021-12-12T09:32:23.000Z</time>
      </trkpt>
      <trkpt lat="47.33083" lon="-2.35111">
        <ele>31.200000762939</ele>
        <time>2021-12-12T09:32:27.000Z</time>
      </trkpt>
      <trkpt lat="47.33068" lon="-2.3513">
        <ele>31.200000762939</ele>
        <time>2021-12-12T09:32:33.000Z</time>
      </trkpt>
      <trkpt lat="47.33064" lon="-2.35136">
        <ele>31.60000038147</ele>
        <time>2021-12-12T09:32:35.000Z</time>
      </trkpt>
      <trkpt lat="47.33061" lon="-2.3514">
        <ele>32</ele>
        <time>2021-12-12T09:32:36.000Z</time>
      </trkpt>
      <trkpt lat="47.33059" lon="-2.35144">
        <ele>32.400001525879</ele>
        <time>2021-12-12T09:32:37.000Z</time>
      </trkpt>
      <trkpt lat="47.33058" lon="-2.35147">
        <ele>32.799999237061</ele>
        <time>2021-12-12T09:32:38.000Z</time>
      </trkpt>
      <trkpt lat="47.33057" lon="-2.3515">
        <ele>33.200000762939</ele>
        <time>2021-12-12T09:32:39.000Z</time>
      </trkpt>
      <trkpt lat="47.33046" lon="-2.35172">
        <ele>33.200000762939</ele>
        <time>2021-12-12T09:32:43.000Z</time>
      </trkpt>
      <trkpt lat="47.33034" lon="-2.35192">
        <ele>33.200000762939</ele>
        <time>2021-12-12T09:32:48.000Z</time>
      </trkpt>
      <trkpt lat="47.33027" lon="-2.35206">
        <ele>33.200000762939</ele>
        <time>2021-12-12T09:32:53.000Z</time>
      </trkpt>
      <trkpt lat="47.33025" lon="-2.35208">
        <ele>33.200000762939</ele>
        <time>2021-12-12T09:32:54.000Z</time>
      </trkpt>
      <trkpt lat="47.33022" lon="-2.35228">
        <ele>33.200000762939</ele>
        <time>2021-12-12T09:32:59.000Z</time>
      </trkpt>
      <trkpt lat="47.33022" lon="-2.35246">
        <ele>33.200000762939</ele>
        <time>2021-12-12T09:33:03.000Z</time>
      </trkpt>
      <trkpt lat="47.33021" lon="-2.35256">
        <ele>33.200000762939</ele>
        <time>2021-12-12T09:33:05.000Z</time>
      </trkpt>
      <trkpt lat="47.3302" lon="-2.35286">
        <ele>33.200000762939</ele>
        <time>2021-12-12T09:33:11.000Z</time>
      </trkpt>
      <trkpt lat="47.33021" lon="-2.35317">
        <ele>33.200000762939</ele>
        <time>2021-12-12T09:33:17.000Z</time>
      </trkpt>
      <trkpt lat="47.33022" lon="-2.35347">
        <ele>33.200000762939</ele>
        <time>2021-12-12T09:33:22.000Z</time>
      </trkpt>
      <trkpt lat="47.3303" lon="-2.35389">
        <ele>33.200000762939</ele>
        <time>2021-12-12T09:33:28.000Z</time>
      </trkpt>
      <trkpt lat="47.33031" lon="-2.35419">
        <ele>33.200000762939</ele>
        <time>2021-12-12T09:33:32.000Z</time>
      </trkpt>
      <trkpt lat="47.33031" lon="-2.35437">
        <ele>33.200000762939</ele>
        <time>2021-12-12T09:33:34.000Z</time>
      </trkpt>
      <trkpt lat="47.33031" lon="-2.3546">
        <ele>33.200000762939</ele>
        <time>2021-12-12T09:33:37.000Z</time>
      </trkpt>
      <trkpt lat="47.3303" lon="-2.35467">
        <ele>33.200000762939</ele>
        <time>2021-12-12T09:33:38.000Z</time>
      </trkpt>
      <trkpt lat="47.3303" lon="-2.35474">
        <ele>32.799999237061</ele>
        <time>2021-12-12T09:33:39.000Z</time>
      </trkpt>
      <trkpt lat="47.33029" lon="-2.35481">
        <ele>32.400001525879</ele>
        <time>2021-12-12T09:33:40.000Z</time>
      </trkpt>
      <trkpt lat="47.33029" lon="-2.35489">
        <ele>32</ele>
        <time>2021-12-12T09:33:41.000Z</time>
      </trkpt>
      <trkpt lat="47.33028" lon="-2.35496">
        <ele>31.60000038147</ele>
        <time>2021-12-12T09:33:42.000Z</time>
      </trkpt>
      <trkpt lat="47.33028" lon="-2.35502">
        <ele>31.200000762939</ele>
        <time>2021-12-12T09:33:43.000Z</time>
      </trkpt>
      <trkpt lat="47.33028" lon="-2.35516">
        <ele>31.200000762939</ele>
        <time>2021-12-12T09:33:45.000Z</time>
      </trkpt>
      <trkpt lat="47.33025" lon="-2.3554">
        <ele>31.200000762939</ele>
        <time>2021-12-12T09:33:49.000Z</time>
      </trkpt>
      <trkpt lat="47.33023" lon="-2.35587">
        <ele>31.200000762939</ele>
        <time>2021-12-12T09:33:56.000Z</time>
      </trkpt>
      <trkpt lat="47.33022" lon="-2.35594">
        <ele>30.799999237061</ele>
        <time>2021-12-12T09:33:57.000Z</time>
      </trkpt>
      <trkpt lat="47.33022" lon="-2.35602">
        <ele>30.39999961853</ele>
        <time>2021-12-12T09:33:58.000Z</time>
      </trkpt>
      <trkpt lat="47.33021" lon="-2.35609">
        <ele>30</ele>
        <time>2021-12-12T09:33:59.000Z</time>
      </trkpt>
      <trkpt lat="47.33019" lon="-2.35617">
        <ele>29.60000038147</ele>
        <time>2021-12-12T09:34:00.000Z</time>
      </trkpt>
      <trkpt lat="47.33018" lon="-2.35624">
        <ele>29.200000762939</ele>
        <time>2021-12-12T09:34:01.000Z</time>
      </trkpt>
      <trkpt lat="47.33015" lon="-2.35636">
        <ele>29.200000762939</ele>
        <time>2021-12-12T09:34:03.000Z</time>
      </trkpt>
      <trkpt lat="47.33013" lon="-2.35651">
        <ele>28.799999237061</ele>
        <time>2021-12-12T09:34:06.000Z</time>
      </trkpt>
      <trkpt lat="47.33014" lon="-2.35654">
        <ele>28.39999961853</ele>
        <time>2021-12-12T09:34:07.000Z</time>
      </trkpt>
      <trkpt lat="47.33015" lon="-2.35656">
        <ele>28</ele>
        <time>2021-12-12T09:34:08.000Z</time>
      </trkpt>
      <trkpt lat="47.33017" lon="-2.35657">
        <ele>27.60000038147</ele>
        <time>2021-12-12T09:34:09.000Z</time>
      </trkpt>
      <trkpt lat="47.33019" lon="-2.35657">
        <ele>27.200000762939</ele>
        <time>2021-12-12T09:34:10.000Z</time>
      </trkpt>
      <trkpt lat="47.33021" lon="-2.35657">
        <ele>27.200000762939</ele>
        <time>2021-12-12T09:34:11.000Z</time>
      </trkpt>
      <trkpt lat="47.33025" lon="-2.35656">
        <ele>27.200000762939</ele>
        <time>2021-12-12T09:34:13.000Z</time>
      </trkpt>
      <trkpt lat="47.33038" lon="-2.35654">
        <ele>27.200000762939</ele>
        <time>2021-12-12T09:34:17.000Z</time>
      </trkpt>
      <trkpt lat="47.33063" lon="-2.35651">
        <ele>27.60000038147</ele>
        <time>2021-12-12T09:34:23.000Z</time>
      </trkpt>
      <trkpt lat="47.33066" lon="-2.3565">
        <ele>28</ele>
        <time>2021-12-12T09:34:24.000Z</time>
      </trkpt>
      <trkpt lat="47.3307" lon="-2.35649">
        <ele>28.799999237061</ele>
        <time>2021-12-12T09:34:25.000Z</time>
      </trkpt>
      <trkpt lat="47.33074" lon="-2.35649">
        <ele>29.200000762939</ele>
        <time>2021-12-12T09:34:26.000Z</time>
      </trkpt>
      <trkpt lat="47.33095" lon="-2.35645">
        <ele>29.200000762939</ele>
        <time>2021-12-12T09:34:31.000Z</time>
      </trkpt>
      <trkpt lat="47.33119" lon="-2.35642">
        <ele>29.60000038147</ele>
        <time>2021-12-12T09:34:37.000Z</time>
      </trkpt>
      <trkpt lat="47.33123" lon="-2.35642">
        <ele>30</ele>
        <time>2021-12-12T09:34:38.000Z</time>
      </trkpt>
      <trkpt lat="47.33127" lon="-2.35641">
        <ele>30.39999961853</ele>
        <time>2021-12-12T09:34:39.000Z</time>
      </trkpt>
      <trkpt lat="47.33131" lon="-2.35641">
        <ele>30.799999237061</ele>
        <time>2021-12-12T09:34:40.000Z</time>
      </trkpt>
      <trkpt lat="47.33134" lon="-2.3564">
        <ele>31.200000762939</ele>
        <time>2021-12-12T09:34:41.000Z</time>
      </trkpt>
      <trkpt lat="47.33148" lon="-2.35637">
        <ele>31.200000762939</ele>
        <time>2021-12-12T09:34:45.000Z</time>
      </trkpt>
      <trkpt lat="47.33162" lon="-2.35633">
        <ele>31.60000038147</ele>
        <time>2021-12-12T09:34:49.000Z</time>
      </trkpt>
      <trkpt lat="47.33165" lon="-2.35632">
        <ele>32.400001525879</ele>
        <time>2021-12-12T09:34:50.000Z</time>
      </trkpt>
      <trkpt lat="47.33168" lon="-2.35632">
        <ele>32.799999237061</ele>
        <time>2021-12-12T09:34:51.000Z</time>
      </trkpt>
      <trkpt lat="47.33171" lon="-2.35631">
        <ele>33.400001525879</ele>
        <time>2021-12-12T09:34:52.000Z</time>
      </trkpt>
      <trkpt lat="47.33175" lon="-2.35629">
        <ele>33.400001525879</ele>
        <time>2021-12-12T09:34:53.000Z</time>
      </trkpt>
      <trkpt lat="47.33196" lon="-2.35619">
        <ele>33.400001525879</ele>
        <time>2021-12-12T09:34:59.000Z</time>
      </trkpt>
      <trkpt lat="47.33228" lon="-2.35595">
        <ele>33.400001525879</ele>
        <time>2021-12-12T09:35:08.000Z</time>
      </trkpt>
      <trkpt lat="47.33253" lon="-2.35575">
        <ele>34.200000762939</ele>
        <time>2021-12-12T09:35:14.000Z</time>
      </trkpt>
      <trkpt lat="47.33257" lon="-2.35571">
        <ele>34.599998474121</ele>
        <time>2021-12-12T09:35:15.000Z</time>
      </trkpt>
      <trkpt lat="47.33261" lon="-2.35567">
        <ele>35</ele>
        <time>2021-12-12T09:35:16.000Z</time>
      </trkpt>
      <trkpt lat="47.33265" lon="-2.35563">
        <ele>35.400001525879</ele>
        <time>2021-12-12T09:35:17.000Z</time>
      </trkpt>
      <trkpt lat="47.33284" lon="-2.35542">
        <ele>35.400001525879</ele>
        <time>2021-12-12T09:35:22.000Z</time>
      </trkpt>
      <trkpt lat="47.33304" lon="-2.3552">
        <ele>35.400001525879</ele>
        <time>2021-12-12T09:35:27.000Z</time>
      </trkpt>
      <trkpt lat="47.33308" lon="-2.35517">
        <ele>35.400001525879</ele>
        <time>2021-12-12T09:35:28.000Z</time>
      </trkpt>
      <trkpt lat="47.33322" lon="-2.35507">
        <ele>35.400001525879</ele>
        <time>2021-12-12T09:35:31.000Z</time>
      </trkpt>
      <trkpt lat="47.33331" lon="-2.35502">
        <ele>35.400001525879</ele>
        <time>2021-12-12T09:35:33.000Z</time>
      </trkpt>
      <trkpt lat="47.33346" lon="-2.35494">
        <ele>35.400001525879</ele>
        <time>2021-12-12T09:35:36.000Z</time>
      </trkpt>
      <trkpt lat="47.33356" lon="-2.35489">
        <ele>35.400001525879</ele>
        <time>2021-12-12T09:35:38.000Z</time>
      </trkpt>
      <trkpt lat="47.3339" lon="-2.35471">
        <ele>35.400001525879</ele>
        <time>2021-12-12T09:35:45.000Z</time>
      </trkpt>
      <trkpt lat="47.33408" lon="-2.35464">
        <ele>35</ele>
        <time>2021-12-12T09:35:49.000Z</time>
      </trkpt>
      <trkpt lat="47.33413" lon="-2.35462">
        <ele>34.599998474121</ele>
        <time>2021-12-12T09:35:50.000Z</time>
      </trkpt>
      <trkpt lat="47.33417" lon="-2.3546">
        <ele>34.200000762939</ele>
        <time>2021-12-12T09:35:51.000Z</time>
      </trkpt>
      <trkpt lat="47.33422" lon="-2.35458">
        <ele>33.799999237061</ele>
        <time>2021-12-12T09:35:52.000Z</time>
      </trkpt>
      <trkpt lat="47.33427" lon="-2.35456">
        <ele>33.200000762939</ele>
        <time>2021-12-12T09:35:53.000Z</time>
      </trkpt>
      <trkpt lat="47.33453" lon="-2.35444">
        <ele>33.200000762939</ele>
        <time>2021-12-12T09:36:00.000Z</time>
      </trkpt>
      <trkpt lat="47.33474" lon="-2.35434">
        <ele>33.200000762939</ele>
        <time>2021-12-12T09:36:06.000Z</time>
      </trkpt>
      <trkpt lat="47.33491" lon="-2.3543">
        <ele>33.200000762939</ele>
        <time>2021-12-12T09:36:11.000Z</time>
      </trkpt>
      <trkpt lat="47.33517" lon="-2.35418">
        <ele>33.200000762939</ele>
        <time>2021-12-12T09:36:17.000Z</time>
      </trkpt>
      <trkpt lat="47.33536" lon="-2.35408">
        <ele>32.799999237061</ele>
        <time>2021-12-12T09:36:21.000Z</time>
      </trkpt>
      <trkpt lat="47.33542" lon="-2.35406">
        <ele>32.400001525879</ele>
        <time>2021-12-12T09:36:22.000Z</time>
      </trkpt>
      <trkpt lat="47.33548" lon="-2.35403">
        <ele>32</ele>
        <time>2021-12-12T09:36:23.000Z</time>
      </trkpt>
      <trkpt lat="47.33553" lon="-2.35401">
        <ele>31.60000038147</ele>
        <time>2021-12-12T09:36:24.000Z</time>
      </trkpt>
      <trkpt lat="47.33559" lon="-2.35398">
        <ele>31.200000762939</ele>
        <time>2021-12-12T09:36:25.000Z</time>
      </trkpt>
      <trkpt lat="47.33577" lon="-2.35391">
        <ele>31.200000762939</ele>
        <time>2021-12-12T09:36:28.000Z</time>
      </trkpt>
      <trkpt lat="47.33583" lon="-2.35387">
        <ele>31.200000762939</ele>
        <time>2021-12-12T09:36:29.000Z</time>
      </trkpt>
      <trkpt lat="47.33589" lon="-2.35385">
        <ele>31.200000762939</ele>
        <time>2021-12-12T09:36:30.000Z</time>
      </trkpt>
      <trkpt lat="47.33608" lon="-2.35378">
        <ele>31.200000762939</ele>
        <time>2021-12-12T09:36:33.000Z</time>
      </trkpt>
      <trkpt lat="47.33614" lon="-2.35378">
        <ele>31.200000762939</ele>
        <time>2021-12-12T09:36:34.000Z</time>
      </trkpt>
      <trkpt lat="47.33658" lon="-2.35369">
        <ele>31.200000762939</ele>
        <time>2021-12-12T09:36:42.000Z</time>
      </trkpt>
      <trkpt lat="47.33697" lon="-2.35365">
        <ele>31.200000762939</ele>
        <time>2021-12-12T09:36:49.000Z</time>
      </trkpt>
      <trkpt lat="47.3373" lon="-2.35361">
        <ele>31.200000762939</ele>
        <time>2021-12-12T09:36:55.000Z</time>
      </trkpt>
      <trkpt lat="47.33764" lon="-2.35358">
        <ele>31.200000762939</ele>
        <time>2021-12-12T09:37:01.000Z</time>
      </trkpt>
      <trkpt lat="47.33801" lon="-2.35353">
        <ele>31.200000762939</ele>
        <time>2021-12-12T09:37:07.000Z</time>
      </trkpt>
      <trkpt lat="47.33826" lon="-2.35345">
        <ele>31.200000762939</ele>
        <time>2021-12-12T09:37:11.000Z</time>
      </trkpt>
      <trkpt lat="47.33837" lon="-2.35338">
        <ele>31.200000762939</ele>
        <time>2021-12-12T09:37:13.000Z</time>
      </trkpt>
      <trkpt lat="47.33842" lon="-2.35334">
        <ele>31.200000762939</ele>
        <time>2021-12-12T09:37:14.000Z</time>
      </trkpt>
      <trkpt lat="47.33861" lon="-2.35317">
        <ele>31.200000762939</ele>
        <time>2021-12-12T09:37:18.000Z</time>
      </trkpt>
      <trkpt lat="47.33893" lon="-2.35301">
        <ele>31.200000762939</ele>
        <time>2021-12-12T09:37:24.000Z</time>
      </trkpt>
      <trkpt lat="47.3393" lon="-2.35284">
        <ele>31.200000762939</ele>
        <time>2021-12-12T09:37:31.000Z</time>
      </trkpt>
      <trkpt lat="47.33934" lon="-2.35281">
        <ele>31.200000762939</ele>
        <time>2021-12-12T09:37:32.000Z</time>
      </trkpt>
      <trkpt lat="47.33943" lon="-2.35271">
        <ele>31.200000762939</ele>
        <time>2021-12-12T09:37:35.000Z</time>
      </trkpt>
      <trkpt lat="47.33954" lon="-2.35267">
        <ele>31.200000762939</ele>
        <time>2021-12-12T09:37:39.000Z</time>
      </trkpt>
      <trkpt lat="47.33968" lon="-2.35273">
        <ele>31.200000762939</ele>
        <time>2021-12-12T09:37:43.000Z</time>
      </trkpt>
      <trkpt lat="47.33972" lon="-2.35276">
        <ele>31.200000762939</ele>
        <time>2021-12-12T09:37:44.000Z</time>
      </trkpt>
      <trkpt lat="47.33996" lon="-2.35302">
        <ele>31.200000762939</ele>
        <time>2021-12-12T09:37:49.000Z</time>
      </trkpt>
      <trkpt lat="47.34022" lon="-2.35328">
        <ele>30.799999237061</ele>
        <time>2021-12-12T09:37:54.000Z</time>
      </trkpt>
      <trkpt lat="47.34027" lon="-2.35333">
        <ele>30.39999961853</ele>
        <time>2021-12-12T09:37:55.000Z</time>
      </trkpt>
      <trkpt lat="47.34032" lon="-2.35338">
        <ele>30</ele>
        <time>2021-12-12T09:37:56.000Z</time>
      </trkpt>
      <trkpt lat="47.34036" lon="-2.35343">
        <ele>29.60000038147</ele>
        <time>2021-12-12T09:37:57.000Z</time>
      </trkpt>
      <trkpt lat="47.34041" lon="-2.35349">
        <ele>29.200000762939</ele>
        <time>2021-12-12T09:37:58.000Z</time>
      </trkpt>
      <trkpt lat="47.34066" lon="-2.35385">
        <ele>29.200000762939</ele>
        <time>2021-12-12T09:38:04.000Z</time>
      </trkpt>
      <trkpt lat="47.34083" lon="-2.35431">
        <ele>29.200000762939</ele>
        <time>2021-12-12T09:38:10.000Z</time>
      </trkpt>
      <trkpt lat="47.34091" lon="-2.35454">
        <ele>28.799999237061</ele>
        <time>2021-12-12T09:38:13.000Z</time>
      </trkpt>
      <trkpt lat="47.34094" lon="-2.35461">
        <ele>28.39999961853</ele>
        <time>2021-12-12T09:38:14.000Z</time>
      </trkpt>
      <trkpt lat="47.34097" lon="-2.35468">
        <ele>28</ele>
        <time>2021-12-12T09:38:15.000Z</time>
      </trkpt>
      <trkpt lat="47.341" lon="-2.35475">
        <ele>27.60000038147</ele>
        <time>2021-12-12T09:38:16.000Z</time>
      </trkpt>
      <trkpt lat="47.34102" lon="-2.35482">
        <ele>27.200000762939</ele>
        <time>2021-12-12T09:38:17.000Z</time>
      </trkpt>
      <trkpt lat="47.34118" lon="-2.35529">
        <ele>27.200000762939</ele>
        <time>2021-12-12T09:38:23.000Z</time>
      </trkpt>
      <trkpt lat="47.34137" lon="-2.35589">
        <ele>27.200000762939</ele>
        <time>2021-12-12T09:38:31.000Z</time>
      </trkpt>
      <trkpt lat="47.34142" lon="-2.35603">
        <ele>27.200000762939</ele>
        <time>2021-12-12T09:38:33.000Z</time>
      </trkpt>
      <trkpt lat="47.34152" lon="-2.35621">
        <ele>27.200000762939</ele>
        <time>2021-12-12T09:38:36.000Z</time>
      </trkpt>
      <trkpt lat="47.34185" lon="-2.35673">
        <ele>27.200000762939</ele>
        <time>2021-12-12T09:38:45.000Z</time>
      </trkpt>
      <trkpt lat="47.34197" lon="-2.35693">
        <ele>26.799999237061</ele>
        <time>2021-12-12T09:38:49.000Z</time>
      </trkpt>
      <trkpt lat="47.34201" lon="-2.35698">
        <ele>26.200000762939</ele>
        <time>2021-12-12T09:38:50.000Z</time>
      </trkpt>
      <trkpt lat="47.34203" lon="-2.357">
        <ele>25.799999237061</ele>
        <time>2021-12-12T09:38:51.000Z</time>
      </trkpt>
      <trkpt lat="47.34206" lon="-2.35703">
        <ele>25.39999961853</ele>
        <time>2021-12-12T09:38:52.000Z</time>
      </trkpt>
      <trkpt lat="47.34207" lon="-2.35705">
        <ele>25</ele>
        <time>2021-12-12T09:38:53.000Z</time>
      </trkpt>
      <trkpt lat="47.34208" lon="-2.35707">
        <ele>25</ele>
        <time>2021-12-12T09:38:54.000Z</time>
      </trkpt>
      <trkpt lat="47.34209" lon="-2.3571">
        <ele>24.39999961853</ele>
        <time>2021-12-12T09:38:55.000Z</time>
      </trkpt>
      <trkpt lat="47.3421" lon="-2.35715">
        <ele>24</ele>
        <time>2021-12-12T09:38:56.000Z</time>
      </trkpt>
      <trkpt lat="47.34211" lon="-2.3572">
        <ele>23.200000762939</ele>
        <time>2021-12-12T09:38:57.000Z</time>
      </trkpt>
      <trkpt lat="47.34213" lon="-2.35724">
        <ele>22.60000038147</ele>
        <time>2021-12-12T09:38:58.000Z</time>
      </trkpt>
      <trkpt lat="47.34216" lon="-2.35728">
        <ele>22</ele>
        <time>2021-12-12T09:38:59.000Z</time>
      </trkpt>
      <trkpt lat="47.34219" lon="-2.35732">
        <ele>21.39999961853</ele>
        <time>2021-12-12T09:39:00.000Z</time>
      </trkpt>
      <trkpt lat="47.34222" lon="-2.35736">
        <ele>20.799999237061</ele>
        <time>2021-12-12T09:39:01.000Z</time>
      </trkpt>
      <trkpt lat="47.34224" lon="-2.35741">
        <ele>20.200000762939</ele>
        <time>2021-12-12T09:39:02.000Z</time>
      </trkpt>
      <trkpt lat="47.34226" lon="-2.35747">
        <ele>20.200000762939</ele>
        <time>2021-12-12T09:39:03.000Z</time>
      </trkpt>
      <trkpt lat="47.3423" lon="-2.3577">
        <ele>20.200000762939</ele>
        <time>2021-12-12T09:39:06.000Z</time>
      </trkpt>
      <trkpt lat="47.34233" lon="-2.35779">
        <ele>20.200000762939</ele>
        <time>2021-12-12T09:39:07.000Z</time>
      </trkpt>
      <trkpt lat="47.34243" lon="-2.35813">
        <ele>20.200000762939</ele>
        <time>2021-12-12T09:39:11.000Z</time>
      </trkpt>
      <trkpt lat="47.34252" lon="-2.35848">
        <ele>20.200000762939</ele>
        <time>2021-12-12T09:39:15.000Z</time>
      </trkpt>
      <trkpt lat="47.34252" lon="-2.35865">
        <ele>20.200000762939</ele>
        <time>2021-12-12T09:39:17.000Z</time>
      </trkpt>
      <trkpt lat="47.3425" lon="-2.35891">
        <ele>20.200000762939</ele>
        <time>2021-12-12T09:39:20.000Z</time>
      </trkpt>
      <trkpt lat="47.34247" lon="-2.35907">
        <ele>20.200000762939</ele>
        <time>2021-12-12T09:39:22.000Z</time>
      </trkpt>
      <trkpt lat="47.34242" lon="-2.35936">
        <ele>20.200000762939</ele>
        <time>2021-12-12T09:39:26.000Z</time>
      </trkpt>
      <trkpt lat="47.34244" lon="-2.35942">
        <ele>20.200000762939</ele>
        <time>2021-12-12T09:39:27.000Z</time>
      </trkpt>
      <trkpt lat="47.34255" lon="-2.3595">
        <ele>20.200000762939</ele>
        <time>2021-12-12T09:39:30.000Z</time>
      </trkpt>
      <trkpt lat="47.34269" lon="-2.35949">
        <ele>20.200000762939</ele>
        <time>2021-12-12T09:39:33.000Z</time>
      </trkpt>
      <trkpt lat="47.34282" lon="-2.35948">
        <ele>20.200000762939</ele>
        <time>2021-12-12T09:39:36.000Z</time>
      </trkpt>
      <trkpt lat="47.34292" lon="-2.3595">
        <ele>20.60000038147</ele>
        <time>2021-12-12T09:39:38.000Z</time>
      </trkpt>
      <trkpt lat="47.34297" lon="-2.35951">
        <ele>21.200000762939</ele>
        <time>2021-12-12T09:39:39.000Z</time>
      </trkpt>
      <trkpt lat="47.34302" lon="-2.35951">
        <ele>21.60000038147</ele>
        <time>2021-12-12T09:39:40.000Z</time>
      </trkpt>
      <trkpt lat="47.34306" lon="-2.35952">
        <ele>22</ele>
        <time>2021-12-12T09:39:41.000Z</time>
      </trkpt>
      <trkpt lat="47.34311" lon="-2.35952">
        <ele>22.39999961853</ele>
        <time>2021-12-12T09:39:42.000Z</time>
      </trkpt>
      <trkpt lat="47.34319" lon="-2.35955">
        <ele>22.799999237061</ele>
        <time>2021-12-12T09:39:44.000Z</time>
      </trkpt>
      <trkpt lat="47.34324" lon="-2.35955">
        <ele>23.200000762939</ele>
        <time>2021-12-12T09:39:45.000Z</time>
      </trkpt>
      <trkpt lat="47.34328" lon="-2.35957">
        <ele>23.60000038147</ele>
        <time>2021-12-12T09:39:46.000Z</time>
      </trkpt>
      <trkpt lat="47.34332" lon="-2.35959">
        <ele>24.39999961853</ele>
        <time>2021-12-12T09:39:47.000Z</time>
      </trkpt>
      <trkpt lat="47.34348" lon="-2.35967">
        <ele>24.39999961853</ele>
        <time>2021-12-12T09:39:51.000Z</time>
      </trkpt>
      <trkpt lat="47.34352" lon="-2.35969">
        <ele>24.39999961853</ele>
        <time>2021-12-12T09:39:52.000Z</time>
      </trkpt>
      <trkpt lat="47.34356" lon="-2.35971">
        <ele>24.39999961853</ele>
        <time>2021-12-12T09:39:53.000Z</time>
      </trkpt>
      <trkpt lat="47.34364" lon="-2.35975">
        <ele>24.39999961853</ele>
        <time>2021-12-12T09:39:55.000Z</time>
      </trkpt>
      <trkpt lat="47.34373" lon="-2.35978">
        <ele>24.39999961853</ele>
        <time>2021-12-12T09:39:57.000Z</time>
      </trkpt>
      <trkpt lat="47.34381" lon="-2.35982">
        <ele>24.39999961853</ele>
        <time>2021-12-12T09:39:59.000Z</time>
      </trkpt>
      <trkpt lat="47.34395" lon="-2.35989">
        <ele>24.39999961853</ele>
        <time>2021-12-12T09:40:02.000Z</time>
      </trkpt>
      <trkpt lat="47.34399" lon="-2.35991">
        <ele>24.39999961853</ele>
        <time>2021-12-12T09:40:03.000Z</time>
      </trkpt>
      <trkpt lat="47.34403" lon="-2.35992">
        <ele>24.39999961853</ele>
        <time>2021-12-12T09:40:04.000Z</time>
      </trkpt>
      <trkpt lat="47.34417" lon="-2.35986">
        <ele>24.39999961853</ele>
        <time>2021-12-12T09:40:07.000Z</time>
      </trkpt>
      <trkpt lat="47.34421" lon="-2.35983">
        <ele>24.39999961853</ele>
        <time>2021-12-12T09:40:08.000Z</time>
      </trkpt>
      <trkpt lat="47.3445" lon="-2.3596">
        <ele>24.39999961853</ele>
        <time>2021-12-12T09:40:14.000Z</time>
      </trkpt>
      <trkpt lat="47.34482" lon="-2.35937">
        <ele>24.39999961853</ele>
        <time>2021-12-12T09:40:20.000Z</time>
      </trkpt>
      <trkpt lat="47.34494" lon="-2.35931">
        <ele>24</ele>
        <time>2021-12-12T09:40:22.000Z</time>
      </trkpt>
      <trkpt lat="47.34501" lon="-2.35928">
        <ele>23.39999961853</ele>
        <time>2021-12-12T09:40:23.000Z</time>
      </trkpt>
      <trkpt lat="47.34506" lon="-2.35926">
        <ele>23</ele>
        <time>2021-12-12T09:40:24.000Z</time>
      </trkpt>
      <trkpt lat="47.34512" lon="-2.35924">
        <ele>22.60000038147</ele>
        <time>2021-12-12T09:40:25.000Z</time>
      </trkpt>
      <trkpt lat="47.34518" lon="-2.35922">
        <ele>22.200000762939</ele>
        <time>2021-12-12T09:40:26.000Z</time>
      </trkpt>
      <trkpt lat="47.34524" lon="-2.3592">
        <ele>22.200000762939</ele>
        <time>2021-12-12T09:40:27.000Z</time>
      </trkpt>
      <trkpt lat="47.34554" lon="-2.35907">
        <ele>21.799999237061</ele>
        <time>2021-12-12T09:40:32.000Z</time>
      </trkpt>
      <trkpt lat="47.34559" lon="-2.35903">
        <ele>21.200000762939</ele>
        <time>2021-12-12T09:40:33.000Z</time>
      </trkpt>
      <trkpt lat="47.34565" lon="-2.35899">
        <ele>20.799999237061</ele>
        <time>2021-12-12T09:40:34.000Z</time>
      </trkpt>
      <trkpt lat="47.34571" lon="-2.35896">
        <ele>20.39999961853</ele>
        <time>2021-12-12T09:40:35.000Z</time>
      </trkpt>
      <trkpt lat="47.34577" lon="-2.35891">
        <ele>20</ele>
        <time>2021-12-12T09:40:36.000Z</time>
      </trkpt>
      <trkpt lat="47.346" lon="-2.35872">
        <ele>20</ele>
        <time>2021-12-12T09:40:40.000Z</time>
      </trkpt>
      <trkpt lat="47.34629" lon="-2.35849">
        <ele>20</ele>
        <time>2021-12-12T09:40:46.000Z</time>
      </trkpt>
      <trkpt lat="47.34651" lon="-2.35832">
        <ele>20</ele>
        <time>2021-12-12T09:40:51.000Z</time>
      </trkpt>
      <trkpt lat="47.34679" lon="-2.35809">
        <ele>20</ele>
        <time>2021-12-12T09:40:57.000Z</time>
      </trkpt>
      <trkpt lat="47.34683" lon="-2.35805">
        <ele>20</ele>
        <time>2021-12-12T09:40:58.000Z</time>
      </trkpt>
      <trkpt lat="47.34715" lon="-2.35777">
        <ele>20</ele>
        <time>2021-12-12T09:41:05.000Z</time>
      </trkpt>
      <trkpt lat="47.34741" lon="-2.35757">
        <ele>20</ele>
        <time>2021-12-12T09:41:11.000Z</time>
      </trkpt>
      <trkpt lat="47.34762" lon="-2.35748">
        <ele>20</ele>
        <time>2021-12-12T09:41:16.000Z</time>
      </trkpt>
      <trkpt lat="47.34791" lon="-2.35735">
        <ele>20</ele>
        <time>2021-12-12T09:41:23.000Z</time>
      </trkpt>
      <trkpt lat="47.3481" lon="-2.35727">
        <ele>20</ele>
        <time>2021-12-12T09:41:29.000Z</time>
      </trkpt>
      <trkpt lat="47.34816" lon="-2.35724">
        <ele>20</ele>
        <time>2021-12-12T09:41:33.000Z</time>
      </trkpt>
      <trkpt lat="47.34849" lon="-2.3566">
        <ele>20</ele>
        <time>2021-12-12T09:44:21.000Z</time>
      </trkpt>
      <trkpt lat="47.34836" lon="-2.35652">
        <ele>20</ele>
        <time>2021-12-12T09:44:26.000Z</time>
      </trkpt>
      <trkpt lat="47.34812" lon="-2.35635">
        <ele>20</ele>
        <time>2021-12-12T09:44:32.000Z</time>
      </trkpt>
      <trkpt lat="47.34796" lon="-2.3562">
        <ele>20</ele>
        <time>2021-12-12T09:44:36.000Z</time>
      </trkpt>
      <trkpt lat="47.34781" lon="-2.35603">
        <ele>20</ele>
        <time>2021-12-12T09:44:40.000Z</time>
      </trkpt>
      <trkpt lat="47.34758" lon="-2.35576">
        <ele>20</ele>
        <time>2021-12-12T09:44:45.000Z</time>
      </trkpt>
      <trkpt lat="47.34727" lon="-2.35532">
        <ele>20</ele>
        <time>2021-12-12T09:44:52.000Z</time>
      </trkpt>
      <trkpt lat="47.34707" lon="-2.35498">
        <ele>19.60000038147</ele>
        <time>2021-12-12T09:44:57.000Z</time>
      </trkpt>
      <trkpt lat="47.34703" lon="-2.35491">
        <ele>19.200000762939</ele>
        <time>2021-12-12T09:44:58.000Z</time>
      </trkpt>
      <trkpt lat="47.347" lon="-2.35485">
        <ele>18.799999237061</ele>
        <time>2021-12-12T09:44:59.000Z</time>
      </trkpt>
      <trkpt lat="47.34696" lon="-2.35478">
        <ele>18.39999961853</ele>
        <time>2021-12-12T09:45:00.000Z</time>
      </trkpt>
      <trkpt lat="47.34693" lon="-2.35472">
        <ele>18</ele>
        <time>2021-12-12T09:45:01.000Z</time>
      </trkpt>
      <trkpt lat="47.34675" lon="-2.35443">
        <ele>18</ele>
        <time>2021-12-12T09:45:06.000Z</time>
      </trkpt>
      <trkpt lat="47.34651" lon="-2.35414">
        <ele>18</ele>
        <time>2021-12-12T09:45:13.000Z</time>
      </trkpt>
      <trkpt lat="47.34649" lon="-2.35403">
        <ele>18</ele>
        <time>2021-12-12T09:45:16.000Z</time>
      </trkpt>
      <trkpt lat="47.34651" lon="-2.35401">
        <ele>18</ele>
        <time>2021-12-12T09:45:17.000Z</time>
      </trkpt>
      <trkpt lat="47.34658" lon="-2.35398">
        <ele>18</ele>
        <time>2021-12-12T09:45:21.000Z</time>
      </trkpt>
      <trkpt lat="47.34667" lon="-2.35396">
        <ele>18</ele>
        <time>2021-12-12T09:45:25.000Z</time>
      </trkpt>
      <trkpt lat="47.34679" lon="-2.35395">
        <ele>18</ele>
        <time>2021-12-12T09:45:29.000Z</time>
      </trkpt>
      <trkpt lat="47.34691" lon="-2.35392">
        <ele>18</ele>
        <time>2021-12-12T09:45:34.000Z</time>
      </trkpt>
      <trkpt lat="47.34706" lon="-2.35379">
        <ele>18</ele>
        <time>2021-12-12T09:45:40.000Z</time>
      </trkpt>
      <trkpt lat="47.3472" lon="-2.35359">
        <ele>18</ele>
        <time>2021-12-12T09:45:47.000Z</time>
      </trkpt>
      <trkpt lat="47.34724" lon="-2.35348">
        <ele>18</ele>
        <time>2021-12-12T09:45:51.000Z</time>
      </trkpt>
      <trkpt lat="47.34723" lon="-2.35329">
        <ele>18</ele>
        <time>2021-12-12T09:45:56.000Z</time>
      </trkpt>
      <trkpt lat="47.34729" lon="-2.3531">
        <ele>18</ele>
        <time>2021-12-12T09:46:01.000Z</time>
      </trkpt>
      <trkpt lat="47.34737" lon="-2.35286">
        <ele>18</ele>
        <time>2021-12-12T09:46:05.000Z</time>
      </trkpt>
      <trkpt lat="47.34739" lon="-2.3528">
        <ele>18</ele>
        <time>2021-12-12T09:46:06.000Z</time>
      </trkpt>
      <trkpt lat="47.34752" lon="-2.35234">
        <ele>18</ele>
        <time>2021-12-12T09:46:12.000Z</time>
      </trkpt>
      <trkpt lat="47.34754" lon="-2.35222">
        <ele>18</ele>
        <time>2021-12-12T09:46:14.000Z</time>
      </trkpt>
      <trkpt lat="47.34754" lon="-2.35208">
        <ele>18</ele>
        <time>2021-12-12T09:46:17.000Z</time>
      </trkpt>
      <trkpt lat="47.34759" lon="-2.35181">
        <ele>18</ele>
        <time>2021-12-12T09:46:22.000Z</time>
      </trkpt>
      <trkpt lat="47.34757" lon="-2.35154">
        <ele>18</ele>
        <time>2021-12-12T09:46:27.000Z</time>
      </trkpt>
      <trkpt lat="47.34746" lon="-2.35133">
        <ele>18</ele>
        <time>2021-12-12T09:46:32.000Z</time>
      </trkpt>
      <trkpt lat="47.34736" lon="-2.35116">
        <ele>18</ele>
        <time>2021-12-12T09:46:37.000Z</time>
      </trkpt>
      <trkpt lat="47.34723" lon="-2.35091">
        <ele>18</ele>
        <time>2021-12-12T09:46:43.000Z</time>
      </trkpt>
      <trkpt lat="47.34704" lon="-2.35069">
        <ele>18</ele>
        <time>2021-12-12T09:46:49.000Z</time>
      </trkpt>
      <trkpt lat="47.34687" lon="-2.35045">
        <ele>18</ele>
        <time>2021-12-12T09:46:55.000Z</time>
      </trkpt>
      <trkpt lat="47.34674" lon="-2.35041">
        <ele>18</ele>
        <time>2021-12-12T09:46:59.000Z</time>
      </trkpt>
      <trkpt lat="47.3465" lon="-2.35031">
        <ele>18</ele>
        <time>2021-12-12T09:47:05.000Z</time>
      </trkpt>
      <trkpt lat="47.34638" lon="-2.35018">
        <ele>18</ele>
        <time>2021-12-12T09:47:09.000Z</time>
      </trkpt>
      <trkpt lat="47.34636" lon="-2.35016">
        <ele>18</ele>
        <time>2021-12-12T09:47:10.000Z</time>
      </trkpt>
      <trkpt lat="47.34621" lon="-2.34995">
        <ele>18</ele>
        <time>2021-12-12T09:47:16.000Z</time>
      </trkpt>
      <trkpt lat="47.34603" lon="-2.34963">
        <ele>18</ele>
        <time>2021-12-12T09:47:21.000Z</time>
      </trkpt>
      <trkpt lat="47.34589" lon="-2.34933">
        <ele>18</ele>
        <time>2021-12-12T09:47:27.000Z</time>
      </trkpt>
      <trkpt lat="47.34585" lon="-2.34925">
        <ele>18</ele>
        <time>2021-12-12T09:47:31.000Z</time>
      </trkpt>
      <trkpt lat="47.34579" lon="-2.34911">
        <ele>18</ele>
        <time>2021-12-12T09:47:38.000Z</time>
      </trkpt>
      <trkpt lat="47.34579" lon="-2.34907">
        <ele>18</ele>
        <time>2021-12-12T09:47:39.000Z</time>
      </trkpt>
      <trkpt lat="47.34583" lon="-2.34886">
        <ele>18</ele>
        <time>2021-12-12T09:47:44.000Z</time>
      </trkpt>
      <trkpt lat="47.34595" lon="-2.34853">
        <ele>18</ele>
        <time>2021-12-12T09:47:49.000Z</time>
      </trkpt>
      <trkpt lat="47.34616" lon="-2.34806">
        <ele>18</ele>
        <time>2021-12-12T09:47:55.000Z</time>
      </trkpt>
      <trkpt lat="47.34631" lon="-2.34768">
        <ele>18</ele>
        <time>2021-12-12T09:48:00.000Z</time>
      </trkpt>
      <trkpt lat="47.34633" lon="-2.3476">
        <ele>18</ele>
        <time>2021-12-12T09:48:01.000Z</time>
      </trkpt>
      <trkpt lat="47.34635" lon="-2.34734">
        <ele>18</ele>
        <time>2021-12-12T09:48:04.000Z</time>
      </trkpt>
      <trkpt lat="47.34636" lon="-2.34716">
        <ele>18</ele>
        <time>2021-12-12T09:48:06.000Z</time>
      </trkpt>
      <trkpt lat="47.34633" lon="-2.34684">
        <ele>18</ele>
        <time>2021-12-12T09:48:10.000Z</time>
      </trkpt>
      <trkpt lat="47.34631" lon="-2.34677">
        <ele>18</ele>
        <time>2021-12-12T09:48:11.000Z</time>
      </trkpt>
      <trkpt lat="47.34625" lon="-2.34635">
        <ele>18</ele>
        <time>2021-12-12T09:48:17.000Z</time>
      </trkpt>
      <trkpt lat="47.34621" lon="-2.34609">
        <ele>18.39999961853</ele>
        <time>2021-12-12T09:48:21.000Z</time>
      </trkpt>
      <trkpt lat="47.3462" lon="-2.34603">
        <ele>18.799999237061</ele>
        <time>2021-12-12T09:48:22.000Z</time>
      </trkpt>
      <trkpt lat="47.34618" lon="-2.34597">
        <ele>19.200000762939</ele>
        <time>2021-12-12T09:48:23.000Z</time>
      </trkpt>
      <trkpt lat="47.34617" lon="-2.3459">
        <ele>19.799999237061</ele>
        <time>2021-12-12T09:48:24.000Z</time>
      </trkpt>
      <trkpt lat="47.34615" lon="-2.34583">
        <ele>20.200000762939</ele>
        <time>2021-12-12T09:48:25.000Z</time>
      </trkpt>
      <trkpt lat="47.34609" lon="-2.3455">
        <ele>20.60000038147</ele>
        <time>2021-12-12T09:48:30.000Z</time>
      </trkpt>
      <trkpt lat="47.34608" lon="-2.34543">
        <ele>21</ele>
        <time>2021-12-12T09:48:31.000Z</time>
      </trkpt>
      <trkpt lat="47.34606" lon="-2.34537">
        <ele>21.39999961853</ele>
        <time>2021-12-12T09:48:32.000Z</time>
      </trkpt>
      <trkpt lat="47.34605" lon="-2.3453">
        <ele>21.799999237061</ele>
        <time>2021-12-12T09:48:33.000Z</time>
      </trkpt>
      <trkpt lat="47.34604" lon="-2.34524">
        <ele>22.200000762939</ele>
        <time>2021-12-12T09:48:34.000Z</time>
      </trkpt>
      <trkpt lat="47.34598" lon="-2.34492">
        <ele>22.200000762939</ele>
        <time>2021-12-12T09:48:39.000Z</time>
      </trkpt>
      <trkpt lat="47.34595" lon="-2.34434">
        <ele>22.200000762939</ele>
        <time>2021-12-12T09:48:47.000Z</time>
      </trkpt>
      <trkpt lat="47.34603" lon="-2.34385">
        <ele>22.200000762939</ele>
        <time>2021-12-12T09:48:54.000Z</time>
      </trkpt>
      <trkpt lat="47.34617" lon="-2.34335">
        <ele>22.200000762939</ele>
        <time>2021-12-12T09:49:01.000Z</time>
      </trkpt>
      <trkpt lat="47.34621" lon="-2.3432">
        <ele>22.200000762939</ele>
        <time>2021-12-12T09:49:03.000Z</time>
      </trkpt>
      <trkpt lat="47.34625" lon="-2.34305">
        <ele>22.200000762939</ele>
        <time>2021-12-12T09:49:05.000Z</time>
      </trkpt>
      <trkpt lat="47.34631" lon="-2.3429">
        <ele>22.200000762939</ele>
        <time>2021-12-12T09:49:07.000Z</time>
      </trkpt>
      <trkpt lat="47.34634" lon="-2.34283">
        <ele>22.200000762939</ele>
        <time>2021-12-12T09:49:08.000Z</time>
      </trkpt>
      <trkpt lat="47.3465" lon="-2.34267">
        <ele>22.200000762939</ele>
        <time>2021-12-12T09:49:11.000Z</time>
      </trkpt>
      <trkpt lat="47.34656" lon="-2.34263">
        <ele>22.200000762939</ele>
        <time>2021-12-12T09:49:12.000Z</time>
      </trkpt>
      <trkpt lat="47.34663" lon="-2.34261">
        <ele>22.200000762939</ele>
        <time>2021-12-12T09:49:13.000Z</time>
      </trkpt>
      <trkpt lat="47.34676" lon="-2.34258">
        <ele>21.799999237061</ele>
        <time>2021-12-12T09:49:15.000Z</time>
      </trkpt>
      <trkpt lat="47.34683" lon="-2.34258">
        <ele>21</ele>
        <time>2021-12-12T09:49:16.000Z</time>
      </trkpt>
      <trkpt lat="47.34689" lon="-2.34257">
        <ele>20.60000038147</ele>
        <time>2021-12-12T09:49:17.000Z</time>
      </trkpt>
      <trkpt lat="47.34695" lon="-2.34257">
        <ele>20.200000762939</ele>
        <time>2021-12-12T09:49:18.000Z</time>
      </trkpt>
      <trkpt lat="47.34708" lon="-2.34255">
        <ele>20.200000762939</ele>
        <time>2021-12-12T09:49:20.000Z</time>
      </trkpt>
      <trkpt lat="47.34713" lon="-2.34254">
        <ele>20.200000762939</ele>
        <time>2021-12-12T09:49:21.000Z</time>
      </trkpt>
      <trkpt lat="47.34746" lon="-2.34247">
        <ele>20.200000762939</ele>
        <time>2021-12-12T09:49:27.000Z</time>
      </trkpt>
      <trkpt lat="47.34773" lon="-2.34237">
        <ele>20.200000762939</ele>
        <time>2021-12-12T09:49:33.000Z</time>
      </trkpt>
      <trkpt lat="47.34777" lon="-2.34237">
        <ele>20.200000762939</ele>
        <time>2021-12-12T09:49:34.000Z</time>
      </trkpt>
      <trkpt lat="47.34793" lon="-2.34232">
        <ele>20.200000762939</ele>
        <time>2021-12-12T09:49:38.000Z</time>
      </trkpt>
      <trkpt lat="47.348" lon="-2.3423">
        <ele>20.60000038147</ele>
        <time>2021-12-12T09:49:40.000Z</time>
      </trkpt>
      <trkpt lat="47.34804" lon="-2.3423">
        <ele>21</ele>
        <time>2021-12-12T09:49:41.000Z</time>
      </trkpt>
      <trkpt lat="47.34808" lon="-2.34229">
        <ele>21.39999961853</ele>
        <time>2021-12-12T09:49:42.000Z</time>
      </trkpt>
      <trkpt lat="47.34812" lon="-2.34229">
        <ele>21.799999237061</ele>
        <time>2021-12-12T09:49:43.000Z</time>
      </trkpt>
      <trkpt lat="47.34815" lon="-2.34229">
        <ele>22.200000762939</ele>
        <time>2021-12-12T09:49:44.000Z</time>
      </trkpt>
      <trkpt lat="47.34819" lon="-2.34229">
        <ele>22.200000762939</ele>
        <time>2021-12-12T09:49:45.000Z</time>
      </trkpt>
      <trkpt lat="47.34837" lon="-2.3423">
        <ele>22.60000038147</ele>
        <time>2021-12-12T09:49:51.000Z</time>
      </trkpt>
      <trkpt lat="47.34839" lon="-2.3423">
        <ele>23.200000762939</ele>
        <time>2021-12-12T09:49:52.000Z</time>
      </trkpt>
      <trkpt lat="47.34842" lon="-2.3423">
        <ele>23.60000038147</ele>
        <time>2021-12-12T09:49:53.000Z</time>
      </trkpt>
      <trkpt lat="47.34845" lon="-2.3423">
        <ele>24</ele>
        <time>2021-12-12T09:49:54.000Z</time>
      </trkpt>
      <trkpt lat="47.34848" lon="-2.34232">
        <ele>24.39999961853</ele>
        <time>2021-12-12T09:49:55.000Z</time>
      </trkpt>
      <trkpt lat="47.3485" lon="-2.34233">
        <ele>24.39999961853</ele>
        <time>2021-12-12T09:49:56.000Z</time>
      </trkpt>
      <trkpt lat="47.34857" lon="-2.34237">
        <ele>24.799999237061</ele>
        <time>2021-12-12T09:50:00.000Z</time>
      </trkpt>
      <trkpt lat="47.34859" lon="-2.34237">
        <ele>25.200000762939</ele>
        <time>2021-12-12T09:50:01.000Z</time>
      </trkpt>
      <trkpt lat="47.3486" lon="-2.34235">
        <ele>25.60000038147</ele>
        <time>2021-12-12T09:50:02.000Z</time>
      </trkpt>
      <trkpt lat="47.34862" lon="-2.34233">
        <ele>26.200000762939</ele>
        <time>2021-12-12T09:50:03.000Z</time>
      </trkpt>
      <trkpt lat="47.34863" lon="-2.34232">
        <ele>26.60000038147</ele>
        <time>2021-12-12T09:50:04.000Z</time>
      </trkpt>
      <trkpt lat="47.34867" lon="-2.34227">
        <ele>26.60000038147</ele>
        <time>2021-12-12T09:50:07.000Z</time>
      </trkpt>
      <trkpt lat="47.34868" lon="-2.34225">
        <ele>27</ele>
        <time>2021-12-12T09:50:08.000Z</time>
      </trkpt>
      <trkpt lat="47.34869" lon="-2.34223">
        <ele>27.39999961853</ele>
        <time>2021-12-12T09:50:09.000Z</time>
      </trkpt>
      <trkpt lat="47.3487" lon="-2.34222">
        <ele>27.799999237061</ele>
        <time>2021-12-12T09:50:10.000Z</time>
      </trkpt>
      <trkpt lat="47.34872" lon="-2.34219">
        <ele>28.200000762939</ele>
        <time>2021-12-12T09:50:11.000Z</time>
      </trkpt>
      <trkpt lat="47.34874" lon="-2.34216">
        <ele>28.60000038147</ele>
        <time>2021-12-12T09:50:12.000Z</time>
      </trkpt>
      <trkpt lat="47.34876" lon="-2.34213">
        <ele>28.60000038147</ele>
        <time>2021-12-12T09:50:13.000Z</time>
      </trkpt>
      <trkpt lat="47.34879" lon="-2.34209">
        <ele>28.60000038147</ele>
        <time>2021-12-12T09:50:15.000Z</time>
      </trkpt>
      <trkpt lat="47.34882" lon="-2.3421">
        <ele>29</ele>
        <time>2021-12-12T09:50:17.000Z</time>
      </trkpt>
      <trkpt lat="47.34884" lon="-2.34209">
        <ele>29.39999961853</ele>
        <time>2021-12-12T09:50:18.000Z</time>
      </trkpt>
      <trkpt lat="47.34885" lon="-2.34209">
        <ele>29.799999237061</ele>
        <time>2021-12-12T09:50:19.000Z</time>
      </trkpt>
      <trkpt lat="47.34887" lon="-2.34208">
        <ele>30.200000762939</ele>
        <time>2021-12-12T09:50:20.000Z</time>
      </trkpt>
      <trkpt lat="47.34888" lon="-2.34207">
        <ele>30.60000038147</ele>
        <time>2021-12-12T09:50:21.000Z</time>
      </trkpt>
      <trkpt lat="47.3489" lon="-2.34206">
        <ele>30.60000038147</ele>
        <time>2021-12-12T09:50:22.000Z</time>
      </trkpt>
      <trkpt lat="47.349" lon="-2.34205">
        <ele>30.60000038147</ele>
        <time>2021-12-12T09:50:25.000Z</time>
      </trkpt>
      <trkpt lat="47.34905" lon="-2.34206">
        <ele>30.60000038147</ele>
        <time>2021-12-12T09:50:26.000Z</time>
      </trkpt>
      <trkpt lat="47.34932" lon="-2.34206">
        <ele>30.60000038147</ele>
        <time>2021-12-12T09:50:31.000Z</time>
      </trkpt>
      <trkpt lat="47.34938" lon="-2.34202">
        <ele>30.200000762939</ele>
        <time>2021-12-12T09:50:32.000Z</time>
      </trkpt>
      <trkpt lat="47.34943" lon="-2.34198">
        <ele>29.799999237061</ele>
        <time>2021-12-12T09:50:33.000Z</time>
      </trkpt>
      <trkpt lat="47.34947" lon="-2.34196">
        <ele>29.39999961853</ele>
        <time>2021-12-12T09:50:34.000Z</time>
      </trkpt>
      <trkpt lat="47.34952" lon="-2.34195">
        <ele>29</ele>
        <time>2021-12-12T09:50:35.000Z</time>
      </trkpt>
      <trkpt lat="47.34956" lon="-2.34194">
        <ele>28.60000038147</ele>
        <time>2021-12-12T09:50:36.000Z</time>
      </trkpt>
      <trkpt lat="47.3496" lon="-2.34194">
        <ele>28.200000762939</ele>
        <time>2021-12-12T09:50:37.000Z</time>
      </trkpt>
      <trkpt lat="47.34964" lon="-2.34191">
        <ele>27.799999237061</ele>
        <time>2021-12-12T09:50:38.000Z</time>
      </trkpt>
      <trkpt lat="47.34968" lon="-2.34188">
        <ele>27.39999961853</ele>
        <time>2021-12-12T09:50:39.000Z</time>
      </trkpt>
      <trkpt lat="47.34972" lon="-2.34185">
        <ele>26.799999237061</ele>
        <time>2021-12-12T09:50:40.000Z</time>
      </trkpt>
      <trkpt lat="47.34976" lon="-2.34181">
        <ele>26.39999961853</ele>
        <time>2021-12-12T09:50:41.000Z</time>
      </trkpt>
      <trkpt lat="47.34987" lon="-2.34167">
        <ele>26</ele>
        <time>2021-12-12T09:50:44.000Z</time>
      </trkpt>
      <trkpt lat="47.34989" lon="-2.3416">
        <ele>25.39999961853</ele>
        <time>2021-12-12T09:50:45.000Z</time>
      </trkpt>
      <trkpt lat="47.34992" lon="-2.34153">
        <ele>25</ele>
        <time>2021-12-12T09:50:46.000Z</time>
      </trkpt>
      <trkpt lat="47.34996" lon="-2.34146">
        <ele>24.60000038147</ele>
        <time>2021-12-12T09:50:47.000Z</time>
      </trkpt>
      <trkpt lat="47.35001" lon="-2.34141">
        <ele>24.200000762939</ele>
        <time>2021-12-12T09:50:48.000Z</time>
      </trkpt>
      <trkpt lat="47.35006" lon="-2.34136">
        <ele>24.200000762939</ele>
        <time>2021-12-12T09:50:49.000Z</time>
      </trkpt>
      <trkpt lat="47.35017" lon="-2.34128">
        <ele>24.200000762939</ele>
        <time>2021-12-12T09:50:51.000Z</time>
      </trkpt>
      <trkpt lat="47.35022" lon="-2.34127">
        <ele>23.799999237061</ele>
        <time>2021-12-12T09:50:52.000Z</time>
      </trkpt>
      <trkpt lat="47.35027" lon="-2.34126">
        <ele>23.39999961853</ele>
        <time>2021-12-12T09:50:53.000Z</time>
      </trkpt>
      <trkpt lat="47.35032" lon="-2.34126">
        <ele>22.799999237061</ele>
        <time>2021-12-12T09:50:54.000Z</time>
      </trkpt>
      <trkpt lat="47.35035" lon="-2.34125">
        <ele>22</ele>
        <time>2021-12-12T09:50:55.000Z</time>
      </trkpt>
      <trkpt lat="47.35043" lon="-2.34125">
        <ele>22</ele>
        <time>2021-12-12T09:50:57.000Z</time>
      </trkpt>
      <trkpt lat="47.35073" lon="-2.34122">
        <ele>22</ele>
        <time>2021-12-12T09:51:03.000Z</time>
      </trkpt>
      <trkpt lat="47.35109" lon="-2.34118">
        <ele>22</ele>
        <time>2021-12-12T09:51:10.000Z</time>
      </trkpt>
      <trkpt lat="47.35114" lon="-2.34116">
        <ele>22</ele>
        <time>2021-12-12T09:51:11.000Z</time>
      </trkpt>
      <trkpt lat="47.35131" lon="-2.34108">
        <ele>22</ele>
        <time>2021-12-12T09:51:15.000Z</time>
      </trkpt>
      <trkpt lat="47.35135" lon="-2.34107">
        <ele>22</ele>
        <time>2021-12-12T09:51:16.000Z</time>
      </trkpt>
      <trkpt lat="47.35139" lon="-2.34104">
        <ele>22</ele>
        <time>2021-12-12T09:51:17.000Z</time>
      </trkpt>
      <trkpt lat="47.3516" lon="-2.34098">
        <ele>22</ele>
        <time>2021-12-12T09:51:21.000Z</time>
      </trkpt>
      <trkpt lat="47.35177" lon="-2.34092">
        <ele>21.60000038147</ele>
        <time>2021-12-12T09:51:25.000Z</time>
      </trkpt>
      <trkpt lat="47.35179" lon="-2.34088">
        <ele>21.200000762939</ele>
        <time>2021-12-12T09:51:26.000Z</time>
      </trkpt>
      <trkpt lat="47.35181" lon="-2.34083">
        <ele>20.799999237061</ele>
        <time>2021-12-12T09:51:27.000Z</time>
      </trkpt>
      <trkpt lat="47.35183" lon="-2.34078">
        <ele>20.200000762939</ele>
        <time>2021-12-12T09:51:28.000Z</time>
      </trkpt>
      <trkpt lat="47.35186" lon="-2.34071">
        <ele>19.799999237061</ele>
        <time>2021-12-12T09:51:29.000Z</time>
      </trkpt>
      <trkpt lat="47.35188" lon="-2.34064">
        <ele>19.799999237061</ele>
        <time>2021-12-12T09:51:30.000Z</time>
      </trkpt>
      <trkpt lat="47.3519" lon="-2.34056">
        <ele>19.39999961853</ele>
        <time>2021-12-12T09:51:31.000Z</time>
      </trkpt>
      <trkpt lat="47.35193" lon="-2.34048">
        <ele>19</ele>
        <time>2021-12-12T09:51:32.000Z</time>
      </trkpt>
      <trkpt lat="47.35196" lon="-2.34041">
        <ele>18.39999961853</ele>
        <time>2021-12-12T09:51:33.000Z</time>
      </trkpt>
      <trkpt lat="47.35199" lon="-2.34033">
        <ele>18</ele>
        <time>2021-12-12T09:51:34.000Z</time>
      </trkpt>
      <trkpt lat="47.35202" lon="-2.34026">
        <ele>17.60000038147</ele>
        <time>2021-12-12T09:51:35.000Z</time>
      </trkpt>
      <trkpt lat="47.35206" lon="-2.34019">
        <ele>17.200000762939</ele>
        <time>2021-12-12T09:51:36.000Z</time>
      </trkpt>
      <trkpt lat="47.35209" lon="-2.34013">
        <ele>16.799999237061</ele>
        <time>2021-12-12T09:51:37.000Z</time>
      </trkpt>
      <trkpt lat="47.35214" lon="-2.34009">
        <ele>16.39999961853</ele>
        <time>2021-12-12T09:51:38.000Z</time>
      </trkpt>
      <trkpt lat="47.35219" lon="-2.34005">
        <ele>15.800000190735</ele>
        <time>2021-12-12T09:51:39.000Z</time>
      </trkpt>
      <trkpt lat="47.35223" lon="-2.34002">
        <ele>15.39999961853</ele>
        <time>2021-12-12T09:51:40.000Z</time>
      </trkpt>
      <trkpt lat="47.35234" lon="-2.33998">
        <ele>15.39999961853</ele>
        <time>2021-12-12T09:51:42.000Z</time>
      </trkpt>
      <trkpt lat="47.35247" lon="-2.33994">
        <ele>15</ele>
        <time>2021-12-12T09:51:44.000Z</time>
      </trkpt>
      <trkpt lat="47.35253" lon="-2.33991">
        <ele>14.60000038147</ele>
        <time>2021-12-12T09:51:45.000Z</time>
      </trkpt>
      <trkpt lat="47.35258" lon="-2.33987">
        <ele>14.199999809265</ele>
        <time>2021-12-12T09:51:46.000Z</time>
      </trkpt>
      <trkpt lat="47.35263" lon="-2.33983">
        <ele>13.60000038147</ele>
        <time>2021-12-12T09:51:47.000Z</time>
      </trkpt>
      <trkpt lat="47.35265" lon="-2.33978">
        <ele>13.199999809265</ele>
        <time>2021-12-12T09:51:48.000Z</time>
      </trkpt>
      <trkpt lat="47.35264" lon="-2.33973">
        <ele>13.199999809265</ele>
        <time>2021-12-12T09:51:49.000Z</time>
      </trkpt>
      <trkpt lat="47.35255" lon="-2.3397">
        <ele>13.199999809265</ele>
        <time>2021-12-12T09:51:52.000Z</time>
      </trkpt>
      <trkpt lat="47.35252" lon="-2.3397">
        <ele>13.199999809265</ele>
        <time>2021-12-12T09:51:53.000Z</time>
      </trkpt>
      <trkpt lat="47.35222" lon="-2.33966">
        <ele>13.199999809265</ele>
        <time>2021-12-12T09:51:59.000Z</time>
      </trkpt>
      <trkpt lat="47.35203" lon="-2.33963">
        <ele>13.199999809265</ele>
        <time>2021-12-12T09:52:03.000Z</time>
      </trkpt>
      <trkpt lat="47.35189" lon="-2.3396">
        <ele>13.199999809265</ele>
        <time>2021-12-12T09:52:06.000Z</time>
      </trkpt>
      <trkpt lat="47.35185" lon="-2.33959">
        <ele>13.199999809265</ele>
        <time>2021-12-12T09:52:07.000Z</time>
      </trkpt>
      <trkpt lat="47.35166" lon="-2.3395">
        <ele>13.199999809265</ele>
        <time>2021-12-12T09:52:11.000Z</time>
      </trkpt>
      <trkpt lat="47.35149" lon="-2.33939">
        <ele>13.199999809265</ele>
        <time>2021-12-12T09:52:15.000Z</time>
      </trkpt>
      <trkpt lat="47.35116" lon="-2.33906">
        <ele>13.199999809265</ele>
        <time>2021-12-12T09:52:23.000Z</time>
      </trkpt>
      <trkpt lat="47.35105" lon="-2.33893">
        <ele>13.199999809265</ele>
        <time>2021-12-12T09:52:26.000Z</time>
      </trkpt>
      <trkpt lat="47.3509" lon="-2.33876">
        <ele>13.199999809265</ele>
        <time>2021-12-12T09:52:30.000Z</time>
      </trkpt>
      <trkpt lat="47.35088" lon="-2.33864">
        <ele>13.199999809265</ele>
        <time>2021-12-12T09:52:32.000Z</time>
      </trkpt>
      <trkpt lat="47.35089" lon="-2.33852">
        <ele>13.199999809265</ele>
        <time>2021-12-12T09:52:34.000Z</time>
      </trkpt>
      <trkpt lat="47.35086" lon="-2.33848">
        <ele>13.199999809265</ele>
        <time>2021-12-12T09:52:36.000Z</time>
      </trkpt>
      <trkpt lat="47.35084" lon="-2.33848">
        <ele>13.199999809265</ele>
        <time>2021-12-12T09:52:37.000Z</time>
      </trkpt>
      <trkpt lat="47.3508" lon="-2.33852">
        <ele>13.199999809265</ele>
        <time>2021-12-12T09:52:40.000Z</time>
      </trkpt>
      <trkpt lat="47.35078" lon="-2.33853">
        <ele>13.199999809265</ele>
        <time>2021-12-12T09:52:41.000Z</time>
      </trkpt>
      <trkpt lat="47.35077" lon="-2.33853">
        <ele>13.199999809265</ele>
        <time>2021-12-12T09:52:42.000Z</time>
      </trkpt>
      <trkpt lat="47.3507" lon="-2.33847">
        <ele>13.199999809265</ele>
        <time>2021-12-12T09:52:45.000Z</time>
      </trkpt>
      <trkpt lat="47.35057" lon="-2.33834">
        <ele>13.199999809265</ele>
        <time>2021-12-12T09:52:49.000Z</time>
      </trkpt>
      <trkpt lat="47.35054" lon="-2.33831">
        <ele>13.199999809265</ele>
        <time>2021-12-12T09:52:50.000Z</time>
      </trkpt>
      <trkpt lat="47.35032" lon="-2.33808">
        <ele>13.199999809265</ele>
        <time>2021-12-12T09:52:56.000Z</time>
      </trkpt>
      <trkpt lat="47.35027" lon="-2.33805">
        <ele>13.199999809265</ele>
        <time>2021-12-12T09:52:57.000Z</time>
      </trkpt>
      <trkpt lat="47.35016" lon="-2.33795">
        <ele>13.199999809265</ele>
        <time>2021-12-12T09:53:00.000Z</time>
      </trkpt>
      <trkpt lat="47.35004" lon="-2.33783">
        <ele>13.199999809265</ele>
        <time>2021-12-12T09:53:03.000Z</time>
      </trkpt>
      <trkpt lat="47.34975" lon="-2.3376">
        <ele>12.800000190735</ele>
        <time>2021-12-12T09:53:10.000Z</time>
      </trkpt>
      <trkpt lat="47.34971" lon="-2.33757">
        <ele>12.39999961853</ele>
        <time>2021-12-12T09:53:11.000Z</time>
      </trkpt>
      <trkpt lat="47.34967" lon="-2.33755">
        <ele>12</ele>
        <time>2021-12-12T09:53:12.000Z</time>
      </trkpt>
      <trkpt lat="47.34963" lon="-2.33752">
        <ele>11.60000038147</ele>
        <time>2021-12-12T09:53:13.000Z</time>
      </trkpt>
      <trkpt lat="47.3496" lon="-2.33749">
        <ele>11.199999809265</ele>
        <time>2021-12-12T09:53:14.000Z</time>
      </trkpt>
      <trkpt lat="47.34957" lon="-2.33745">
        <ele>11.199999809265</ele>
        <time>2021-12-12T09:53:15.000Z</time>
      </trkpt>
      <trkpt lat="47.34955" lon="-2.33732">
        <ele>11.199999809265</ele>
        <time>2021-12-12T09:53:17.000Z</time>
      </trkpt>
      <trkpt lat="47.34957" lon="-2.33719">
        <ele>11.199999809265</ele>
        <time>2021-12-12T09:53:19.000Z</time>
      </trkpt>
      <trkpt lat="47.3496" lon="-2.33704">
        <ele>11.199999809265</ele>
        <time>2021-12-12T09:53:21.000Z</time>
      </trkpt>
      <trkpt lat="47.34968" lon="-2.33654">
        <ele>11.199999809265</ele>
        <time>2021-12-12T09:53:27.000Z</time>
      </trkpt>
      <trkpt lat="47.34969" lon="-2.33637">
        <ele>11.199999809265</ele>
        <time>2021-12-12T09:53:29.000Z</time>
      </trkpt>
      <trkpt lat="47.34976" lon="-2.33602">
        <ele>11.199999809265</ele>
        <time>2021-12-12T09:53:33.000Z</time>
      </trkpt>
      <trkpt lat="47.34983" lon="-2.33569">
        <ele>11.199999809265</ele>
        <time>2021-12-12T09:53:37.000Z</time>
      </trkpt>
      <trkpt lat="47.34989" lon="-2.33553">
        <ele>11.199999809265</ele>
        <time>2021-12-12T09:53:39.000Z</time>
      </trkpt>
      <trkpt lat="47.34998" lon="-2.33523">
        <ele>11.199999809265</ele>
        <time>2021-12-12T09:53:43.000Z</time>
      </trkpt>
      <trkpt lat="47.35001" lon="-2.33507">
        <ele>11.199999809265</ele>
        <time>2021-12-12T09:53:45.000Z</time>
      </trkpt>
      <trkpt lat="47.35003" lon="-2.33479">
        <ele>11.199999809265</ele>
        <time>2021-12-12T09:53:49.000Z</time>
      </trkpt>
      <trkpt lat="47.35005" lon="-2.33466">
        <ele>11.199999809265</ele>
        <time>2021-12-12T09:53:51.000Z</time>
      </trkpt>
      <trkpt lat="47.35012" lon="-2.33417">
        <ele>11.199999809265</ele>
        <time>2021-12-12T09:53:58.000Z</time>
      </trkpt>
      <trkpt lat="47.35026" lon="-2.33369">
        <ele>11.199999809265</ele>
        <time>2021-12-12T09:54:05.000Z</time>
      </trkpt>
      <trkpt lat="47.35039" lon="-2.33335">
        <ele>11.60000038147</ele>
        <time>2021-12-12T09:54:10.000Z</time>
      </trkpt>
      <trkpt lat="47.35042" lon="-2.33329">
        <ele>12</ele>
        <time>2021-12-12T09:54:11.000Z</time>
      </trkpt>
      <trkpt lat="47.35045" lon="-2.33323">
        <ele>12.800000190735</ele>
        <time>2021-12-12T09:54:12.000Z</time>
      </trkpt>
      <trkpt lat="47.35048" lon="-2.33317">
        <ele>13.199999809265</ele>
        <time>2021-12-12T09:54:13.000Z</time>
      </trkpt>
      <trkpt lat="47.35056" lon="-2.33297">
        <ele>13.199999809265</ele>
        <time>2021-12-12T09:54:16.000Z</time>
      </trkpt>
      <trkpt lat="47.35059" lon="-2.33291">
        <ele>13.199999809265</ele>
        <time>2021-12-12T09:54:17.000Z</time>
      </trkpt>
      <trkpt lat="47.35075" lon="-2.3326">
        <ele>13.199999809265</ele>
        <time>2021-12-12T09:54:22.000Z</time>
      </trkpt>
      <trkpt lat="47.35092" lon="-2.33223">
        <ele>13.199999809265</ele>
        <time>2021-12-12T09:54:28.000Z</time>
      </trkpt>
      <trkpt lat="47.35103" lon="-2.33191">
        <ele>13.199999809265</ele>
        <time>2021-12-12T09:54:33.000Z</time>
      </trkpt>
      <trkpt lat="47.35105" lon="-2.33183">
        <ele>13.199999809265</ele>
        <time>2021-12-12T09:54:34.000Z</time>
      </trkpt>
      <trkpt lat="47.35111" lon="-2.33161">
        <ele>13.199999809265</ele>
        <time>2021-12-12T09:54:37.000Z</time>
      </trkpt>
      <trkpt lat="47.35116" lon="-2.33139">
        <ele>13.199999809265</ele>
        <time>2021-12-12T09:54:40.000Z</time>
      </trkpt>
      <trkpt lat="47.3512" lon="-2.33123">
        <ele>13.199999809265</ele>
        <time>2021-12-12T09:54:42.000Z</time>
      </trkpt>
      <trkpt lat="47.35123" lon="-2.33107">
        <ele>13.199999809265</ele>
        <time>2021-12-12T09:54:44.000Z</time>
      </trkpt>
      <trkpt lat="47.35124" lon="-2.33099">
        <ele>13.199999809265</ele>
        <time>2021-12-12T09:54:45.000Z</time>
      </trkpt>
      <trkpt lat="47.35127" lon="-2.33084">
        <ele>13.199999809265</ele>
        <time>2021-12-12T09:54:47.000Z</time>
      </trkpt>
      <trkpt lat="47.3513" lon="-2.33054">
        <ele>13.199999809265</ele>
        <time>2021-12-12T09:54:51.000Z</time>
      </trkpt>
      <trkpt lat="47.35132" lon="-2.33039">
        <ele>13.199999809265</ele>
        <time>2021-12-12T09:54:53.000Z</time>
      </trkpt>
      <trkpt lat="47.35132" lon="-2.33026">
        <ele>13.199999809265</ele>
        <time>2021-12-12T09:54:55.000Z</time>
      </trkpt>
      <trkpt lat="47.35132" lon="-2.3301">
        <ele>13.199999809265</ele>
        <time>2021-12-12T09:54:57.000Z</time>
      </trkpt>
      <trkpt lat="47.35131" lon="-2.33003">
        <ele>13.800000190735</ele>
        <time>2021-12-12T09:54:58.000Z</time>
      </trkpt>
      <trkpt lat="47.35131" lon="-2.32996">
        <ele>14.39999961853</ele>
        <time>2021-12-12T09:54:59.000Z</time>
      </trkpt>
      <trkpt lat="47.35131" lon="-2.3299">
        <ele>14.800000190735</ele>
        <time>2021-12-12T09:55:00.000Z</time>
      </trkpt>
      <trkpt lat="47.35131" lon="-2.32983">
        <ele>15.39999961853</ele>
        <time>2021-12-12T09:55:01.000Z</time>
      </trkpt>
      <trkpt lat="47.35131" lon="-2.32977">
        <ele>16</ele>
        <time>2021-12-12T09:55:02.000Z</time>
      </trkpt>
      <trkpt lat="47.35131" lon="-2.32969">
        <ele>16</ele>
        <time>2021-12-12T09:55:03.000Z</time>
      </trkpt>
      <trkpt lat="47.3513" lon="-2.32924">
        <ele>16</ele>
        <time>2021-12-12T09:55:09.000Z</time>
      </trkpt>
      <trkpt lat="47.35124" lon="-2.32882">
        <ele>16</ele>
        <time>2021-12-12T09:55:14.000Z</time>
      </trkpt>
      <trkpt lat="47.35123" lon="-2.32873">
        <ele>16</ele>
        <time>2021-12-12T09:55:15.000Z</time>
      </trkpt>
      <trkpt lat="47.35125" lon="-2.32818">
        <ele>16</ele>
        <time>2021-12-12T09:55:22.000Z</time>
      </trkpt>
      <trkpt lat="47.35125" lon="-2.32799">
        <ele>16</ele>
        <time>2021-12-12T09:55:26.000Z</time>
      </trkpt>
      <trkpt lat="47.35124" lon="-2.32797">
        <ele>16</ele>
        <time>2021-12-12T09:55:27.000Z</time>
      </trkpt>
      <trkpt lat="47.35122" lon="-2.32791">
        <ele>16</ele>
        <time>2021-12-12T09:55:30.000Z</time>
      </trkpt>
      <trkpt lat="47.35122" lon="-2.32789">
        <ele>16</ele>
        <time>2021-12-12T09:55:31.000Z</time>
      </trkpt>
      <trkpt lat="47.35125" lon="-2.32783">
        <ele>16</ele>
        <time>2021-12-12T09:55:35.000Z</time>
      </trkpt>
      <trkpt lat="47.35127" lon="-2.32771">
        <ele>16</ele>
        <time>2021-12-12T09:55:41.000Z</time>
      </trkpt>
      <trkpt lat="47.35128" lon="-2.32764">
        <ele>13.800000190735</ele>
        <time>2021-12-12T09:56:02.000Z</time>
      </trkpt>
      <trkpt lat="47.3513" lon="-2.32755">
        <ele>13.800000190735</ele>
        <time>2021-12-12T09:56:05.000Z</time>
      </trkpt>
      <trkpt lat="47.35132" lon="-2.32728">
        <ele>13.800000190735</ele>
        <time>2021-12-12T09:56:11.000Z</time>
      </trkpt>
      <trkpt lat="47.3514" lon="-2.32698">
        <ele>13.800000190735</ele>
        <time>2021-12-12T09:56:17.000Z</time>
      </trkpt>
      <trkpt lat="47.35149" lon="-2.32673">
        <ele>13.800000190735</ele>
        <time>2021-12-12T09:56:23.000Z</time>
      </trkpt>
      <trkpt lat="47.35154" lon="-2.32659">
        <ele>13.39999961853</ele>
        <time>2021-12-12T09:56:27.000Z</time>
      </trkpt>
      <trkpt lat="47.35155" lon="-2.32656">
        <ele>13</ele>
        <time>2021-12-12T09:56:28.000Z</time>
      </trkpt>
      <trkpt lat="47.35156" lon="-2.32653">
        <ele>12.60000038147</ele>
        <time>2021-12-12T09:56:29.000Z</time>
      </trkpt>
      <trkpt lat="47.35156" lon="-2.3265">
        <ele>12.199999809265</ele>
        <time>2021-12-12T09:56:30.000Z</time>
      </trkpt>
      <trkpt lat="47.35157" lon="-2.32648">
        <ele>11.800000190735</ele>
        <time>2021-12-12T09:56:31.000Z</time>
      </trkpt>
      <trkpt lat="47.35159" lon="-2.32643">
        <ele>11.800000190735</ele>
        <time>2021-12-12T09:56:33.000Z</time>
      </trkpt>
      <trkpt lat="47.35159" lon="-2.32641">
        <ele>11.800000190735</ele>
        <time>2021-12-12T09:56:37.000Z</time>
      </trkpt>
      <trkpt lat="47.3516" lon="-2.32631">
        <ele>11.800000190735</ele>
        <time>2021-12-12T09:56:40.000Z</time>
      </trkpt>
      <trkpt lat="47.35163" lon="-2.32622">
        <ele>11.800000190735</ele>
        <time>2021-12-12T09:56:42.000Z</time>
      </trkpt>
      <trkpt lat="47.35169" lon="-2.32599">
        <ele>11.800000190735</ele>
        <time>2021-12-12T09:56:48.000Z</time>
      </trkpt>
      <trkpt lat="47.35176" lon="-2.32573">
        <ele>11.800000190735</ele>
        <time>2021-12-12T09:56:54.000Z</time>
      </trkpt>
      <trkpt lat="47.35183" lon="-2.32548">
        <ele>11.800000190735</ele>
        <time>2021-12-12T09:57:01.000Z</time>
      </trkpt>
      <trkpt lat="47.35191" lon="-2.32524">
        <ele>11.800000190735</ele>
        <time>2021-12-12T09:57:07.000Z</time>
      </trkpt>
      <trkpt lat="47.352" lon="-2.32493">
        <ele>11.39999961853</ele>
        <time>2021-12-12T09:57:14.000Z</time>
      </trkpt>
      <trkpt lat="47.35201" lon="-2.32489">
        <ele>11</ele>
        <time>2021-12-12T09:57:15.000Z</time>
      </trkpt>
      <trkpt lat="47.35203" lon="-2.32484">
        <ele>10.60000038147</ele>
        <time>2021-12-12T09:57:16.000Z</time>
      </trkpt>
      <trkpt lat="47.35205" lon="-2.3248">
        <ele>10.199999809265</ele>
        <time>2021-12-12T09:57:17.000Z</time>
      </trkpt>
      <trkpt lat="47.35206" lon="-2.32476">
        <ele>9.8000001907349</ele>
        <time>2021-12-12T09:57:18.000Z</time>
      </trkpt>
      <trkpt lat="47.35208" lon="-2.32467">
        <ele>9.8000001907349</ele>
        <time>2021-12-12T09:57:20.000Z</time>
      </trkpt>
      <trkpt lat="47.35217" lon="-2.32438">
        <ele>9.8000001907349</ele>
        <time>2021-12-12T09:57:28.000Z</time>
      </trkpt>
      <trkpt lat="47.3522" lon="-2.32424">
        <ele>9.8000001907349</ele>
        <time>2021-12-12T09:57:34.000Z</time>
      </trkpt>
      <trkpt lat="47.35221" lon="-2.32423">
        <ele>9.8000001907349</ele>
        <time>2021-12-12T09:57:35.000Z</time>
      </trkpt>
      <trkpt lat="47.35218" lon="-2.32438">
        <ele>9.8000001907349</ele>
        <time>2021-12-12T09:58:41.000Z</time>
      </trkpt>
      <trkpt lat="47.35217" lon="-2.32442">
        <ele>9.8000001907349</ele>
        <time>2021-12-12T09:58:43.000Z</time>
      </trkpt>
      <trkpt lat="47.35212" lon="-2.3245">
        <ele>9.8000001907349</ele>
        <time>2021-12-12T09:58:48.000Z</time>
      </trkpt>
      <trkpt lat="47.35207" lon="-2.32466">
        <ele>9.8000001907349</ele>
        <time>2021-12-12T09:58:55.000Z</time>
      </trkpt>
      <trkpt lat="47.35202" lon="-2.32484">
        <ele>9.8000001907349</ele>
        <time>2021-12-12T09:59:02.000Z</time>
      </trkpt>
      <trkpt lat="47.35197" lon="-2.32499">
        <ele>9.8000001907349</ele>
        <time>2021-12-12T09:59:08.000Z</time>
      </trkpt>
      <trkpt lat="47.35191" lon="-2.32519">
        <ele>9.8000001907349</ele>
        <time>2021-12-12T09:59:14.000Z</time>
      </trkpt>
      <trkpt lat="47.35185" lon="-2.3254">
        <ele>9.8000001907349</ele>
        <time>2021-12-12T09:59:20.000Z</time>
      </trkpt>
      <trkpt lat="47.35179" lon="-2.32564">
        <ele>9.8000001907349</ele>
        <time>2021-12-12T09:59:27.000Z</time>
      </trkpt>
      <trkpt lat="47.35169" lon="-2.32586">
        <ele>10.199999809265</ele>
        <time>2021-12-12T09:59:32.000Z</time>
      </trkpt>
      <trkpt lat="47.35168" lon="-2.3259">
        <ele>10.60000038147</ele>
        <time>2021-12-12T09:59:33.000Z</time>
      </trkpt>
      <trkpt lat="47.35166" lon="-2.32594">
        <ele>11.39999961853</ele>
        <time>2021-12-12T09:59:34.000Z</time>
      </trkpt>
      <trkpt lat="47.35165" lon="-2.32599">
        <ele>11.800000190735</ele>
        <time>2021-12-12T09:59:35.000Z</time>
      </trkpt>
      <trkpt lat="47.3516" lon="-2.32618">
        <ele>11.800000190735</ele>
        <time>2021-12-12T09:59:40.000Z</time>
      </trkpt>
      <trkpt lat="47.35159" lon="-2.32631">
        <ele>11.800000190735</ele>
        <time>2021-12-12T09:59:46.000Z</time>
      </trkpt>
      <trkpt lat="47.35154" lon="-2.32643">
        <ele>11.800000190735</ele>
        <time>2021-12-12T09:59:52.000Z</time>
      </trkpt>
      <trkpt lat="47.3515" lon="-2.32657">
        <ele>11.800000190735</ele>
        <time>2021-12-12T09:59:58.000Z</time>
      </trkpt>
      <trkpt lat="47.35143" lon="-2.32683">
        <ele>11.800000190735</ele>
        <time>2021-12-12T10:00:04.000Z</time>
      </trkpt>
      <trkpt lat="47.35137" lon="-2.32714">
        <ele>12.199999809265</ele>
        <time>2021-12-12T10:00:11.000Z</time>
      </trkpt>
      <trkpt lat="47.35136" lon="-2.32719">
        <ele>12.60000038147</ele>
        <time>2021-12-12T10:00:12.000Z</time>
      </trkpt>
      <trkpt lat="47.35135" lon="-2.32724">
        <ele>13</ele>
        <time>2021-12-12T10:00:13.000Z</time>
      </trkpt>
      <trkpt lat="47.35134" lon="-2.32728">
        <ele>13.60000038147</ele>
        <time>2021-12-12T10:00:14.000Z</time>
      </trkpt>
      <trkpt lat="47.35134" lon="-2.32733">
        <ele>14</ele>
        <time>2021-12-12T10:00:15.000Z</time>
      </trkpt>
      <trkpt lat="47.3513" lon="-2.32754">
        <ele>14</ele>
        <time>2021-12-12T10:00:20.000Z</time>
      </trkpt>
      <trkpt lat="47.35125" lon="-2.32779">
        <ele>14</ele>
        <time>2021-12-12T10:00:26.000Z</time>
      </trkpt>
      <trkpt lat="47.35123" lon="-2.32793">
        <ele>14.39999961853</ele>
        <time>2021-12-12T10:00:29.000Z</time>
      </trkpt>
      <trkpt lat="47.35122" lon="-2.32797">
        <ele>14.800000190735</ele>
        <time>2021-12-12T10:00:30.000Z</time>
      </trkpt>
      <trkpt lat="47.35122" lon="-2.32802">
        <ele>15.199999809265</ele>
        <time>2021-12-12T10:00:31.000Z</time>
      </trkpt>
      <trkpt lat="47.35121" lon="-2.32806">
        <ele>15.60000038147</ele>
        <time>2021-12-12T10:00:32.000Z</time>
      </trkpt>
      <trkpt lat="47.3512" lon="-2.32811">
        <ele>16</ele>
        <time>2021-12-12T10:00:33.000Z</time>
      </trkpt>
      <trkpt lat="47.35118" lon="-2.32846">
        <ele>16</ele>
        <time>2021-12-12T10:00:40.000Z</time>
      </trkpt>
      <trkpt lat="47.35119" lon="-2.32872">
        <ele>16.39999961853</ele>
        <time>2021-12-12T10:00:46.000Z</time>
      </trkpt>
      <trkpt lat="47.3512" lon="-2.32877">
        <ele>16.799999237061</ele>
        <time>2021-12-12T10:00:47.000Z</time>
      </trkpt>
      <trkpt lat="47.3512" lon="-2.32882">
        <ele>17.60000038147</ele>
        <time>2021-12-12T10:00:48.000Z</time>
      </trkpt>
      <trkpt lat="47.35121" lon="-2.32888">
        <ele>18</ele>
        <time>2021-12-12T10:00:49.000Z</time>
      </trkpt>
      <trkpt lat="47.35127" lon="-2.32909">
        <ele>18</ele>
        <time>2021-12-12T10:00:53.000Z</time>
      </trkpt>
      <trkpt lat="47.35129" lon="-2.32914">
        <ele>18</ele>
        <time>2021-12-12T10:00:54.000Z</time>
      </trkpt>
      <trkpt lat="47.3513" lon="-2.32927">
        <ele>18</ele>
        <time>2021-12-12T10:00:56.000Z</time>
      </trkpt>
      <trkpt lat="47.35132" lon="-2.32947">
        <ele>18</ele>
        <time>2021-12-12T10:00:59.000Z</time>
      </trkpt>
      <trkpt lat="47.35136" lon="-2.32976">
        <ele>18</ele>
        <time>2021-12-12T10:01:03.000Z</time>
      </trkpt>
      <trkpt lat="47.35138" lon="-2.32991">
        <ele>18</ele>
        <time>2021-12-12T10:01:05.000Z</time>
      </trkpt>
      <trkpt lat="47.35139" lon="-2.33005">
        <ele>18</ele>
        <time>2021-12-12T10:01:07.000Z</time>
      </trkpt>
      <trkpt lat="47.35138" lon="-2.33027">
        <ele>18</ele>
        <time>2021-12-12T10:01:10.000Z</time>
      </trkpt>
      <trkpt lat="47.35136" lon="-2.33075">
        <ele>18</ele>
        <time>2021-12-12T10:01:16.000Z</time>
      </trkpt>
      <trkpt lat="47.35134" lon="-2.33083">
        <ele>17.60000038147</ele>
        <time>2021-12-12T10:01:17.000Z</time>
      </trkpt>
      <trkpt lat="47.35132" lon="-2.3309">
        <ele>17.200000762939</ele>
        <time>2021-12-12T10:01:18.000Z</time>
      </trkpt>
      <trkpt lat="47.3513" lon="-2.33097">
        <ele>16.799999237061</ele>
        <time>2021-12-12T10:01:19.000Z</time>
      </trkpt>
      <trkpt lat="47.35128" lon="-2.33105">
        <ele>16.39999961853</ele>
        <time>2021-12-12T10:01:20.000Z</time>
      </trkpt>
      <trkpt lat="47.35127" lon="-2.33113">
        <ele>16</ele>
        <time>2021-12-12T10:01:21.000Z</time>
      </trkpt>
      <trkpt lat="47.35113" lon="-2.33164">
        <ele>16</ele>
        <time>2021-12-12T10:01:28.000Z</time>
      </trkpt>
      <trkpt lat="47.35095" lon="-2.33213">
        <ele>16</ele>
        <time>2021-12-12T10:01:35.000Z</time>
      </trkpt>
      <trkpt lat="47.35087" lon="-2.33233">
        <ele>16</ele>
        <time>2021-12-12T10:01:38.000Z</time>
      </trkpt>
      <trkpt lat="47.35082" lon="-2.33247">
        <ele>16</ele>
        <time>2021-12-12T10:01:40.000Z</time>
      </trkpt>
      <trkpt lat="47.35079" lon="-2.33255">
        <ele>16</ele>
        <time>2021-12-12T10:01:41.000Z</time>
      </trkpt>
      <trkpt lat="47.35054" lon="-2.33307">
        <ele>16</ele>
        <time>2021-12-12T10:01:48.000Z</time>
      </trkpt>
      <trkpt lat="47.35034" lon="-2.33353">
        <ele>16</ele>
        <time>2021-12-12T10:01:54.000Z</time>
      </trkpt>
      <trkpt lat="47.35014" lon="-2.33412">
        <ele>16</ele>
        <time>2021-12-12T10:02:01.000Z</time>
      </trkpt>
      <trkpt lat="47.35012" lon="-2.3342">
        <ele>16</ele>
        <time>2021-12-12T10:02:02.000Z</time>
      </trkpt>
      <trkpt lat="47.35007" lon="-2.33455">
        <ele>16</ele>
        <time>2021-12-12T10:02:06.000Z</time>
      </trkpt>
      <trkpt lat="47.35006" lon="-2.33464">
        <ele>15.60000038147</ele>
        <time>2021-12-12T10:02:07.000Z</time>
      </trkpt>
      <trkpt lat="47.35005" lon="-2.33472">
        <ele>15.199999809265</ele>
        <time>2021-12-12T10:02:08.000Z</time>
      </trkpt>
      <trkpt lat="47.35005" lon="-2.3348">
        <ele>14.800000190735</ele>
        <time>2021-12-12T10:02:09.000Z</time>
      </trkpt>
      <trkpt lat="47.35004" lon="-2.33488">
        <ele>14.39999961853</ele>
        <time>2021-12-12T10:02:10.000Z</time>
      </trkpt>
      <trkpt lat="47.35004" lon="-2.33495">
        <ele>14</ele>
        <time>2021-12-12T10:02:11.000Z</time>
      </trkpt>
      <trkpt lat="47.35004" lon="-2.33501">
        <ele>14</ele>
        <time>2021-12-12T10:02:12.000Z</time>
      </trkpt>
      <trkpt lat="47.35008" lon="-2.33512">
        <ele>13.60000038147</ele>
        <time>2021-12-12T10:02:15.000Z</time>
      </trkpt>
      <trkpt lat="47.35009" lon="-2.33512">
        <ele>13</ele>
        <time>2021-12-12T10:02:16.000Z</time>
      </trkpt>
      <trkpt lat="47.35012" lon="-2.33511">
        <ele>12.60000038147</ele>
        <time>2021-12-12T10:02:17.000Z</time>
      </trkpt>
      <trkpt lat="47.35015" lon="-2.33509">
        <ele>12.199999809265</ele>
        <time>2021-12-12T10:02:18.000Z</time>
      </trkpt>
      <trkpt lat="47.35017" lon="-2.33506">
        <ele>11.800000190735</ele>
        <time>2021-12-12T10:02:19.000Z</time>
      </trkpt>
      <trkpt lat="47.35023" lon="-2.33498">
        <ele>11.800000190735</ele>
        <time>2021-12-12T10:02:21.000Z</time>
      </trkpt>
      <trkpt lat="47.35027" lon="-2.33493">
        <ele>11.800000190735</ele>
        <time>2021-12-12T10:02:22.000Z</time>
      </trkpt>
      <trkpt lat="47.3505" lon="-2.33454">
        <ele>11.800000190735</ele>
        <time>2021-12-12T10:02:29.000Z</time>
      </trkpt>
      <trkpt lat="47.35052" lon="-2.33448">
        <ele>11.800000190735</ele>
        <time>2021-12-12T10:02:30.000Z</time>
      </trkpt>
      <trkpt lat="47.35064" lon="-2.33426">
        <ele>11.800000190735</ele>
        <time>2021-12-12T10:02:34.000Z</time>
      </trkpt>
      <trkpt lat="47.3508" lon="-2.33385">
        <ele>11.800000190735</ele>
        <time>2021-12-12T10:02:41.000Z</time>
      </trkpt>
      <trkpt lat="47.35096" lon="-2.33346">
        <ele>11.800000190735</ele>
        <time>2021-12-12T10:02:48.000Z</time>
      </trkpt>
      <trkpt lat="47.35113" lon="-2.33309">
        <ele>12.199999809265</ele>
        <time>2021-12-12T10:02:54.000Z</time>
      </trkpt>
      <trkpt lat="47.35116" lon="-2.33303">
        <ele>12.60000038147</ele>
        <time>2021-12-12T10:02:55.000Z</time>
      </trkpt>
      <trkpt lat="47.35119" lon="-2.33297">
        <ele>13</ele>
        <time>2021-12-12T10:02:56.000Z</time>
      </trkpt>
      <trkpt lat="47.35123" lon="-2.33291">
        <ele>13.39999961853</ele>
        <time>2021-12-12T10:02:57.000Z</time>
      </trkpt>
      <trkpt lat="47.35126" lon="-2.33286">
        <ele>13.800000190735</ele>
        <time>2021-12-12T10:02:58.000Z</time>
      </trkpt>
      <trkpt lat="47.35137" lon="-2.3327">
        <ele>13.800000190735</ele>
        <time>2021-12-12T10:03:01.000Z</time>
      </trkpt>
      <trkpt lat="47.35163" lon="-2.33227">
        <ele>13.800000190735</ele>
        <time>2021-12-12T10:03:08.000Z</time>
      </trkpt>
      <trkpt lat="47.35193" lon="-2.33189">
        <ele>13.800000190735</ele>
        <time>2021-12-12T10:03:14.000Z</time>
      </trkpt>
      <trkpt lat="47.35226" lon="-2.33151">
        <ele>13.800000190735</ele>
        <time>2021-12-12T10:03:20.000Z</time>
      </trkpt>
      <trkpt lat="47.35255" lon="-2.33119">
        <ele>13.800000190735</ele>
        <time>2021-12-12T10:03:26.000Z</time>
      </trkpt>
      <trkpt lat="47.35289" lon="-2.33077">
        <ele>13.800000190735</ele>
        <time>2021-12-12T10:03:34.000Z</time>
      </trkpt>
      <trkpt lat="47.35296" lon="-2.33062">
        <ele>13.800000190735</ele>
        <time>2021-12-12T10:03:36.000Z</time>
      </trkpt>
      <trkpt lat="47.35303" lon="-2.33037">
        <ele>13.800000190735</ele>
        <time>2021-12-12T10:03:39.000Z</time>
      </trkpt>
      <trkpt lat="47.35305" lon="-2.33028">
        <ele>13.800000190735</ele>
        <time>2021-12-12T10:03:40.000Z</time>
      </trkpt>
      <trkpt lat="47.35307" lon="-2.32997">
        <ele>13.800000190735</ele>
        <time>2021-12-12T10:03:44.000Z</time>
      </trkpt>
      <trkpt lat="47.35308" lon="-2.32977">
        <ele>13.800000190735</ele>
        <time>2021-12-12T10:03:48.000Z</time>
      </trkpt>
      <trkpt lat="47.35313" lon="-2.3295">
        <ele>13.800000190735</ele>
        <time>2021-12-12T10:03:53.000Z</time>
      </trkpt>
      <trkpt lat="47.35313" lon="-2.32943">
        <ele>13.800000190735</ele>
        <time>2021-12-12T10:03:54.000Z</time>
      </trkpt>
      <trkpt lat="47.35318" lon="-2.32917">
        <ele>13.800000190735</ele>
        <time>2021-12-12T10:03:58.000Z</time>
      </trkpt>
      <trkpt lat="47.3532" lon="-2.3291">
        <ele>13.800000190735</ele>
        <time>2021-12-12T10:03:59.000Z</time>
      </trkpt>
      <trkpt lat="47.35333" lon="-2.32879">
        <ele>13.800000190735</ele>
        <time>2021-12-12T10:04:04.000Z</time>
      </trkpt>
      <trkpt lat="47.35347" lon="-2.3285">
        <ele>13.800000190735</ele>
        <time>2021-12-12T10:04:09.000Z</time>
      </trkpt>
      <trkpt lat="47.35354" lon="-2.3284">
        <ele>13.800000190735</ele>
        <time>2021-12-12T10:04:11.000Z</time>
      </trkpt>
      <trkpt lat="47.35362" lon="-2.32828">
        <ele>13.800000190735</ele>
        <time>2021-12-12T10:04:13.000Z</time>
      </trkpt>
      <trkpt lat="47.35378" lon="-2.32808">
        <ele>13.800000190735</ele>
        <time>2021-12-12T10:04:16.000Z</time>
      </trkpt>
      <trkpt lat="47.35409" lon="-2.32766">
        <ele>13.800000190735</ele>
        <time>2021-12-12T10:04:22.000Z</time>
      </trkpt>
      <trkpt lat="47.35428" lon="-2.32724">
        <ele>13.800000190735</ele>
        <time>2021-12-12T10:04:28.000Z</time>
      </trkpt>
      <trkpt lat="47.35444" lon="-2.32673">
        <ele>13.800000190735</ele>
        <time>2021-12-12T10:04:34.000Z</time>
      </trkpt>
      <trkpt lat="47.35462" lon="-2.32602">
        <ele>13.800000190735</ele>
        <time>2021-12-12T10:04:41.000Z</time>
      </trkpt>
      <trkpt lat="47.35483" lon="-2.32539">
        <ele>13.800000190735</ele>
        <time>2021-12-12T10:04:47.000Z</time>
      </trkpt>
      <trkpt lat="47.35495" lon="-2.3251">
        <ele>13.39999961853</ele>
        <time>2021-12-12T10:04:50.000Z</time>
      </trkpt>
      <trkpt lat="47.35499" lon="-2.32501">
        <ele>13</ele>
        <time>2021-12-12T10:04:51.000Z</time>
      </trkpt>
      <trkpt lat="47.35503" lon="-2.32493">
        <ele>12.60000038147</ele>
        <time>2021-12-12T10:04:52.000Z</time>
      </trkpt>
      <trkpt lat="47.35507" lon="-2.32483">
        <ele>12.199999809265</ele>
        <time>2021-12-12T10:04:53.000Z</time>
      </trkpt>
      <trkpt lat="47.35511" lon="-2.32474">
        <ele>11.60000038147</ele>
        <time>2021-12-12T10:04:54.000Z</time>
      </trkpt>
      <trkpt lat="47.3554" lon="-2.3242">
        <ele>11.60000038147</ele>
        <time>2021-12-12T10:05:00.000Z</time>
      </trkpt>
      <trkpt lat="47.35563" lon="-2.32368">
        <ele>11.60000038147</ele>
        <time>2021-12-12T10:05:06.000Z</time>
      </trkpt>
      <trkpt lat="47.35597" lon="-2.32313">
        <ele>11.199999809265</ele>
        <time>2021-12-12T10:05:13.000Z</time>
      </trkpt>
      <trkpt lat="47.35603" lon="-2.32306">
        <ele>10.800000190735</ele>
        <time>2021-12-12T10:05:14.000Z</time>
      </trkpt>
      <trkpt lat="47.35609" lon="-2.32298">
        <ele>10.39999961853</ele>
        <time>2021-12-12T10:05:15.000Z</time>
      </trkpt>
      <trkpt lat="47.35614" lon="-2.32289">
        <ele>10</ele>
        <time>2021-12-12T10:05:16.000Z</time>
      </trkpt>
      <trkpt lat="47.3562" lon="-2.32281">
        <ele>9.6000003814697</ele>
        <time>2021-12-12T10:05:17.000Z</time>
      </trkpt>
      <trkpt lat="47.35635" lon="-2.32255">
        <ele>9.6000003814697</ele>
        <time>2021-12-12T10:05:20.000Z</time>
      </trkpt>
      <trkpt lat="47.35667" lon="-2.32197">
        <ele>9.6000003814697</ele>
        <time>2021-12-12T10:05:27.000Z</time>
      </trkpt>
      <trkpt lat="47.3569" lon="-2.32149">
        <ele>9.6000003814697</ele>
        <time>2021-12-12T10:05:33.000Z</time>
      </trkpt>
      <trkpt lat="47.3572" lon="-2.32102">
        <ele>9.6000003814697</ele>
        <time>2021-12-12T10:05:39.000Z</time>
      </trkpt>
      <trkpt lat="47.35748" lon="-2.32051">
        <ele>9.6000003814697</ele>
        <time>2021-12-12T10:05:45.000Z</time>
      </trkpt>
      <trkpt lat="47.35786" lon="-2.31983">
        <ele>9.6000003814697</ele>
        <time>2021-12-12T10:05:53.000Z</time>
      </trkpt>
      <trkpt lat="47.35791" lon="-2.31974">
        <ele>9.6000003814697</ele>
        <time>2021-12-12T10:05:54.000Z</time>
      </trkpt>
      <trkpt lat="47.35826" lon="-2.31918">
        <ele>9.6000003814697</ele>
        <time>2021-12-12T10:06:01.000Z</time>
      </trkpt>
      <trkpt lat="47.35862" lon="-2.31854">
        <ele>9.6000003814697</ele>
        <time>2021-12-12T10:06:09.000Z</time>
      </trkpt>
      <trkpt lat="47.35867" lon="-2.31846">
        <ele>9.6000003814697</ele>
        <time>2021-12-12T10:06:10.000Z</time>
      </trkpt>
      <trkpt lat="47.35901" lon="-2.31783">
        <ele>9.6000003814697</ele>
        <time>2021-12-12T10:06:18.000Z</time>
      </trkpt>
      <trkpt lat="47.35926" lon="-2.3174">
        <ele>9.6000003814697</ele>
        <time>2021-12-12T10:06:24.000Z</time>
      </trkpt>
      <trkpt lat="47.35951" lon="-2.31694">
        <ele>9.6000003814697</ele>
        <time>2021-12-12T10:06:31.000Z</time>
      </trkpt>
      <trkpt lat="47.35974" lon="-2.31651">
        <ele>9.6000003814697</ele>
        <time>2021-12-12T10:06:37.000Z</time>
      </trkpt>
      <trkpt lat="47.36007" lon="-2.31596">
        <ele>9.6000003814697</ele>
        <time>2021-12-12T10:06:45.000Z</time>
      </trkpt>
      <trkpt lat="47.36036" lon="-2.31545">
        <ele>9.6000003814697</ele>
        <time>2021-12-12T10:06:53.000Z</time>
      </trkpt>
      <trkpt lat="47.36054" lon="-2.31513">
        <ele>9.6000003814697</ele>
        <time>2021-12-12T10:06:59.000Z</time>
      </trkpt>
      <trkpt lat="47.3606" lon="-2.31502">
        <ele>9.6000003814697</ele>
        <time>2021-12-12T10:07:01.000Z</time>
      </trkpt>
      <trkpt lat="47.36064" lon="-2.31489">
        <ele>9.6000003814697</ele>
        <time>2021-12-12T10:07:03.000Z</time>
      </trkpt>
      <trkpt lat="47.36066" lon="-2.31482">
        <ele>9.6000003814697</ele>
        <time>2021-12-12T10:07:04.000Z</time>
      </trkpt>
      <trkpt lat="47.36068" lon="-2.31467">
        <ele>9.6000003814697</ele>
        <time>2021-12-12T10:07:06.000Z</time>
      </trkpt>
      <trkpt lat="47.36068" lon="-2.31451">
        <ele>9.6000003814697</ele>
        <time>2021-12-12T10:07:08.000Z</time>
      </trkpt>
      <trkpt lat="47.3606" lon="-2.31395">
        <ele>9.6000003814697</ele>
        <time>2021-12-12T10:07:15.000Z</time>
      </trkpt>
      <trkpt lat="47.36058" lon="-2.31372">
        <ele>9.6000003814697</ele>
        <time>2021-12-12T10:07:18.000Z</time>
      </trkpt>
      <trkpt lat="47.3606" lon="-2.3135">
        <ele>9.6000003814697</ele>
        <time>2021-12-12T10:07:21.000Z</time>
      </trkpt>
      <trkpt lat="47.36073" lon="-2.31341">
        <ele>9.6000003814697</ele>
        <time>2021-12-12T10:07:24.000Z</time>
      </trkpt>
      <trkpt lat="47.3609" lon="-2.31332">
        <ele>9.6000003814697</ele>
        <time>2021-12-12T10:07:28.000Z</time>
      </trkpt>
      <trkpt lat="47.36093" lon="-2.31314">
        <ele>9.6000003814697</ele>
        <time>2021-12-12T10:07:31.000Z</time>
      </trkpt>
      <trkpt lat="47.36093" lon="-2.31301">
        <ele>9.6000003814697</ele>
        <time>2021-12-12T10:07:33.000Z</time>
      </trkpt>
      <trkpt lat="47.36094" lon="-2.31289">
        <ele>9.1999998092651</ele>
        <time>2021-12-12T10:07:35.000Z</time>
      </trkpt>
      <trkpt lat="47.36094" lon="-2.31283">
        <ele>8.8000001907349</ele>
        <time>2021-12-12T10:07:36.000Z</time>
      </trkpt>
      <trkpt lat="47.36094" lon="-2.31277">
        <ele>8.3999996185303</ele>
        <time>2021-12-12T10:07:37.000Z</time>
      </trkpt>
      <trkpt lat="47.36094" lon="-2.31271">
        <ele>8</ele>
        <time>2021-12-12T10:07:38.000Z</time>
      </trkpt>
      <trkpt lat="47.36094" lon="-2.31266">
        <ele>7.5999999046326</ele>
        <time>2021-12-12T10:07:39.000Z</time>
      </trkpt>
      <trkpt lat="47.36092" lon="-2.31246">
        <ele>7.5999999046326</ele>
        <time>2021-12-12T10:07:44.000Z</time>
      </trkpt>
      <trkpt lat="47.36085" lon="-2.31234">
        <ele>7.5999999046326</ele>
        <time>2021-12-12T10:07:50.000Z</time>
      </trkpt>
      <trkpt lat="47.36084" lon="-2.31232">
        <ele>7.5999999046326</ele>
        <time>2021-12-12T10:07:51.000Z</time>
      </trkpt>
      <trkpt lat="47.36084" lon="-2.31225">
        <ele>7.5999999046326</ele>
        <time>2021-12-12T10:07:54.000Z</time>
      </trkpt>
      <trkpt lat="47.36084" lon="-2.31225">
        <ele>7.5999999046326</ele>
        <time>2021-12-12T10:07:56.000Z</time>
      </trkpt>
      <trkpt lat="47.36091" lon="-2.31239">
        <ele>7.5999999046326</ele>
        <time>2021-12-12T10:20:27.000Z</time>
      </trkpt>
      <trkpt lat="47.36092" lon="-2.3124">
        <ele>7.5999999046326</ele>
        <time>2021-12-12T10:20:28.000Z</time>
      </trkpt>
      <trkpt lat="47.36092" lon="-2.31254">
        <ele>7.5999999046326</ele>
        <time>2021-12-12T10:20:33.000Z</time>
      </trkpt>
      <trkpt lat="47.36093" lon="-2.31258">
        <ele>7.5999999046326</ele>
        <time>2021-12-12T10:20:34.000Z</time>
      </trkpt>
      <trkpt lat="47.36093" lon="-2.31288">
        <ele>7.5999999046326</ele>
        <time>2021-12-12T10:20:41.000Z</time>
      </trkpt>
      <trkpt lat="47.36092" lon="-2.31324">
        <ele>7.5999999046326</ele>
        <time>2021-12-12T10:20:50.000Z</time>
      </trkpt>
      <trkpt lat="47.36099" lon="-2.31345">
        <ele>7.5999999046326</ele>
        <time>2021-12-12T10:20:55.000Z</time>
      </trkpt>
      <trkpt lat="47.36102" lon="-2.31349">
        <ele>7.5999999046326</ele>
        <time>2021-12-12T10:20:56.000Z</time>
      </trkpt>
      <trkpt lat="47.36116" lon="-2.31369">
        <ele>7.5999999046326</ele>
        <time>2021-12-12T10:21:01.000Z</time>
      </trkpt>
      <trkpt lat="47.36122" lon="-2.31378">
        <ele>7.5999999046326</ele>
        <time>2021-12-12T10:21:03.000Z</time>
      </trkpt>
      <trkpt lat="47.36134" lon="-2.31396">
        <ele>7.5999999046326</ele>
        <time>2021-12-12T10:21:07.000Z</time>
      </trkpt>
      <trkpt lat="47.36146" lon="-2.31416">
        <ele>7.5999999046326</ele>
        <time>2021-12-12T10:21:11.000Z</time>
      </trkpt>
      <trkpt lat="47.36152" lon="-2.31426">
        <ele>7.5999999046326</ele>
        <time>2021-12-12T10:21:13.000Z</time>
      </trkpt>
      <trkpt lat="47.36154" lon="-2.31431">
        <ele>7.5999999046326</ele>
        <time>2021-12-12T10:21:14.000Z</time>
      </trkpt>
      <trkpt lat="47.36175" lon="-2.31478">
        <ele>7.5999999046326</ele>
        <time>2021-12-12T10:21:22.000Z</time>
      </trkpt>
      <trkpt lat="47.36177" lon="-2.31485">
        <ele>7.5999999046326</ele>
        <time>2021-12-12T10:21:23.000Z</time>
      </trkpt>
      <trkpt lat="47.36181" lon="-2.31514">
        <ele>7.5999999046326</ele>
        <time>2021-12-12T10:21:27.000Z</time>
      </trkpt>
      <trkpt lat="47.36186" lon="-2.3155">
        <ele>7.5999999046326</ele>
        <time>2021-12-12T10:21:32.000Z</time>
      </trkpt>
      <trkpt lat="47.36188" lon="-2.31564">
        <ele>7.5999999046326</ele>
        <time>2021-12-12T10:21:34.000Z</time>
      </trkpt>
      <trkpt lat="47.36194" lon="-2.31612">
        <ele>7.5999999046326</ele>
        <time>2021-12-12T10:21:41.000Z</time>
      </trkpt>
      <trkpt lat="47.36199" lon="-2.31656">
        <ele>7.5999999046326</ele>
        <time>2021-12-12T10:21:47.000Z</time>
      </trkpt>
      <trkpt lat="47.36201" lon="-2.31677">
        <ele>7.5999999046326</ele>
        <time>2021-12-12T10:21:50.000Z</time>
      </trkpt>
      <trkpt lat="47.36204" lon="-2.31696">
        <ele>7.5999999046326</ele>
        <time>2021-12-12T10:21:53.000Z</time>
      </trkpt>
      <trkpt lat="47.36211" lon="-2.3174">
        <ele>7.5999999046326</ele>
        <time>2021-12-12T10:21:59.000Z</time>
      </trkpt>
      <trkpt lat="47.36212" lon="-2.31754">
        <ele>7.5999999046326</ele>
        <time>2021-12-12T10:22:01.000Z</time>
      </trkpt>
      <trkpt lat="47.36214" lon="-2.3177">
        <ele>7.5999999046326</ele>
        <time>2021-12-12T10:22:03.000Z</time>
      </trkpt>
      <trkpt lat="47.36215" lon="-2.31778">
        <ele>7.5999999046326</ele>
        <time>2021-12-12T10:22:04.000Z</time>
      </trkpt>
      <trkpt lat="47.36222" lon="-2.31821">
        <ele>7.5999999046326</ele>
        <time>2021-12-12T10:22:10.000Z</time>
      </trkpt>
      <trkpt lat="47.36232" lon="-2.31884">
        <ele>7.5999999046326</ele>
        <time>2021-12-12T10:22:19.000Z</time>
      </trkpt>
      <trkpt lat="47.36235" lon="-2.31904">
        <ele>7.5999999046326</ele>
        <time>2021-12-12T10:22:22.000Z</time>
      </trkpt>
      <trkpt lat="47.36237" lon="-2.31924">
        <ele>7.5999999046326</ele>
        <time>2021-12-12T10:22:25.000Z</time>
      </trkpt>
      <trkpt lat="47.3624" lon="-2.31937">
        <ele>8</ele>
        <time>2021-12-12T10:22:27.000Z</time>
      </trkpt>
      <trkpt lat="47.36241" lon="-2.31944">
        <ele>8.3999996185303</ele>
        <time>2021-12-12T10:22:28.000Z</time>
      </trkpt>
      <trkpt lat="47.36241" lon="-2.31951">
        <ele>8.8000001907349</ele>
        <time>2021-12-12T10:22:29.000Z</time>
      </trkpt>
      <trkpt lat="47.36241" lon="-2.31958">
        <ele>9.1999998092651</ele>
        <time>2021-12-12T10:22:30.000Z</time>
      </trkpt>
      <trkpt lat="47.36241" lon="-2.31964">
        <ele>9.6000003814697</ele>
        <time>2021-12-12T10:22:31.000Z</time>
      </trkpt>
      <trkpt lat="47.36247" lon="-2.3201">
        <ele>9.6000003814697</ele>
        <time>2021-12-12T10:22:38.000Z</time>
      </trkpt>
      <trkpt lat="47.36252" lon="-2.32052">
        <ele>9.6000003814697</ele>
        <time>2021-12-12T10:22:44.000Z</time>
      </trkpt>
      <trkpt lat="47.36255" lon="-2.32066">
        <ele>9.6000003814697</ele>
        <time>2021-12-12T10:22:46.000Z</time>
      </trkpt>
      <trkpt lat="47.36261" lon="-2.3211">
        <ele>10</ele>
        <time>2021-12-12T10:22:52.000Z</time>
      </trkpt>
      <trkpt lat="47.36262" lon="-2.32118">
        <ele>10.39999961853</ele>
        <time>2021-12-12T10:22:53.000Z</time>
      </trkpt>
      <trkpt lat="47.36263" lon="-2.32124">
        <ele>10.800000190735</ele>
        <time>2021-12-12T10:22:54.000Z</time>
      </trkpt>
      <trkpt lat="47.36264" lon="-2.32131">
        <ele>11.199999809265</ele>
        <time>2021-12-12T10:22:55.000Z</time>
      </trkpt>
      <trkpt lat="47.36265" lon="-2.32138">
        <ele>11.60000038147</ele>
        <time>2021-12-12T10:22:56.000Z</time>
      </trkpt>
      <trkpt lat="47.36268" lon="-2.3216">
        <ele>11.60000038147</ele>
        <time>2021-12-12T10:22:59.000Z</time>
      </trkpt>
      <trkpt lat="47.36273" lon="-2.32221">
        <ele>11.60000038147</ele>
        <time>2021-12-12T10:23:07.000Z</time>
      </trkpt>
      <trkpt lat="47.36275" lon="-2.32229">
        <ele>11.60000038147</ele>
        <time>2021-12-12T10:23:08.000Z</time>
      </trkpt>
      <trkpt lat="47.36281" lon="-2.32262">
        <ele>11.60000038147</ele>
        <time>2021-12-12T10:23:12.000Z</time>
      </trkpt>
      <trkpt lat="47.36289" lon="-2.32315">
        <ele>11.60000038147</ele>
        <time>2021-12-12T10:23:19.000Z</time>
      </trkpt>
      <trkpt lat="47.36293" lon="-2.32354">
        <ele>11.60000038147</ele>
        <time>2021-12-12T10:23:25.000Z</time>
      </trkpt>
      <trkpt lat="47.36299" lon="-2.32393">
        <ele>11.60000038147</ele>
        <time>2021-12-12T10:23:31.000Z</time>
      </trkpt>
      <trkpt lat="47.36302" lon="-2.32421">
        <ele>11.60000038147</ele>
        <time>2021-12-12T10:23:36.000Z</time>
      </trkpt>
      <trkpt lat="47.36308" lon="-2.32463">
        <ele>11.60000038147</ele>
        <time>2021-12-12T10:23:43.000Z</time>
      </trkpt>
      <trkpt lat="47.36315" lon="-2.32501">
        <ele>11.60000038147</ele>
        <time>2021-12-12T10:23:49.000Z</time>
      </trkpt>
      <trkpt lat="47.36315" lon="-2.32507">
        <ele>11.60000038147</ele>
        <time>2021-12-12T10:23:50.000Z</time>
      </trkpt>
      <trkpt lat="47.36317" lon="-2.32519">
        <ele>12.60000038147</ele>
        <time>2021-12-12T10:23:52.000Z</time>
      </trkpt>
      <trkpt lat="47.36317" lon="-2.32525">
        <ele>13</ele>
        <time>2021-12-12T10:23:53.000Z</time>
      </trkpt>
      <trkpt lat="47.36318" lon="-2.32531">
        <ele>13.39999961853</ele>
        <time>2021-12-12T10:23:54.000Z</time>
      </trkpt>
      <trkpt lat="47.36318" lon="-2.32538">
        <ele>13.800000190735</ele>
        <time>2021-12-12T10:23:55.000Z</time>
      </trkpt>
      <trkpt lat="47.36319" lon="-2.32551">
        <ele>13.800000190735</ele>
        <time>2021-12-12T10:23:57.000Z</time>
      </trkpt>
      <trkpt lat="47.36323" lon="-2.32578">
        <ele>13.800000190735</ele>
        <time>2021-12-12T10:24:01.000Z</time>
      </trkpt>
      <trkpt lat="47.36325" lon="-2.32593">
        <ele>13.800000190735</ele>
        <time>2021-12-12T10:24:03.000Z</time>
      </trkpt>
      <trkpt lat="47.36333" lon="-2.32636">
        <ele>13.800000190735</ele>
        <time>2021-12-12T10:24:09.000Z</time>
      </trkpt>
      <trkpt lat="47.36335" lon="-2.32643">
        <ele>13.800000190735</ele>
        <time>2021-12-12T10:24:10.000Z</time>
      </trkpt>
      <trkpt lat="47.36337" lon="-2.32651">
        <ele>13.800000190735</ele>
        <time>2021-12-12T10:24:11.000Z</time>
      </trkpt>
      <trkpt lat="47.36341" lon="-2.32682">
        <ele>13.800000190735</ele>
        <time>2021-12-12T10:24:15.000Z</time>
      </trkpt>
      <trkpt lat="47.36342" lon="-2.3269">
        <ele>14.199999809265</ele>
        <time>2021-12-12T10:24:16.000Z</time>
      </trkpt>
      <trkpt lat="47.36343" lon="-2.32698">
        <ele>15</ele>
        <time>2021-12-12T10:24:17.000Z</time>
      </trkpt>
      <trkpt lat="47.36344" lon="-2.32705">
        <ele>15.39999961853</ele>
        <time>2021-12-12T10:24:18.000Z</time>
      </trkpt>
      <trkpt lat="47.36346" lon="-2.32713">
        <ele>15.800000190735</ele>
        <time>2021-12-12T10:24:19.000Z</time>
      </trkpt>
      <trkpt lat="47.36353" lon="-2.32744">
        <ele>15.800000190735</ele>
        <time>2021-12-12T10:24:23.000Z</time>
      </trkpt>
      <trkpt lat="47.36362" lon="-2.32799">
        <ele>15.800000190735</ele>
        <time>2021-12-12T10:24:30.000Z</time>
      </trkpt>
      <trkpt lat="47.36367" lon="-2.32856">
        <ele>15.800000190735</ele>
        <time>2021-12-12T10:24:37.000Z</time>
      </trkpt>
      <trkpt lat="47.36369" lon="-2.32871">
        <ele>16.200000762939</ele>
        <time>2021-12-12T10:24:39.000Z</time>
      </trkpt>
      <trkpt lat="47.3637" lon="-2.32879">
        <ele>16.60000038147</ele>
        <time>2021-12-12T10:24:40.000Z</time>
      </trkpt>
      <trkpt lat="47.36371" lon="-2.32886">
        <ele>17</ele>
        <time>2021-12-12T10:24:41.000Z</time>
      </trkpt>
      <trkpt lat="47.36372" lon="-2.32894">
        <ele>17.799999237061</ele>
        <time>2021-12-12T10:24:42.000Z</time>
      </trkpt>
      <trkpt lat="47.36375" lon="-2.32925">
        <ele>17.799999237061</ele>
        <time>2021-12-12T10:24:46.000Z</time>
      </trkpt>
      <trkpt lat="47.36381" lon="-2.32977">
        <ele>17.799999237061</ele>
        <time>2021-12-12T10:24:53.000Z</time>
      </trkpt>
      <trkpt lat="47.36384" lon="-2.33042">
        <ele>17.799999237061</ele>
        <time>2021-12-12T10:25:01.000Z</time>
      </trkpt>
      <trkpt lat="47.36383" lon="-2.33106">
        <ele>17.799999237061</ele>
        <time>2021-12-12T10:25:09.000Z</time>
      </trkpt>
      <trkpt lat="47.36381" lon="-2.33163">
        <ele>17.799999237061</ele>
        <time>2021-12-12T10:25:16.000Z</time>
      </trkpt>
      <trkpt lat="47.36381" lon="-2.33242">
        <ele>17.799999237061</ele>
        <time>2021-12-12T10:25:25.000Z</time>
      </trkpt>
      <trkpt lat="47.36381" lon="-2.33321">
        <ele>17.799999237061</ele>
        <time>2021-12-12T10:25:34.000Z</time>
      </trkpt>
      <trkpt lat="47.36382" lon="-2.33328">
        <ele>17.799999237061</ele>
        <time>2021-12-12T10:25:35.000Z</time>
      </trkpt>
      <trkpt lat="47.36386" lon="-2.33345">
        <ele>17.799999237061</ele>
        <time>2021-12-12T10:25:38.000Z</time>
      </trkpt>
      <trkpt lat="47.36389" lon="-2.33351">
        <ele>17.799999237061</ele>
        <time>2021-12-12T10:25:42.000Z</time>
      </trkpt>
      <trkpt lat="47.36389" lon="-2.33357">
        <ele>17.799999237061</ele>
        <time>2021-12-12T10:25:51.000Z</time>
      </trkpt>
      <trkpt lat="47.36387" lon="-2.33364">
        <ele>17.799999237061</ele>
        <time>2021-12-12T10:25:53.000Z</time>
      </trkpt>
      <trkpt lat="47.36381" lon="-2.33386">
        <ele>17.799999237061</ele>
        <time>2021-12-12T10:25:57.000Z</time>
      </trkpt>
      <trkpt lat="47.36381" lon="-2.33392">
        <ele>17.799999237061</ele>
        <time>2021-12-12T10:25:58.000Z</time>
      </trkpt>
      <trkpt lat="47.36377" lon="-2.33442">
        <ele>17.799999237061</ele>
        <time>2021-12-12T10:26:05.000Z</time>
      </trkpt>
      <trkpt lat="47.36375" lon="-2.33493">
        <ele>17.799999237061</ele>
        <time>2021-12-12T10:26:12.000Z</time>
      </trkpt>
      <trkpt lat="47.36371" lon="-2.33543">
        <ele>17.799999237061</ele>
        <time>2021-12-12T10:26:19.000Z</time>
      </trkpt>
      <trkpt lat="47.3637" lon="-2.3355">
        <ele>17.799999237061</ele>
        <time>2021-12-12T10:26:20.000Z</time>
      </trkpt>
      <trkpt lat="47.36368" lon="-2.33599">
        <ele>17.799999237061</ele>
        <time>2021-12-12T10:26:27.000Z</time>
      </trkpt>
      <trkpt lat="47.36368" lon="-2.33607">
        <ele>17.799999237061</ele>
        <time>2021-12-12T10:26:28.000Z</time>
      </trkpt>
      <trkpt lat="47.36366" lon="-2.33629">
        <ele>18.200000762939</ele>
        <time>2021-12-12T10:26:31.000Z</time>
      </trkpt>
      <trkpt lat="47.36366" lon="-2.33636">
        <ele>18.60000038147</ele>
        <time>2021-12-12T10:26:32.000Z</time>
      </trkpt>
      <trkpt lat="47.36366" lon="-2.33643">
        <ele>19</ele>
        <time>2021-12-12T10:26:33.000Z</time>
      </trkpt>
      <trkpt lat="47.36365" lon="-2.3365">
        <ele>19.60000038147</ele>
        <time>2021-12-12T10:26:34.000Z</time>
      </trkpt>
      <trkpt lat="47.36365" lon="-2.33658">
        <ele>20</ele>
        <time>2021-12-12T10:26:35.000Z</time>
      </trkpt>
      <trkpt lat="47.36367" lon="-2.33711">
        <ele>20</ele>
        <time>2021-12-12T10:26:42.000Z</time>
      </trkpt>
      <trkpt lat="47.36368" lon="-2.33727">
        <ele>20</ele>
        <time>2021-12-12T10:26:44.000Z</time>
      </trkpt>
      <trkpt lat="47.3637" lon="-2.33772">
        <ele>20.39999961853</ele>
        <time>2021-12-12T10:26:50.000Z</time>
      </trkpt>
      <trkpt lat="47.3637" lon="-2.3378">
        <ele>20.799999237061</ele>
        <time>2021-12-12T10:26:51.000Z</time>
      </trkpt>
      <trkpt lat="47.36371" lon="-2.33787">
        <ele>21.200000762939</ele>
        <time>2021-12-12T10:26:52.000Z</time>
      </trkpt>
      <trkpt lat="47.36371" lon="-2.33795">
        <ele>21.60000038147</ele>
        <time>2021-12-12T10:26:53.000Z</time>
      </trkpt>
      <trkpt lat="47.36372" lon="-2.33802">
        <ele>22</ele>
        <time>2021-12-12T10:26:54.000Z</time>
      </trkpt>
      <trkpt lat="47.36372" lon="-2.33818">
        <ele>22</ele>
        <time>2021-12-12T10:26:56.000Z</time>
      </trkpt>
      <trkpt lat="47.36374" lon="-2.33852">
        <ele>22</ele>
        <time>2021-12-12T10:27:00.000Z</time>
      </trkpt>
      <trkpt lat="47.36374" lon="-2.33921">
        <ele>22</ele>
        <time>2021-12-12T10:27:08.000Z</time>
      </trkpt>
      <trkpt lat="47.3637" lon="-2.34004">
        <ele>22</ele>
        <time>2021-12-12T10:27:17.000Z</time>
      </trkpt>
      <trkpt lat="47.36368" lon="-2.34023">
        <ele>22</ele>
        <time>2021-12-12T10:27:19.000Z</time>
      </trkpt>
      <trkpt lat="47.36362" lon="-2.34094">
        <ele>22</ele>
        <time>2021-12-12T10:27:27.000Z</time>
      </trkpt>
      <trkpt lat="47.36357" lon="-2.34155">
        <ele>22</ele>
        <time>2021-12-12T10:27:34.000Z</time>
      </trkpt>
      <trkpt lat="47.36353" lon="-2.34199">
        <ele>22</ele>
        <time>2021-12-12T10:27:39.000Z</time>
      </trkpt>
      <trkpt lat="47.36348" lon="-2.34284">
        <ele>22</ele>
        <time>2021-12-12T10:27:48.000Z</time>
      </trkpt>
      <trkpt lat="47.36346" lon="-2.34305">
        <ele>22</ele>
        <time>2021-12-12T10:27:50.000Z</time>
      </trkpt>
      <trkpt lat="47.36344" lon="-2.34335">
        <ele>21.60000038147</ele>
        <time>2021-12-12T10:27:53.000Z</time>
      </trkpt>
      <trkpt lat="47.36344" lon="-2.34346">
        <ele>21.200000762939</ele>
        <time>2021-12-12T10:27:54.000Z</time>
      </trkpt>
      <trkpt lat="47.36343" lon="-2.34356">
        <ele>20.799999237061</ele>
        <time>2021-12-12T10:27:55.000Z</time>
      </trkpt>
      <trkpt lat="47.36342" lon="-2.34366">
        <ele>20.39999961853</ele>
        <time>2021-12-12T10:27:56.000Z</time>
      </trkpt>
      <trkpt lat="47.36341" lon="-2.34376">
        <ele>20</ele>
        <time>2021-12-12T10:27:57.000Z</time>
      </trkpt>
      <trkpt lat="47.3634" lon="-2.34395">
        <ele>20</ele>
        <time>2021-12-12T10:27:59.000Z</time>
      </trkpt>
      <trkpt lat="47.3634" lon="-2.34454">
        <ele>20</ele>
        <time>2021-12-12T10:28:05.000Z</time>
      </trkpt>
      <trkpt lat="47.3634" lon="-2.34463">
        <ele>20</ele>
        <time>2021-12-12T10:28:06.000Z</time>
      </trkpt>
      <trkpt lat="47.3634" lon="-2.34518">
        <ele>20</ele>
        <time>2021-12-12T10:28:12.000Z</time>
      </trkpt>
      <trkpt lat="47.36341" lon="-2.34558">
        <ele>20</ele>
        <time>2021-12-12T10:28:17.000Z</time>
      </trkpt>
      <trkpt lat="47.36342" lon="-2.34566">
        <ele>20</ele>
        <time>2021-12-12T10:28:18.000Z</time>
      </trkpt>
      <trkpt lat="47.36348" lon="-2.3462">
        <ele>20</ele>
        <time>2021-12-12T10:28:25.000Z</time>
      </trkpt>
      <trkpt lat="47.36357" lon="-2.34671">
        <ele>20</ele>
        <time>2021-12-12T10:28:31.000Z</time>
      </trkpt>
      <trkpt lat="47.36359" lon="-2.34699">
        <ele>20</ele>
        <time>2021-12-12T10:28:34.000Z</time>
      </trkpt>
      <trkpt lat="47.36357" lon="-2.34718">
        <ele>20</ele>
        <time>2021-12-12T10:28:36.000Z</time>
      </trkpt>
      <trkpt lat="47.3635" lon="-2.34747">
        <ele>20</ele>
        <time>2021-12-12T10:28:39.000Z</time>
      </trkpt>
      <trkpt lat="47.36342" lon="-2.34765">
        <ele>20</ele>
        <time>2021-12-12T10:28:41.000Z</time>
      </trkpt>
      <trkpt lat="47.36317" lon="-2.34814">
        <ele>20</ele>
        <time>2021-12-12T10:28:47.000Z</time>
      </trkpt>
      <trkpt lat="47.36301" lon="-2.34847">
        <ele>20</ele>
        <time>2021-12-12T10:28:51.000Z</time>
      </trkpt>
      <trkpt lat="47.36295" lon="-2.34865">
        <ele>20</ele>
        <time>2021-12-12T10:28:53.000Z</time>
      </trkpt>
      <trkpt lat="47.36288" lon="-2.3489">
        <ele>20</ele>
        <time>2021-12-12T10:28:56.000Z</time>
      </trkpt>
      <trkpt lat="47.36282" lon="-2.34906">
        <ele>20</ele>
        <time>2021-12-12T10:28:58.000Z</time>
      </trkpt>
      <trkpt lat="47.36268" lon="-2.34937">
        <ele>19.39999961853</ele>
        <time>2021-12-12T10:29:02.000Z</time>
      </trkpt>
      <trkpt lat="47.36264" lon="-2.34945">
        <ele>19</ele>
        <time>2021-12-12T10:29:03.000Z</time>
      </trkpt>
      <trkpt lat="47.36261" lon="-2.34952">
        <ele>18.60000038147</ele>
        <time>2021-12-12T10:29:04.000Z</time>
      </trkpt>
      <trkpt lat="47.36257" lon="-2.3496">
        <ele>18.200000762939</ele>
        <time>2021-12-12T10:29:05.000Z</time>
      </trkpt>
      <trkpt lat="47.36254" lon="-2.34968">
        <ele>17.799999237061</ele>
        <time>2021-12-12T10:29:06.000Z</time>
      </trkpt>
      <trkpt lat="47.36241" lon="-2.34999">
        <ele>17.799999237061</ele>
        <time>2021-12-12T10:29:10.000Z</time>
      </trkpt>
      <trkpt lat="47.36218" lon="-2.35042">
        <ele>17.799999237061</ele>
        <time>2021-12-12T10:29:16.000Z</time>
      </trkpt>
      <trkpt lat="47.36213" lon="-2.35048">
        <ele>17.799999237061</ele>
        <time>2021-12-12T10:29:17.000Z</time>
      </trkpt>
      <trkpt lat="47.36199" lon="-2.35065">
        <ele>17.799999237061</ele>
        <time>2021-12-12T10:29:20.000Z</time>
      </trkpt>
      <trkpt lat="47.36195" lon="-2.35069">
        <ele>17.799999237061</ele>
        <time>2021-12-12T10:29:21.000Z</time>
      </trkpt>
      <trkpt lat="47.36166" lon="-2.351">
        <ele>17.799999237061</ele>
        <time>2021-12-12T10:29:27.000Z</time>
      </trkpt>
      <trkpt lat="47.36131" lon="-2.35137">
        <ele>17.799999237061</ele>
        <time>2021-12-12T10:29:34.000Z</time>
      </trkpt>
      <trkpt lat="47.36102" lon="-2.35175">
        <ele>17.799999237061</ele>
        <time>2021-12-12T10:29:41.000Z</time>
      </trkpt>
      <trkpt lat="47.36077" lon="-2.35209">
        <ele>17.799999237061</ele>
        <time>2021-12-12T10:29:47.000Z</time>
      </trkpt>
      <trkpt lat="47.36041" lon="-2.35257">
        <ele>17.799999237061</ele>
        <time>2021-12-12T10:29:55.000Z</time>
      </trkpt>
      <trkpt lat="47.36009" lon="-2.35296">
        <ele>17.799999237061</ele>
        <time>2021-12-12T10:30:02.000Z</time>
      </trkpt>
      <trkpt lat="47.35972" lon="-2.35346">
        <ele>17.799999237061</ele>
        <time>2021-12-12T10:30:10.000Z</time>
      </trkpt>
      <trkpt lat="47.35944" lon="-2.35386">
        <ele>17.799999237061</ele>
        <time>2021-12-12T10:30:17.000Z</time>
      </trkpt>
      <trkpt lat="47.3593" lon="-2.35403">
        <ele>17.799999237061</ele>
        <time>2021-12-12T10:30:20.000Z</time>
      </trkpt>
      <trkpt lat="47.3592" lon="-2.3541">
        <ele>17.799999237061</ele>
        <time>2021-12-12T10:30:22.000Z</time>
      </trkpt>
      <trkpt lat="47.35898" lon="-2.35426">
        <ele>17.799999237061</ele>
        <time>2021-12-12T10:30:26.000Z</time>
      </trkpt>
      <trkpt lat="47.35887" lon="-2.35433">
        <ele>17.799999237061</ele>
        <time>2021-12-12T10:30:28.000Z</time>
      </trkpt>
      <trkpt lat="47.35857" lon="-2.35456">
        <ele>17.799999237061</ele>
        <time>2021-12-12T10:30:34.000Z</time>
      </trkpt>
      <trkpt lat="47.35824" lon="-2.35473">
        <ele>17.799999237061</ele>
        <time>2021-12-12T10:30:40.000Z</time>
      </trkpt>
      <trkpt lat="47.35786" lon="-2.35492">
        <ele>17.799999237061</ele>
        <time>2021-12-12T10:30:47.000Z</time>
      </trkpt>
      <trkpt lat="47.3575" lon="-2.35507">
        <ele>17.799999237061</ele>
        <time>2021-12-12T10:30:54.000Z</time>
      </trkpt>
      <trkpt lat="47.35712" lon="-2.35525">
        <ele>17.799999237061</ele>
        <time>2021-12-12T10:31:01.000Z</time>
      </trkpt>
      <trkpt lat="47.35672" lon="-2.35545">
        <ele>17.799999237061</ele>
        <time>2021-12-12T10:31:08.000Z</time>
      </trkpt>
      <trkpt lat="47.35666" lon="-2.35549">
        <ele>17.799999237061</ele>
        <time>2021-12-12T10:31:09.000Z</time>
      </trkpt>
      <trkpt lat="47.35645" lon="-2.35567">
        <ele>17.799999237061</ele>
        <time>2021-12-12T10:31:13.000Z</time>
      </trkpt>
      <trkpt lat="47.35616" lon="-2.35594">
        <ele>17.799999237061</ele>
        <time>2021-12-12T10:31:19.000Z</time>
      </trkpt>
      <trkpt lat="47.35603" lon="-2.3561">
        <ele>18.200000762939</ele>
        <time>2021-12-12T10:31:22.000Z</time>
      </trkpt>
      <trkpt lat="47.35599" lon="-2.35615">
        <ele>18.799999237061</ele>
        <time>2021-12-12T10:31:23.000Z</time>
      </trkpt>
      <trkpt lat="47.35595" lon="-2.3562">
        <ele>19.200000762939</ele>
        <time>2021-12-12T10:31:24.000Z</time>
      </trkpt>
      <trkpt lat="47.3559" lon="-2.35625">
        <ele>19.60000038147</ele>
        <time>2021-12-12T10:31:25.000Z</time>
      </trkpt>
      <trkpt lat="47.35586" lon="-2.35629">
        <ele>20</ele>
        <time>2021-12-12T10:31:26.000Z</time>
      </trkpt>
      <trkpt lat="47.35563" lon="-2.3565">
        <ele>20</ele>
        <time>2021-12-12T10:31:31.000Z</time>
      </trkpt>
      <trkpt lat="47.35531" lon="-2.35678">
        <ele>20.39999961853</ele>
        <time>2021-12-12T10:31:38.000Z</time>
      </trkpt>
      <trkpt lat="47.35527" lon="-2.35682">
        <ele>20.799999237061</ele>
        <time>2021-12-12T10:31:39.000Z</time>
      </trkpt>
      <trkpt lat="47.35522" lon="-2.35687">
        <ele>21.200000762939</ele>
        <time>2021-12-12T10:31:40.000Z</time>
      </trkpt>
      <trkpt lat="47.35519" lon="-2.35691">
        <ele>21.60000038147</ele>
        <time>2021-12-12T10:31:41.000Z</time>
      </trkpt>
      <trkpt lat="47.35515" lon="-2.35695">
        <ele>22</ele>
        <time>2021-12-12T10:31:42.000Z</time>
      </trkpt>
      <trkpt lat="47.35495" lon="-2.3572">
        <ele>22</ele>
        <time>2021-12-12T10:31:47.000Z</time>
      </trkpt>
      <trkpt lat="47.35474" lon="-2.35754">
        <ele>22</ele>
        <time>2021-12-12T10:31:53.000Z</time>
      </trkpt>
      <trkpt lat="47.35452" lon="-2.35785">
        <ele>22</ele>
        <time>2021-12-12T10:31:59.000Z</time>
      </trkpt>
      <trkpt lat="47.35438" lon="-2.35806">
        <ele>22</ele>
        <time>2021-12-12T10:32:03.000Z</time>
      </trkpt>
      <trkpt lat="47.3543" lon="-2.35816">
        <ele>22</ele>
        <time>2021-12-12T10:32:05.000Z</time>
      </trkpt>
      <trkpt lat="47.35409" lon="-2.35847">
        <ele>22</ele>
        <time>2021-12-12T10:32:10.000Z</time>
      </trkpt>
      <trkpt lat="47.35401" lon="-2.35859">
        <ele>22</ele>
        <time>2021-12-12T10:32:12.000Z</time>
      </trkpt>
      <trkpt lat="47.35372" lon="-2.35891">
        <ele>22</ele>
        <time>2021-12-12T10:32:18.000Z</time>
      </trkpt>
      <trkpt lat="47.35341" lon="-2.35928">
        <ele>22</ele>
        <time>2021-12-12T10:32:24.000Z</time>
      </trkpt>
      <trkpt lat="47.35315" lon="-2.35983">
        <ele>22</ele>
        <time>2021-12-12T10:32:31.000Z</time>
      </trkpt>
      <trkpt lat="47.35289" lon="-2.36028">
        <ele>22</ele>
        <time>2021-12-12T10:32:37.000Z</time>
      </trkpt>
      <trkpt lat="47.35273" lon="-2.36042">
        <ele>22</ele>
        <time>2021-12-12T10:32:40.000Z</time>
      </trkpt>
      <trkpt lat="47.35258" lon="-2.36055">
        <ele>22</ele>
        <time>2021-12-12T10:32:43.000Z</time>
      </trkpt>
      <trkpt lat="47.35248" lon="-2.36063">
        <ele>22</ele>
        <time>2021-12-12T10:32:45.000Z</time>
      </trkpt>
      <trkpt lat="47.35212" lon="-2.36095">
        <ele>22</ele>
        <time>2021-12-12T10:32:52.000Z</time>
      </trkpt>
      <trkpt lat="47.35174" lon="-2.36124">
        <ele>22</ele>
        <time>2021-12-12T10:32:59.000Z</time>
      </trkpt>
      <trkpt lat="47.35159" lon="-2.36136">
        <ele>22</ele>
        <time>2021-12-12T10:33:02.000Z</time>
      </trkpt>
      <trkpt lat="47.35145" lon="-2.36147">
        <ele>22</ele>
        <time>2021-12-12T10:33:05.000Z</time>
      </trkpt>
      <trkpt lat="47.35115" lon="-2.36167">
        <ele>22</ele>
        <time>2021-12-12T10:33:12.000Z</time>
      </trkpt>
      <trkpt lat="47.35097" lon="-2.36173">
        <ele>22</ele>
        <time>2021-12-12T10:33:18.000Z</time>
      </trkpt>
      <trkpt lat="47.35081" lon="-2.36179">
        <ele>22</ele>
        <time>2021-12-12T10:33:23.000Z</time>
      </trkpt>
      <trkpt lat="47.35073" lon="-2.36181">
        <ele>22</ele>
        <time>2021-12-12T10:33:25.000Z</time>
      </trkpt>
      <trkpt lat="47.35064" lon="-2.36181">
        <ele>22</ele>
        <time>2021-12-12T10:33:27.000Z</time>
      </trkpt>
      <trkpt lat="47.35054" lon="-2.3618">
        <ele>22</ele>
        <time>2021-12-12T10:33:29.000Z</time>
      </trkpt>
      <trkpt lat="47.35031" lon="-2.36173">
        <ele>22</ele>
        <time>2021-12-12T10:33:34.000Z</time>
      </trkpt>
      <trkpt lat="47.35021" lon="-2.36171">
        <ele>22.39999961853</ele>
        <time>2021-12-12T10:33:36.000Z</time>
      </trkpt>
      <trkpt lat="47.35016" lon="-2.3617">
        <ele>22.799999237061</ele>
        <time>2021-12-12T10:33:37.000Z</time>
      </trkpt>
      <trkpt lat="47.35011" lon="-2.3617">
        <ele>23.200000762939</ele>
        <time>2021-12-12T10:33:38.000Z</time>
      </trkpt>
      <trkpt lat="47.35005" lon="-2.36171">
        <ele>23.60000038147</ele>
        <time>2021-12-12T10:33:39.000Z</time>
      </trkpt>
      <trkpt lat="47.35" lon="-2.36172">
        <ele>24</ele>
        <time>2021-12-12T10:33:40.000Z</time>
      </trkpt>
      <trkpt lat="47.34984" lon="-2.3618">
        <ele>24</ele>
        <time>2021-12-12T10:33:43.000Z</time>
      </trkpt>
      <trkpt lat="47.3498" lon="-2.36183">
        <ele>24</ele>
        <time>2021-12-12T10:33:44.000Z</time>
      </trkpt>
      <trkpt lat="47.34955" lon="-2.36211">
        <ele>24.39999961853</ele>
        <time>2021-12-12T10:33:50.000Z</time>
      </trkpt>
      <trkpt lat="47.34951" lon="-2.36216">
        <ele>24.799999237061</ele>
        <time>2021-12-12T10:33:51.000Z</time>
      </trkpt>
      <trkpt lat="47.34947" lon="-2.3622">
        <ele>25.200000762939</ele>
        <time>2021-12-12T10:33:52.000Z</time>
      </trkpt>
      <trkpt lat="47.34943" lon="-2.36225">
        <ele>25.60000038147</ele>
        <time>2021-12-12T10:33:53.000Z</time>
      </trkpt>
      <trkpt lat="47.34939" lon="-2.3623">
        <ele>26</ele>
        <time>2021-12-12T10:33:54.000Z</time>
      </trkpt>
      <trkpt lat="47.34928" lon="-2.36243">
        <ele>26</ele>
        <time>2021-12-12T10:33:57.000Z</time>
      </trkpt>
      <trkpt lat="47.34908" lon="-2.36262">
        <ele>26.39999961853</ele>
        <time>2021-12-12T10:34:02.000Z</time>
      </trkpt>
      <trkpt lat="47.34904" lon="-2.36266">
        <ele>27</ele>
        <time>2021-12-12T10:34:03.000Z</time>
      </trkpt>
      <trkpt lat="47.349" lon="-2.36269">
        <ele>27.39999961853</ele>
        <time>2021-12-12T10:34:04.000Z</time>
      </trkpt>
      <trkpt lat="47.34895" lon="-2.36273">
        <ele>27.799999237061</ele>
        <time>2021-12-12T10:34:05.000Z</time>
      </trkpt>
      <trkpt lat="47.34891" lon="-2.36276">
        <ele>28.200000762939</ele>
        <time>2021-12-12T10:34:06.000Z</time>
      </trkpt>
      <trkpt lat="47.3486" lon="-2.36297">
        <ele>28.200000762939</ele>
        <time>2021-12-12T10:34:13.000Z</time>
      </trkpt>
      <trkpt lat="47.34827" lon="-2.36318">
        <ele>28.200000762939</ele>
        <time>2021-12-12T10:34:20.000Z</time>
      </trkpt>
      <trkpt lat="47.34785" lon="-2.36348">
        <ele>28.200000762939</ele>
        <time>2021-12-12T10:34:29.000Z</time>
      </trkpt>
      <trkpt lat="47.34775" lon="-2.36355">
        <ele>28.60000038147</ele>
        <time>2021-12-12T10:34:31.000Z</time>
      </trkpt>
      <trkpt lat="47.34771" lon="-2.36358">
        <ele>29</ele>
        <time>2021-12-12T10:34:32.000Z</time>
      </trkpt>
      <trkpt lat="47.34766" lon="-2.36361">
        <ele>29.39999961853</ele>
        <time>2021-12-12T10:34:33.000Z</time>
      </trkpt>
      <trkpt lat="47.34761" lon="-2.36364">
        <ele>30.200000762939</ele>
        <time>2021-12-12T10:34:34.000Z</time>
      </trkpt>
      <trkpt lat="47.34751" lon="-2.3637">
        <ele>30.200000762939</ele>
        <time>2021-12-12T10:34:36.000Z</time>
      </trkpt>
      <trkpt lat="47.34717" lon="-2.3639">
        <ele>30.200000762939</ele>
        <time>2021-12-12T10:34:43.000Z</time>
      </trkpt>
      <trkpt lat="47.34688" lon="-2.36401">
        <ele>30.200000762939</ele>
        <time>2021-12-12T10:34:48.000Z</time>
      </trkpt>
      <trkpt lat="47.34642" lon="-2.36421">
        <ele>30.200000762939</ele>
        <time>2021-12-12T10:34:55.000Z</time>
      </trkpt>
      <trkpt lat="47.34635" lon="-2.36425">
        <ele>29.799999237061</ele>
        <time>2021-12-12T10:34:56.000Z</time>
      </trkpt>
      <trkpt lat="47.34629" lon="-2.36428">
        <ele>29.39999961853</ele>
        <time>2021-12-12T10:34:57.000Z</time>
      </trkpt>
      <trkpt lat="47.34622" lon="-2.36432">
        <ele>29</ele>
        <time>2021-12-12T10:34:58.000Z</time>
      </trkpt>
      <trkpt lat="47.34615" lon="-2.36435">
        <ele>28</ele>
        <time>2021-12-12T10:34:59.000Z</time>
      </trkpt>
      <trkpt lat="47.34597" lon="-2.36447">
        <ele>28</ele>
        <time>2021-12-12T10:35:02.000Z</time>
      </trkpt>
      <trkpt lat="47.34584" lon="-2.36468">
        <ele>27.60000038147</ele>
        <time>2021-12-12T10:35:05.000Z</time>
      </trkpt>
      <trkpt lat="47.34581" lon="-2.36475">
        <ele>27.200000762939</ele>
        <time>2021-12-12T10:35:06.000Z</time>
      </trkpt>
      <trkpt lat="47.34578" lon="-2.36483">
        <ele>26.799999237061</ele>
        <time>2021-12-12T10:35:07.000Z</time>
      </trkpt>
      <trkpt lat="47.34575" lon="-2.36492">
        <ele>26.39999961853</ele>
        <time>2021-12-12T10:35:08.000Z</time>
      </trkpt>
      <trkpt lat="47.34573" lon="-2.365">
        <ele>26</ele>
        <time>2021-12-12T10:35:09.000Z</time>
      </trkpt>
      <trkpt lat="47.34565" lon="-2.36522">
        <ele>26</ele>
        <time>2021-12-12T10:35:12.000Z</time>
      </trkpt>
      <trkpt lat="47.3454" lon="-2.36585">
        <ele>26</ele>
        <time>2021-12-12T10:35:21.000Z</time>
      </trkpt>
      <trkpt lat="47.34535" lon="-2.36599">
        <ele>26</ele>
        <time>2021-12-12T10:35:23.000Z</time>
      </trkpt>
      <trkpt lat="47.34526" lon="-2.3662">
        <ele>26</ele>
        <time>2021-12-12T10:35:26.000Z</time>
      </trkpt>
      <trkpt lat="47.3452" lon="-2.36635">
        <ele>26.39999961853</ele>
        <time>2021-12-12T10:35:28.000Z</time>
      </trkpt>
      <trkpt lat="47.34517" lon="-2.36642">
        <ele>26.799999237061</ele>
        <time>2021-12-12T10:35:29.000Z</time>
      </trkpt>
      <trkpt lat="47.34514" lon="-2.3665">
        <ele>27.200000762939</ele>
        <time>2021-12-12T10:35:30.000Z</time>
      </trkpt>
      <trkpt lat="47.34511" lon="-2.36657">
        <ele>27.60000038147</ele>
        <time>2021-12-12T10:35:31.000Z</time>
      </trkpt>
      <trkpt lat="47.34508" lon="-2.36664">
        <ele>28</ele>
        <time>2021-12-12T10:35:32.000Z</time>
      </trkpt>
      <trkpt lat="47.34501" lon="-2.36678">
        <ele>28</ele>
        <time>2021-12-12T10:35:34.000Z</time>
      </trkpt>
      <trkpt lat="47.34491" lon="-2.36698">
        <ele>28</ele>
        <time>2021-12-12T10:35:37.000Z</time>
      </trkpt>
      <trkpt lat="47.34481" lon="-2.36717">
        <ele>28</ele>
        <time>2021-12-12T10:35:40.000Z</time>
      </trkpt>
      <trkpt lat="47.34478" lon="-2.36723">
        <ele>28.39999961853</ele>
        <time>2021-12-12T10:35:41.000Z</time>
      </trkpt>
      <trkpt lat="47.34475" lon="-2.3673">
        <ele>28.799999237061</ele>
        <time>2021-12-12T10:35:42.000Z</time>
      </trkpt>
      <trkpt lat="47.34472" lon="-2.36736">
        <ele>29.200000762939</ele>
        <time>2021-12-12T10:35:43.000Z</time>
      </trkpt>
      <trkpt lat="47.34469" lon="-2.36742">
        <ele>29.60000038147</ele>
        <time>2021-12-12T10:35:44.000Z</time>
      </trkpt>
      <trkpt lat="47.34465" lon="-2.36748">
        <ele>30</ele>
        <time>2021-12-12T10:35:45.000Z</time>
      </trkpt>
      <trkpt lat="47.34461" lon="-2.36754">
        <ele>30</ele>
        <time>2021-12-12T10:35:46.000Z</time>
      </trkpt>
      <trkpt lat="47.34454" lon="-2.36765">
        <ele>30</ele>
        <time>2021-12-12T10:35:48.000Z</time>
      </trkpt>
      <trkpt lat="47.34443" lon="-2.36781">
        <ele>30.39999961853</ele>
        <time>2021-12-12T10:35:51.000Z</time>
      </trkpt>
      <trkpt lat="47.34439" lon="-2.36788">
        <ele>31</ele>
        <time>2021-12-12T10:35:52.000Z</time>
      </trkpt>
      <trkpt lat="47.34435" lon="-2.36794">
        <ele>31.39999961853</ele>
        <time>2021-12-12T10:35:53.000Z</time>
      </trkpt>
      <trkpt lat="47.34431" lon="-2.36801">
        <ele>31.799999237061</ele>
        <time>2021-12-12T10:35:54.000Z</time>
      </trkpt>
      <trkpt lat="47.34427" lon="-2.36808">
        <ele>32.200000762939</ele>
        <time>2021-12-12T10:35:55.000Z</time>
      </trkpt>
      <trkpt lat="47.34423" lon="-2.36814">
        <ele>32.200000762939</ele>
        <time>2021-12-12T10:35:56.000Z</time>
      </trkpt>
      <trkpt lat="47.34403" lon="-2.36846">
        <ele>32.200000762939</ele>
        <time>2021-12-12T10:36:01.000Z</time>
      </trkpt>
      <trkpt lat="47.34381" lon="-2.36884">
        <ele>32.200000762939</ele>
        <time>2021-12-12T10:36:07.000Z</time>
      </trkpt>
      <trkpt lat="47.34353" lon="-2.36928">
        <ele>32.200000762939</ele>
        <time>2021-12-12T10:36:14.000Z</time>
      </trkpt>
      <trkpt lat="47.34324" lon="-2.36972">
        <ele>32.200000762939</ele>
        <time>2021-12-12T10:36:21.000Z</time>
      </trkpt>
      <trkpt lat="47.343" lon="-2.37005">
        <ele>32.200000762939</ele>
        <time>2021-12-12T10:36:27.000Z</time>
      </trkpt>
      <trkpt lat="47.34292" lon="-2.37016">
        <ele>32.200000762939</ele>
        <time>2021-12-12T10:36:29.000Z</time>
      </trkpt>
      <trkpt lat="47.34283" lon="-2.37026">
        <ele>32.599998474121</ele>
        <time>2021-12-12T10:36:31.000Z</time>
      </trkpt>
      <trkpt lat="47.34279" lon="-2.37031">
        <ele>33</ele>
        <time>2021-12-12T10:36:32.000Z</time>
      </trkpt>
      <trkpt lat="47.34274" lon="-2.37035">
        <ele>33.400001525879</ele>
        <time>2021-12-12T10:36:33.000Z</time>
      </trkpt>
      <trkpt lat="47.34269" lon="-2.37039">
        <ele>33.799999237061</ele>
        <time>2021-12-12T10:36:34.000Z</time>
      </trkpt>
      <trkpt lat="47.34265" lon="-2.37043">
        <ele>34.200000762939</ele>
        <time>2021-12-12T10:36:35.000Z</time>
      </trkpt>
      <trkpt lat="47.34261" lon="-2.37047">
        <ele>34.200000762939</ele>
        <time>2021-12-12T10:36:36.000Z</time>
      </trkpt>
      <trkpt lat="47.34257" lon="-2.37051">
        <ele>34.200000762939</ele>
        <time>2021-12-12T10:36:37.000Z</time>
      </trkpt>
      <trkpt lat="47.34243" lon="-2.37065">
        <ele>34.200000762939</ele>
        <time>2021-12-12T10:36:41.000Z</time>
      </trkpt>
      <trkpt lat="47.34233" lon="-2.37058">
        <ele>34.200000762939</ele>
        <time>2021-12-12T10:36:44.000Z</time>
      </trkpt>
      <trkpt lat="47.34227" lon="-2.37046">
        <ele>34.200000762939</ele>
        <time>2021-12-12T10:36:46.000Z</time>
      </trkpt>
      <trkpt lat="47.34219" lon="-2.3703">
        <ele>34.200000762939</ele>
        <time>2021-12-12T10:36:48.000Z</time>
      </trkpt>
      <trkpt lat="47.34192" lon="-2.3699">
        <ele>34.200000762939</ele>
        <time>2021-12-12T10:36:53.000Z</time>
      </trkpt>
      <trkpt lat="47.34186" lon="-2.36983">
        <ele>33.799999237061</ele>
        <time>2021-12-12T10:36:54.000Z</time>
      </trkpt>
      <trkpt lat="47.34181" lon="-2.36976">
        <ele>33.400001525879</ele>
        <time>2021-12-12T10:36:55.000Z</time>
      </trkpt>
      <trkpt lat="47.34175" lon="-2.36968">
        <ele>33</ele>
        <time>2021-12-12T10:36:56.000Z</time>
      </trkpt>
      <trkpt lat="47.3417" lon="-2.36962">
        <ele>32.599998474121</ele>
        <time>2021-12-12T10:36:57.000Z</time>
      </trkpt>
      <trkpt lat="47.34165" lon="-2.36954">
        <ele>32</ele>
        <time>2021-12-12T10:36:58.000Z</time>
      </trkpt>
      <trkpt lat="47.34156" lon="-2.36938">
        <ele>32</ele>
        <time>2021-12-12T10:37:00.000Z</time>
      </trkpt>
      <trkpt lat="47.34152" lon="-2.3693">
        <ele>31.60000038147</ele>
        <time>2021-12-12T10:37:01.000Z</time>
      </trkpt>
      <trkpt lat="47.34147" lon="-2.36921">
        <ele>30.799999237061</ele>
        <time>2021-12-12T10:37:02.000Z</time>
      </trkpt>
      <trkpt lat="47.34143" lon="-2.36912">
        <ele>30.39999961853</ele>
        <time>2021-12-12T10:37:03.000Z</time>
      </trkpt>
      <trkpt lat="47.34139" lon="-2.36904">
        <ele>30</ele>
        <time>2021-12-12T10:37:04.000Z</time>
      </trkpt>
      <trkpt lat="47.34134" lon="-2.36895">
        <ele>30</ele>
        <time>2021-12-12T10:37:05.000Z</time>
      </trkpt>
      <trkpt lat="47.34115" lon="-2.36859">
        <ele>30</ele>
        <time>2021-12-12T10:37:09.000Z</time>
      </trkpt>
      <trkpt lat="47.34111" lon="-2.3685">
        <ele>30</ele>
        <time>2021-12-12T10:37:10.000Z</time>
      </trkpt>
      <trkpt lat="47.34108" lon="-2.36839">
        <ele>30</ele>
        <time>2021-12-12T10:37:11.000Z</time>
      </trkpt>
      <trkpt lat="47.34101" lon="-2.3681">
        <ele>30</ele>
        <time>2021-12-12T10:37:14.000Z</time>
      </trkpt>
      <trkpt lat="47.34087" lon="-2.36729">
        <ele>30</ele>
        <time>2021-12-12T10:37:23.000Z</time>
      </trkpt>
      <trkpt lat="47.34082" lon="-2.36709">
        <ele>30</ele>
        <time>2021-12-12T10:37:26.000Z</time>
      </trkpt>
      <trkpt lat="47.34078" lon="-2.36706">
        <ele>30</ele>
        <time>2021-12-12T10:37:27.000Z</time>
      </trkpt>
      <trkpt lat="47.34066" lon="-2.3671">
        <ele>30</ele>
        <time>2021-12-12T10:37:30.000Z</time>
      </trkpt>
      <trkpt lat="47.34038" lon="-2.36727">
        <ele>30</ele>
        <time>2021-12-12T10:37:36.000Z</time>
      </trkpt>
      <trkpt lat="47.34009" lon="-2.3674">
        <ele>30</ele>
        <time>2021-12-12T10:37:42.000Z</time>
      </trkpt>
      <trkpt lat="47.34004" lon="-2.36742">
        <ele>30</ele>
        <time>2021-12-12T10:37:43.000Z</time>
      </trkpt>
      <trkpt lat="47.33995" lon="-2.36745">
        <ele>30.39999961853</ele>
        <time>2021-12-12T10:37:45.000Z</time>
      </trkpt>
      <trkpt lat="47.3399" lon="-2.36747">
        <ele>31</ele>
        <time>2021-12-12T10:37:46.000Z</time>
      </trkpt>
      <trkpt lat="47.33985" lon="-2.36748">
        <ele>31.39999961853</ele>
        <time>2021-12-12T10:37:47.000Z</time>
      </trkpt>
      <trkpt lat="47.33981" lon="-2.3675">
        <ele>31.799999237061</ele>
        <time>2021-12-12T10:37:48.000Z</time>
      </trkpt>
      <trkpt lat="47.33976" lon="-2.36752">
        <ele>32.200000762939</ele>
        <time>2021-12-12T10:37:49.000Z</time>
      </trkpt>
      <trkpt lat="47.33945" lon="-2.36759">
        <ele>32.200000762939</ele>
        <time>2021-12-12T10:37:56.000Z</time>
      </trkpt>
      <trkpt lat="47.33941" lon="-2.3676">
        <ele>32.599998474121</ele>
        <time>2021-12-12T10:37:57.000Z</time>
      </trkpt>
      <trkpt lat="47.33938" lon="-2.3676">
        <ele>33</ele>
        <time>2021-12-12T10:37:58.000Z</time>
      </trkpt>
      <trkpt lat="47.33935" lon="-2.3676">
        <ele>33.400001525879</ele>
        <time>2021-12-12T10:37:59.000Z</time>
      </trkpt>
      <trkpt lat="47.33932" lon="-2.36761">
        <ele>33.799999237061</ele>
        <time>2021-12-12T10:38:00.000Z</time>
      </trkpt>
      <trkpt lat="47.3393" lon="-2.36761">
        <ele>34.200000762939</ele>
        <time>2021-12-12T10:38:01.000Z</time>
      </trkpt>
      <trkpt lat="47.33927" lon="-2.36762">
        <ele>34.200000762939</ele>
        <time>2021-12-12T10:38:02.000Z</time>
      </trkpt>
      <trkpt lat="47.33914" lon="-2.36759">
        <ele>34.200000762939</ele>
        <time>2021-12-12T10:38:08.000Z</time>
      </trkpt>
      <trkpt lat="47.33904" lon="-2.36757">
        <ele>34.200000762939</ele>
        <time>2021-12-12T10:38:13.000Z</time>
      </trkpt>
      <trkpt lat="47.33904" lon="-2.36757">
        <ele>34.200000762939</ele>
        <time>2021-12-12T10:38:14.000Z</time>
      </trkpt>
      <trkpt lat="47.33902" lon="-2.36758">
        <ele>34.200000762939</ele>
        <time>2021-12-12T10:38:45.000Z</time>
      </trkpt>
      <trkpt lat="47.339" lon="-2.36759">
        <ele>34.200000762939</ele>
        <time>2021-12-12T10:38:46.000Z</time>
      </trkpt>
      <trkpt lat="47.33882" lon="-2.36767">
        <ele>34.200000762939</ele>
        <time>2021-12-12T10:38:51.000Z</time>
      </trkpt>
      <trkpt lat="47.33878" lon="-2.36769">
        <ele>34.200000762939</ele>
        <time>2021-12-12T10:38:52.000Z</time>
      </trkpt>
      <trkpt lat="47.33859" lon="-2.36773">
        <ele>34.200000762939</ele>
        <time>2021-12-12T10:38:56.000Z</time>
      </trkpt>
      <trkpt lat="47.33817" lon="-2.36785">
        <ele>34.200000762939</ele>
        <time>2021-12-12T10:39:04.000Z</time>
      </trkpt>
      <trkpt lat="47.33783" lon="-2.36794">
        <ele>34.200000762939</ele>
        <time>2021-12-12T10:39:10.000Z</time>
      </trkpt>
      <trkpt lat="47.33779" lon="-2.36796">
        <ele>34.200000762939</ele>
        <time>2021-12-12T10:39:11.000Z</time>
      </trkpt>
      <trkpt lat="47.33769" lon="-2.36799">
        <ele>34.599998474121</ele>
        <time>2021-12-12T10:39:13.000Z</time>
      </trkpt>
      <trkpt lat="47.33764" lon="-2.36801">
        <ele>35</ele>
        <time>2021-12-12T10:39:14.000Z</time>
      </trkpt>
      <trkpt lat="47.3376" lon="-2.36803">
        <ele>35.400001525879</ele>
        <time>2021-12-12T10:39:15.000Z</time>
      </trkpt>
      <trkpt lat="47.33755" lon="-2.36804">
        <ele>35.799999237061</ele>
        <time>2021-12-12T10:39:16.000Z</time>
      </trkpt>
      <trkpt lat="47.33751" lon="-2.36806">
        <ele>36.200000762939</ele>
        <time>2021-12-12T10:39:17.000Z</time>
      </trkpt>
      <trkpt lat="47.33746" lon="-2.36807">
        <ele>36.200000762939</ele>
        <time>2021-12-12T10:39:18.000Z</time>
      </trkpt>
      <trkpt lat="47.33722" lon="-2.36817">
        <ele>36.200000762939</ele>
        <time>2021-12-12T10:39:24.000Z</time>
      </trkpt>
      <trkpt lat="47.337" lon="-2.36832">
        <ele>36.200000762939</ele>
        <time>2021-12-12T10:39:29.000Z</time>
      </trkpt>
      <trkpt lat="47.33691" lon="-2.36842">
        <ele>36.200000762939</ele>
        <time>2021-12-12T10:39:31.000Z</time>
      </trkpt>
      <trkpt lat="47.33674" lon="-2.36861">
        <ele>36.200000762939</ele>
        <time>2021-12-12T10:39:35.000Z</time>
      </trkpt>
      <trkpt lat="47.33658" lon="-2.36881">
        <ele>36.200000762939</ele>
        <time>2021-12-12T10:39:39.000Z</time>
      </trkpt>
      <trkpt lat="47.3365" lon="-2.36892">
        <ele>36.200000762939</ele>
        <time>2021-12-12T10:39:41.000Z</time>
      </trkpt>
      <trkpt lat="47.33624" lon="-2.36924">
        <ele>36.200000762939</ele>
        <time>2021-12-12T10:39:47.000Z</time>
      </trkpt>
      <trkpt lat="47.33609" lon="-2.3695">
        <ele>36.200000762939</ele>
        <time>2021-12-12T10:39:51.000Z</time>
      </trkpt>
      <trkpt lat="47.33606" lon="-2.36958">
        <ele>36.200000762939</ele>
        <time>2021-12-12T10:39:52.000Z</time>
      </trkpt>
      <trkpt lat="47.33602" lon="-2.36993">
        <ele>36.200000762939</ele>
        <time>2021-12-12T10:39:56.000Z</time>
      </trkpt>
      <trkpt lat="47.33602" lon="-2.37001">
        <ele>36.200000762939</ele>
        <time>2021-12-12T10:39:57.000Z</time>
      </trkpt>
      <trkpt lat="47.33603" lon="-2.37042">
        <ele>36.200000762939</ele>
        <time>2021-12-12T10:40:02.000Z</time>
      </trkpt>
      <trkpt lat="47.33603" lon="-2.37095">
        <ele>36.200000762939</ele>
        <time>2021-12-12T10:40:08.000Z</time>
      </trkpt>
      <trkpt lat="47.33604" lon="-2.37147">
        <ele>36.200000762939</ele>
        <time>2021-12-12T10:40:14.000Z</time>
      </trkpt>
      <trkpt lat="47.33603" lon="-2.37156">
        <ele>36.200000762939</ele>
        <time>2021-12-12T10:40:15.000Z</time>
      </trkpt>
      <trkpt lat="47.33597" lon="-2.37209">
        <ele>36.200000762939</ele>
        <time>2021-12-12T10:40:21.000Z</time>
      </trkpt>
      <trkpt lat="47.33597" lon="-2.37218">
        <ele>36.200000762939</ele>
        <time>2021-12-12T10:40:22.000Z</time>
      </trkpt>
      <trkpt lat="47.33605" lon="-2.37257">
        <ele>36.200000762939</ele>
        <time>2021-12-12T10:40:27.000Z</time>
      </trkpt>
      <trkpt lat="47.33613" lon="-2.3729">
        <ele>36.200000762939</ele>
        <time>2021-12-12T10:40:31.000Z</time>
      </trkpt>
      <trkpt lat="47.33615" lon="-2.37306">
        <ele>36.200000762939</ele>
        <time>2021-12-12T10:40:33.000Z</time>
      </trkpt>
      <trkpt lat="47.33614" lon="-2.37314">
        <ele>36.200000762939</ele>
        <time>2021-12-12T10:40:34.000Z</time>
      </trkpt>
      <trkpt lat="47.336" lon="-2.37328">
        <ele>36.200000762939</ele>
        <time>2021-12-12T10:40:37.000Z</time>
      </trkpt>
      <trkpt lat="47.33584" lon="-2.37332">
        <ele>36.200000762939</ele>
        <time>2021-12-12T10:40:40.000Z</time>
      </trkpt>
      <trkpt lat="47.33573" lon="-2.37335">
        <ele>36.200000762939</ele>
        <time>2021-12-12T10:40:42.000Z</time>
      </trkpt>
      <trkpt lat="47.33546" lon="-2.37349">
        <ele>36.200000762939</ele>
        <time>2021-12-12T10:40:47.000Z</time>
      </trkpt>
      <trkpt lat="47.33542" lon="-2.37356">
        <ele>36.599998474121</ele>
        <time>2021-12-12T10:40:48.000Z</time>
      </trkpt>
      <trkpt lat="47.33539" lon="-2.37363">
        <ele>37</ele>
        <time>2021-12-12T10:40:49.000Z</time>
      </trkpt>
      <trkpt lat="47.33536" lon="-2.3737">
        <ele>37.400001525879</ele>
        <time>2021-12-12T10:40:50.000Z</time>
      </trkpt>
      <trkpt lat="47.33535" lon="-2.37378">
        <ele>37.799999237061</ele>
        <time>2021-12-12T10:40:51.000Z</time>
      </trkpt>
      <trkpt lat="47.33536" lon="-2.37387">
        <ele>38.200000762939</ele>
        <time>2021-12-12T10:40:52.000Z</time>
      </trkpt>
      <trkpt lat="47.33536" lon="-2.37395">
        <ele>38.200000762939</ele>
        <time>2021-12-12T10:40:53.000Z</time>
      </trkpt>
      <trkpt lat="47.33536" lon="-2.37444">
        <ele>38.200000762939</ele>
        <time>2021-12-12T10:40:59.000Z</time>
      </trkpt>
      <trkpt lat="47.33535" lon="-2.37452">
        <ele>38.200000762939</ele>
        <time>2021-12-12T10:41:00.000Z</time>
      </trkpt>
      <trkpt lat="47.33534" lon="-2.3746">
        <ele>38.799999237061</ele>
        <time>2021-12-12T10:41:01.000Z</time>
      </trkpt>
      <trkpt lat="47.33532" lon="-2.37467">
        <ele>39.200000762939</ele>
        <time>2021-12-12T10:41:02.000Z</time>
      </trkpt>
      <trkpt lat="47.33531" lon="-2.37475">
        <ele>39.599998474121</ele>
        <time>2021-12-12T10:41:03.000Z</time>
      </trkpt>
      <trkpt lat="47.33528" lon="-2.37482">
        <ele>40</ele>
        <time>2021-12-12T10:41:04.000Z</time>
      </trkpt>
      <trkpt lat="47.33525" lon="-2.37489">
        <ele>40.400001525879</ele>
        <time>2021-12-12T10:41:05.000Z</time>
      </trkpt>
      <trkpt lat="47.33522" lon="-2.37496">
        <ele>40.400001525879</ele>
        <time>2021-12-12T10:41:06.000Z</time>
      </trkpt>
      <trkpt lat="47.33501" lon="-2.37539">
        <ele>40.400001525879</ele>
        <time>2021-12-12T10:41:13.000Z</time>
      </trkpt>
      <trkpt lat="47.33494" lon="-2.3755">
        <ele>40.799999237061</ele>
        <time>2021-12-12T10:41:15.000Z</time>
      </trkpt>
      <trkpt lat="47.33491" lon="-2.37556">
        <ele>41.200000762939</ele>
        <time>2021-12-12T10:41:16.000Z</time>
      </trkpt>
      <trkpt lat="47.33487" lon="-2.37561">
        <ele>41.599998474121</ele>
        <time>2021-12-12T10:41:17.000Z</time>
      </trkpt>
      <trkpt lat="47.33483" lon="-2.37567">
        <ele>42</ele>
        <time>2021-12-12T10:41:18.000Z</time>
      </trkpt>
      <trkpt lat="47.33479" lon="-2.37573">
        <ele>42.400001525879</ele>
        <time>2021-12-12T10:41:19.000Z</time>
      </trkpt>
      <trkpt lat="47.33475" lon="-2.37579">
        <ele>42.400001525879</ele>
        <time>2021-12-12T10:41:20.000Z</time>
      </trkpt>
      <trkpt lat="47.33456" lon="-2.37597">
        <ele>42.400001525879</ele>
        <time>2021-12-12T10:41:24.000Z</time>
      </trkpt>
      <trkpt lat="47.33422" lon="-2.37623">
        <ele>42.400001525879</ele>
        <time>2021-12-12T10:41:31.000Z</time>
      </trkpt>
      <trkpt lat="47.33417" lon="-2.37626">
        <ele>42.400001525879</ele>
        <time>2021-12-12T10:41:32.000Z</time>
      </trkpt>
      <trkpt lat="47.33404" lon="-2.37639">
        <ele>42.400001525879</ele>
        <time>2021-12-12T10:41:35.000Z</time>
      </trkpt>
      <trkpt lat="47.33391" lon="-2.37667">
        <ele>42.400001525879</ele>
        <time>2021-12-12T10:41:39.000Z</time>
      </trkpt>
      <trkpt lat="47.33387" lon="-2.37705">
        <ele>42.400001525879</ele>
        <time>2021-12-12T10:41:44.000Z</time>
      </trkpt>
      <trkpt lat="47.33387" lon="-2.37712">
        <ele>43</ele>
        <time>2021-12-12T10:41:45.000Z</time>
      </trkpt>
      <trkpt lat="47.33388" lon="-2.3772">
        <ele>43.400001525879</ele>
        <time>2021-12-12T10:41:46.000Z</time>
      </trkpt>
      <trkpt lat="47.33388" lon="-2.37727">
        <ele>43.799999237061</ele>
        <time>2021-12-12T10:41:47.000Z</time>
      </trkpt>
      <trkpt lat="47.33388" lon="-2.37735">
        <ele>44.200000762939</ele>
        <time>2021-12-12T10:41:48.000Z</time>
      </trkpt>
      <trkpt lat="47.33388" lon="-2.37743">
        <ele>44.599998474121</ele>
        <time>2021-12-12T10:41:49.000Z</time>
      </trkpt>
      <trkpt lat="47.33388" lon="-2.37759">
        <ele>44.599998474121</ele>
        <time>2021-12-12T10:41:51.000Z</time>
      </trkpt>
      <trkpt lat="47.33384" lon="-2.3781">
        <ele>44.599998474121</ele>
        <time>2021-12-12T10:41:57.000Z</time>
      </trkpt>
      <trkpt lat="47.33382" lon="-2.37818">
        <ele>44.599998474121</ele>
        <time>2021-12-12T10:41:58.000Z</time>
      </trkpt>
      <trkpt lat="47.33375" lon="-2.37836">
        <ele>44.599998474121</ele>
        <time>2021-12-12T10:42:01.000Z</time>
      </trkpt>
      <trkpt lat="47.33369" lon="-2.37847">
        <ele>44.599998474121</ele>
        <time>2021-12-12T10:42:03.000Z</time>
      </trkpt>
      <trkpt lat="47.33362" lon="-2.37856">
        <ele>44.200000762939</ele>
        <time>2021-12-12T10:42:05.000Z</time>
      </trkpt>
      <trkpt lat="47.33358" lon="-2.37857">
        <ele>43.799999237061</ele>
        <time>2021-12-12T10:42:06.000Z</time>
      </trkpt>
      <trkpt lat="47.33354" lon="-2.37857">
        <ele>43.200000762939</ele>
        <time>2021-12-12T10:42:07.000Z</time>
      </trkpt>
      <trkpt lat="47.3335" lon="-2.37857">
        <ele>42.799999237061</ele>
        <time>2021-12-12T10:42:08.000Z</time>
      </trkpt>
      <trkpt lat="47.33344" lon="-2.37856">
        <ele>42.400001525879</ele>
        <time>2021-12-12T10:42:09.000Z</time>
      </trkpt>
      <trkpt lat="47.33339" lon="-2.37857">
        <ele>42.400001525879</ele>
        <time>2021-12-12T10:42:10.000Z</time>
      </trkpt>
      <trkpt lat="47.33327" lon="-2.3786">
        <ele>42.400001525879</ele>
        <time>2021-12-12T10:42:12.000Z</time>
      </trkpt>
      <trkpt lat="47.33302" lon="-2.37869">
        <ele>42.400001525879</ele>
        <time>2021-12-12T10:42:16.000Z</time>
      </trkpt>
      <trkpt lat="47.33295" lon="-2.37871">
        <ele>42</ele>
        <time>2021-12-12T10:42:17.000Z</time>
      </trkpt>
      <trkpt lat="47.33289" lon="-2.37873">
        <ele>41.599998474121</ele>
        <time>2021-12-12T10:42:18.000Z</time>
      </trkpt>
      <trkpt lat="47.33282" lon="-2.37875">
        <ele>41.200000762939</ele>
        <time>2021-12-12T10:42:19.000Z</time>
      </trkpt>
      <trkpt lat="47.33276" lon="-2.37877">
        <ele>40.799999237061</ele>
        <time>2021-12-12T10:42:20.000Z</time>
      </trkpt>
      <trkpt lat="47.3327" lon="-2.37879">
        <ele>40.400001525879</ele>
        <time>2021-12-12T10:42:21.000Z</time>
      </trkpt>
      <trkpt lat="47.33264" lon="-2.37881">
        <ele>40</ele>
        <time>2021-12-12T10:42:23.000Z</time>
      </trkpt>
      <trkpt lat="47.33258" lon="-2.37883">
        <ele>39.400001525879</ele>
        <time>2021-12-12T10:42:24.000Z</time>
      </trkpt>
      <trkpt lat="47.33251" lon="-2.37881">
        <ele>39</ele>
        <time>2021-12-12T10:42:25.000Z</time>
      </trkpt>
      <trkpt lat="47.33246" lon="-2.37878">
        <ele>38.599998474121</ele>
        <time>2021-12-12T10:42:26.000Z</time>
      </trkpt>
      <trkpt lat="47.3324" lon="-2.37874">
        <ele>38</ele>
        <time>2021-12-12T10:42:27.000Z</time>
      </trkpt>
      <trkpt lat="47.33234" lon="-2.37869">
        <ele>37.599998474121</ele>
        <time>2021-12-12T10:42:28.000Z</time>
      </trkpt>
      <trkpt lat="47.33229" lon="-2.37864">
        <ele>37.200000762939</ele>
        <time>2021-12-12T10:42:29.000Z</time>
      </trkpt>
      <trkpt lat="47.33225" lon="-2.37858">
        <ele>36.599998474121</ele>
        <time>2021-12-12T10:42:30.000Z</time>
      </trkpt>
      <trkpt lat="47.3322" lon="-2.37852">
        <ele>36.200000762939</ele>
        <time>2021-12-12T10:42:31.000Z</time>
      </trkpt>
      <trkpt lat="47.33216" lon="-2.37846">
        <ele>35.799999237061</ele>
        <time>2021-12-12T10:42:32.000Z</time>
      </trkpt>
      <trkpt lat="47.33208" lon="-2.3783">
        <ele>35.799999237061</ele>
        <time>2021-12-12T10:42:34.000Z</time>
      </trkpt>
      <trkpt lat="47.33204" lon="-2.37822">
        <ele>35.799999237061</ele>
        <time>2021-12-12T10:42:35.000Z</time>
      </trkpt>
      <trkpt lat="47.33185" lon="-2.37792">
        <ele>35.400001525879</ele>
        <time>2021-12-12T10:42:39.000Z</time>
      </trkpt>
      <trkpt lat="47.3318" lon="-2.37783">
        <ele>35</ele>
        <time>2021-12-12T10:42:40.000Z</time>
      </trkpt>
      <trkpt lat="47.33176" lon="-2.37774">
        <ele>34.599998474121</ele>
        <time>2021-12-12T10:42:41.000Z</time>
      </trkpt>
      <trkpt lat="47.33172" lon="-2.37766">
        <ele>34</ele>
        <time>2021-12-12T10:42:42.000Z</time>
      </trkpt>
      <trkpt lat="47.33168" lon="-2.37759">
        <ele>33.599998474121</ele>
        <time>2021-12-12T10:42:43.000Z</time>
      </trkpt>
      <trkpt lat="47.33165" lon="-2.37751">
        <ele>33.200000762939</ele>
        <time>2021-12-12T10:42:44.000Z</time>
      </trkpt>
      <trkpt lat="47.3316" lon="-2.37744">
        <ele>32.799999237061</ele>
        <time>2021-12-12T10:42:45.000Z</time>
      </trkpt>
      <trkpt lat="47.33155" lon="-2.3774">
        <ele>32.400001525879</ele>
        <time>2021-12-12T10:42:46.000Z</time>
      </trkpt>
      <trkpt lat="47.3315" lon="-2.37738">
        <ele>31.799999237061</ele>
        <time>2021-12-12T10:42:47.000Z</time>
      </trkpt>
      <trkpt lat="47.33144" lon="-2.37737">
        <ele>31.39999961853</ele>
        <time>2021-12-12T10:42:48.000Z</time>
      </trkpt>
      <trkpt lat="47.33139" lon="-2.37739">
        <ele>31.39999961853</ele>
        <time>2021-12-12T10:42:49.000Z</time>
      </trkpt>
      <trkpt lat="47.33121" lon="-2.37753">
        <ele>31.39999961853</ele>
        <time>2021-12-12T10:42:53.000Z</time>
      </trkpt>
      <trkpt lat="47.33113" lon="-2.37761">
        <ele>31.39999961853</ele>
        <time>2021-12-12T10:42:55.000Z</time>
      </trkpt>
      <trkpt lat="47.33101" lon="-2.37773">
        <ele>31.39999961853</ele>
        <time>2021-12-12T10:42:58.000Z</time>
      </trkpt>
      <trkpt lat="47.33094" lon="-2.3778">
        <ele>31.39999961853</ele>
        <time>2021-12-12T10:43:00.000Z</time>
      </trkpt>
      <trkpt lat="47.33078" lon="-2.37795">
        <ele>31.39999961853</ele>
        <time>2021-12-12T10:43:04.000Z</time>
      </trkpt>
      <trkpt lat="47.33056" lon="-2.37818">
        <ele>31.799999237061</ele>
        <time>2021-12-12T10:43:10.000Z</time>
      </trkpt>
      <trkpt lat="47.33052" lon="-2.37822">
        <ele>32.200000762939</ele>
        <time>2021-12-12T10:43:11.000Z</time>
      </trkpt>
      <trkpt lat="47.33048" lon="-2.37826">
        <ele>32.599998474121</ele>
        <time>2021-12-12T10:43:12.000Z</time>
      </trkpt>
      <trkpt lat="47.33043" lon="-2.3783">
        <ele>33.400001525879</ele>
        <time>2021-12-12T10:43:13.000Z</time>
      </trkpt>
      <trkpt lat="47.33032" lon="-2.37843">
        <ele>33.400001525879</ele>
        <time>2021-12-12T10:43:16.000Z</time>
      </trkpt>
      <trkpt lat="47.33023" lon="-2.37862">
        <ele>33.400001525879</ele>
        <time>2021-12-12T10:43:20.000Z</time>
      </trkpt>
      <trkpt lat="47.33019" lon="-2.37876">
        <ele>33.400001525879</ele>
        <time>2021-12-12T10:43:23.000Z</time>
      </trkpt>
      <trkpt lat="47.33016" lon="-2.3788">
        <ele>33.400001525879</ele>
        <time>2021-12-12T10:43:24.000Z</time>
      </trkpt>
      <trkpt lat="47.33007" lon="-2.37895">
        <ele>33.400001525879</ele>
        <time>2021-12-12T10:43:27.000Z</time>
      </trkpt>
      <trkpt lat="47.32998" lon="-2.37912">
        <ele>33.400001525879</ele>
        <time>2021-12-12T10:43:30.000Z</time>
      </trkpt>
      <trkpt lat="47.32983" lon="-2.37936">
        <ele>33.400001525879</ele>
        <time>2021-12-12T10:43:35.000Z</time>
      </trkpt>
      <trkpt lat="47.3298" lon="-2.37942">
        <ele>34</ele>
        <time>2021-12-12T10:43:36.000Z</time>
      </trkpt>
      <trkpt lat="47.32977" lon="-2.37946">
        <ele>34.799999237061</ele>
        <time>2021-12-12T10:43:37.000Z</time>
      </trkpt>
      <trkpt lat="47.32973" lon="-2.37952">
        <ele>35.200000762939</ele>
        <time>2021-12-12T10:43:38.000Z</time>
      </trkpt>
      <trkpt lat="47.3297" lon="-2.37957">
        <ele>35.599998474121</ele>
        <time>2021-12-12T10:43:39.000Z</time>
      </trkpt>
      <trkpt lat="47.32966" lon="-2.37962">
        <ele>35.599998474121</ele>
        <time>2021-12-12T10:43:40.000Z</time>
      </trkpt>
      <trkpt lat="47.32941" lon="-2.37998">
        <ele>35.599998474121</ele>
        <time>2021-12-12T10:43:47.000Z</time>
      </trkpt>
      <trkpt lat="47.32934" lon="-2.38009">
        <ele>35.599998474121</ele>
        <time>2021-12-12T10:43:49.000Z</time>
      </trkpt>
      <trkpt lat="47.32918" lon="-2.3803">
        <ele>35.599998474121</ele>
        <time>2021-12-12T10:43:53.000Z</time>
      </trkpt>
      <trkpt lat="47.32888" lon="-2.38085">
        <ele>35.599998474121</ele>
        <time>2021-12-12T10:44:02.000Z</time>
      </trkpt>
      <trkpt lat="47.3288" lon="-2.38097">
        <ele>35.599998474121</ele>
        <time>2021-12-12T10:44:04.000Z</time>
      </trkpt>
      <trkpt lat="47.32874" lon="-2.38108">
        <ele>36</ele>
        <time>2021-12-12T10:44:06.000Z</time>
      </trkpt>
      <trkpt lat="47.32871" lon="-2.38114">
        <ele>36.400001525879</ele>
        <time>2021-12-12T10:44:07.000Z</time>
      </trkpt>
      <trkpt lat="47.32867" lon="-2.3812">
        <ele>36.799999237061</ele>
        <time>2021-12-12T10:44:08.000Z</time>
      </trkpt>
      <trkpt lat="47.32864" lon="-2.38125">
        <ele>37.200000762939</ele>
        <time>2021-12-12T10:44:09.000Z</time>
      </trkpt>
      <trkpt lat="47.3286" lon="-2.3813">
        <ele>37.599998474121</ele>
        <time>2021-12-12T10:44:10.000Z</time>
      </trkpt>
      <trkpt lat="47.32854" lon="-2.38141">
        <ele>37.599998474121</ele>
        <time>2021-12-12T10:44:12.000Z</time>
      </trkpt>
      <trkpt lat="47.32836" lon="-2.38174">
        <ele>37.599998474121</ele>
        <time>2021-12-12T10:44:18.000Z</time>
      </trkpt>
      <trkpt lat="47.32826" lon="-2.38198">
        <ele>38</ele>
        <time>2021-12-12T10:44:22.000Z</time>
      </trkpt>
      <trkpt lat="47.32824" lon="-2.38204">
        <ele>38.400001525879</ele>
        <time>2021-12-12T10:44:23.000Z</time>
      </trkpt>
      <trkpt lat="47.32822" lon="-2.38209">
        <ele>38.799999237061</ele>
        <time>2021-12-12T10:44:24.000Z</time>
      </trkpt>
      <trkpt lat="47.3282" lon="-2.38215">
        <ele>39.200000762939</ele>
        <time>2021-12-12T10:44:25.000Z</time>
      </trkpt>
      <trkpt lat="47.32818" lon="-2.38221">
        <ele>39.599998474121</ele>
        <time>2021-12-12T10:44:26.000Z</time>
      </trkpt>
      <trkpt lat="47.32813" lon="-2.38238">
        <ele>39.599998474121</ele>
        <time>2021-12-12T10:44:29.000Z</time>
      </trkpt>
      <trkpt lat="47.3281" lon="-2.38248">
        <ele>39.599998474121</ele>
        <time>2021-12-12T10:44:31.000Z</time>
      </trkpt>
      <trkpt lat="47.32808" lon="-2.38259">
        <ele>40</ele>
        <time>2021-12-12T10:44:33.000Z</time>
      </trkpt>
      <trkpt lat="47.32807" lon="-2.38264">
        <ele>40.400001525879</ele>
        <time>2021-12-12T10:44:34.000Z</time>
      </trkpt>
      <trkpt lat="47.32806" lon="-2.38269">
        <ele>40.799999237061</ele>
        <time>2021-12-12T10:44:35.000Z</time>
      </trkpt>
      <trkpt lat="47.32805" lon="-2.38274">
        <ele>41.200000762939</ele>
        <time>2021-12-12T10:44:36.000Z</time>
      </trkpt>
      <trkpt lat="47.32803" lon="-2.38279">
        <ele>41.599998474121</ele>
        <time>2021-12-12T10:44:37.000Z</time>
      </trkpt>
      <trkpt lat="47.32803" lon="-2.38285">
        <ele>41.599998474121</ele>
        <time>2021-12-12T10:44:38.000Z</time>
      </trkpt>
      <trkpt lat="47.32799" lon="-2.38301">
        <ele>42.200000762939</ele>
        <time>2021-12-12T10:44:41.000Z</time>
      </trkpt>
      <trkpt lat="47.32798" lon="-2.38307">
        <ele>42.599998474121</ele>
        <time>2021-12-12T10:44:42.000Z</time>
      </trkpt>
      <trkpt lat="47.32797" lon="-2.38312">
        <ele>43</ele>
        <time>2021-12-12T10:44:43.000Z</time>
      </trkpt>
      <trkpt lat="47.32795" lon="-2.38317">
        <ele>43.400001525879</ele>
        <time>2021-12-12T10:44:44.000Z</time>
      </trkpt>
      <trkpt lat="47.32794" lon="-2.38322">
        <ele>43.799999237061</ele>
        <time>2021-12-12T10:44:45.000Z</time>
      </trkpt>
      <trkpt lat="47.32793" lon="-2.38327">
        <ele>43.799999237061</ele>
        <time>2021-12-12T10:44:46.000Z</time>
      </trkpt>
      <trkpt lat="47.32788" lon="-2.38349">
        <ele>44.200000762939</ele>
        <time>2021-12-12T10:44:50.000Z</time>
      </trkpt>
      <trkpt lat="47.32788" lon="-2.38355">
        <ele>44.599998474121</ele>
        <time>2021-12-12T10:44:51.000Z</time>
      </trkpt>
      <trkpt lat="47.32787" lon="-2.3836">
        <ele>45.400001525879</ele>
        <time>2021-12-12T10:44:52.000Z</time>
      </trkpt>
      <trkpt lat="47.32786" lon="-2.38365">
        <ele>45.799999237061</ele>
        <time>2021-12-12T10:44:53.000Z</time>
      </trkpt>
      <trkpt lat="47.32778" lon="-2.38389">
        <ele>45.799999237061</ele>
        <time>2021-12-12T10:44:58.000Z</time>
      </trkpt>
      <trkpt lat="47.32772" lon="-2.38394">
        <ele>46.400001525879</ele>
        <time>2021-12-12T10:45:01.000Z</time>
      </trkpt>
      <trkpt lat="47.32768" lon="-2.38395">
        <ele>46.799999237061</ele>
        <time>2021-12-12T10:45:02.000Z</time>
      </trkpt>
      <trkpt lat="47.32764" lon="-2.38396">
        <ele>47.200000762939</ele>
        <time>2021-12-12T10:45:03.000Z</time>
      </trkpt>
      <trkpt lat="47.3276" lon="-2.38397">
        <ele>47.599998474121</ele>
        <time>2021-12-12T10:45:04.000Z</time>
      </trkpt>
      <trkpt lat="47.32756" lon="-2.38397">
        <ele>48</ele>
        <time>2021-12-12T10:45:05.000Z</time>
      </trkpt>
      <trkpt lat="47.32747" lon="-2.38399">
        <ele>48</ele>
        <time>2021-12-12T10:45:07.000Z</time>
      </trkpt>
      <trkpt lat="47.32739" lon="-2.384">
        <ele>48</ele>
        <time>2021-12-12T10:45:09.000Z</time>
      </trkpt>
      <trkpt lat="47.32727" lon="-2.38408">
        <ele>48</ele>
        <time>2021-12-12T10:45:12.000Z</time>
      </trkpt>
      <trkpt lat="47.32717" lon="-2.38408">
        <ele>48</ele>
        <time>2021-12-12T10:45:14.000Z</time>
      </trkpt>
      <trkpt lat="47.32707" lon="-2.38407">
        <ele>48</ele>
        <time>2021-12-12T10:45:16.000Z</time>
      </trkpt>
      <trkpt lat="47.3269" lon="-2.38394">
        <ele>47.400001525879</ele>
        <time>2021-12-12T10:45:19.000Z</time>
      </trkpt>
      <trkpt lat="47.32685" lon="-2.38387">
        <ele>47</ele>
        <time>2021-12-12T10:45:20.000Z</time>
      </trkpt>
      <trkpt lat="47.3268" lon="-2.38381">
        <ele>46.599998474121</ele>
        <time>2021-12-12T10:45:21.000Z</time>
      </trkpt>
      <trkpt lat="47.32675" lon="-2.38374">
        <ele>46.200000762939</ele>
        <time>2021-12-12T10:45:22.000Z</time>
      </trkpt>
      <trkpt lat="47.3267" lon="-2.38367">
        <ele>45.799999237061</ele>
        <time>2021-12-12T10:45:23.000Z</time>
      </trkpt>
      <trkpt lat="47.3266" lon="-2.38353">
        <ele>45.400001525879</ele>
        <time>2021-12-12T10:45:25.000Z</time>
      </trkpt>
      <trkpt lat="47.32655" lon="-2.38346">
        <ele>45</ele>
        <time>2021-12-12T10:45:26.000Z</time>
      </trkpt>
      <trkpt lat="47.32649" lon="-2.38338">
        <ele>44.400001525879</ele>
        <time>2021-12-12T10:45:27.000Z</time>
      </trkpt>
      <trkpt lat="47.32643" lon="-2.38331">
        <ele>44</ele>
        <time>2021-12-12T10:45:28.000Z</time>
      </trkpt>
      <trkpt lat="47.32638" lon="-2.38323">
        <ele>43.599998474121</ele>
        <time>2021-12-12T10:45:29.000Z</time>
      </trkpt>
      <trkpt lat="47.32626" lon="-2.38308">
        <ele>43.200000762939</ele>
        <time>2021-12-12T10:45:31.000Z</time>
      </trkpt>
      <trkpt lat="47.3262" lon="-2.38302">
        <ele>42.799999237061</ele>
        <time>2021-12-12T10:45:32.000Z</time>
      </trkpt>
      <trkpt lat="47.32613" lon="-2.38298">
        <ele>42.200000762939</ele>
        <time>2021-12-12T10:45:33.000Z</time>
      </trkpt>
      <trkpt lat="47.32605" lon="-2.38297">
        <ele>41.799999237061</ele>
        <time>2021-12-12T10:45:34.000Z</time>
      </trkpt>
      <trkpt lat="47.32596" lon="-2.38297">
        <ele>41.400001525879</ele>
        <time>2021-12-12T10:45:35.000Z</time>
      </trkpt>
      <trkpt lat="47.32581" lon="-2.38302">
        <ele>41.400001525879</ele>
        <time>2021-12-12T10:45:37.000Z</time>
      </trkpt>
      <trkpt lat="47.32566" lon="-2.38308">
        <ele>41.400001525879</ele>
        <time>2021-12-12T10:45:39.000Z</time>
      </trkpt>
      <trkpt lat="47.32553" lon="-2.38312">
        <ele>40.400001525879</ele>
        <time>2021-12-12T10:45:41.000Z</time>
      </trkpt>
      <trkpt lat="47.32547" lon="-2.38313">
        <ele>40</ele>
        <time>2021-12-12T10:45:42.000Z</time>
      </trkpt>
      <trkpt lat="47.32542" lon="-2.38314">
        <ele>39.599998474121</ele>
        <time>2021-12-12T10:45:43.000Z</time>
      </trkpt>
      <trkpt lat="47.32537" lon="-2.38316">
        <ele>39.200000762939</ele>
        <time>2021-12-12T10:45:44.000Z</time>
      </trkpt>
      <trkpt lat="47.32529" lon="-2.38323">
        <ele>39.200000762939</ele>
        <time>2021-12-12T10:45:47.000Z</time>
      </trkpt>
      <trkpt lat="47.32526" lon="-2.38341">
        <ele>39.200000762939</ele>
        <time>2021-12-12T10:45:51.000Z</time>
      </trkpt>
      <trkpt lat="47.32526" lon="-2.38354">
        <ele>39.599998474121</ele>
        <time>2021-12-12T10:45:53.000Z</time>
      </trkpt>
      <trkpt lat="47.32525" lon="-2.38361">
        <ele>40</ele>
        <time>2021-12-12T10:45:54.000Z</time>
      </trkpt>
      <trkpt lat="47.32525" lon="-2.38367">
        <ele>40.599998474121</ele>
        <time>2021-12-12T10:45:55.000Z</time>
      </trkpt>
      <trkpt lat="47.32524" lon="-2.38373">
        <ele>41</ele>
        <time>2021-12-12T10:45:56.000Z</time>
      </trkpt>
      <trkpt lat="47.32524" lon="-2.38379">
        <ele>41.400001525879</ele>
        <time>2021-12-12T10:45:57.000Z</time>
      </trkpt>
      <trkpt lat="47.32521" lon="-2.38383">
        <ele>41.400001525879</ele>
        <time>2021-12-12T10:45:58.000Z</time>
      </trkpt>
      <trkpt lat="47.32518" lon="-2.38385">
        <ele>41.400001525879</ele>
        <time>2021-12-12T10:45:59.000Z</time>
      </trkpt>
      <trkpt lat="47.32504" lon="-2.38381">
        <ele>41.400001525879</ele>
        <time>2021-12-12T10:46:02.000Z</time>
      </trkpt>
      <trkpt lat="47.325" lon="-2.3838">
        <ele>41.400001525879</ele>
        <time>2021-12-12T10:46:03.000Z</time>
      </trkpt>
      <trkpt lat="47.32495" lon="-2.38379">
        <ele>41.400001525879</ele>
        <time>2021-12-12T10:46:04.000Z</time>
      </trkpt>
      <trkpt lat="47.32471" lon="-2.38369">
        <ele>41.400001525879</ele>
        <time>2021-12-12T10:46:09.000Z</time>
      </trkpt>
      <trkpt lat="47.32446" lon="-2.3836">
        <ele>41.400001525879</ele>
        <time>2021-12-12T10:46:14.000Z</time>
      </trkpt>
      <trkpt lat="47.32436" lon="-2.38354">
        <ele>41.400001525879</ele>
        <time>2021-12-12T10:46:16.000Z</time>
      </trkpt>
      <trkpt lat="47.32409" lon="-2.38342">
        <ele>41.400001525879</ele>
        <time>2021-12-12T10:46:21.000Z</time>
      </trkpt>
      <trkpt lat="47.32376" lon="-2.38328">
        <ele>41.400001525879</ele>
        <time>2021-12-12T10:46:27.000Z</time>
      </trkpt>
      <trkpt lat="47.32339" lon="-2.38314">
        <ele>41.400001525879</ele>
        <time>2021-12-12T10:46:33.000Z</time>
      </trkpt>
      <trkpt lat="47.32291" lon="-2.38296">
        <ele>41.400001525879</ele>
        <time>2021-12-12T10:46:40.000Z</time>
      </trkpt>
      <trkpt lat="47.32283" lon="-2.38295">
        <ele>41.400001525879</ele>
        <time>2021-12-12T10:46:41.000Z</time>
      </trkpt>
      <trkpt lat="47.32261" lon="-2.38298">
        <ele>41</ele>
        <time>2021-12-12T10:46:44.000Z</time>
      </trkpt>
      <trkpt lat="47.32255" lon="-2.38298">
        <ele>40.599998474121</ele>
        <time>2021-12-12T10:46:45.000Z</time>
      </trkpt>
      <trkpt lat="47.32249" lon="-2.383">
        <ele>40.200000762939</ele>
        <time>2021-12-12T10:46:46.000Z</time>
      </trkpt>
      <trkpt lat="47.32243" lon="-2.38301">
        <ele>39.599998474121</ele>
        <time>2021-12-12T10:46:47.000Z</time>
      </trkpt>
      <trkpt lat="47.32238" lon="-2.38302">
        <ele>39.200000762939</ele>
        <time>2021-12-12T10:46:48.000Z</time>
      </trkpt>
      <trkpt lat="47.32231" lon="-2.38301">
        <ele>39.200000762939</ele>
        <time>2021-12-12T10:46:49.000Z</time>
      </trkpt>
      <trkpt lat="47.32219" lon="-2.38301">
        <ele>39.200000762939</ele>
        <time>2021-12-12T10:46:51.000Z</time>
      </trkpt>
      <trkpt lat="47.32211" lon="-2.38308">
        <ele>39.200000762939</ele>
        <time>2021-12-12T10:46:53.000Z</time>
      </trkpt>
      <trkpt lat="47.32203" lon="-2.38318">
        <ele>39.200000762939</ele>
        <time>2021-12-12T10:46:55.000Z</time>
      </trkpt>
      <trkpt lat="47.32196" lon="-2.38327">
        <ele>39.200000762939</ele>
        <time>2021-12-12T10:46:57.000Z</time>
      </trkpt>
      <trkpt lat="47.32188" lon="-2.38337">
        <ele>39.200000762939</ele>
        <time>2021-12-12T10:46:59.000Z</time>
      </trkpt>
      <trkpt lat="47.32164" lon="-2.38371">
        <ele>39.200000762939</ele>
        <time>2021-12-12T10:47:06.000Z</time>
      </trkpt>
      <trkpt lat="47.32143" lon="-2.38404">
        <ele>39.200000762939</ele>
        <time>2021-12-12T10:47:13.000Z</time>
      </trkpt>
      <trkpt lat="47.32125" lon="-2.38421">
        <ele>39.200000762939</ele>
        <time>2021-12-12T10:47:18.000Z</time>
      </trkpt>
      <trkpt lat="47.32115" lon="-2.38426">
        <ele>39.200000762939</ele>
        <time>2021-12-12T10:47:20.000Z</time>
      </trkpt>
      <trkpt lat="47.32101" lon="-2.38431">
        <ele>39.200000762939</ele>
        <time>2021-12-12T10:47:23.000Z</time>
      </trkpt>
      <trkpt lat="47.32078" lon="-2.38443">
        <ele>39.200000762939</ele>
        <time>2021-12-12T10:47:29.000Z</time>
      </trkpt>
      <trkpt lat="47.32057" lon="-2.3845">
        <ele>39.200000762939</ele>
        <time>2021-12-12T10:47:35.000Z</time>
      </trkpt>
      <trkpt lat="47.32047" lon="-2.38453">
        <ele>39.599998474121</ele>
        <time>2021-12-12T10:47:37.000Z</time>
      </trkpt>
      <trkpt lat="47.32042" lon="-2.38454">
        <ele>40</ele>
        <time>2021-12-12T10:47:38.000Z</time>
      </trkpt>
      <trkpt lat="47.32037" lon="-2.38456">
        <ele>40.400001525879</ele>
        <time>2021-12-12T10:47:39.000Z</time>
      </trkpt>
      <trkpt lat="47.32032" lon="-2.38457">
        <ele>41</ele>
        <time>2021-12-12T10:47:40.000Z</time>
      </trkpt>
      <trkpt lat="47.32028" lon="-2.38459">
        <ele>41.400001525879</ele>
        <time>2021-12-12T10:47:41.000Z</time>
      </trkpt>
      <trkpt lat="47.32023" lon="-2.38461">
        <ele>41.400001525879</ele>
        <time>2021-12-12T10:47:42.000Z</time>
      </trkpt>
      <trkpt lat="47.31999" lon="-2.38472">
        <ele>41.400001525879</ele>
        <time>2021-12-12T10:47:48.000Z</time>
      </trkpt>
      <trkpt lat="47.3197" lon="-2.38484">
        <ele>41.799999237061</ele>
        <time>2021-12-12T10:47:55.000Z</time>
      </trkpt>
      <trkpt lat="47.31966" lon="-2.38485">
        <ele>42.200000762939</ele>
        <time>2021-12-12T10:47:56.000Z</time>
      </trkpt>
      <trkpt lat="47.31962" lon="-2.38486">
        <ele>42.599998474121</ele>
        <time>2021-12-12T10:47:57.000Z</time>
      </trkpt>
      <trkpt lat="47.31958" lon="-2.38487">
        <ele>43</ele>
        <time>2021-12-12T10:47:58.000Z</time>
      </trkpt>
      <trkpt lat="47.31953" lon="-2.38488">
        <ele>43.400001525879</ele>
        <time>2021-12-12T10:47:59.000Z</time>
      </trkpt>
      <trkpt lat="47.31945" lon="-2.38489">
        <ele>43.400001525879</ele>
        <time>2021-12-12T10:48:01.000Z</time>
      </trkpt>
      <trkpt lat="47.31917" lon="-2.38499">
        <ele>43.400001525879</ele>
        <time>2021-12-12T10:48:07.000Z</time>
      </trkpt>
      <trkpt lat="47.31913" lon="-2.38501">
        <ele>43.400001525879</ele>
        <time>2021-12-12T10:48:08.000Z</time>
      </trkpt>
      <trkpt lat="47.31904" lon="-2.38506">
        <ele>43.799999237061</ele>
        <time>2021-12-12T10:48:10.000Z</time>
      </trkpt>
      <trkpt lat="47.319" lon="-2.38509">
        <ele>44.200000762939</ele>
        <time>2021-12-12T10:48:11.000Z</time>
      </trkpt>
      <trkpt lat="47.31896" lon="-2.3851">
        <ele>44.599998474121</ele>
        <time>2021-12-12T10:48:12.000Z</time>
      </trkpt>
      <trkpt lat="47.31893" lon="-2.38512">
        <ele>45.200000762939</ele>
        <time>2021-12-12T10:48:13.000Z</time>
      </trkpt>
      <trkpt lat="47.31889" lon="-2.38514">
        <ele>45.599998474121</ele>
        <time>2021-12-12T10:48:14.000Z</time>
      </trkpt>
      <trkpt lat="47.31886" lon="-2.38515">
        <ele>45.599998474121</ele>
        <time>2021-12-12T10:48:15.000Z</time>
      </trkpt>
      <trkpt lat="47.31861" lon="-2.38525">
        <ele>45.599998474121</ele>
        <time>2021-12-12T10:48:22.000Z</time>
      </trkpt>
      <trkpt lat="47.31855" lon="-2.38528">
        <ele>46</ele>
        <time>2021-12-12T10:48:24.000Z</time>
      </trkpt>
      <trkpt lat="47.31852" lon="-2.38529">
        <ele>46.400001525879</ele>
        <time>2021-12-12T10:48:25.000Z</time>
      </trkpt>
      <trkpt lat="47.31849" lon="-2.3853">
        <ele>46.799999237061</ele>
        <time>2021-12-12T10:48:26.000Z</time>
      </trkpt>
      <trkpt lat="47.31846" lon="-2.38531">
        <ele>47.200000762939</ele>
        <time>2021-12-12T10:48:27.000Z</time>
      </trkpt>
      <trkpt lat="47.31843" lon="-2.38533">
        <ele>47.799999237061</ele>
        <time>2021-12-12T10:48:28.000Z</time>
      </trkpt>
      <trkpt lat="47.31839" lon="-2.38534">
        <ele>47.799999237061</ele>
        <time>2021-12-12T10:48:29.000Z</time>
      </trkpt>
      <trkpt lat="47.31823" lon="-2.38538">
        <ele>48.200000762939</ele>
        <time>2021-12-12T10:48:34.000Z</time>
      </trkpt>
      <trkpt lat="47.31819" lon="-2.38538">
        <ele>48.599998474121</ele>
        <time>2021-12-12T10:48:35.000Z</time>
      </trkpt>
      <trkpt lat="47.31816" lon="-2.38539">
        <ele>49</ele>
        <time>2021-12-12T10:48:36.000Z</time>
      </trkpt>
      <trkpt lat="47.31814" lon="-2.38539">
        <ele>49.400001525879</ele>
        <time>2021-12-12T10:48:37.000Z</time>
      </trkpt>
      <trkpt lat="47.31811" lon="-2.38539">
        <ele>49.799999237061</ele>
        <time>2021-12-12T10:48:38.000Z</time>
      </trkpt>
      <trkpt lat="47.31803" lon="-2.38539">
        <ele>49.799999237061</ele>
        <time>2021-12-12T10:48:41.000Z</time>
      </trkpt>
      <trkpt lat="47.31788" lon="-2.38546">
        <ele>49.799999237061</ele>
        <time>2021-12-12T10:48:46.000Z</time>
      </trkpt>
      <trkpt lat="47.31761" lon="-2.38561">
        <ele>49.799999237061</ele>
        <time>2021-12-12T10:48:54.000Z</time>
      </trkpt>
      <trkpt lat="47.31736" lon="-2.38574">
        <ele>49.799999237061</ele>
        <time>2021-12-12T10:49:01.000Z</time>
      </trkpt>
      <trkpt lat="47.31703" lon="-2.38593">
        <ele>49.799999237061</ele>
        <time>2021-12-12T10:49:10.000Z</time>
      </trkpt>
      <trkpt lat="47.31669" lon="-2.38614">
        <ele>49.799999237061</ele>
        <time>2021-12-12T10:49:19.000Z</time>
      </trkpt>
      <trkpt lat="47.31644" lon="-2.38637">
        <ele>49.799999237061</ele>
        <time>2021-12-12T10:49:26.000Z</time>
      </trkpt>
      <trkpt lat="47.31625" lon="-2.38663">
        <ele>49.799999237061</ele>
        <time>2021-12-12T10:49:33.000Z</time>
      </trkpt>
      <trkpt lat="47.31609" lon="-2.38689">
        <ele>49.799999237061</ele>
        <time>2021-12-12T10:49:39.000Z</time>
      </trkpt>
      <trkpt lat="47.31597" lon="-2.38707">
        <ele>49.799999237061</ele>
        <time>2021-12-12T10:49:43.000Z</time>
      </trkpt>
      <trkpt lat="47.31588" lon="-2.38721">
        <ele>49.799999237061</ele>
        <time>2021-12-12T10:49:46.000Z</time>
      </trkpt>
      <trkpt lat="47.31562" lon="-2.3876">
        <ele>49.799999237061</ele>
        <time>2021-12-12T10:49:54.000Z</time>
      </trkpt>
      <trkpt lat="47.31559" lon="-2.38765">
        <ele>49.799999237061</ele>
        <time>2021-12-12T10:49:55.000Z</time>
      </trkpt>
      <trkpt lat="47.31539" lon="-2.38799">
        <ele>49.799999237061</ele>
        <time>2021-12-12T10:50:01.000Z</time>
      </trkpt>
      <trkpt lat="47.31523" lon="-2.38827">
        <ele>50.200000762939</ele>
        <time>2021-12-12T10:50:06.000Z</time>
      </trkpt>
      <trkpt lat="47.3152" lon="-2.38832">
        <ele>50.599998474121</ele>
        <time>2021-12-12T10:50:07.000Z</time>
      </trkpt>
      <trkpt lat="47.31517" lon="-2.38838">
        <ele>51</ele>
        <time>2021-12-12T10:50:08.000Z</time>
      </trkpt>
      <trkpt lat="47.31514" lon="-2.38844">
        <ele>51.400001525879</ele>
        <time>2021-12-12T10:50:09.000Z</time>
      </trkpt>
      <trkpt lat="47.31511" lon="-2.3885">
        <ele>51.799999237061</ele>
        <time>2021-12-12T10:50:10.000Z</time>
      </trkpt>
      <trkpt lat="47.31496" lon="-2.38881">
        <ele>51.799999237061</ele>
        <time>2021-12-12T10:50:15.000Z</time>
      </trkpt>
      <trkpt lat="47.31471" lon="-2.3893">
        <ele>51.799999237061</ele>
        <time>2021-12-12T10:50:23.000Z</time>
      </trkpt>
      <trkpt lat="47.31446" lon="-2.38976">
        <ele>51.799999237061</ele>
        <time>2021-12-12T10:50:31.000Z</time>
      </trkpt>
      <trkpt lat="47.31438" lon="-2.38995">
        <ele>51.799999237061</ele>
        <time>2021-12-12T10:50:34.000Z</time>
      </trkpt>
      <trkpt lat="47.31434" lon="-2.39007">
        <ele>52.200000762939</ele>
        <time>2021-12-12T10:50:36.000Z</time>
      </trkpt>
      <trkpt lat="47.31431" lon="-2.39014">
        <ele>52.599998474121</ele>
        <time>2021-12-12T10:50:37.000Z</time>
      </trkpt>
      <trkpt lat="47.31429" lon="-2.3902">
        <ele>53.400001525879</ele>
        <time>2021-12-12T10:50:38.000Z</time>
      </trkpt>
      <trkpt lat="47.31427" lon="-2.39026">
        <ele>53.799999237061</ele>
        <time>2021-12-12T10:50:39.000Z</time>
      </trkpt>
      <trkpt lat="47.31418" lon="-2.39045">
        <ele>53.799999237061</ele>
        <time>2021-12-12T10:50:42.000Z</time>
      </trkpt>
      <trkpt lat="47.31413" lon="-2.39056">
        <ele>53.799999237061</ele>
        <time>2021-12-12T10:50:44.000Z</time>
      </trkpt>
      <trkpt lat="47.31391" lon="-2.39089">
        <ele>53.799999237061</ele>
        <time>2021-12-12T10:50:51.000Z</time>
      </trkpt>
      <trkpt lat="47.31372" lon="-2.3911">
        <ele>53.799999237061</ele>
        <time>2021-12-12T10:50:57.000Z</time>
      </trkpt>
      <trkpt lat="47.31366" lon="-2.39115">
        <ele>54.200000762939</ele>
        <time>2021-12-12T10:50:59.000Z</time>
      </trkpt>
      <trkpt lat="47.31363" lon="-2.39118">
        <ele>54.599998474121</ele>
        <time>2021-12-12T10:51:00.000Z</time>
      </trkpt>
      <trkpt lat="47.3136" lon="-2.3912">
        <ele>55</ele>
        <time>2021-12-12T10:51:01.000Z</time>
      </trkpt>
      <trkpt lat="47.31357" lon="-2.39123">
        <ele>56</ele>
        <time>2021-12-12T10:51:02.000Z</time>
      </trkpt>
      <trkpt lat="47.31351" lon="-2.3913">
        <ele>56</ele>
        <time>2021-12-12T10:51:04.000Z</time>
      </trkpt>
      <trkpt lat="47.31341" lon="-2.39141">
        <ele>56</ele>
        <time>2021-12-12T10:51:07.000Z</time>
      </trkpt>
      <trkpt lat="47.31327" lon="-2.39155">
        <ele>56</ele>
        <time>2021-12-12T10:51:11.000Z</time>
      </trkpt>
      <trkpt lat="47.31299" lon="-2.39186">
        <ele>56</ele>
        <time>2021-12-12T10:51:19.000Z</time>
      </trkpt>
      <trkpt lat="47.31286" lon="-2.39202">
        <ele>56</ele>
        <time>2021-12-12T10:51:23.000Z</time>
      </trkpt>
      <trkpt lat="47.31276" lon="-2.39216">
        <ele>56</ele>
        <time>2021-12-12T10:51:26.000Z</time>
      </trkpt>
      <trkpt lat="47.31253" lon="-2.39248">
        <ele>56</ele>
        <time>2021-12-12T10:51:33.000Z</time>
      </trkpt>
      <trkpt lat="47.31244" lon="-2.39261">
        <ele>56</ele>
        <time>2021-12-12T10:51:36.000Z</time>
      </trkpt>
      <trkpt lat="47.31235" lon="-2.39273">
        <ele>56</ele>
        <time>2021-12-12T10:51:39.000Z</time>
      </trkpt>
      <trkpt lat="47.31231" lon="-2.39279">
        <ele>56</ele>
        <time>2021-12-12T10:51:40.000Z</time>
      </trkpt>
      <trkpt lat="47.31223" lon="-2.39288">
        <ele>56</ele>
        <time>2021-12-12T10:51:42.000Z</time>
      </trkpt>
      <trkpt lat="47.3121" lon="-2.393">
        <ele>56</ele>
        <time>2021-12-12T10:51:45.000Z</time>
      </trkpt>
      <trkpt lat="47.31186" lon="-2.39317">
        <ele>55.599998474121</ele>
        <time>2021-12-12T10:51:50.000Z</time>
      </trkpt>
      <trkpt lat="47.31181" lon="-2.3932">
        <ele>55</ele>
        <time>2021-12-12T10:51:51.000Z</time>
      </trkpt>
      <trkpt lat="47.31175" lon="-2.39323">
        <ele>54.200000762939</ele>
        <time>2021-12-12T10:51:52.000Z</time>
      </trkpt>
      <trkpt lat="47.31171" lon="-2.39327">
        <ele>53.799999237061</ele>
        <time>2021-12-12T10:51:53.000Z</time>
      </trkpt>
      <trkpt lat="47.3115" lon="-2.39342">
        <ele>53.799999237061</ele>
        <time>2021-12-12T10:51:57.000Z</time>
      </trkpt>
      <trkpt lat="47.31141" lon="-2.39351">
        <ele>53.799999237061</ele>
        <time>2021-12-12T10:51:59.000Z</time>
      </trkpt>
      <trkpt lat="47.31127" lon="-2.39365">
        <ele>53.799999237061</ele>
        <time>2021-12-12T10:52:02.000Z</time>
      </trkpt>
      <trkpt lat="47.31123" lon="-2.39371">
        <ele>53.799999237061</ele>
        <time>2021-12-12T10:52:03.000Z</time>
      </trkpt>
      <trkpt lat="47.31112" lon="-2.39385">
        <ele>53.799999237061</ele>
        <time>2021-12-12T10:52:06.000Z</time>
      </trkpt>
      <trkpt lat="47.31108" lon="-2.39391">
        <ele>53.400001525879</ele>
        <time>2021-12-12T10:52:07.000Z</time>
      </trkpt>
      <trkpt lat="47.31105" lon="-2.39396">
        <ele>53</ele>
        <time>2021-12-12T10:52:08.000Z</time>
      </trkpt>
      <trkpt lat="47.311" lon="-2.39401">
        <ele>52.599998474121</ele>
        <time>2021-12-12T10:52:09.000Z</time>
      </trkpt>
      <trkpt lat="47.31096" lon="-2.39406">
        <ele>52.200000762939</ele>
        <time>2021-12-12T10:52:10.000Z</time>
      </trkpt>
      <trkpt lat="47.31092" lon="-2.39412">
        <ele>51.799999237061</ele>
        <time>2021-12-12T10:52:11.000Z</time>
      </trkpt>
      <trkpt lat="47.31087" lon="-2.39417">
        <ele>51.799999237061</ele>
        <time>2021-12-12T10:52:12.000Z</time>
      </trkpt>
      <trkpt lat="47.31067" lon="-2.39441">
        <ele>51.799999237061</ele>
        <time>2021-12-12T10:52:17.000Z</time>
      </trkpt>
      <trkpt lat="47.31054" lon="-2.39457">
        <ele>51.799999237061</ele>
        <time>2021-12-12T10:52:21.000Z</time>
      </trkpt>
      <trkpt lat="47.31046" lon="-2.3946">
        <ele>51.799999237061</ele>
        <time>2021-12-12T10:52:23.000Z</time>
      </trkpt>
      <trkpt lat="47.31036" lon="-2.3945">
        <ele>51.799999237061</ele>
        <time>2021-12-12T10:52:26.000Z</time>
      </trkpt>
      <trkpt lat="47.31032" lon="-2.3944">
        <ele>51.799999237061</ele>
        <time>2021-12-12T10:52:28.000Z</time>
      </trkpt>
      <trkpt lat="47.31023" lon="-2.39419">
        <ele>51.799999237061</ele>
        <time>2021-12-12T10:52:32.000Z</time>
      </trkpt>
      <trkpt lat="47.31012" lon="-2.39385">
        <ele>51.799999237061</ele>
        <time>2021-12-12T10:52:38.000Z</time>
      </trkpt>
      <trkpt lat="47.31004" lon="-2.3936">
        <ele>51.799999237061</ele>
        <time>2021-12-12T10:52:44.000Z</time>
      </trkpt>
      <trkpt lat="47.31001" lon="-2.39345">
        <ele>51.799999237061</ele>
        <time>2021-12-12T10:52:49.000Z</time>
      </trkpt>
      <trkpt lat="47.30995" lon="-2.39325">
        <ele>51.799999237061</ele>
        <time>2021-12-12T10:52:55.000Z</time>
      </trkpt>
      <trkpt lat="47.30989" lon="-2.39305">
        <ele>51.799999237061</ele>
        <time>2021-12-12T10:53:02.000Z</time>
      </trkpt>
      <trkpt lat="47.30984" lon="-2.3929">
        <ele>51.799999237061</ele>
        <time>2021-12-12T10:53:07.000Z</time>
      </trkpt>
      <trkpt lat="47.30976" lon="-2.39275">
        <ele>51.799999237061</ele>
        <time>2021-12-12T10:53:13.000Z</time>
      </trkpt>
      <trkpt lat="47.30966" lon="-2.39253">
        <ele>51.799999237061</ele>
        <time>2021-12-12T10:53:19.000Z</time>
      </trkpt>
      <trkpt lat="47.30954" lon="-2.39224">
        <ele>51.799999237061</ele>
        <time>2021-12-12T10:53:26.000Z</time>
      </trkpt>
      <trkpt lat="47.3094" lon="-2.39195">
        <ele>51.799999237061</ele>
        <time>2021-12-12T10:53:33.000Z</time>
      </trkpt>
      <trkpt lat="47.30928" lon="-2.39163">
        <ele>51.799999237061</ele>
        <time>2021-12-12T10:53:40.000Z</time>
      </trkpt>
      <trkpt lat="47.30914" lon="-2.39124">
        <ele>51.799999237061</ele>
        <time>2021-12-12T10:53:48.000Z</time>
      </trkpt>
      <trkpt lat="47.30901" lon="-2.39086">
        <ele>51.799999237061</ele>
        <time>2021-12-12T10:53:56.000Z</time>
      </trkpt>
      <trkpt lat="47.30898" lon="-2.39053">
        <ele>51.799999237061</ele>
        <time>2021-12-12T10:54:02.000Z</time>
      </trkpt>
      <trkpt lat="47.30901" lon="-2.39013">
        <ele>51.799999237061</ele>
        <time>2021-12-12T10:54:09.000Z</time>
      </trkpt>
      <trkpt lat="47.30901" lon="-2.39007">
        <ele>52.200000762939</ele>
        <time>2021-12-12T10:54:10.000Z</time>
      </trkpt>
      <trkpt lat="47.30901" lon="-2.39001">
        <ele>52.599998474121</ele>
        <time>2021-12-12T10:54:11.000Z</time>
      </trkpt>
      <trkpt lat="47.30901" lon="-2.38995">
        <ele>53</ele>
        <time>2021-12-12T10:54:12.000Z</time>
      </trkpt>
      <trkpt lat="47.30902" lon="-2.3899">
        <ele>53.400001525879</ele>
        <time>2021-12-12T10:54:13.000Z</time>
      </trkpt>
      <trkpt lat="47.30903" lon="-2.38984">
        <ele>53.799999237061</ele>
        <time>2021-12-12T10:54:14.000Z</time>
      </trkpt>
      <trkpt lat="47.30906" lon="-2.38968">
        <ele>53.799999237061</ele>
        <time>2021-12-12T10:54:17.000Z</time>
      </trkpt>
      <trkpt lat="47.30912" lon="-2.38954">
        <ele>53.799999237061</ele>
        <time>2021-12-12T10:54:20.000Z</time>
      </trkpt>
      <trkpt lat="47.30919" lon="-2.3894">
        <ele>53.799999237061</ele>
        <time>2021-12-12T10:54:23.000Z</time>
      </trkpt>
      <trkpt lat="47.30921" lon="-2.38934">
        <ele>53.799999237061</ele>
        <time>2021-12-12T10:54:24.000Z</time>
      </trkpt>
      <trkpt lat="47.30925" lon="-2.38923">
        <ele>53.799999237061</ele>
        <time>2021-12-12T10:54:26.000Z</time>
      </trkpt>
      <trkpt lat="47.30924" lon="-2.38909">
        <ele>53.799999237061</ele>
        <time>2021-12-12T10:54:28.000Z</time>
      </trkpt>
      <trkpt lat="47.30915" lon="-2.38895">
        <ele>53.799999237061</ele>
        <time>2021-12-12T10:54:31.000Z</time>
      </trkpt>
      <trkpt lat="47.30896" lon="-2.38885">
        <ele>53.799999237061</ele>
        <time>2021-12-12T10:54:36.000Z</time>
      </trkpt>
      <trkpt lat="47.30885" lon="-2.38888">
        <ele>53.799999237061</ele>
        <time>2021-12-12T10:54:39.000Z</time>
      </trkpt>
      <trkpt lat="47.30876" lon="-2.38888">
        <ele>53.799999237061</ele>
        <time>2021-12-12T10:54:41.000Z</time>
      </trkpt>
      <trkpt lat="47.30861" lon="-2.38887">
        <ele>53.799999237061</ele>
        <time>2021-12-12T10:54:44.000Z</time>
      </trkpt>
      <trkpt lat="47.3085" lon="-2.38892">
        <ele>53.799999237061</ele>
        <time>2021-12-12T10:54:46.000Z</time>
      </trkpt>
      <trkpt lat="47.30844" lon="-2.38896">
        <ele>53.400001525879</ele>
        <time>2021-12-12T10:54:47.000Z</time>
      </trkpt>
      <trkpt lat="47.30839" lon="-2.389">
        <ele>53</ele>
        <time>2021-12-12T10:54:48.000Z</time>
      </trkpt>
      <trkpt lat="47.30832" lon="-2.38905">
        <ele>52.599998474121</ele>
        <time>2021-12-12T10:54:49.000Z</time>
      </trkpt>
      <trkpt lat="47.30826" lon="-2.3891">
        <ele>52.200000762939</ele>
        <time>2021-12-12T10:54:50.000Z</time>
      </trkpt>
      <trkpt lat="47.3082" lon="-2.38915">
        <ele>51.799999237061</ele>
        <time>2021-12-12T10:54:51.000Z</time>
      </trkpt>
      <trkpt lat="47.30799" lon="-2.38931">
        <ele>51.400001525879</ele>
        <time>2021-12-12T10:54:54.000Z</time>
      </trkpt>
      <trkpt lat="47.30793" lon="-2.38936">
        <ele>51</ele>
        <time>2021-12-12T10:54:55.000Z</time>
      </trkpt>
      <trkpt lat="47.30788" lon="-2.3894">
        <ele>50.400001525879</ele>
        <time>2021-12-12T10:54:56.000Z</time>
      </trkpt>
      <trkpt lat="47.30783" lon="-2.38945">
        <ele>50</ele>
        <time>2021-12-12T10:54:57.000Z</time>
      </trkpt>
      <trkpt lat="47.30778" lon="-2.38949">
        <ele>49.599998474121</ele>
        <time>2021-12-12T10:54:58.000Z</time>
      </trkpt>
      <trkpt lat="47.30761" lon="-2.38966">
        <ele>49.599998474121</ele>
        <time>2021-12-12T10:55:02.000Z</time>
      </trkpt>
      <trkpt lat="47.30758" lon="-2.3897">
        <ele>49.599998474121</ele>
        <time>2021-12-12T10:55:03.000Z</time>
      </trkpt>
      <trkpt lat="47.30752" lon="-2.38986">
        <ele>49.599998474121</ele>
        <time>2021-12-12T10:55:06.000Z</time>
      </trkpt>
      <trkpt lat="47.30736" lon="-2.39001">
        <ele>50</ele>
        <time>2021-12-12T10:55:10.000Z</time>
      </trkpt>
      <trkpt lat="47.30731" lon="-2.39">
        <ele>50.599998474121</ele>
        <time>2021-12-12T10:55:11.000Z</time>
      </trkpt>
      <trkpt lat="47.30727" lon="-2.38998">
        <ele>51</ele>
        <time>2021-12-12T10:55:12.000Z</time>
      </trkpt>
      <trkpt lat="47.30723" lon="-2.38995">
        <ele>51.400001525879</ele>
        <time>2021-12-12T10:55:13.000Z</time>
      </trkpt>
      <trkpt lat="47.30719" lon="-2.38991">
        <ele>51.799999237061</ele>
        <time>2021-12-12T10:55:14.000Z</time>
      </trkpt>
      <trkpt lat="47.30707" lon="-2.38969">
        <ele>51.799999237061</ele>
        <time>2021-12-12T10:55:18.000Z</time>
      </trkpt>
      <trkpt lat="47.30704" lon="-2.38964">
        <ele>51.799999237061</ele>
        <time>2021-12-12T10:55:19.000Z</time>
      </trkpt>
      <trkpt lat="47.30695" lon="-2.38939">
        <ele>51.799999237061</ele>
        <time>2021-12-12T10:55:23.000Z</time>
      </trkpt>
      <trkpt lat="47.30695" lon="-2.38921">
        <ele>51.799999237061</ele>
        <time>2021-12-12T10:55:26.000Z</time>
      </trkpt>
      <trkpt lat="47.30693" lon="-2.38915">
        <ele>51.799999237061</ele>
        <time>2021-12-12T10:55:27.000Z</time>
      </trkpt>
      <trkpt lat="47.30683" lon="-2.3891">
        <ele>51.799999237061</ele>
        <time>2021-12-12T10:55:30.000Z</time>
      </trkpt>
      <trkpt lat="47.30667" lon="-2.38925">
        <ele>51.799999237061</ele>
        <time>2021-12-12T10:55:34.000Z</time>
      </trkpt>
      <trkpt lat="47.30664" lon="-2.38929">
        <ele>51.799999237061</ele>
        <time>2021-12-12T10:55:35.000Z</time>
      </trkpt>
      <trkpt lat="47.3064" lon="-2.38951">
        <ele>51.799999237061</ele>
        <time>2021-12-12T10:55:41.000Z</time>
      </trkpt>
      <trkpt lat="47.30609" lon="-2.38981">
        <ele>51.799999237061</ele>
        <time>2021-12-12T10:55:49.000Z</time>
      </trkpt>
      <trkpt lat="47.30587" lon="-2.39008">
        <ele>51.799999237061</ele>
        <time>2021-12-12T10:55:55.000Z</time>
      </trkpt>
      <trkpt lat="47.30559" lon="-2.39042">
        <ele>51.799999237061</ele>
        <time>2021-12-12T10:56:02.000Z</time>
      </trkpt>
      <trkpt lat="47.30555" lon="-2.39047">
        <ele>51.400001525879</ele>
        <time>2021-12-12T10:56:03.000Z</time>
      </trkpt>
      <trkpt lat="47.3055" lon="-2.39052">
        <ele>51</ele>
        <time>2021-12-12T10:56:04.000Z</time>
      </trkpt>
      <trkpt lat="47.30546" lon="-2.39057">
        <ele>50.599998474121</ele>
        <time>2021-12-12T10:56:05.000Z</time>
      </trkpt>
      <trkpt lat="47.30541" lon="-2.39061">
        <ele>50.200000762939</ele>
        <time>2021-12-12T10:56:06.000Z</time>
      </trkpt>
      <trkpt lat="47.30537" lon="-2.39065">
        <ele>49.799999237061</ele>
        <time>2021-12-12T10:56:07.000Z</time>
      </trkpt>
      <trkpt lat="47.30533" lon="-2.39069">
        <ele>49.799999237061</ele>
        <time>2021-12-12T10:56:08.000Z</time>
      </trkpt>
      <trkpt lat="47.30498" lon="-2.39103">
        <ele>49.799999237061</ele>
        <time>2021-12-12T10:56:16.000Z</time>
      </trkpt>
      <trkpt lat="47.30478" lon="-2.39123">
        <ele>49.400001525879</ele>
        <time>2021-12-12T10:56:20.000Z</time>
      </trkpt>
      <trkpt lat="47.30473" lon="-2.39128">
        <ele>49</ele>
        <time>2021-12-12T10:56:21.000Z</time>
      </trkpt>
      <trkpt lat="47.30468" lon="-2.39134">
        <ele>48.599998474121</ele>
        <time>2021-12-12T10:56:22.000Z</time>
      </trkpt>
      <trkpt lat="47.30464" lon="-2.3914">
        <ele>48.200000762939</ele>
        <time>2021-12-12T10:56:23.000Z</time>
      </trkpt>
      <trkpt lat="47.30459" lon="-2.39146">
        <ele>47.599998474121</ele>
        <time>2021-12-12T10:56:24.000Z</time>
      </trkpt>
      <trkpt lat="47.30443" lon="-2.39162">
        <ele>47.599998474121</ele>
        <time>2021-12-12T10:56:27.000Z</time>
      </trkpt>
      <trkpt lat="47.30432" lon="-2.39171">
        <ele>47.200000762939</ele>
        <time>2021-12-12T10:56:29.000Z</time>
      </trkpt>
      <trkpt lat="47.30426" lon="-2.39173">
        <ele>46.799999237061</ele>
        <time>2021-12-12T10:56:30.000Z</time>
      </trkpt>
      <trkpt lat="47.30419" lon="-2.39175">
        <ele>46.400001525879</ele>
        <time>2021-12-12T10:56:31.000Z</time>
      </trkpt>
      <trkpt lat="47.30413" lon="-2.39175">
        <ele>46</ele>
        <time>2021-12-12T10:56:32.000Z</time>
      </trkpt>
      <trkpt lat="47.30406" lon="-2.39174">
        <ele>45.599998474121</ele>
        <time>2021-12-12T10:56:33.000Z</time>
      </trkpt>
      <trkpt lat="47.30394" lon="-2.39169">
        <ele>45.599998474121</ele>
        <time>2021-12-12T10:56:35.000Z</time>
      </trkpt>
      <trkpt lat="47.30376" lon="-2.39146">
        <ele>45.599998474121</ele>
        <time>2021-12-12T10:56:39.000Z</time>
      </trkpt>
      <trkpt lat="47.30368" lon="-2.39125">
        <ele>45.599998474121</ele>
        <time>2021-12-12T10:56:42.000Z</time>
      </trkpt>
      <trkpt lat="47.30364" lon="-2.39112">
        <ele>45.599998474121</ele>
        <time>2021-12-12T10:56:44.000Z</time>
      </trkpt>
      <trkpt lat="47.30363" lon="-2.39105">
        <ele>45.599998474121</ele>
        <time>2021-12-12T10:56:45.000Z</time>
      </trkpt>
      <trkpt lat="47.30357" lon="-2.39078">
        <ele>45.599998474121</ele>
        <time>2021-12-12T10:56:49.000Z</time>
      </trkpt>
      <trkpt lat="47.30348" lon="-2.39034">
        <ele>45.599998474121</ele>
        <time>2021-12-12T10:56:56.000Z</time>
      </trkpt>
      <trkpt lat="47.30334" lon="-2.3899">
        <ele>45.599998474121</ele>
        <time>2021-12-12T10:57:02.000Z</time>
      </trkpt>
      <trkpt lat="47.3033" lon="-2.38978">
        <ele>45.599998474121</ele>
        <time>2021-12-12T10:57:04.000Z</time>
      </trkpt>
      <trkpt lat="47.30326" lon="-2.38968">
        <ele>45.599998474121</ele>
        <time>2021-12-12T10:57:06.000Z</time>
      </trkpt>
      <trkpt lat="47.30317" lon="-2.38956">
        <ele>45.599998474121</ele>
        <time>2021-12-12T10:57:11.000Z</time>
      </trkpt>
      <trkpt lat="47.30314" lon="-2.38952">
        <ele>45.200000762939</ele>
        <time>2021-12-12T10:57:13.000Z</time>
      </trkpt>
      <trkpt lat="47.30312" lon="-2.38949">
        <ele>44.799999237061</ele>
        <time>2021-12-12T10:57:14.000Z</time>
      </trkpt>
      <trkpt lat="47.3031" lon="-2.38944">
        <ele>44.400001525879</ele>
        <time>2021-12-12T10:57:15.000Z</time>
      </trkpt>
      <trkpt lat="47.30307" lon="-2.38939">
        <ele>44</ele>
        <time>2021-12-12T10:57:16.000Z</time>
      </trkpt>
      <trkpt lat="47.30305" lon="-2.38934">
        <ele>43.599998474121</ele>
        <time>2021-12-12T10:57:17.000Z</time>
      </trkpt>
      <trkpt lat="47.30295" lon="-2.38909">
        <ele>43.599998474121</ele>
        <time>2021-12-12T10:57:21.000Z</time>
      </trkpt>
      <trkpt lat="47.30273" lon="-2.38855">
        <ele>43.599998474121</ele>
        <time>2021-12-12T10:57:29.000Z</time>
      </trkpt>
      <trkpt lat="47.3026" lon="-2.38819">
        <ele>43.599998474121</ele>
        <time>2021-12-12T10:57:34.000Z</time>
      </trkpt>
      <trkpt lat="47.30256" lon="-2.38812">
        <ele>43.599998474121</ele>
        <time>2021-12-12T10:57:35.000Z</time>
      </trkpt>
      <trkpt lat="47.30246" lon="-2.38797">
        <ele>43.200000762939</ele>
        <time>2021-12-12T10:57:37.000Z</time>
      </trkpt>
      <trkpt lat="47.30241" lon="-2.3879">
        <ele>42.400001525879</ele>
        <time>2021-12-12T10:57:38.000Z</time>
      </trkpt>
      <trkpt lat="47.30235" lon="-2.38784">
        <ele>42</ele>
        <time>2021-12-12T10:57:39.000Z</time>
      </trkpt>
      <trkpt lat="47.3023" lon="-2.38777">
        <ele>41.400001525879</ele>
        <time>2021-12-12T10:57:40.000Z</time>
      </trkpt>
      <trkpt lat="47.30225" lon="-2.38772">
        <ele>40.799999237061</ele>
        <time>2021-12-12T10:57:41.000Z</time>
      </trkpt>
      <trkpt lat="47.30219" lon="-2.38769">
        <ele>40.200000762939</ele>
        <time>2021-12-12T10:57:42.000Z</time>
      </trkpt>
      <trkpt lat="47.30213" lon="-2.38766">
        <ele>39.400001525879</ele>
        <time>2021-12-12T10:57:43.000Z</time>
      </trkpt>
      <trkpt lat="47.30205" lon="-2.38767">
        <ele>38.799999237061</ele>
        <time>2021-12-12T10:57:44.000Z</time>
      </trkpt>
      <trkpt lat="47.30196" lon="-2.38771">
        <ele>38</ele>
        <time>2021-12-12T10:57:45.000Z</time>
      </trkpt>
      <trkpt lat="47.30188" lon="-2.38777">
        <ele>37.200000762939</ele>
        <time>2021-12-12T10:57:46.000Z</time>
      </trkpt>
      <trkpt lat="47.30182" lon="-2.38785">
        <ele>36.400001525879</ele>
        <time>2021-12-12T10:57:47.000Z</time>
      </trkpt>
      <trkpt lat="47.30177" lon="-2.38793">
        <ele>35.599998474121</ele>
        <time>2021-12-12T10:57:48.000Z</time>
      </trkpt>
      <trkpt lat="47.30171" lon="-2.38801">
        <ele>35</ele>
        <time>2021-12-12T10:57:49.000Z</time>
      </trkpt>
      <trkpt lat="47.30164" lon="-2.38811">
        <ele>34.200000762939</ele>
        <time>2021-12-12T10:57:50.000Z</time>
      </trkpt>
      <trkpt lat="47.30158" lon="-2.3882">
        <ele>33.799999237061</ele>
        <time>2021-12-12T10:57:51.000Z</time>
      </trkpt>
      <trkpt lat="47.30153" lon="-2.3883">
        <ele>33.200000762939</ele>
        <time>2021-12-12T10:57:52.000Z</time>
      </trkpt>
      <trkpt lat="47.30147" lon="-2.3884">
        <ele>32.799999237061</ele>
        <time>2021-12-12T10:57:53.000Z</time>
      </trkpt>
      <trkpt lat="47.30141" lon="-2.38851">
        <ele>32.400001525879</ele>
        <time>2021-12-12T10:57:54.000Z</time>
      </trkpt>
      <trkpt lat="47.30136" lon="-2.38862">
        <ele>32</ele>
        <time>2021-12-12T10:57:55.000Z</time>
      </trkpt>
      <trkpt lat="47.30131" lon="-2.38873">
        <ele>31.60000038147</ele>
        <time>2021-12-12T10:57:56.000Z</time>
      </trkpt>
      <trkpt lat="47.30124" lon="-2.38884">
        <ele>31.200000762939</ele>
        <time>2021-12-12T10:57:57.000Z</time>
      </trkpt>
      <trkpt lat="47.30118" lon="-2.38894">
        <ele>30.60000038147</ele>
        <time>2021-12-12T10:57:58.000Z</time>
      </trkpt>
      <trkpt lat="47.30112" lon="-2.38903">
        <ele>30.200000762939</ele>
        <time>2021-12-12T10:57:59.000Z</time>
      </trkpt>
      <trkpt lat="47.30105" lon="-2.38911">
        <ele>29.799999237061</ele>
        <time>2021-12-12T10:58:00.000Z</time>
      </trkpt>
      <trkpt lat="47.30097" lon="-2.38919">
        <ele>29.39999961853</ele>
        <time>2021-12-12T10:58:01.000Z</time>
      </trkpt>
      <trkpt lat="47.30088" lon="-2.38925">
        <ele>29</ele>
        <time>2021-12-12T10:58:02.000Z</time>
      </trkpt>
      <trkpt lat="47.30079" lon="-2.38932">
        <ele>28.200000762939</ele>
        <time>2021-12-12T10:58:03.000Z</time>
      </trkpt>
      <trkpt lat="47.30071" lon="-2.38939">
        <ele>27.799999237061</ele>
        <time>2021-12-12T10:58:04.000Z</time>
      </trkpt>
      <trkpt lat="47.30062" lon="-2.38947">
        <ele>27.200000762939</ele>
        <time>2021-12-12T10:58:05.000Z</time>
      </trkpt>
      <trkpt lat="47.30054" lon="-2.38954">
        <ele>26.799999237061</ele>
        <time>2021-12-12T10:58:06.000Z</time>
      </trkpt>
      <trkpt lat="47.30048" lon="-2.3896">
        <ele>26.200000762939</ele>
        <time>2021-12-12T10:58:07.000Z</time>
      </trkpt>
      <trkpt lat="47.30042" lon="-2.38966">
        <ele>25.60000038147</ele>
        <time>2021-12-12T10:58:08.000Z</time>
      </trkpt>
      <trkpt lat="47.30038" lon="-2.38974">
        <ele>25</ele>
        <time>2021-12-12T10:58:09.000Z</time>
      </trkpt>
      <trkpt lat="47.30034" lon="-2.38982">
        <ele>24.39999961853</ele>
        <time>2021-12-12T10:58:10.000Z</time>
      </trkpt>
      <trkpt lat="47.30032" lon="-2.38991">
        <ele>23.799999237061</ele>
        <time>2021-12-12T10:58:11.000Z</time>
      </trkpt>
      <trkpt lat="47.30031" lon="-2.39001">
        <ele>23.200000762939</ele>
        <time>2021-12-12T10:58:12.000Z</time>
      </trkpt>
      <trkpt lat="47.30029" lon="-2.39009">
        <ele>23.200000762939</ele>
        <time>2021-12-12T10:58:13.000Z</time>
      </trkpt>
      <trkpt lat="47.30026" lon="-2.39015">
        <ele>23.200000762939</ele>
        <time>2021-12-12T10:58:14.000Z</time>
      </trkpt>
      <trkpt lat="47.30021" lon="-2.3902">
        <ele>23.200000762939</ele>
        <time>2021-12-12T10:58:15.000Z</time>
      </trkpt>
      <trkpt lat="47.30006" lon="-2.39016">
        <ele>23.200000762939</ele>
        <time>2021-12-12T10:58:18.000Z</time>
      </trkpt>
      <trkpt lat="47.29993" lon="-2.38999">
        <ele>23.200000762939</ele>
        <time>2021-12-12T10:58:21.000Z</time>
      </trkpt>
      <trkpt lat="47.29975" lon="-2.39003">
        <ele>23.200000762939</ele>
        <time>2021-12-12T10:58:24.000Z</time>
      </trkpt>
      <trkpt lat="47.29963" lon="-2.39011">
        <ele>22.799999237061</ele>
        <time>2021-12-12T10:58:26.000Z</time>
      </trkpt>
      <trkpt lat="47.29957" lon="-2.39016">
        <ele>22</ele>
        <time>2021-12-12T10:58:27.000Z</time>
      </trkpt>
      <trkpt lat="47.29951" lon="-2.3902">
        <ele>21.60000038147</ele>
        <time>2021-12-12T10:58:28.000Z</time>
      </trkpt>
      <trkpt lat="47.29945" lon="-2.39024">
        <ele>21.200000762939</ele>
        <time>2021-12-12T10:58:29.000Z</time>
      </trkpt>
      <trkpt lat="47.29907" lon="-2.39054">
        <ele>21.200000762939</ele>
        <time>2021-12-12T10:58:35.000Z</time>
      </trkpt>
      <trkpt lat="47.29888" lon="-2.39069">
        <ele>20.799999237061</ele>
        <time>2021-12-12T10:58:38.000Z</time>
      </trkpt>
      <trkpt lat="47.29882" lon="-2.39075">
        <ele>20.39999961853</ele>
        <time>2021-12-12T10:58:39.000Z</time>
      </trkpt>
      <trkpt lat="47.29876" lon="-2.39079">
        <ele>20</ele>
        <time>2021-12-12T10:58:40.000Z</time>
      </trkpt>
      <trkpt lat="47.29869" lon="-2.39083">
        <ele>19.60000038147</ele>
        <time>2021-12-12T10:58:41.000Z</time>
      </trkpt>
      <trkpt lat="47.29863" lon="-2.39087">
        <ele>19.200000762939</ele>
        <time>2021-12-12T10:58:42.000Z</time>
      </trkpt>
      <trkpt lat="47.29812" lon="-2.39118">
        <ele>18.60000038147</ele>
        <time>2021-12-12T10:58:50.000Z</time>
      </trkpt>
      <trkpt lat="47.29806" lon="-2.39122">
        <ele>18.200000762939</ele>
        <time>2021-12-12T10:58:51.000Z</time>
      </trkpt>
      <trkpt lat="47.298" lon="-2.39125">
        <ele>17.39999961853</ele>
        <time>2021-12-12T10:58:52.000Z</time>
      </trkpt>
      <trkpt lat="47.29794" lon="-2.39129">
        <ele>17</ele>
        <time>2021-12-12T10:58:53.000Z</time>
      </trkpt>
      <trkpt lat="47.29768" lon="-2.39141">
        <ele>17</ele>
        <time>2021-12-12T10:58:57.000Z</time>
      </trkpt>
      <trkpt lat="47.29731" lon="-2.39161">
        <ele>17</ele>
        <time>2021-12-12T10:59:03.000Z</time>
      </trkpt>
      <trkpt lat="47.2972" lon="-2.39169">
        <ele>17</ele>
        <time>2021-12-12T10:59:05.000Z</time>
      </trkpt>
      <trkpt lat="47.29708" lon="-2.39174">
        <ele>17</ele>
        <time>2021-12-12T10:59:07.000Z</time>
      </trkpt>
      <trkpt lat="47.29698" lon="-2.39178">
        <ele>16.60000038147</ele>
        <time>2021-12-12T10:59:09.000Z</time>
      </trkpt>
      <trkpt lat="47.29692" lon="-2.39181">
        <ele>16.200000762939</ele>
        <time>2021-12-12T10:59:10.000Z</time>
      </trkpt>
      <trkpt lat="47.29686" lon="-2.39183">
        <ele>15.60000038147</ele>
        <time>2021-12-12T10:59:11.000Z</time>
      </trkpt>
      <trkpt lat="47.29681" lon="-2.39185">
        <ele>15.199999809265</ele>
        <time>2021-12-12T10:59:12.000Z</time>
      </trkpt>
      <trkpt lat="47.29675" lon="-2.39186">
        <ele>14.800000190735</ele>
        <time>2021-12-12T10:59:13.000Z</time>
      </trkpt>
      <trkpt lat="47.29664" lon="-2.39188">
        <ele>14.800000190735</ele>
        <time>2021-12-12T10:59:15.000Z</time>
      </trkpt>
      <trkpt lat="47.29648" lon="-2.39187">
        <ele>14.800000190735</ele>
        <time>2021-12-12T10:59:18.000Z</time>
      </trkpt>
      <trkpt lat="47.2964" lon="-2.39181">
        <ele>14.800000190735</ele>
        <time>2021-12-12T10:59:20.000Z</time>
      </trkpt>
      <trkpt lat="47.29622" lon="-2.39175">
        <ele>14.800000190735</ele>
        <time>2021-12-12T10:59:24.000Z</time>
      </trkpt>
      <trkpt lat="47.29588" lon="-2.39167">
        <ele>14.800000190735</ele>
        <time>2021-12-12T10:59:31.000Z</time>
      </trkpt>
      <trkpt lat="47.29573" lon="-2.39167">
        <ele>14.800000190735</ele>
        <time>2021-12-12T10:59:34.000Z</time>
      </trkpt>
      <trkpt lat="47.29551" lon="-2.39169">
        <ele>14.800000190735</ele>
        <time>2021-12-12T10:59:38.000Z</time>
      </trkpt>
      <trkpt lat="47.29505" lon="-2.39173">
        <ele>14.800000190735</ele>
        <time>2021-12-12T10:59:47.000Z</time>
      </trkpt>
      <trkpt lat="47.29459" lon="-2.39173">
        <ele>14.800000190735</ele>
        <time>2021-12-12T10:59:56.000Z</time>
      </trkpt>
      <trkpt lat="47.29449" lon="-2.39175">
        <ele>14.800000190735</ele>
        <time>2021-12-12T10:59:58.000Z</time>
      </trkpt>
      <trkpt lat="47.2943" lon="-2.39175">
        <ele>14.800000190735</ele>
        <time>2021-12-12T11:00:02.000Z</time>
      </trkpt>
      <trkpt lat="47.29417" lon="-2.39175">
        <ele>14.800000190735</ele>
        <time>2021-12-12T11:00:05.000Z</time>
      </trkpt>
      <trkpt lat="47.29399" lon="-2.39176">
        <ele>14.800000190735</ele>
        <time>2021-12-12T11:00:09.000Z</time>
      </trkpt>
      <trkpt lat="47.2939" lon="-2.39175">
        <ele>14.800000190735</ele>
        <time>2021-12-12T11:00:11.000Z</time>
      </trkpt>
      <trkpt lat="47.29379" lon="-2.39171">
        <ele>14.800000190735</ele>
        <time>2021-12-12T11:00:13.000Z</time>
      </trkpt>
      <trkpt lat="47.29369" lon="-2.39168">
        <ele>14.800000190735</ele>
        <time>2021-12-12T11:00:15.000Z</time>
      </trkpt>
      <trkpt lat="47.29364" lon="-2.39167">
        <ele>14.800000190735</ele>
        <time>2021-12-12T11:00:16.000Z</time>
      </trkpt>
      <trkpt lat="47.29354" lon="-2.3917">
        <ele>14.800000190735</ele>
        <time>2021-12-12T11:00:18.000Z</time>
      </trkpt>
      <trkpt lat="47.29349" lon="-2.39181">
        <ele>14.800000190735</ele>
        <time>2021-12-12T11:00:20.000Z</time>
      </trkpt>
      <trkpt lat="47.29348" lon="-2.39188">
        <ele>14.800000190735</ele>
        <time>2021-12-12T11:00:21.000Z</time>
      </trkpt>
      <trkpt lat="47.29346" lon="-2.39229">
        <ele>14.800000190735</ele>
        <time>2021-12-12T11:00:27.000Z</time>
      </trkpt>
      <trkpt lat="47.29349" lon="-2.39263">
        <ele>14.800000190735</ele>
        <time>2021-12-12T11:00:32.000Z</time>
      </trkpt>
      <trkpt lat="47.29351" lon="-2.39276">
        <ele>14.800000190735</ele>
        <time>2021-12-12T11:00:34.000Z</time>
      </trkpt>
      <trkpt lat="47.29351" lon="-2.39296">
        <ele>14.800000190735</ele>
        <time>2021-12-12T11:00:37.000Z</time>
      </trkpt>
      <trkpt lat="47.29347" lon="-2.39315">
        <ele>14.800000190735</ele>
        <time>2021-12-12T11:00:40.000Z</time>
      </trkpt>
      <trkpt lat="47.29336" lon="-2.39323">
        <ele>14.800000190735</ele>
        <time>2021-12-12T11:00:43.000Z</time>
      </trkpt>
      <trkpt lat="47.29323" lon="-2.39318">
        <ele>14.800000190735</ele>
        <time>2021-12-12T11:00:46.000Z</time>
      </trkpt>
      <trkpt lat="47.29318" lon="-2.39314">
        <ele>14.800000190735</ele>
        <time>2021-12-12T11:00:47.000Z</time>
      </trkpt>
      <trkpt lat="47.2928" lon="-2.39294">
        <ele>14.800000190735</ele>
        <time>2021-12-12T11:00:54.000Z</time>
      </trkpt>
      <trkpt lat="47.29274" lon="-2.39293">
        <ele>14.800000190735</ele>
        <time>2021-12-12T11:00:55.000Z</time>
      </trkpt>
      <trkpt lat="47.29255" lon="-2.39297">
        <ele>14.800000190735</ele>
        <time>2021-12-12T11:00:58.000Z</time>
      </trkpt>
      <trkpt lat="47.29248" lon="-2.39299">
        <ele>14.800000190735</ele>
        <time>2021-12-12T11:00:59.000Z</time>
      </trkpt>
      <trkpt lat="47.29211" lon="-2.39317">
        <ele>14.800000190735</ele>
        <time>2021-12-12T11:01:05.000Z</time>
      </trkpt>
      <trkpt lat="47.29193" lon="-2.39323">
        <ele>14.39999961853</ele>
        <time>2021-12-12T11:01:08.000Z</time>
      </trkpt>
      <trkpt lat="47.29187" lon="-2.39324">
        <ele>14</ele>
        <time>2021-12-12T11:01:09.000Z</time>
      </trkpt>
      <trkpt lat="47.2918" lon="-2.39327">
        <ele>13.60000038147</ele>
        <time>2021-12-12T11:01:10.000Z</time>
      </trkpt>
      <trkpt lat="47.29174" lon="-2.39329">
        <ele>13.199999809265</ele>
        <time>2021-12-12T11:01:11.000Z</time>
      </trkpt>
      <trkpt lat="47.29168" lon="-2.39332">
        <ele>12.800000190735</ele>
        <time>2021-12-12T11:01:12.000Z</time>
      </trkpt>
      <trkpt lat="47.29152" lon="-2.39341">
        <ele>12.800000190735</ele>
        <time>2021-12-12T11:01:15.000Z</time>
      </trkpt>
      <trkpt lat="47.29148" lon="-2.39345">
        <ele>12.800000190735</ele>
        <time>2021-12-12T11:01:16.000Z</time>
      </trkpt>
      <trkpt lat="47.29142" lon="-2.39355">
        <ele>12.800000190735</ele>
        <time>2021-12-12T11:01:18.000Z</time>
      </trkpt>
      <trkpt lat="47.2913" lon="-2.39364">
        <ele>12.800000190735</ele>
        <time>2021-12-12T11:01:21.000Z</time>
      </trkpt>
      <trkpt lat="47.29121" lon="-2.39369">
        <ele>12.800000190735</ele>
        <time>2021-12-12T11:01:23.000Z</time>
      </trkpt>
      <trkpt lat="47.29112" lon="-2.39373">
        <ele>12.800000190735</ele>
        <time>2021-12-12T11:01:25.000Z</time>
      </trkpt>
      <trkpt lat="47.29104" lon="-2.39378">
        <ele>13.199999809265</ele>
        <time>2021-12-12T11:01:27.000Z</time>
      </trkpt>
      <trkpt lat="47.29101" lon="-2.39379">
        <ele>13.60000038147</ele>
        <time>2021-12-12T11:01:28.000Z</time>
      </trkpt>
      <trkpt lat="47.29097" lon="-2.3938">
        <ele>14</ele>
        <time>2021-12-12T11:01:29.000Z</time>
      </trkpt>
      <trkpt lat="47.29093" lon="-2.39379">
        <ele>14.60000038147</ele>
        <time>2021-12-12T11:01:30.000Z</time>
      </trkpt>
      <trkpt lat="47.29089" lon="-2.39377">
        <ele>15</ele>
        <time>2021-12-12T11:01:31.000Z</time>
      </trkpt>
      <trkpt lat="47.29078" lon="-2.39365">
        <ele>15</ele>
        <time>2021-12-12T11:01:34.000Z</time>
      </trkpt>
      <trkpt lat="47.29072" lon="-2.39361">
        <ele>15</ele>
        <time>2021-12-12T11:01:35.000Z</time>
      </trkpt>
      <trkpt lat="47.29031" lon="-2.3934">
        <ele>15</ele>
        <time>2021-12-12T11:01:42.000Z</time>
      </trkpt>
      <trkpt lat="47.28991" lon="-2.39322">
        <ele>14.60000038147</ele>
        <time>2021-12-12T11:01:49.000Z</time>
      </trkpt>
      <trkpt lat="47.28986" lon="-2.3932">
        <ele>14.199999809265</ele>
        <time>2021-12-12T11:01:50.000Z</time>
      </trkpt>
      <trkpt lat="47.28981" lon="-2.3932">
        <ele>13.800000190735</ele>
        <time>2021-12-12T11:01:51.000Z</time>
      </trkpt>
      <trkpt lat="47.28976" lon="-2.3932">
        <ele>13.39999961853</ele>
        <time>2021-12-12T11:01:52.000Z</time>
      </trkpt>
      <trkpt lat="47.28971" lon="-2.3932">
        <ele>13</ele>
        <time>2021-12-12T11:01:53.000Z</time>
      </trkpt>
      <trkpt lat="47.28961" lon="-2.3932">
        <ele>13</ele>
        <time>2021-12-12T11:01:55.000Z</time>
      </trkpt>
      <trkpt lat="47.28951" lon="-2.39319">
        <ele>13</ele>
        <time>2021-12-12T11:01:57.000Z</time>
      </trkpt>
      <trkpt lat="47.28945" lon="-2.3931">
        <ele>13</ele>
        <time>2021-12-12T11:01:59.000Z</time>
      </trkpt>
      <trkpt lat="47.28941" lon="-2.39296">
        <ele>13</ele>
        <time>2021-12-12T11:02:01.000Z</time>
      </trkpt>
      <trkpt lat="47.28938" lon="-2.3929">
        <ele>13</ele>
        <time>2021-12-12T11:02:02.000Z</time>
      </trkpt>
      <trkpt lat="47.28932" lon="-2.3928">
        <ele>13</ele>
        <time>2021-12-12T11:02:04.000Z</time>
      </trkpt>
      <trkpt lat="47.28926" lon="-2.3927">
        <ele>13</ele>
        <time>2021-12-12T11:02:06.000Z</time>
      </trkpt>
      <trkpt lat="47.28916" lon="-2.39246">
        <ele>13</ele>
        <time>2021-12-12T11:02:10.000Z</time>
      </trkpt>
      <trkpt lat="47.2891" lon="-2.39229">
        <ele>13</ele>
        <time>2021-12-12T11:02:13.000Z</time>
      </trkpt>
      <trkpt lat="47.28906" lon="-2.39211">
        <ele>13</ele>
        <time>2021-12-12T11:02:16.000Z</time>
      </trkpt>
      <trkpt lat="47.28903" lon="-2.39193">
        <ele>13</ele>
        <time>2021-12-12T11:02:19.000Z</time>
      </trkpt>
      <trkpt lat="47.28902" lon="-2.39181">
        <ele>13.39999961853</ele>
        <time>2021-12-12T11:02:21.000Z</time>
      </trkpt>
      <trkpt lat="47.28902" lon="-2.39174">
        <ele>13.800000190735</ele>
        <time>2021-12-12T11:02:22.000Z</time>
      </trkpt>
      <trkpt lat="47.28902" lon="-2.39168">
        <ele>14.199999809265</ele>
        <time>2021-12-12T11:02:23.000Z</time>
      </trkpt>
      <trkpt lat="47.28902" lon="-2.39161">
        <ele>14.60000038147</ele>
        <time>2021-12-12T11:02:24.000Z</time>
      </trkpt>
      <trkpt lat="47.28902" lon="-2.39155">
        <ele>15</ele>
        <time>2021-12-12T11:02:25.000Z</time>
      </trkpt>
      <trkpt lat="47.28901" lon="-2.39135">
        <ele>15</ele>
        <time>2021-12-12T11:02:28.000Z</time>
      </trkpt>
      <trkpt lat="47.289" lon="-2.39091">
        <ele>15</ele>
        <time>2021-12-12T11:02:35.000Z</time>
      </trkpt>
      <trkpt lat="47.289" lon="-2.39042">
        <ele>15</ele>
        <time>2021-12-12T11:02:43.000Z</time>
      </trkpt>
      <trkpt lat="47.28903" lon="-2.39016">
        <ele>15</ele>
        <time>2021-12-12T11:02:48.000Z</time>
      </trkpt>
      <trkpt lat="47.28903" lon="-2.38978">
        <ele>15</ele>
        <time>2021-12-12T11:02:55.000Z</time>
      </trkpt>
      <trkpt lat="47.28899" lon="-2.38963">
        <ele>15</ele>
        <time>2021-12-12T11:03:00.000Z</time>
      </trkpt>
      <trkpt lat="47.28896" lon="-2.38968">
        <ele>15</ele>
        <time>2021-12-12T11:03:04.000Z</time>
      </trkpt>
      <trkpt lat="47.28895" lon="-2.38972">
        <ele>15</ele>
        <time>2021-12-12T11:03:06.000Z</time>
      </trkpt>
      <trkpt lat="47.28893" lon="-2.38983">
        <ele>15</ele>
        <time>2021-12-12T11:03:11.000Z</time>
      </trkpt>
      <trkpt lat="47.28891" lon="-2.39005">
        <ele>15</ele>
        <time>2021-12-12T11:03:18.000Z</time>
      </trkpt>
      <trkpt lat="47.28893" lon="-2.39026">
        <ele>15</ele>
        <time>2021-12-12T11:03:24.000Z</time>
      </trkpt>
      <trkpt lat="47.28893" lon="-2.39026">
        <ele>15</ele>
        <time>2021-12-12T11:03:25.000Z</time>
      </trkpt>
      <trkpt lat="47.28894" lon="-2.39019">
        <ele>15</ele>
        <time>2021-12-12T11:03:33.000Z</time>
      </trkpt>
      <trkpt lat="47.28894" lon="-2.39015">
        <ele>15</ele>
        <time>2021-12-12T11:03:35.000Z</time>
      </trkpt>
      <trkpt lat="47.28894" lon="-2.39012">
        <ele>14.60000038147</ele>
        <time>2021-12-12T11:03:37.000Z</time>
      </trkpt>
      <trkpt lat="47.28894" lon="-2.3901">
        <ele>14.199999809265</ele>
        <time>2021-12-12T11:03:38.000Z</time>
      </trkpt>
      <trkpt lat="47.28894" lon="-2.39009">
        <ele>13.800000190735</ele>
        <time>2021-12-12T11:03:39.000Z</time>
      </trkpt>
      <trkpt lat="47.28894" lon="-2.39008">
        <ele>13.39999961853</ele>
        <time>2021-12-12T11:03:40.000Z</time>
      </trkpt>
      <trkpt lat="47.28894" lon="-2.39007">
        <ele>13</ele>
        <time>2021-12-12T11:03:41.000Z</time>
      </trkpt>
      <trkpt lat="47.28894" lon="-2.39002">
        <ele>13</ele>
        <time>2021-12-12T11:03:45.000Z</time>
      </trkpt>
      <trkpt lat="47.28893" lon="-2.38992">
        <ele>13</ele>
        <time>2021-12-12T11:03:52.000Z</time>
      </trkpt>
      <trkpt lat="47.28893" lon="-2.38991">
        <ele>13</ele>
        <time>2021-12-12T11:03:53.000Z</time>
      </trkpt>
      <trkpt lat="47.28868" lon="-2.39">
        <ele>13</ele>
        <time>2021-12-12T11:04:25.000Z</time>
      </trkpt>
      <trkpt lat="47.28866" lon="-2.39003">
        <ele>13</ele>
        <time>2021-12-12T11:04:27.000Z</time>
      </trkpt>
      <trkpt lat="47.28864" lon="-2.39018">
        <ele>13</ele>
        <time>2021-12-12T11:04:36.000Z</time>
      </trkpt>
      <trkpt lat="47.28864" lon="-2.3903">
        <ele>13</ele>
        <time>2021-12-12T11:04:43.000Z</time>
      </trkpt>
      <trkpt lat="47.28863" lon="-2.39035">
        <ele>13</ele>
        <time>2021-12-12T11:04:46.000Z</time>
      </trkpt>
      <trkpt lat="47.28863" lon="-2.39035">
        <ele>13</ele>
        <time>2021-12-12T11:04:47.000Z</time>
      </trkpt>
      <trkpt lat="47.28863" lon="-2.39032">
        <ele>13</ele>
        <time>2021-12-12T11:04:50.000Z</time>
      </trkpt>
      <trkpt lat="47.28863" lon="-2.3902">
        <ele>13</ele>
        <time>2021-12-12T11:04:57.000Z</time>
      </trkpt>
      <trkpt lat="47.28864" lon="-2.39012">
        <ele>13</ele>
        <time>2021-12-12T11:05:02.000Z</time>
      </trkpt>
      <trkpt lat="47.28864" lon="-2.39008">
        <ele>13</ele>
        <time>2021-12-12T11:05:04.000Z</time>
      </trkpt>
      <trkpt lat="47.28864" lon="-2.39004">
        <ele>13.39999961853</ele>
        <time>2021-12-12T11:05:06.000Z</time>
      </trkpt>
      <trkpt lat="47.28864" lon="-2.39002">
        <ele>13.800000190735</ele>
        <time>2021-12-12T11:05:07.000Z</time>
      </trkpt>
      <trkpt lat="47.28863" lon="-2.39">
        <ele>14.199999809265</ele>
        <time>2021-12-12T11:05:08.000Z</time>
      </trkpt>
      <trkpt lat="47.28863" lon="-2.38999">
        <ele>14.60000038147</ele>
        <time>2021-12-12T11:05:09.000Z</time>
      </trkpt>
      <trkpt lat="47.28863" lon="-2.38997">
        <ele>15</ele>
        <time>2021-12-12T11:05:10.000Z</time>
      </trkpt>
      <trkpt lat="47.28862" lon="-2.38994">
        <ele>15</ele>
        <time>2021-12-12T11:05:12.000Z</time>
      </trkpt>
      <trkpt lat="47.28863" lon="-2.38993">
        <ele>15</ele>
        <time>2021-12-12T11:05:13.000Z</time>
      </trkpt>
      <trkpt lat="47.28863" lon="-2.38985">
        <ele>15</ele>
        <time>2021-12-12T11:05:18.000Z</time>
      </trkpt>
      <trkpt lat="47.28863" lon="-2.3898">
        <ele>15</ele>
        <time>2021-12-12T11:05:22.000Z</time>
      </trkpt>
      <trkpt lat="47.28851" lon="-2.38972">
        <ele>15</ele>
        <time>2021-12-12T11:05:40.000Z</time>
      </trkpt>
      <trkpt lat="47.2885" lon="-2.3897">
        <ele>15</ele>
        <time>2021-12-12T11:05:41.000Z</time>
      </trkpt>
      <trkpt lat="47.28848" lon="-2.38961">
        <ele>15</ele>
        <time>2021-12-12T11:05:44.000Z</time>
      </trkpt>
      <trkpt lat="47.28847" lon="-2.38953">
        <ele>15</ele>
        <time>2021-12-12T11:05:46.000Z</time>
      </trkpt>
      <trkpt lat="47.28845" lon="-2.38934">
        <ele>15</ele>
        <time>2021-12-12T11:05:52.000Z</time>
      </trkpt>
      <trkpt lat="47.28839" lon="-2.38926">
        <ele>15</ele>
        <time>2021-12-12T11:05:56.000Z</time>
      </trkpt>
      <trkpt lat="47.28837" lon="-2.38926">
        <ele>15</ele>
        <time>2021-12-12T11:05:57.000Z</time>
      </trkpt>
      <trkpt lat="47.28824" lon="-2.38926">
        <ele>15</ele>
        <time>2021-12-12T11:06:02.000Z</time>
      </trkpt>
      <trkpt lat="47.28821" lon="-2.38926">
        <ele>15</ele>
        <time>2021-12-12T11:06:03.000Z</time>
      </trkpt>
      <trkpt lat="47.28798" lon="-2.38925">
        <ele>15</ele>
        <time>2021-12-12T11:06:09.000Z</time>
      </trkpt>
      <trkpt lat="47.28776" lon="-2.38927">
        <ele>15</ele>
        <time>2021-12-12T11:06:15.000Z</time>
      </trkpt>
      <trkpt lat="47.2876" lon="-2.38928">
        <ele>15</ele>
        <time>2021-12-12T11:06:20.000Z</time>
      </trkpt>
      <trkpt lat="47.28743" lon="-2.38934">
        <ele>15</ele>
        <time>2021-12-12T11:06:25.000Z</time>
      </trkpt>
      <trkpt lat="47.28739" lon="-2.38935">
        <ele>15</ele>
        <time>2021-12-12T11:06:26.000Z</time>
      </trkpt>
      <trkpt lat="47.28728" lon="-2.38933">
        <ele>15</ele>
        <time>2021-12-12T11:06:28.000Z</time>
      </trkpt>
      <trkpt lat="47.28717" lon="-2.3893">
        <ele>15</ele>
        <time>2021-12-12T11:06:30.000Z</time>
      </trkpt>
      <trkpt lat="47.28703" lon="-2.38923">
        <ele>15</ele>
        <time>2021-12-12T11:06:33.000Z</time>
      </trkpt>
      <trkpt lat="47.28678" lon="-2.3891">
        <ele>15.39999961853</ele>
        <time>2021-12-12T11:06:39.000Z</time>
      </trkpt>
      <trkpt lat="47.28674" lon="-2.38909">
        <ele>15.800000190735</ele>
        <time>2021-12-12T11:06:40.000Z</time>
      </trkpt>
      <trkpt lat="47.2867" lon="-2.38907">
        <ele>16.200000762939</ele>
        <time>2021-12-12T11:06:41.000Z</time>
      </trkpt>
      <trkpt lat="47.28667" lon="-2.38905">
        <ele>17</ele>
        <time>2021-12-12T11:06:42.000Z</time>
      </trkpt>
      <trkpt lat="47.28657" lon="-2.38895">
        <ele>17</ele>
        <time>2021-12-12T11:06:46.000Z</time>
      </trkpt>
      <trkpt lat="47.2866" lon="-2.38875">
        <ele>17</ele>
        <time>2021-12-12T11:06:50.000Z</time>
      </trkpt>
      <trkpt lat="47.28664" lon="-2.38844">
        <ele>17</ele>
        <time>2021-12-12T11:06:55.000Z</time>
      </trkpt>
      <trkpt lat="47.28663" lon="-2.38837">
        <ele>17</ele>
        <time>2021-12-12T11:06:56.000Z</time>
      </trkpt>
      <trkpt lat="47.28654" lon="-2.38819">
        <ele>17</ele>
        <time>2021-12-12T11:06:59.000Z</time>
      </trkpt>
      <trkpt lat="47.28642" lon="-2.38802">
        <ele>17</ele>
        <time>2021-12-12T11:07:02.000Z</time>
      </trkpt>
      <trkpt lat="47.28635" lon="-2.38791">
        <ele>17</ele>
        <time>2021-12-12T11:07:04.000Z</time>
      </trkpt>
      <trkpt lat="47.28631" lon="-2.38786">
        <ele>16.60000038147</ele>
        <time>2021-12-12T11:07:05.000Z</time>
      </trkpt>
      <trkpt lat="47.28627" lon="-2.38782">
        <ele>16.200000762939</ele>
        <time>2021-12-12T11:07:06.000Z</time>
      </trkpt>
      <trkpt lat="47.28624" lon="-2.38778">
        <ele>15.39999961853</ele>
        <time>2021-12-12T11:07:07.000Z</time>
      </trkpt>
      <trkpt lat="47.28621" lon="-2.38773">
        <ele>15</ele>
        <time>2021-12-12T11:07:08.000Z</time>
      </trkpt>
      <trkpt lat="47.28615" lon="-2.38765">
        <ele>15</ele>
        <time>2021-12-12T11:07:10.000Z</time>
      </trkpt>
      <trkpt lat="47.286" lon="-2.38742">
        <ele>15</ele>
        <time>2021-12-12T11:07:15.000Z</time>
      </trkpt>
      <trkpt lat="47.28576" lon="-2.38704">
        <ele>15</ele>
        <time>2021-12-12T11:07:22.000Z</time>
      </trkpt>
      <trkpt lat="47.28563" lon="-2.38683">
        <ele>15</ele>
        <time>2021-12-12T11:07:26.000Z</time>
      </trkpt>
      <trkpt lat="47.28557" lon="-2.38672">
        <ele>15</ele>
        <time>2021-12-12T11:07:28.000Z</time>
      </trkpt>
      <trkpt lat="47.28538" lon="-2.38633">
        <ele>15</ele>
        <time>2021-12-12T11:07:35.000Z</time>
      </trkpt>
      <trkpt lat="47.28526" lon="-2.38608">
        <ele>15</ele>
        <time>2021-12-12T11:07:40.000Z</time>
      </trkpt>
      <trkpt lat="47.28523" lon="-2.38603">
        <ele>15</ele>
        <time>2021-12-12T11:07:41.000Z</time>
      </trkpt>
      <trkpt lat="47.28511" lon="-2.38579">
        <ele>15</ele>
        <time>2021-12-12T11:07:45.000Z</time>
      </trkpt>
      <trkpt lat="47.28499" lon="-2.38546">
        <ele>15</ele>
        <time>2021-12-12T11:07:50.000Z</time>
      </trkpt>
      <trkpt lat="47.28497" lon="-2.3854">
        <ele>15</ele>
        <time>2021-12-12T11:07:51.000Z</time>
      </trkpt>
      <trkpt lat="47.28492" lon="-2.38528">
        <ele>15</ele>
        <time>2021-12-12T11:07:53.000Z</time>
      </trkpt>
      <trkpt lat="47.28483" lon="-2.38505">
        <ele>15</ele>
        <time>2021-12-12T11:07:57.000Z</time>
      </trkpt>
      <trkpt lat="47.2848" lon="-2.38495">
        <ele>15</ele>
        <time>2021-12-12T11:07:59.000Z</time>
      </trkpt>
      <trkpt lat="47.28475" lon="-2.38479">
        <ele>15</ele>
        <time>2021-12-12T11:08:02.000Z</time>
      </trkpt>
      <trkpt lat="47.2847" lon="-2.38445">
        <ele>15</ele>
        <time>2021-12-12T11:08:07.000Z</time>
      </trkpt>
      <trkpt lat="47.28469" lon="-2.38436">
        <ele>15</ele>
        <time>2021-12-12T11:08:08.000Z</time>
      </trkpt>
      <trkpt lat="47.28469" lon="-2.38387">
        <ele>15</ele>
        <time>2021-12-12T11:08:14.000Z</time>
      </trkpt>
      <trkpt lat="47.28469" lon="-2.38335">
        <ele>15</ele>
        <time>2021-12-12T11:08:21.000Z</time>
      </trkpt>
      <trkpt lat="47.28467" lon="-2.38314">
        <ele>15</ele>
        <time>2021-12-12T11:08:24.000Z</time>
      </trkpt>
      <trkpt lat="47.28463" lon="-2.38295">
        <ele>15</ele>
        <time>2021-12-12T11:08:27.000Z</time>
      </trkpt>
      <trkpt lat="47.28454" lon="-2.3827">
        <ele>15</ele>
        <time>2021-12-12T11:08:31.000Z</time>
      </trkpt>
      <trkpt lat="47.28441" lon="-2.3824">
        <ele>15</ele>
        <time>2021-12-12T11:08:36.000Z</time>
      </trkpt>
      <trkpt lat="47.28436" lon="-2.38227">
        <ele>15</ele>
        <time>2021-12-12T11:08:38.000Z</time>
      </trkpt>
      <trkpt lat="47.2842" lon="-2.38198">
        <ele>15</ele>
        <time>2021-12-12T11:08:43.000Z</time>
      </trkpt>
      <trkpt lat="47.28391" lon="-2.38144">
        <ele>15</ele>
        <time>2021-12-12T11:08:51.000Z</time>
      </trkpt>
      <trkpt lat="47.28376" lon="-2.38115">
        <ele>15</ele>
        <time>2021-12-12T11:08:56.000Z</time>
      </trkpt>
      <trkpt lat="47.28367" lon="-2.38105">
        <ele>15</ele>
        <time>2021-12-12T11:09:00.000Z</time>
      </trkpt>
      <trkpt lat="47.28354" lon="-2.38086">
        <ele>15</ele>
        <time>2021-12-12T11:09:05.000Z</time>
      </trkpt>
      <trkpt lat="47.28326" lon="-2.38057">
        <ele>15</ele>
        <time>2021-12-12T11:09:13.000Z</time>
      </trkpt>
      <trkpt lat="47.28304" lon="-2.38034">
        <ele>15</ele>
        <time>2021-12-12T11:09:19.000Z</time>
      </trkpt>
      <trkpt lat="47.2828" lon="-2.38017">
        <ele>15</ele>
        <time>2021-12-12T11:09:24.000Z</time>
      </trkpt>
      <trkpt lat="47.28275" lon="-2.38015">
        <ele>15</ele>
        <time>2021-12-12T11:09:25.000Z</time>
      </trkpt>
      <trkpt lat="47.28259" lon="-2.3801">
        <ele>15</ele>
        <time>2021-12-12T11:09:28.000Z</time>
      </trkpt>
      <trkpt lat="47.28248" lon="-2.38011">
        <ele>15</ele>
        <time>2021-12-12T11:09:30.000Z</time>
      </trkpt>
      <trkpt lat="47.28233" lon="-2.38016">
        <ele>15</ele>
        <time>2021-12-12T11:09:33.000Z</time>
      </trkpt>
      <trkpt lat="47.28223" lon="-2.3802">
        <ele>15</ele>
        <time>2021-12-12T11:09:35.000Z</time>
      </trkpt>
      <trkpt lat="47.2819" lon="-2.38029">
        <ele>15</ele>
        <time>2021-12-12T11:09:42.000Z</time>
      </trkpt>
      <trkpt lat="47.28169" lon="-2.38036">
        <ele>15</ele>
        <time>2021-12-12T11:09:47.000Z</time>
      </trkpt>
      <trkpt lat="47.28165" lon="-2.38038">
        <ele>15.39999961853</ele>
        <time>2021-12-12T11:09:48.000Z</time>
      </trkpt>
      <trkpt lat="47.2816" lon="-2.3804">
        <ele>15.800000190735</ele>
        <time>2021-12-12T11:09:49.000Z</time>
      </trkpt>
      <trkpt lat="47.28155" lon="-2.38042">
        <ele>16.200000762939</ele>
        <time>2021-12-12T11:09:50.000Z</time>
      </trkpt>
      <trkpt lat="47.2815" lon="-2.38045">
        <ele>16.60000038147</ele>
        <time>2021-12-12T11:09:51.000Z</time>
      </trkpt>
      <trkpt lat="47.28145" lon="-2.38047">
        <ele>17</ele>
        <time>2021-12-12T11:09:52.000Z</time>
      </trkpt>
      <trkpt lat="47.2813" lon="-2.38054">
        <ele>17</ele>
        <time>2021-12-12T11:09:55.000Z</time>
      </trkpt>
      <trkpt lat="47.28089" lon="-2.38072">
        <ele>17</ele>
        <time>2021-12-12T11:10:03.000Z</time>
      </trkpt>
      <trkpt lat="47.28054" lon="-2.38087">
        <ele>17</ele>
        <time>2021-12-12T11:10:11.000Z</time>
      </trkpt>
      <trkpt lat="47.28035" lon="-2.38096">
        <ele>17</ele>
        <time>2021-12-12T11:10:17.000Z</time>
      </trkpt>
      <trkpt lat="47.28025" lon="-2.38101">
        <ele>17</ele>
        <time>2021-12-12T11:10:21.000Z</time>
      </trkpt>
      <trkpt lat="47.28022" lon="-2.38098">
        <ele>17</ele>
        <time>2021-12-12T11:10:22.000Z</time>
      </trkpt>
      <trkpt lat="47.28016" lon="-2.3808">
        <ele>17</ele>
        <time>2021-12-12T11:10:25.000Z</time>
      </trkpt>
      <trkpt lat="47.28015" lon="-2.38073">
        <ele>17</ele>
        <time>2021-12-12T11:10:26.000Z</time>
      </trkpt>
      <trkpt lat="47.28007" lon="-2.38018">
        <ele>17</ele>
        <time>2021-12-12T11:10:33.000Z</time>
      </trkpt>
      <trkpt lat="47.27997" lon="-2.37972">
        <ele>17</ele>
        <time>2021-12-12T11:10:39.000Z</time>
      </trkpt>
      <trkpt lat="47.27989" lon="-2.37925">
        <ele>17</ele>
        <time>2021-12-12T11:10:45.000Z</time>
      </trkpt>
      <trkpt lat="47.27976" lon="-2.37854">
        <ele>17</ele>
        <time>2021-12-12T11:10:54.000Z</time>
      </trkpt>
      <trkpt lat="47.27972" lon="-2.37824">
        <ele>17</ele>
        <time>2021-12-12T11:10:58.000Z</time>
      </trkpt>
      <trkpt lat="47.27968" lon="-2.37808">
        <ele>17</ele>
        <time>2021-12-12T11:11:00.000Z</time>
      </trkpt>
      <trkpt lat="47.27966" lon="-2.378">
        <ele>17</ele>
        <time>2021-12-12T11:11:01.000Z</time>
      </trkpt>
      <trkpt lat="47.27962" lon="-2.37776">
        <ele>17</ele>
        <time>2021-12-12T11:11:04.000Z</time>
      </trkpt>
      <trkpt lat="47.2796" lon="-2.37768">
        <ele>17</ele>
        <time>2021-12-12T11:11:05.000Z</time>
      </trkpt>
      <trkpt lat="47.27946" lon="-2.3771">
        <ele>17</ele>
        <time>2021-12-12T11:11:12.000Z</time>
      </trkpt>
      <trkpt lat="47.27928" lon="-2.37634">
        <ele>17</ele>
        <time>2021-12-12T11:11:21.000Z</time>
      </trkpt>
      <trkpt lat="47.27914" lon="-2.37571">
        <ele>17</ele>
        <time>2021-12-12T11:11:28.000Z</time>
      </trkpt>
      <trkpt lat="47.27899" lon="-2.37502">
        <ele>17</ele>
        <time>2021-12-12T11:11:36.000Z</time>
      </trkpt>
      <trkpt lat="47.27882" lon="-2.37432">
        <ele>17</ele>
        <time>2021-12-12T11:11:44.000Z</time>
      </trkpt>
      <trkpt lat="47.27866" lon="-2.37367">
        <ele>17</ele>
        <time>2021-12-12T11:11:52.000Z</time>
      </trkpt>
      <trkpt lat="47.27847" lon="-2.37295">
        <ele>17</ele>
        <time>2021-12-12T11:12:01.000Z</time>
      </trkpt>
      <trkpt lat="47.27829" lon="-2.37232">
        <ele>17</ele>
        <time>2021-12-12T11:12:09.000Z</time>
      </trkpt>
      <trkpt lat="47.27828" lon="-2.37224">
        <ele>17</ele>
        <time>2021-12-12T11:12:10.000Z</time>
      </trkpt>
      <trkpt lat="47.27821" lon="-2.37197">
        <ele>17</ele>
        <time>2021-12-12T11:12:14.000Z</time>
      </trkpt>
      <trkpt lat="47.27818" lon="-2.37182">
        <ele>17</ele>
        <time>2021-12-12T11:12:16.000Z</time>
      </trkpt>
      <trkpt lat="47.27815" lon="-2.37165">
        <ele>17</ele>
        <time>2021-12-12T11:12:18.000Z</time>
      </trkpt>
      <trkpt lat="47.27812" lon="-2.37158">
        <ele>17</ele>
        <time>2021-12-12T11:12:19.000Z</time>
      </trkpt>
      <trkpt lat="47.27798" lon="-2.37108">
        <ele>17</ele>
        <time>2021-12-12T11:12:25.000Z</time>
      </trkpt>
      <trkpt lat="47.27777" lon="-2.3703">
        <ele>17</ele>
        <time>2021-12-12T11:12:34.000Z</time>
      </trkpt>
      <trkpt lat="47.27757" lon="-2.36959">
        <ele>17</ele>
        <time>2021-12-12T11:12:42.000Z</time>
      </trkpt>
      <trkpt lat="47.27735" lon="-2.36884">
        <ele>17</ele>
        <time>2021-12-12T11:12:51.000Z</time>
      </trkpt>
      <trkpt lat="47.27713" lon="-2.36811">
        <ele>17</ele>
        <time>2021-12-12T11:13:00.000Z</time>
      </trkpt>
      <trkpt lat="47.27692" lon="-2.36746">
        <ele>17</ele>
        <time>2021-12-12T11:13:08.000Z</time>
      </trkpt>
      <trkpt lat="47.27666" lon="-2.36674">
        <ele>17</ele>
        <time>2021-12-12T11:13:17.000Z</time>
      </trkpt>
      <trkpt lat="47.27641" lon="-2.366">
        <ele>17</ele>
        <time>2021-12-12T11:13:26.000Z</time>
      </trkpt>
      <trkpt lat="47.27638" lon="-2.36591">
        <ele>17</ele>
        <time>2021-12-12T11:13:27.000Z</time>
      </trkpt>
      <trkpt lat="47.27613" lon="-2.36516">
        <ele>17</ele>
        <time>2021-12-12T11:13:36.000Z</time>
      </trkpt>
      <trkpt lat="47.2761" lon="-2.36508">
        <ele>17</ele>
        <time>2021-12-12T11:13:37.000Z</time>
      </trkpt>
      <trkpt lat="47.27589" lon="-2.36451">
        <ele>17</ele>
        <time>2021-12-12T11:13:44.000Z</time>
      </trkpt>
      <trkpt lat="47.27564" lon="-2.36386">
        <ele>17</ele>
        <time>2021-12-12T11:13:52.000Z</time>
      </trkpt>
      <trkpt lat="47.27536" lon="-2.36313">
        <ele>17</ele>
        <time>2021-12-12T11:14:01.000Z</time>
      </trkpt>
      <trkpt lat="47.2753" lon="-2.36297">
        <ele>17</ele>
        <time>2021-12-12T11:14:03.000Z</time>
      </trkpt>
      <trkpt lat="47.27508" lon="-2.36241">
        <ele>17</ele>
        <time>2021-12-12T11:14:10.000Z</time>
      </trkpt>
      <trkpt lat="47.27481" lon="-2.36168">
        <ele>17</ele>
        <time>2021-12-12T11:14:19.000Z</time>
      </trkpt>
      <trkpt lat="47.27478" lon="-2.3616">
        <ele>17</ele>
        <time>2021-12-12T11:14:20.000Z</time>
      </trkpt>
      <trkpt lat="47.27462" lon="-2.3611">
        <ele>17</ele>
        <time>2021-12-12T11:14:26.000Z</time>
      </trkpt>
      <trkpt lat="47.27459" lon="-2.36102">
        <ele>17</ele>
        <time>2021-12-12T11:14:27.000Z</time>
      </trkpt>
      <trkpt lat="47.27446" lon="-2.36071">
        <ele>17</ele>
        <time>2021-12-12T11:14:31.000Z</time>
      </trkpt>
      <trkpt lat="47.2742" lon="-2.3601">
        <ele>17</ele>
        <time>2021-12-12T11:14:39.000Z</time>
      </trkpt>
      <trkpt lat="47.27392" lon="-2.35938">
        <ele>17</ele>
        <time>2021-12-12T11:14:48.000Z</time>
      </trkpt>
      <trkpt lat="47.27368" lon="-2.35874">
        <ele>17</ele>
        <time>2021-12-12T11:14:56.000Z</time>
      </trkpt>
      <trkpt lat="47.27335" lon="-2.35799">
        <ele>17</ele>
        <time>2021-12-12T11:15:05.000Z</time>
      </trkpt>
      <trkpt lat="47.27317" lon="-2.35748">
        <ele>17</ele>
        <time>2021-12-12T11:15:11.000Z</time>
      </trkpt>
      <trkpt lat="47.27295" lon="-2.357">
        <ele>17</ele>
        <time>2021-12-12T11:15:17.000Z</time>
      </trkpt>
      <trkpt lat="47.27264" lon="-2.35631">
        <ele>17</ele>
        <time>2021-12-12T11:15:26.000Z</time>
      </trkpt>
      <trkpt lat="47.27234" lon="-2.35566">
        <ele>17</ele>
        <time>2021-12-12T11:15:35.000Z</time>
      </trkpt>
      <trkpt lat="47.27231" lon="-2.35559">
        <ele>17</ele>
        <time>2021-12-12T11:15:36.000Z</time>
      </trkpt>
      <trkpt lat="47.27226" lon="-2.35546">
        <ele>17</ele>
        <time>2021-12-12T11:15:38.000Z</time>
      </trkpt>
      <trkpt lat="47.27221" lon="-2.35535">
        <ele>17</ele>
        <time>2021-12-12T11:15:41.000Z</time>
      </trkpt>
      <trkpt lat="47.27204" lon="-2.35498">
        <ele>17</ele>
        <time>2021-12-12T11:15:48.000Z</time>
      </trkpt>
      <trkpt lat="47.27179" lon="-2.35449">
        <ele>17</ele>
        <time>2021-12-12T11:15:56.000Z</time>
      </trkpt>
      <trkpt lat="47.27152" lon="-2.35396">
        <ele>17</ele>
        <time>2021-12-12T11:16:04.000Z</time>
      </trkpt>
      <trkpt lat="47.27115" lon="-2.35333">
        <ele>17</ele>
        <time>2021-12-12T11:16:14.000Z</time>
      </trkpt>
      <trkpt lat="47.27085" lon="-2.35288">
        <ele>17</ele>
        <time>2021-12-12T11:16:21.000Z</time>
      </trkpt>
      <trkpt lat="47.27049" lon="-2.35229">
        <ele>17</ele>
        <time>2021-12-12T11:16:30.000Z</time>
      </trkpt>
      <trkpt lat="47.27041" lon="-2.35216">
        <ele>17</ele>
        <time>2021-12-12T11:16:32.000Z</time>
      </trkpt>
      <trkpt lat="47.27002" lon="-2.35154">
        <ele>17</ele>
        <time>2021-12-12T11:16:41.000Z</time>
      </trkpt>
      <trkpt lat="47.26976" lon="-2.35113">
        <ele>17</ele>
        <time>2021-12-12T11:16:47.000Z</time>
      </trkpt>
      <trkpt lat="47.26941" lon="-2.35062">
        <ele>17</ele>
        <time>2021-12-12T11:16:55.000Z</time>
      </trkpt>
      <trkpt lat="47.26903" lon="-2.35005">
        <ele>17</ele>
        <time>2021-12-12T11:17:04.000Z</time>
      </trkpt>
      <trkpt lat="47.26869" lon="-2.34955">
        <ele>17</ele>
        <time>2021-12-12T11:17:12.000Z</time>
      </trkpt>
      <trkpt lat="47.2683" lon="-2.34897">
        <ele>17</ele>
        <time>2021-12-12T11:17:21.000Z</time>
      </trkpt>
      <trkpt lat="47.26793" lon="-2.34841">
        <ele>17</ele>
        <time>2021-12-12T11:17:30.000Z</time>
      </trkpt>
      <trkpt lat="47.26764" lon="-2.34802">
        <ele>17</ele>
        <time>2021-12-12T11:17:37.000Z</time>
      </trkpt>
      <trkpt lat="47.26756" lon="-2.34792">
        <ele>17</ele>
        <time>2021-12-12T11:17:40.000Z</time>
      </trkpt>
      <trkpt lat="47.26753" lon="-2.34787">
        <ele>17</ele>
        <time>2021-12-12T11:17:41.000Z</time>
      </trkpt>
      <trkpt lat="47.26746" lon="-2.34777">
        <ele>17</ele>
        <time>2021-12-12T11:17:43.000Z</time>
      </trkpt>
      <trkpt lat="47.26733" lon="-2.34763">
        <ele>17</ele>
        <time>2021-12-12T11:17:46.000Z</time>
      </trkpt>
      <trkpt lat="47.26699" lon="-2.3472">
        <ele>17</ele>
        <time>2021-12-12T11:17:54.000Z</time>
      </trkpt>
      <trkpt lat="47.26663" lon="-2.34675">
        <ele>17</ele>
        <time>2021-12-12T11:18:02.000Z</time>
      </trkpt>
      <trkpt lat="47.26634" lon="-2.34641">
        <ele>17</ele>
        <time>2021-12-12T11:18:08.000Z</time>
      </trkpt>
      <trkpt lat="47.26604" lon="-2.34606">
        <ele>17</ele>
        <time>2021-12-12T11:18:14.000Z</time>
      </trkpt>
      <trkpt lat="47.26565" lon="-2.34561">
        <ele>17</ele>
        <time>2021-12-12T11:18:22.000Z</time>
      </trkpt>
      <trkpt lat="47.26523" lon="-2.34521">
        <ele>17</ele>
        <time>2021-12-12T11:18:30.000Z</time>
      </trkpt>
      <trkpt lat="47.26478" lon="-2.3449">
        <ele>17</ele>
        <time>2021-12-12T11:18:38.000Z</time>
      </trkpt>
      <trkpt lat="47.26431" lon="-2.34457">
        <ele>17</ele>
        <time>2021-12-12T11:18:46.000Z</time>
      </trkpt>
      <trkpt lat="47.26382" lon="-2.34418">
        <ele>17</ele>
        <time>2021-12-12T11:18:55.000Z</time>
      </trkpt>
      <trkpt lat="47.26376" lon="-2.34413">
        <ele>17</ele>
        <time>2021-12-12T11:18:56.000Z</time>
      </trkpt>
      <trkpt lat="47.26339" lon="-2.34381">
        <ele>17</ele>
        <time>2021-12-12T11:19:03.000Z</time>
      </trkpt>
      <trkpt lat="47.26322" lon="-2.34373">
        <ele>17</ele>
        <time>2021-12-12T11:19:06.000Z</time>
      </trkpt>
      <trkpt lat="47.26311" lon="-2.34353">
        <ele>17</ele>
        <time>2021-12-12T11:19:09.000Z</time>
      </trkpt>
      <trkpt lat="47.26296" lon="-2.34337">
        <ele>17</ele>
        <time>2021-12-12T11:19:12.000Z</time>
      </trkpt>
      <trkpt lat="47.26291" lon="-2.34332">
        <ele>17</ele>
        <time>2021-12-12T11:19:13.000Z</time>
      </trkpt>
      <trkpt lat="47.26251" lon="-2.34289">
        <ele>17</ele>
        <time>2021-12-12T11:19:21.000Z</time>
      </trkpt>
      <trkpt lat="47.2621" lon="-2.34246">
        <ele>17</ele>
        <time>2021-12-12T11:19:29.000Z</time>
      </trkpt>
      <trkpt lat="47.26167" lon="-2.34201">
        <ele>17</ele>
        <time>2021-12-12T11:19:37.000Z</time>
      </trkpt>
      <trkpt lat="47.26151" lon="-2.34186">
        <ele>17</ele>
        <time>2021-12-12T11:19:40.000Z</time>
      </trkpt>
      <trkpt lat="47.26132" lon="-2.34176">
        <ele>17</ele>
        <time>2021-12-12T11:19:43.000Z</time>
      </trkpt>
      <trkpt lat="47.26117" lon="-2.34162">
        <ele>17</ele>
        <time>2021-12-12T11:19:46.000Z</time>
      </trkpt>
      <trkpt lat="47.26111" lon="-2.34159">
        <ele>17</ele>
        <time>2021-12-12T11:19:47.000Z</time>
      </trkpt>
      <trkpt lat="47.26074" lon="-2.34138">
        <ele>17</ele>
        <time>2021-12-12T11:19:53.000Z</time>
      </trkpt>
      <trkpt lat="47.26024" lon="-2.34114">
        <ele>17</ele>
        <time>2021-12-12T11:20:01.000Z</time>
      </trkpt>
      <trkpt lat="47.26012" lon="-2.34109">
        <ele>16.60000038147</ele>
        <time>2021-12-12T11:20:03.000Z</time>
      </trkpt>
      <trkpt lat="47.26006" lon="-2.34106">
        <ele>16.200000762939</ele>
        <time>2021-12-12T11:20:04.000Z</time>
      </trkpt>
      <trkpt lat="47.26" lon="-2.34103">
        <ele>15.800000190735</ele>
        <time>2021-12-12T11:20:05.000Z</time>
      </trkpt>
      <trkpt lat="47.25994" lon="-2.341">
        <ele>15.39999961853</ele>
        <time>2021-12-12T11:20:06.000Z</time>
      </trkpt>
      <trkpt lat="47.25989" lon="-2.34097">
        <ele>15</ele>
        <time>2021-12-12T11:20:07.000Z</time>
      </trkpt>
      <trkpt lat="47.25977" lon="-2.34092">
        <ele>15</ele>
        <time>2021-12-12T11:20:09.000Z</time>
      </trkpt>
      <trkpt lat="47.25931" lon="-2.34073">
        <ele>15</ele>
        <time>2021-12-12T11:20:17.000Z</time>
      </trkpt>
      <trkpt lat="47.25925" lon="-2.34072">
        <ele>15</ele>
        <time>2021-12-12T11:20:18.000Z</time>
      </trkpt>
      <trkpt lat="47.25907" lon="-2.3407">
        <ele>15</ele>
        <time>2021-12-12T11:20:21.000Z</time>
      </trkpt>
      <trkpt lat="47.25896" lon="-2.34051">
        <ele>15</ele>
        <time>2021-12-12T11:20:24.000Z</time>
      </trkpt>
      <trkpt lat="47.25899" lon="-2.34027">
        <ele>15</ele>
        <time>2021-12-12T11:20:27.000Z</time>
      </trkpt>
      <trkpt lat="47.25905" lon="-2.34013">
        <ele>15</ele>
        <time>2021-12-12T11:20:29.000Z</time>
      </trkpt>
      <trkpt lat="47.25912" lon="-2.33987">
        <ele>15</ele>
        <time>2021-12-12T11:20:32.000Z</time>
      </trkpt>
      <trkpt lat="47.25931" lon="-2.33937">
        <ele>15</ele>
        <time>2021-12-12T11:20:39.000Z</time>
      </trkpt>
      <trkpt lat="47.25934" lon="-2.33924">
        <ele>14.199999809265</ele>
        <time>2021-12-12T11:20:42.000Z</time>
      </trkpt>
      <trkpt lat="47.25931" lon="-2.33918">
        <ele>13.800000190735</ele>
        <time>2021-12-12T11:20:43.000Z</time>
      </trkpt>
      <trkpt lat="47.25928" lon="-2.33913">
        <ele>13.39999961853</ele>
        <time>2021-12-12T11:20:44.000Z</time>
      </trkpt>
      <trkpt lat="47.25924" lon="-2.33907">
        <ele>13</ele>
        <time>2021-12-12T11:20:45.000Z</time>
      </trkpt>
      <trkpt lat="47.2592" lon="-2.33902">
        <ele>13</ele>
        <time>2021-12-12T11:20:46.000Z</time>
      </trkpt>
      <trkpt lat="47.25915" lon="-2.33898">
        <ele>13</ele>
        <time>2021-12-12T11:20:47.000Z</time>
      </trkpt>
      <trkpt lat="47.25877" lon="-2.33876">
        <ele>13</ele>
        <time>2021-12-12T11:20:54.000Z</time>
      </trkpt>
      <trkpt lat="47.25834" lon="-2.33857">
        <ele>13</ele>
        <time>2021-12-12T11:21:01.000Z</time>
      </trkpt>
      <trkpt lat="47.25791" lon="-2.33836">
        <ele>13</ele>
        <time>2021-12-12T11:21:08.000Z</time>
      </trkpt>
      <trkpt lat="47.25748" lon="-2.33816">
        <ele>13.39999961853</ele>
        <time>2021-12-12T11:21:15.000Z</time>
      </trkpt>
      <trkpt lat="47.25741" lon="-2.33814">
        <ele>13.800000190735</ele>
        <time>2021-12-12T11:21:16.000Z</time>
      </trkpt>
      <trkpt lat="47.25736" lon="-2.33811">
        <ele>14.199999809265</ele>
        <time>2021-12-12T11:21:17.000Z</time>
      </trkpt>
      <trkpt lat="47.2573" lon="-2.33809">
        <ele>14.60000038147</ele>
        <time>2021-12-12T11:21:18.000Z</time>
      </trkpt>
      <trkpt lat="47.25724" lon="-2.33807">
        <ele>15</ele>
        <time>2021-12-12T11:21:19.000Z</time>
      </trkpt>
      <trkpt lat="47.25682" lon="-2.33789">
        <ele>15</ele>
        <time>2021-12-12T11:21:26.000Z</time>
      </trkpt>
      <trkpt lat="47.25642" lon="-2.33774">
        <ele>15</ele>
        <time>2021-12-12T11:21:33.000Z</time>
      </trkpt>
      <trkpt lat="47.25621" lon="-2.33765">
        <ele>15.60000038147</ele>
        <time>2021-12-12T11:21:37.000Z</time>
      </trkpt>
      <trkpt lat="47.25615" lon="-2.33763">
        <ele>16</ele>
        <time>2021-12-12T11:21:38.000Z</time>
      </trkpt>
      <trkpt lat="47.2561" lon="-2.33762">
        <ele>16.39999961853</ele>
        <time>2021-12-12T11:21:39.000Z</time>
      </trkpt>
      <trkpt lat="47.25605" lon="-2.3376">
        <ele>16.799999237061</ele>
        <time>2021-12-12T11:21:40.000Z</time>
      </trkpt>
      <trkpt lat="47.256" lon="-2.33759">
        <ele>17.200000762939</ele>
        <time>2021-12-12T11:21:41.000Z</time>
      </trkpt>
      <trkpt lat="47.25577" lon="-2.33757">
        <ele>17.200000762939</ele>
        <time>2021-12-12T11:21:45.000Z</time>
      </trkpt>
      <trkpt lat="47.25535" lon="-2.33758">
        <ele>17.200000762939</ele>
        <time>2021-12-12T11:21:52.000Z</time>
      </trkpt>
      <trkpt lat="47.25485" lon="-2.33755">
        <ele>17.200000762939</ele>
        <time>2021-12-12T11:22:00.000Z</time>
      </trkpt>
      <trkpt lat="47.25473" lon="-2.33752">
        <ele>17.200000762939</ele>
        <time>2021-12-12T11:22:02.000Z</time>
      </trkpt>
      <trkpt lat="47.25457" lon="-2.33742">
        <ele>17.200000762939</ele>
        <time>2021-12-12T11:22:05.000Z</time>
      </trkpt>
      <trkpt lat="47.25451" lon="-2.33721">
        <ele>17.200000762939</ele>
        <time>2021-12-12T11:22:08.000Z</time>
      </trkpt>
      <trkpt lat="47.2545" lon="-2.33705">
        <ele>17.200000762939</ele>
        <time>2021-12-12T11:22:10.000Z</time>
      </trkpt>
      <trkpt lat="47.25448" lon="-2.3368">
        <ele>17.200000762939</ele>
        <time>2021-12-12T11:22:13.000Z</time>
      </trkpt>
      <trkpt lat="47.25447" lon="-2.33665">
        <ele>17.200000762939</ele>
        <time>2021-12-12T11:22:15.000Z</time>
      </trkpt>
      <trkpt lat="47.25444" lon="-2.3365">
        <ele>17.200000762939</ele>
        <time>2021-12-12T11:22:17.000Z</time>
      </trkpt>
      <trkpt lat="47.25443" lon="-2.33644">
        <ele>17.200000762939</ele>
        <time>2021-12-12T11:22:18.000Z</time>
      </trkpt>
      <trkpt lat="47.25442" lon="-2.3363">
        <ele>17.200000762939</ele>
        <time>2021-12-12T11:22:20.000Z</time>
      </trkpt>
      <trkpt lat="47.2544" lon="-2.33617">
        <ele>17.200000762939</ele>
        <time>2021-12-12T11:22:22.000Z</time>
      </trkpt>
      <trkpt lat="47.2544" lon="-2.33611">
        <ele>17.200000762939</ele>
        <time>2021-12-12T11:22:23.000Z</time>
      </trkpt>
      <trkpt lat="47.25441" lon="-2.33582">
        <ele>17.200000762939</ele>
        <time>2021-12-12T11:22:29.000Z</time>
      </trkpt>
      <trkpt lat="47.25451" lon="-2.33579">
        <ele>17.200000762939</ele>
        <time>2021-12-12T11:22:32.000Z</time>
      </trkpt>
      <trkpt lat="47.25455" lon="-2.33572">
        <ele>17.200000762939</ele>
        <time>2021-12-12T11:22:34.000Z</time>
      </trkpt>
      <trkpt lat="47.25455" lon="-2.33569">
        <ele>17.200000762939</ele>
        <time>2021-12-12T11:22:35.000Z</time>
      </trkpt>
      <trkpt lat="47.25451" lon="-2.33543">
        <ele>17.200000762939</ele>
        <time>2021-12-12T11:22:40.000Z</time>
      </trkpt>
      <trkpt lat="47.2545" lon="-2.33521">
        <ele>17.200000762939</ele>
        <time>2021-12-12T11:22:45.000Z</time>
      </trkpt>
      <trkpt lat="47.25445" lon="-2.33491">
        <ele>17.200000762939</ele>
        <time>2021-12-12T11:22:51.000Z</time>
      </trkpt>
      <trkpt lat="47.25432" lon="-2.33447">
        <ele>17.200000762939</ele>
        <time>2021-12-12T11:22:58.000Z</time>
      </trkpt>
      <trkpt lat="47.25431" lon="-2.33386">
        <ele>17.200000762939</ele>
        <time>2021-12-12T11:23:06.000Z</time>
      </trkpt>
      <trkpt lat="47.25432" lon="-2.33343">
        <ele>17.200000762939</ele>
        <time>2021-12-12T11:23:12.000Z</time>
      </trkpt>
      <trkpt lat="47.25434" lon="-2.33336">
        <ele>17.200000762939</ele>
        <time>2021-12-12T11:23:13.000Z</time>
      </trkpt>
      <trkpt lat="47.25442" lon="-2.33318">
        <ele>17.200000762939</ele>
        <time>2021-12-12T11:23:16.000Z</time>
      </trkpt>
      <trkpt lat="47.25447" lon="-2.33306">
        <ele>17.200000762939</ele>
        <time>2021-12-12T11:23:18.000Z</time>
      </trkpt>
      <trkpt lat="47.2545" lon="-2.33294">
        <ele>17.200000762939</ele>
        <time>2021-12-12T11:23:20.000Z</time>
      </trkpt>
      <trkpt lat="47.25448" lon="-2.33281">
        <ele>17.200000762939</ele>
        <time>2021-12-12T11:23:22.000Z</time>
      </trkpt>
      <trkpt lat="47.2544" lon="-2.33262">
        <ele>17.200000762939</ele>
        <time>2021-12-12T11:23:25.000Z</time>
      </trkpt>
      <trkpt lat="47.25438" lon="-2.33255">
        <ele>17.200000762939</ele>
        <time>2021-12-12T11:23:26.000Z</time>
      </trkpt>
      <trkpt lat="47.25417" lon="-2.33206">
        <ele>17.200000762939</ele>
        <time>2021-12-12T11:23:34.000Z</time>
      </trkpt>
      <trkpt lat="47.25401" lon="-2.33169">
        <ele>17.200000762939</ele>
        <time>2021-12-12T11:23:40.000Z</time>
      </trkpt>
      <trkpt lat="47.25385" lon="-2.33137">
        <ele>17.200000762939</ele>
        <time>2021-12-12T11:23:47.000Z</time>
      </trkpt>
      <trkpt lat="47.25372" lon="-2.33109">
        <ele>17.200000762939</ele>
        <time>2021-12-12T11:23:54.000Z</time>
      </trkpt>
      <trkpt lat="47.25365" lon="-2.33092">
        <ele>17.200000762939</ele>
        <time>2021-12-12T11:24:00.000Z</time>
      </trkpt>
      <trkpt lat="47.25364" lon="-2.33091">
        <ele>17.200000762939</ele>
        <time>2021-12-12T11:24:02.000Z</time>
      </trkpt>
      <trkpt lat="47.25366" lon="-2.33085">
        <ele>17.200000762939</ele>
        <time>2021-12-12T11:32:53.000Z</time>
      </trkpt>
      <trkpt lat="47.25365" lon="-2.33083">
        <ele>17.200000762939</ele>
        <time>2021-12-12T11:32:54.000Z</time>
      </trkpt>
      <trkpt lat="47.25363" lon="-2.33081">
        <ele>17.200000762939</ele>
        <time>2021-12-12T11:32:56.000Z</time>
      </trkpt>
      <trkpt lat="47.25359" lon="-2.33071">
        <ele>17.200000762939</ele>
        <time>2021-12-12T11:32:59.000Z</time>
      </trkpt>
      <trkpt lat="47.25358" lon="-2.33067">
        <ele>17.200000762939</ele>
        <time>2021-12-12T11:33:00.000Z</time>
      </trkpt>
      <trkpt lat="47.2535" lon="-2.33048">
        <ele>17.200000762939</ele>
        <time>2021-12-12T11:33:04.000Z</time>
      </trkpt>
      <trkpt lat="47.25336" lon="-2.33014">
        <ele>17.200000762939</ele>
        <time>2021-12-12T11:33:11.000Z</time>
      </trkpt>
      <trkpt lat="47.25325" lon="-2.32985">
        <ele>17.200000762939</ele>
        <time>2021-12-12T11:33:17.000Z</time>
      </trkpt>
      <trkpt lat="47.25312" lon="-2.32952">
        <ele>17.200000762939</ele>
        <time>2021-12-12T11:33:24.000Z</time>
      </trkpt>
      <trkpt lat="47.25306" lon="-2.32932">
        <ele>17.200000762939</ele>
        <time>2021-12-12T11:33:28.000Z</time>
      </trkpt>
      <trkpt lat="47.25308" lon="-2.32922">
        <ele>17.200000762939</ele>
        <time>2021-12-12T11:33:30.000Z</time>
      </trkpt>
      <trkpt lat="47.25316" lon="-2.3291">
        <ele>17.200000762939</ele>
        <time>2021-12-12T11:33:33.000Z</time>
      </trkpt>
      <trkpt lat="47.2532" lon="-2.32906">
        <ele>17.200000762939</ele>
        <time>2021-12-12T11:33:34.000Z</time>
      </trkpt>
      <trkpt lat="47.25327" lon="-2.32899">
        <ele>17.200000762939</ele>
        <time>2021-12-12T11:33:36.000Z</time>
      </trkpt>
      <trkpt lat="47.25346" lon="-2.32882">
        <ele>17.200000762939</ele>
        <time>2021-12-12T11:33:41.000Z</time>
      </trkpt>
      <trkpt lat="47.25375" lon="-2.32854">
        <ele>17.200000762939</ele>
        <time>2021-12-12T11:33:49.000Z</time>
      </trkpt>
      <trkpt lat="47.25402" lon="-2.32821">
        <ele>17.200000762939</ele>
        <time>2021-12-12T11:33:57.000Z</time>
      </trkpt>
      <trkpt lat="47.25421" lon="-2.32791">
        <ele>17.200000762939</ele>
        <time>2021-12-12T11:34:04.000Z</time>
      </trkpt>
      <trkpt lat="47.2543" lon="-2.32768">
        <ele>17.200000762939</ele>
        <time>2021-12-12T11:34:09.000Z</time>
      </trkpt>
      <trkpt lat="47.25442" lon="-2.32753">
        <ele>17.200000762939</ele>
        <time>2021-12-12T11:34:13.000Z</time>
      </trkpt>
      <trkpt lat="47.25471" lon="-2.32714">
        <ele>17.200000762939</ele>
        <time>2021-12-12T11:34:22.000Z</time>
      </trkpt>
      <trkpt lat="47.25481" lon="-2.32701">
        <ele>17.200000762939</ele>
        <time>2021-12-12T11:34:25.000Z</time>
      </trkpt>
      <trkpt lat="47.25484" lon="-2.32696">
        <ele>17.60000038147</ele>
        <time>2021-12-12T11:34:26.000Z</time>
      </trkpt>
      <trkpt lat="47.25486" lon="-2.3269">
        <ele>18</ele>
        <time>2021-12-12T11:34:27.000Z</time>
      </trkpt>
      <trkpt lat="47.25488" lon="-2.32684">
        <ele>18.39999961853</ele>
        <time>2021-12-12T11:34:28.000Z</time>
      </trkpt>
      <trkpt lat="47.25489" lon="-2.32678">
        <ele>18.799999237061</ele>
        <time>2021-12-12T11:34:29.000Z</time>
      </trkpt>
      <trkpt lat="47.25489" lon="-2.32672">
        <ele>19.200000762939</ele>
        <time>2021-12-12T11:34:30.000Z</time>
      </trkpt>
      <trkpt lat="47.25488" lon="-2.3266">
        <ele>19.200000762939</ele>
        <time>2021-12-12T11:34:32.000Z</time>
      </trkpt>
      <trkpt lat="47.25486" lon="-2.32647">
        <ele>19.200000762939</ele>
        <time>2021-12-12T11:34:34.000Z</time>
      </trkpt>
      <trkpt lat="47.25485" lon="-2.32641">
        <ele>19.200000762939</ele>
        <time>2021-12-12T11:34:35.000Z</time>
      </trkpt>
      <trkpt lat="47.25482" lon="-2.32628">
        <ele>19.200000762939</ele>
        <time>2021-12-12T11:34:37.000Z</time>
      </trkpt>
      <trkpt lat="47.25481" lon="-2.32622">
        <ele>19.200000762939</ele>
        <time>2021-12-12T11:34:38.000Z</time>
      </trkpt>
      <trkpt lat="47.25479" lon="-2.32595">
        <ele>19.200000762939</ele>
        <time>2021-12-12T11:34:42.000Z</time>
      </trkpt>
      <trkpt lat="47.25479" lon="-2.32577">
        <ele>19.200000762939</ele>
        <time>2021-12-12T11:34:45.000Z</time>
      </trkpt>
      <trkpt lat="47.25483" lon="-2.32562">
        <ele>19.200000762939</ele>
        <time>2021-12-12T11:34:48.000Z</time>
      </trkpt>
      <trkpt lat="47.25486" lon="-2.32557">
        <ele>19.200000762939</ele>
        <time>2021-12-12T11:34:49.000Z</time>
      </trkpt>
      <trkpt lat="47.25507" lon="-2.32537">
        <ele>19.200000762939</ele>
        <time>2021-12-12T11:34:54.000Z</time>
      </trkpt>
      <trkpt lat="47.25541" lon="-2.32504">
        <ele>19.200000762939</ele>
        <time>2021-12-12T11:35:01.000Z</time>
      </trkpt>
      <trkpt lat="47.25564" lon="-2.32483">
        <ele>19.200000762939</ele>
        <time>2021-12-12T11:35:05.000Z</time>
      </trkpt>
      <trkpt lat="47.2557" lon="-2.32479">
        <ele>18.799999237061</ele>
        <time>2021-12-12T11:35:06.000Z</time>
      </trkpt>
      <trkpt lat="47.25577" lon="-2.32473">
        <ele>18.39999961853</ele>
        <time>2021-12-12T11:35:07.000Z</time>
      </trkpt>
      <trkpt lat="47.25583" lon="-2.32468">
        <ele>17.799999237061</ele>
        <time>2021-12-12T11:35:08.000Z</time>
      </trkpt>
      <trkpt lat="47.2559" lon="-2.32462">
        <ele>17.39999961853</ele>
        <time>2021-12-12T11:35:09.000Z</time>
      </trkpt>
      <trkpt lat="47.25596" lon="-2.32455">
        <ele>17</ele>
        <time>2021-12-12T11:35:10.000Z</time>
      </trkpt>
      <trkpt lat="47.25601" lon="-2.32448">
        <ele>17</ele>
        <time>2021-12-12T11:35:11.000Z</time>
      </trkpt>
      <trkpt lat="47.25619" lon="-2.32426">
        <ele>16.60000038147</ele>
        <time>2021-12-12T11:35:14.000Z</time>
      </trkpt>
      <trkpt lat="47.25624" lon="-2.32419">
        <ele>16.200000762939</ele>
        <time>2021-12-12T11:35:15.000Z</time>
      </trkpt>
      <trkpt lat="47.25631" lon="-2.32413">
        <ele>15.800000190735</ele>
        <time>2021-12-12T11:35:16.000Z</time>
      </trkpt>
      <trkpt lat="47.25637" lon="-2.32407">
        <ele>15.199999809265</ele>
        <time>2021-12-12T11:35:17.000Z</time>
      </trkpt>
      <trkpt lat="47.25643" lon="-2.32404">
        <ele>14.800000190735</ele>
        <time>2021-12-12T11:35:18.000Z</time>
      </trkpt>
      <trkpt lat="47.25655" lon="-2.32402">
        <ele>14.800000190735</ele>
        <time>2021-12-12T11:35:20.000Z</time>
      </trkpt>
      <trkpt lat="47.25671" lon="-2.32411">
        <ele>14.800000190735</ele>
        <time>2021-12-12T11:35:23.000Z</time>
      </trkpt>
      <trkpt lat="47.25686" lon="-2.32419">
        <ele>14.39999961853</ele>
        <time>2021-12-12T11:35:26.000Z</time>
      </trkpt>
      <trkpt lat="47.25692" lon="-2.3242">
        <ele>14</ele>
        <time>2021-12-12T11:35:27.000Z</time>
      </trkpt>
      <trkpt lat="47.25698" lon="-2.3242">
        <ele>13.60000038147</ele>
        <time>2021-12-12T11:35:28.000Z</time>
      </trkpt>
      <trkpt lat="47.25705" lon="-2.32421">
        <ele>13.199999809265</ele>
        <time>2021-12-12T11:35:29.000Z</time>
      </trkpt>
      <trkpt lat="47.25711" lon="-2.32421">
        <ele>12.800000190735</ele>
        <time>2021-12-12T11:35:30.000Z</time>
      </trkpt>
      <trkpt lat="47.25742" lon="-2.32422">
        <ele>12.800000190735</ele>
        <time>2021-12-12T11:35:35.000Z</time>
      </trkpt>
      <trkpt lat="47.25763" lon="-2.32419">
        <ele>12.800000190735</ele>
        <time>2021-12-12T11:35:39.000Z</time>
      </trkpt>
      <trkpt lat="47.25767" lon="-2.32416">
        <ele>12.800000190735</ele>
        <time>2021-12-12T11:35:40.000Z</time>
      </trkpt>
      <trkpt lat="47.25779" lon="-2.32413">
        <ele>12.800000190735</ele>
        <time>2021-12-12T11:35:43.000Z</time>
      </trkpt>
      <trkpt lat="47.25783" lon="-2.32416">
        <ele>12.800000190735</ele>
        <time>2021-12-12T11:35:44.000Z</time>
      </trkpt>
      <trkpt lat="47.25792" lon="-2.32433">
        <ele>12.800000190735</ele>
        <time>2021-12-12T11:35:47.000Z</time>
      </trkpt>
      <trkpt lat="47.25795" lon="-2.3244">
        <ele>12.800000190735</ele>
        <time>2021-12-12T11:35:48.000Z</time>
      </trkpt>
      <trkpt lat="47.25815" lon="-2.32459">
        <ele>12.800000190735</ele>
        <time>2021-12-12T11:35:52.000Z</time>
      </trkpt>
      <trkpt lat="47.25822" lon="-2.32463">
        <ele>12.800000190735</ele>
        <time>2021-12-12T11:35:53.000Z</time>
      </trkpt>
      <trkpt lat="47.25834" lon="-2.32469">
        <ele>12.800000190735</ele>
        <time>2021-12-12T11:35:55.000Z</time>
      </trkpt>
      <trkpt lat="47.25846" lon="-2.32473">
        <ele>12.800000190735</ele>
        <time>2021-12-12T11:35:57.000Z</time>
      </trkpt>
      <trkpt lat="47.25876" lon="-2.32472">
        <ele>12.800000190735</ele>
        <time>2021-12-12T11:36:02.000Z</time>
      </trkpt>
      <trkpt lat="47.25888" lon="-2.32469">
        <ele>12.800000190735</ele>
        <time>2021-12-12T11:36:04.000Z</time>
      </trkpt>
      <trkpt lat="47.25899" lon="-2.32461">
        <ele>12.800000190735</ele>
        <time>2021-12-12T11:36:06.000Z</time>
      </trkpt>
      <trkpt lat="47.25914" lon="-2.32445">
        <ele>12.800000190735</ele>
        <time>2021-12-12T11:36:09.000Z</time>
      </trkpt>
      <trkpt lat="47.25929" lon="-2.32427">
        <ele>12.800000190735</ele>
        <time>2021-12-12T11:36:12.000Z</time>
      </trkpt>
      <trkpt lat="47.25969" lon="-2.32372">
        <ele>12.800000190735</ele>
        <time>2021-12-12T11:36:21.000Z</time>
      </trkpt>
      <trkpt lat="47.26006" lon="-2.32325">
        <ele>12.800000190735</ele>
        <time>2021-12-12T11:36:29.000Z</time>
      </trkpt>
      <trkpt lat="47.26042" lon="-2.32282">
        <ele>12.800000190735</ele>
        <time>2021-12-12T11:36:37.000Z</time>
      </trkpt>
      <trkpt lat="47.26078" lon="-2.3224">
        <ele>12.800000190735</ele>
        <time>2021-12-12T11:36:45.000Z</time>
      </trkpt>
      <trkpt lat="47.26102" lon="-2.32204">
        <ele>12.800000190735</ele>
        <time>2021-12-12T11:36:51.000Z</time>
      </trkpt>
      <trkpt lat="47.26106" lon="-2.32197">
        <ele>12.800000190735</ele>
        <time>2021-12-12T11:36:52.000Z</time>
      </trkpt>
      <trkpt lat="47.26124" lon="-2.32146">
        <ele>12.800000190735</ele>
        <time>2021-12-12T11:36:59.000Z</time>
      </trkpt>
      <trkpt lat="47.2614" lon="-2.32091">
        <ele>12.800000190735</ele>
        <time>2021-12-12T11:37:06.000Z</time>
      </trkpt>
      <trkpt lat="47.26156" lon="-2.32041">
        <ele>12.800000190735</ele>
        <time>2021-12-12T11:37:13.000Z</time>
      </trkpt>
      <trkpt lat="47.26158" lon="-2.32035">
        <ele>12.800000190735</ele>
        <time>2021-12-12T11:37:14.000Z</time>
      </trkpt>
      <trkpt lat="47.26167" lon="-2.32022">
        <ele>12.800000190735</ele>
        <time>2021-12-12T11:37:17.000Z</time>
      </trkpt>
      <trkpt lat="47.26182" lon="-2.32021">
        <ele>12.800000190735</ele>
        <time>2021-12-12T11:37:21.000Z</time>
      </trkpt>
      <trkpt lat="47.26187" lon="-2.32023">
        <ele>12.800000190735</ele>
        <time>2021-12-12T11:37:23.000Z</time>
      </trkpt>
      <trkpt lat="47.26193" lon="-2.32022">
        <ele>12.800000190735</ele>
        <time>2021-12-12T11:37:26.000Z</time>
      </trkpt>
      <trkpt lat="47.26195" lon="-2.32021">
        <ele>12.800000190735</ele>
        <time>2021-12-12T11:37:27.000Z</time>
      </trkpt>
      <trkpt lat="47.26196" lon="-2.32018">
        <ele>12.39999961853</ele>
        <time>2021-12-12T11:37:28.000Z</time>
      </trkpt>
      <trkpt lat="47.26197" lon="-2.32014">
        <ele>12</ele>
        <time>2021-12-12T11:37:29.000Z</time>
      </trkpt>
      <trkpt lat="47.26197" lon="-2.32011">
        <ele>11.60000038147</ele>
        <time>2021-12-12T11:37:30.000Z</time>
      </trkpt>
      <trkpt lat="47.26197" lon="-2.32007">
        <ele>11.199999809265</ele>
        <time>2021-12-12T11:37:31.000Z</time>
      </trkpt>
      <trkpt lat="47.26199" lon="-2.32005">
        <ele>10.800000190735</ele>
        <time>2021-12-12T11:37:32.000Z</time>
      </trkpt>
      <trkpt lat="47.26202" lon="-2.32002">
        <ele>10.800000190735</ele>
        <time>2021-12-12T11:37:34.000Z</time>
      </trkpt>
      <trkpt lat="47.26215" lon="-2.3199">
        <ele>10.800000190735</ele>
        <time>2021-12-12T11:37:39.000Z</time>
      </trkpt>
      <trkpt lat="47.26231" lon="-2.31971">
        <ele>10.800000190735</ele>
        <time>2021-12-12T11:37:44.000Z</time>
      </trkpt>
      <trkpt lat="47.26247" lon="-2.31956">
        <ele>10.800000190735</ele>
        <time>2021-12-12T11:37:49.000Z</time>
      </trkpt>
      <trkpt lat="47.26258" lon="-2.3194">
        <ele>10.800000190735</ele>
        <time>2021-12-12T11:37:54.000Z</time>
      </trkpt>
      <trkpt lat="47.26275" lon="-2.31912">
        <ele>10.800000190735</ele>
        <time>2021-12-12T11:38:01.000Z</time>
      </trkpt>
      <trkpt lat="47.2629" lon="-2.31897">
        <ele>10.800000190735</ele>
        <time>2021-12-12T11:38:06.000Z</time>
      </trkpt>
      <trkpt lat="47.26296" lon="-2.31879">
        <ele>10.800000190735</ele>
        <time>2021-12-12T11:38:10.000Z</time>
      </trkpt>
      <trkpt lat="47.263" lon="-2.31848">
        <ele>10.800000190735</ele>
        <time>2021-12-12T11:38:16.000Z</time>
      </trkpt>
      <trkpt lat="47.26303" lon="-2.31823">
        <ele>10.800000190735</ele>
        <time>2021-12-12T11:38:21.000Z</time>
      </trkpt>
      <trkpt lat="47.26305" lon="-2.31787">
        <ele>10.800000190735</ele>
        <time>2021-12-12T11:38:27.000Z</time>
      </trkpt>
      <trkpt lat="47.26302" lon="-2.31742">
        <ele>10.800000190735</ele>
        <time>2021-12-12T11:38:34.000Z</time>
      </trkpt>
      <trkpt lat="47.26302" lon="-2.31723">
        <ele>10.800000190735</ele>
        <time>2021-12-12T11:38:37.000Z</time>
      </trkpt>
      <trkpt lat="47.26304" lon="-2.31718">
        <ele>10.800000190735</ele>
        <time>2021-12-12T11:38:38.000Z</time>
      </trkpt>
      <trkpt lat="47.26312" lon="-2.3171">
        <ele>10.800000190735</ele>
        <time>2021-12-12T11:38:41.000Z</time>
      </trkpt>
      <trkpt lat="47.26319" lon="-2.31707">
        <ele>11.199999809265</ele>
        <time>2021-12-12T11:38:43.000Z</time>
      </trkpt>
      <trkpt lat="47.26323" lon="-2.31705">
        <ele>11.60000038147</ele>
        <time>2021-12-12T11:38:44.000Z</time>
      </trkpt>
      <trkpt lat="47.26327" lon="-2.31703">
        <ele>12</ele>
        <time>2021-12-12T11:38:45.000Z</time>
      </trkpt>
      <trkpt lat="47.26331" lon="-2.317">
        <ele>12.60000038147</ele>
        <time>2021-12-12T11:38:46.000Z</time>
      </trkpt>
      <trkpt lat="47.26332" lon="-2.31697">
        <ele>13</ele>
        <time>2021-12-12T11:38:47.000Z</time>
      </trkpt>
      <trkpt lat="47.26336" lon="-2.31689">
        <ele>13</ele>
        <time>2021-12-12T11:38:49.000Z</time>
      </trkpt>
      <trkpt lat="47.2634" lon="-2.31686">
        <ele>13</ele>
        <time>2021-12-12T11:38:51.000Z</time>
      </trkpt>
      <trkpt lat="47.26345" lon="-2.31684">
        <ele>13.39999961853</ele>
        <time>2021-12-12T11:38:53.000Z</time>
      </trkpt>
      <trkpt lat="47.26347" lon="-2.31683">
        <ele>13.800000190735</ele>
        <time>2021-12-12T11:38:54.000Z</time>
      </trkpt>
      <trkpt lat="47.2635" lon="-2.31681">
        <ele>14.199999809265</ele>
        <time>2021-12-12T11:38:55.000Z</time>
      </trkpt>
      <trkpt lat="47.26353" lon="-2.31679">
        <ele>14.60000038147</ele>
        <time>2021-12-12T11:38:56.000Z</time>
      </trkpt>
      <trkpt lat="47.26356" lon="-2.31678">
        <ele>15</ele>
        <time>2021-12-12T11:38:57.000Z</time>
      </trkpt>
      <trkpt lat="47.26376" lon="-2.3167">
        <ele>15</ele>
        <time>2021-12-12T11:39:04.000Z</time>
      </trkpt>
      <trkpt lat="47.26393" lon="-2.31659">
        <ele>15</ele>
        <time>2021-12-12T11:39:10.000Z</time>
      </trkpt>
      <trkpt lat="47.26405" lon="-2.31655">
        <ele>15</ele>
        <time>2021-12-12T11:39:14.000Z</time>
      </trkpt>
      <trkpt lat="47.26412" lon="-2.31648">
        <ele>15</ele>
        <time>2021-12-12T11:39:16.000Z</time>
      </trkpt>
      <trkpt lat="47.26412" lon="-2.31639">
        <ele>15</ele>
        <time>2021-12-12T11:39:18.000Z</time>
      </trkpt>
      <trkpt lat="47.26412" lon="-2.3163">
        <ele>15.39999961853</ele>
        <time>2021-12-12T11:39:20.000Z</time>
      </trkpt>
      <trkpt lat="47.26412" lon="-2.31625">
        <ele>15.800000190735</ele>
        <time>2021-12-12T11:39:21.000Z</time>
      </trkpt>
      <trkpt lat="47.26411" lon="-2.31621">
        <ele>16.39999961853</ele>
        <time>2021-12-12T11:39:22.000Z</time>
      </trkpt>
      <trkpt lat="47.26412" lon="-2.31616">
        <ele>16.799999237061</ele>
        <time>2021-12-12T11:39:23.000Z</time>
      </trkpt>
      <trkpt lat="47.26412" lon="-2.31611">
        <ele>17.200000762939</ele>
        <time>2021-12-12T11:39:24.000Z</time>
      </trkpt>
      <trkpt lat="47.26412" lon="-2.31576">
        <ele>17.200000762939</ele>
        <time>2021-12-12T11:39:31.000Z</time>
      </trkpt>
      <trkpt lat="47.26413" lon="-2.31553">
        <ele>17.200000762939</ele>
        <time>2021-12-12T11:39:37.000Z</time>
      </trkpt>
      <trkpt lat="47.26415" lon="-2.31552">
        <ele>17.200000762939</ele>
        <time>2021-12-12T11:39:38.000Z</time>
      </trkpt>
      <trkpt lat="47.26418" lon="-2.31552">
        <ele>17.200000762939</ele>
        <time>2021-12-12T11:39:40.000Z</time>
      </trkpt>
      <trkpt lat="47.26419" lon="-2.31553">
        <ele>17.200000762939</ele>
        <time>2021-12-12T11:39:43.000Z</time>
      </trkpt>
    </trkseg>
  </trk>
</gpx>